<?xml version="1.0" encoding="UTF-8" standalone="no" ?>
<gpx xmlns="http://www.topografix.com/GPX/1/1" xmlns:xsi="http://www.w3.org/2001/XMLSchema-instance" xsi:schemaLocation="http://www.topografix.com/GPX/1/1 http://www.topografix.com/GPX/1/1/gpx.xsd" version="1.1" creator="VisuGPX - https://www.visugpx.com">
  <metadata>
    <name>mega parcours rouge</name>
  </metadata>
  <trk>
    <name><![CDATA[mega parcours rouge_1]]></name>
    <trkseg>
      <trkpt lat="47.62849" lon="6.54607">
        <ele>309</ele>
        <time>2020-12-10T18:39:43+01:00</time>
      </trkpt>
      <trkpt lat="47.62849" lon="6.54607">
        <ele>309</ele>
        <time>2020-12-10T18:39:43+01:00</time>
      </trkpt>
      <trkpt lat="47.62849" lon="6.54607">
        <ele>309</ele>
        <time>2020-12-10T18:39:43+01:00</time>
      </trkpt>
      <trkpt lat="47.62852" lon="6.54745">
        <ele>311</ele>
        <time>2020-12-10T18:39:43+01:00</time>
      </trkpt>
      <trkpt lat="47.62881" lon="6.54929">
        <ele>312</ele>
        <time>2020-12-10T18:39:43+01:00</time>
      </trkpt>
      <trkpt lat="47.6287" lon="6.55062">
        <ele>311</ele>
        <time>2020-12-10T18:39:43+01:00</time>
      </trkpt>
      <trkpt lat="47.62896" lon="6.55071">
        <ele>310</ele>
        <time>2020-12-10T18:39:43+01:00</time>
      </trkpt>
      <trkpt lat="47.6298" lon="6.55247">
        <ele>298</ele>
        <time>2020-12-10T18:39:43+01:00</time>
      </trkpt>
      <trkpt lat="47.62936" lon="6.55371">
        <ele>292</ele>
        <time>2020-12-10T18:39:43+01:00</time>
      </trkpt>
      <trkpt lat="47.62988" lon="6.55517">
        <ele>295</ele>
        <time>2020-12-10T18:39:43+01:00</time>
      </trkpt>
      <trkpt lat="47.63049" lon="6.55573">
        <ele>297</ele>
        <time>2020-12-10T18:39:43+01:00</time>
      </trkpt>
      <trkpt lat="47.63052" lon="6.55612">
        <ele>297</ele>
        <time>2020-12-10T18:39:43+01:00</time>
      </trkpt>
      <trkpt lat="47.6311" lon="6.55727">
        <ele>303</ele>
        <time>2020-12-10T18:39:44+01:00</time>
      </trkpt>
      <trkpt lat="47.63182" lon="6.56062">
        <ele>308</ele>
        <time>2020-12-10T18:39:44+01:00</time>
      </trkpt>
      <trkpt lat="47.63194" lon="6.56221">
        <ele>299</ele>
        <time>2020-12-10T18:39:44+01:00</time>
      </trkpt>
      <trkpt lat="47.63257" lon="6.56255">
        <ele>297</ele>
        <time>2020-12-10T18:39:44+01:00</time>
      </trkpt>
      <trkpt lat="47.63373" lon="6.56251">
        <ele>311</ele>
        <time>2020-12-10T18:39:45+01:00</time>
      </trkpt>
      <trkpt lat="47.63463" lon="6.56427">
        <ele>297</ele>
        <time>2020-12-10T18:39:45+01:00</time>
      </trkpt>
      <trkpt lat="47.63538" lon="6.56457">
        <ele>299</ele>
        <time>2020-12-10T18:39:45+01:00</time>
      </trkpt>
      <trkpt lat="47.63471" lon="6.56543">
        <ele>297</ele>
        <time>2020-12-10T18:39:46+01:00</time>
      </trkpt>
      <trkpt lat="47.63538" lon="6.56642">
        <ele>307</ele>
        <time>2020-12-10T18:39:46+01:00</time>
      </trkpt>
      <trkpt lat="47.63665" lon="6.56599">
        <ele>323</ele>
        <time>2020-12-10T18:39:46+01:00</time>
      </trkpt>
      <trkpt lat="47.63795" lon="6.5644">
        <ele>321</ele>
        <time>2020-12-10T18:39:47+01:00</time>
      </trkpt>
      <trkpt lat="47.63986" lon="6.56466">
        <ele>311</ele>
        <time>2020-12-10T18:39:47+01:00</time>
      </trkpt>
      <trkpt lat="47.64119" lon="6.56345">
        <ele>303</ele>
        <time>2020-12-10T18:39:48+01:00</time>
      </trkpt>
      <trkpt lat="47.6455" lon="6.5771">
        <ele>306</ele>
        <time>2020-12-10T18:39:48+01:00</time>
      </trkpt>
      <trkpt lat="47.64599" lon="6.57753">
        <ele>306</ele>
        <time>2020-12-10T18:39:49+01:00</time>
      </trkpt>
      <trkpt lat="47.64504" lon="6.57792">
        <ele>301</ele>
        <time>2020-12-10T18:39:50+01:00</time>
      </trkpt>
      <trkpt lat="47.64452" lon="6.5777">
        <ele>300</ele>
        <time>2020-12-10T18:39:51+01:00</time>
      </trkpt>
      <trkpt lat="47.64301" lon="6.57959">
        <ele>307</ele>
        <time>2020-12-10T18:39:51+01:00</time>
      </trkpt>
      <trkpt lat="47.64293" lon="6.58015">
        <ele>312</ele>
        <time>2020-12-10T18:39:52+01:00</time>
      </trkpt>
      <trkpt lat="47.64113" lon="6.58272">
        <ele>327</ele>
        <time>2020-12-10T18:39:53+01:00</time>
      </trkpt>
      <trkpt lat="47.64113" lon="6.59071">
        <ele>339</ele>
        <time>2020-12-10T18:39:54+01:00</time>
      </trkpt>
      <trkpt lat="47.64041" lon="6.59062">
        <ele>337</ele>
        <time>2020-12-10T18:39:55+01:00</time>
      </trkpt>
      <trkpt lat="47.63836" lon="6.60139">
        <ele>347</ele>
        <time>2020-12-10T18:39:56+01:00</time>
      </trkpt>
      <trkpt lat="47.63766" lon="6.61199">
        <ele>353</ele>
        <time>2020-12-10T18:39:57+01:00</time>
      </trkpt>
      <trkpt lat="47.63769" lon="6.61448">
        <ele>359</ele>
        <time>2020-12-10T18:39:59+01:00</time>
      </trkpt>
      <trkpt lat="47.63778" lon="6.61469">
        <ele>360</ele>
        <time>2020-12-10T18:40:00+01:00</time>
      </trkpt>
      <trkpt lat="47.63642" lon="6.61714">
        <ele>351</ele>
        <time>2020-12-10T18:40:01+01:00</time>
      </trkpt>
      <trkpt lat="47.63581" lon="6.6165">
        <ele>344</ele>
        <time>2020-12-10T18:40:02+01:00</time>
      </trkpt>
      <trkpt lat="47.63575" lon="6.61744">
        <ele>338</ele>
        <time>2020-12-10T18:40:04+01:00</time>
      </trkpt>
      <trkpt lat="47.63552" lon="6.61723">
        <ele>337</ele>
        <time>2020-12-10T18:40:05+01:00</time>
      </trkpt>
      <trkpt lat="47.63535" lon="6.61607">
        <ele>330</ele>
        <time>2020-12-10T18:40:07+01:00</time>
      </trkpt>
      <trkpt lat="47.63497" lon="6.61564">
        <ele>320</ele>
        <time>2020-12-10T18:40:08+01:00</time>
      </trkpt>
      <trkpt lat="47.63468" lon="6.61637">
        <ele>320</ele>
        <time>2020-12-10T18:40:09+01:00</time>
      </trkpt>
      <trkpt lat="47.63442" lon="6.61637">
        <ele>322</ele>
        <time>2020-12-10T18:40:11+01:00</time>
      </trkpt>
      <trkpt lat="47.63382" lon="6.61422">
        <ele>321</ele>
        <time>2020-12-10T18:40:12+01:00</time>
      </trkpt>
      <trkpt lat="47.63225" lon="6.61594">
        <ele>359</ele>
        <time>2020-12-10T18:40:14+01:00</time>
      </trkpt>
    </trkseg>
  </trk>
  <trk>
    <name><![CDATA[mega parcours rouge_2]]></name>
    <trkseg>
      <trkpt lat="47.589" lon="6.62371">
        <ele>430</ele>
        <time>2020-12-10T18:42:17+01:00</time>
      </trkpt>
      <trkpt lat="47.589" lon="6.62371">
        <ele>430</ele>
        <time>2020-12-10T18:42:17+01:00</time>
      </trkpt>
      <trkpt lat="47.58923" lon="6.62268">
        <ele>437</ele>
        <time>2020-12-10T18:42:20+01:00</time>
      </trkpt>
      <trkpt lat="47.58871" lon="6.62186">
        <ele>439</ele>
        <time>2020-12-10T18:42:23+01:00</time>
      </trkpt>
      <trkpt lat="47.58865" lon="6.62118">
        <ele>443</ele>
        <time>2020-12-10T18:42:26+01:00</time>
      </trkpt>
      <trkpt lat="47.58796" lon="6.6207">
        <ele>444</ele>
        <time>2020-12-10T18:42:29+01:00</time>
      </trkpt>
      <trkpt lat="47.5879" lon="6.61899">
        <ele>460</ele>
        <time>2020-12-10T18:42:32+01:00</time>
      </trkpt>
      <trkpt lat="47.58767" lon="6.61658">
        <ele>452</ele>
        <time>2020-12-10T18:42:35+01:00</time>
      </trkpt>
      <trkpt lat="47.58666" lon="6.61401">
        <ele>437</ele>
        <time>2020-12-10T18:42:38+01:00</time>
      </trkpt>
      <trkpt lat="47.58486" lon="6.61092">
        <ele>427</ele>
        <time>2020-12-10T18:42:42+01:00</time>
      </trkpt>
      <trkpt lat="47.58415" lon="6.60753">
        <ele>426</ele>
        <time>2020-12-10T18:42:45+01:00</time>
      </trkpt>
      <trkpt lat="47.58554" lon="6.60714">
        <ele>426</ele>
        <time>2020-12-10T18:42:48+01:00</time>
      </trkpt>
      <trkpt lat="47.58609" lon="6.60667">
        <ele>418</ele>
        <time>2020-12-10T18:42:52+01:00</time>
      </trkpt>
      <trkpt lat="47.58728" lon="6.60646">
        <ele>405</ele>
        <time>2020-12-10T18:42:55+01:00</time>
      </trkpt>
      <trkpt lat="47.58815" lon="6.6062">
        <ele>402</ele>
        <time>2020-12-10T18:42:58+01:00</time>
      </trkpt>
      <trkpt lat="47.58945" lon="6.60688">
        <ele>375</ele>
        <time>2020-12-10T18:43:02+01:00</time>
      </trkpt>
      <trkpt lat="47.59006" lon="6.60633">
        <ele>371</ele>
        <time>2020-12-10T18:43:05+01:00</time>
      </trkpt>
      <trkpt lat="47.59084" lon="6.60543">
        <ele>370</ele>
        <time>2020-12-10T18:43:09+01:00</time>
      </trkpt>
      <trkpt lat="47.59104" lon="6.6044">
        <ele>363</ele>
        <time>2020-12-10T18:43:12+01:00</time>
      </trkpt>
      <trkpt lat="47.59156" lon="6.60371">
        <ele>360</ele>
        <time>2020-12-10T18:43:15+01:00</time>
      </trkpt>
      <trkpt lat="47.59232" lon="6.60388">
        <ele>356</ele>
        <time>2020-12-10T18:43:19+01:00</time>
      </trkpt>
      <trkpt lat="47.59304" lon="6.60328">
        <ele>345</ele>
        <time>2020-12-10T18:43:23+01:00</time>
      </trkpt>
      <trkpt lat="47.59347" lon="6.60276">
        <ele>338</ele>
        <time>2020-12-10T18:43:26+01:00</time>
      </trkpt>
      <trkpt lat="47.59394" lon="6.60225">
        <ele>330</ele>
        <time>2020-12-10T18:43:30+01:00</time>
      </trkpt>
      <trkpt lat="47.59421" lon="6.60203">
        <ele>330</ele>
        <time>2020-12-10T18:43:33+01:00</time>
      </trkpt>
    </trkseg>
  </trk>
  <trk>
    <name><![CDATA[mega parcours rouge_3]]></name>
    <trkseg>
      <trkpt lat="47.60354" lon="6.63046">
        <ele>343.57973205854</ele>
        <time>2000-01-01T00:00:00Z</time>
      </trkpt>
      <trkpt lat="47.60354" lon="6.63046">
        <ele>343.57973205854</ele>
        <time>2000-01-01T00:00:00Z</time>
      </trkpt>
      <trkpt lat="47.60355" lon="6.63062">
        <ele>343.34</ele>
        <time>2000-01-01T00:00:00Z</time>
      </trkpt>
    </trkseg>
  </trk>
  <trk>
    <name><![CDATA[mega parcours rouge_4]]></name>
    <trkseg>
      <trkpt lat="47.60376" lon="6.63032">
        <ele>341.87311478391</ele>
        <time>2000-01-01T00:00:00Z</time>
      </trkpt>
      <trkpt lat="47.60376" lon="6.63032">
        <ele>341.87311478391</ele>
        <time>2000-01-01T00:00:00Z</time>
      </trkpt>
      <trkpt lat="47.6037" lon="6.63027">
        <ele>342.24951459736</ele>
        <time>2000-01-01T00:00:00Z</time>
      </trkpt>
      <trkpt lat="47.60358" lon="6.63043">
        <ele>343.13</ele>
        <time>2000-01-01T00:00:00Z</time>
      </trkpt>
      <trkpt lat="47.60331" lon="6.63078">
        <ele>344.59</ele>
        <time>2000-01-01T00:00:00Z</time>
      </trkpt>
      <trkpt lat="47.60313" lon="6.63101">
        <ele>346.38</ele>
        <time>2000-01-01T00:00:00Z</time>
      </trkpt>
      <trkpt lat="47.60295" lon="6.63124">
        <ele>348.8</ele>
        <time>2000-01-01T00:00:00Z</time>
      </trkpt>
      <trkpt lat="47.60276" lon="6.63147">
        <ele>351.55</ele>
        <time>2000-01-01T00:00:00Z</time>
      </trkpt>
      <trkpt lat="47.60251" lon="6.6318">
        <ele>354.96392697751</ele>
        <time>2000-01-01T00:00:00Z</time>
      </trkpt>
      <trkpt lat="47.6025" lon="6.63183">
        <ele>355.2</ele>
        <time>2000-01-01T00:00:00Z</time>
      </trkpt>
      <trkpt lat="47.6025" lon="6.63186">
        <ele>355.528653465</ele>
        <time>2000-01-01T00:00:00Z</time>
      </trkpt>
      <trkpt lat="47.60242" lon="6.63195">
        <ele>357.31868686674</ele>
        <time>2000-01-01T00:00:00Z</time>
      </trkpt>
      <trkpt lat="47.60235" lon="6.6321">
        <ele>359.47</ele>
        <time>2000-01-01T00:00:00Z</time>
      </trkpt>
      <trkpt lat="47.6023" lon="6.63222">
        <ele>360.50250066966</ele>
        <time>2000-01-01T00:00:00Z</time>
      </trkpt>
      <trkpt lat="47.60227" lon="6.63225">
        <ele>360.88619068675</ele>
        <time>2000-01-01T00:00:00Z</time>
      </trkpt>
      <trkpt lat="47.60227" lon="6.63231">
        <ele>361.31520125412</ele>
        <time>2000-01-01T00:00:00Z</time>
      </trkpt>
      <trkpt lat="47.60223" lon="6.63239">
        <ele>362.01</ele>
        <time>2000-01-01T00:00:00Z</time>
      </trkpt>
      <trkpt lat="47.60221" lon="6.63243">
        <ele>362.09624188489</ele>
        <time>2000-01-01T00:00:00Z</time>
      </trkpt>
      <trkpt lat="47.60219" lon="6.63249">
        <ele>362.20677811292</ele>
        <time>2000-01-01T00:00:00Z</time>
      </trkpt>
      <trkpt lat="47.6021" lon="6.6327">
        <ele>362.61771683684</ele>
        <time>2000-01-01T00:00:00Z</time>
      </trkpt>
      <trkpt lat="47.60206" lon="6.63285">
        <ele>362.89</ele>
        <time>2000-01-01T00:00:00Z</time>
      </trkpt>
      <trkpt lat="47.60198" lon="6.63315">
        <ele>363.00226494994</ele>
        <time>2000-01-01T00:00:00Z</time>
      </trkpt>
      <trkpt lat="47.60198" lon="6.63322">
        <ele>363.02689659872</ele>
        <time>2000-01-01T00:00:00Z</time>
      </trkpt>
      <trkpt lat="47.60192" lon="6.63353">
        <ele>363.14</ele>
        <time>2000-01-01T00:00:00Z</time>
      </trkpt>
      <trkpt lat="47.60191" lon="6.63358">
        <ele>363.12351250702</ele>
        <time>2000-01-01T00:00:00Z</time>
      </trkpt>
      <trkpt lat="47.60191" lon="6.63376">
        <ele>363.06777453006</ele>
        <time>2000-01-01T00:00:00Z</time>
      </trkpt>
      <trkpt lat="47.60189" lon="6.63388">
        <ele>363.03</ele>
        <time>2000-01-01T00:00:00Z</time>
      </trkpt>
      <trkpt lat="47.60181" lon="6.63427">
        <ele>363.09449758727</ele>
        <time>2000-01-01T00:00:00Z</time>
      </trkpt>
      <trkpt lat="47.60172" lon="6.63441">
        <ele>363.12499076355</ele>
        <time>2000-01-01T00:00:00Z</time>
      </trkpt>
      <trkpt lat="47.60168" lon="6.63443">
        <ele>363.13485974173</ele>
        <time>2000-01-01T00:00:00Z</time>
      </trkpt>
      <trkpt lat="47.60157" lon="6.63457">
        <ele>363.17</ele>
        <time>2000-01-01T00:00:00Z</time>
      </trkpt>
      <trkpt lat="47.60145" lon="6.63472">
        <ele>363.95473707719</ele>
        <time>2000-01-01T00:00:00Z</time>
      </trkpt>
      <trkpt lat="47.60139" lon="6.63477">
        <ele>364.31102769871</ele>
        <time>2000-01-01T00:00:00Z</time>
      </trkpt>
      <trkpt lat="47.60139" lon="6.6348">
        <ele>364.41</ele>
        <time>2000-01-01T00:00:00Z</time>
      </trkpt>
      <trkpt lat="47.60139" lon="6.63486">
        <ele>364.31455267715</ele>
        <time>2000-01-01T00:00:00Z</time>
      </trkpt>
      <trkpt lat="47.60137" lon="6.63511">
        <ele>363.92476468114</ele>
        <time>2000-01-01T00:00:00Z</time>
      </trkpt>
      <trkpt lat="47.60139" lon="6.63514">
        <ele>363.86</ele>
        <time>2000-01-01T00:00:00Z</time>
      </trkpt>
      <trkpt lat="47.60142" lon="6.6352">
        <ele>363.61158526052</ele>
        <time>2000-01-01T00:00:00Z</time>
      </trkpt>
      <trkpt lat="47.60145" lon="6.6352">
        <ele>363.46379342889</ele>
        <time>2000-01-01T00:00:00Z</time>
      </trkpt>
      <trkpt lat="47.6017" lon="6.63539">
        <ele>362.09</ele>
        <time>2000-01-01T00:00:00Z</time>
      </trkpt>
      <trkpt lat="47.60181" lon="6.63547">
        <ele>362.08306675336</ele>
        <time>2000-01-01T00:00:00Z</time>
      </trkpt>
      <trkpt lat="47.60181" lon="6.63551">
        <ele>362.08156539084</ele>
        <time>2000-01-01T00:00:00Z</time>
      </trkpt>
      <trkpt lat="47.60183" lon="6.6359">
        <ele>362.06688483395</ele>
        <time>2000-01-01T00:00:00Z</time>
      </trkpt>
      <trkpt lat="47.60184" lon="6.63596">
        <ele>362.06456501481</ele>
        <time>2000-01-01T00:00:00Z</time>
      </trkpt>
      <trkpt lat="47.60186" lon="6.63635">
        <ele>362.05</ele>
        <time>2000-01-01T00:00:00Z</time>
      </trkpt>
      <trkpt lat="47.60186" lon="6.63644">
        <ele>362.37242605019</ele>
        <time>2000-01-01T00:00:00Z</time>
      </trkpt>
      <trkpt lat="47.60191" lon="6.63687">
        <ele>363.9</ele>
        <time>2000-01-01T00:00:00Z</time>
      </trkpt>
      <trkpt lat="47.60191" lon="6.63689">
        <ele>363.98694380919</ele>
        <time>2000-01-01T00:00:00Z</time>
      </trkpt>
      <trkpt lat="47.60191" lon="6.63723">
        <ele>365.82</ele>
        <time>2000-01-01T00:00:00Z</time>
      </trkpt>
      <trkpt lat="47.60191" lon="6.63738">
        <ele>365.88794518578</ele>
        <time>2000-01-01T00:00:00Z</time>
      </trkpt>
      <trkpt lat="47.60194" lon="6.63758">
        <ele>365.98</ele>
        <time>2000-01-01T00:00:00Z</time>
      </trkpt>
      <trkpt lat="47.60198" lon="6.63788">
        <ele>364.936737683</ele>
        <time>2000-01-01T00:00:00Z</time>
      </trkpt>
      <trkpt lat="47.60198" lon="6.63793">
        <ele>364.77</ele>
        <time>2000-01-01T00:00:00Z</time>
      </trkpt>
      <trkpt lat="47.60198" lon="6.6384">
        <ele>363.79631954884</ele>
        <time>2000-01-01T00:00:00Z</time>
      </trkpt>
      <trkpt lat="47.60191" lon="6.63855">
        <ele>363.41924579971</ele>
        <time>2000-01-01T00:00:00Z</time>
      </trkpt>
      <trkpt lat="47.60184" lon="6.63862">
        <ele>363.16043063979</ele>
        <time>2000-01-01T00:00:00Z</time>
      </trkpt>
      <trkpt lat="47.60183" lon="6.63865">
        <ele>363.09125538845</ele>
        <time>2000-01-01T00:00:00Z</time>
      </trkpt>
      <trkpt lat="47.60177" lon="6.63903">
        <ele>362.28452612181</ele>
        <time>2000-01-01T00:00:00Z</time>
      </trkpt>
      <trkpt lat="47.60177" lon="6.63907">
        <ele>362.2</ele>
        <time>2000-01-01T00:00:00Z</time>
      </trkpt>
      <trkpt lat="47.60177" lon="6.63943">
        <ele>359.98</ele>
        <time>2000-01-01T00:00:00Z</time>
      </trkpt>
      <trkpt lat="47.60177" lon="6.63955">
        <ele>359.65453156598</ele>
        <time>2000-01-01T00:00:00Z</time>
      </trkpt>
      <trkpt lat="47.60183" lon="6.63973">
        <ele>359.12696905428</ele>
        <time>2000-01-01T00:00:00Z</time>
      </trkpt>
      <trkpt lat="47.60183" lon="6.63979">
        <ele>358.9693260501</ele>
        <time>2000-01-01T00:00:00Z</time>
      </trkpt>
      <trkpt lat="47.60187" lon="6.63993">
        <ele>358.58</ele>
        <time>2000-01-01T00:00:00Z</time>
      </trkpt>
      <trkpt lat="47.60191" lon="6.64011">
        <ele>358.61261630291</ele>
        <time>2000-01-01T00:00:00Z</time>
      </trkpt>
      <trkpt lat="47.60191" lon="6.64027">
        <ele>358.64</ele>
        <time>2000-01-01T00:00:00Z</time>
      </trkpt>
      <trkpt lat="47.60191" lon="6.64063">
        <ele>360.52</ele>
        <time>2000-01-01T00:00:00Z</time>
      </trkpt>
      <trkpt lat="47.60191" lon="6.64074">
        <ele>361.25246896832</ele>
        <time>2000-01-01T00:00:00Z</time>
      </trkpt>
      <trkpt lat="47.60193" lon="6.64098">
        <ele>362.83</ele>
        <time>2000-01-01T00:00:00Z</time>
      </trkpt>
      <trkpt lat="47.60198" lon="6.64146">
        <ele>365.24128948042</ele>
        <time>2000-01-01T00:00:00Z</time>
      </trkpt>
      <trkpt lat="47.60198" lon="6.64151">
        <ele>365.48</ele>
        <time>2000-01-01T00:00:00Z</time>
      </trkpt>
      <trkpt lat="47.602" lon="6.64182">
        <ele>368.47788560066</ele>
        <time>2000-01-01T00:00:00Z</time>
      </trkpt>
      <trkpt lat="47.60201" lon="6.64186">
        <ele>368.88</ele>
        <time>2000-01-01T00:00:00Z</time>
      </trkpt>
      <trkpt lat="47.60206" lon="6.64211">
        <ele>371.28560925467</ele>
        <time>2000-01-01T00:00:00Z</time>
      </trkpt>
      <trkpt lat="47.60206" lon="6.6422">
        <ele>372.15</ele>
        <time>2000-01-01T00:00:00Z</time>
      </trkpt>
      <trkpt lat="47.60206" lon="6.64225">
        <ele>372.45624799668</ele>
        <time>2000-01-01T00:00:00Z</time>
      </trkpt>
      <trkpt lat="47.6021" lon="6.64241">
        <ele>373.5899173165</ele>
        <time>2000-01-01T00:00:00Z</time>
      </trkpt>
      <trkpt lat="47.60212" lon="6.64255">
        <ele>374.51</ele>
        <time>2000-01-01T00:00:00Z</time>
      </trkpt>
      <trkpt lat="47.60212" lon="6.64259">
        <ele>374.70128398229</ele>
        <time>2000-01-01T00:00:00Z</time>
      </trkpt>
      <trkpt lat="47.60216" lon="6.64275">
        <ele>375.44425295688</ele>
        <time>2000-01-01T00:00:00Z</time>
      </trkpt>
      <trkpt lat="47.60219" lon="6.64295">
        <ele>376.33632410127</ele>
        <time>2000-01-01T00:00:00Z</time>
      </trkpt>
      <trkpt lat="47.60222" lon="6.64306">
        <ele>376.83</ele>
        <time>2000-01-01T00:00:00Z</time>
      </trkpt>
      <trkpt lat="47.6023" lon="6.64339">
        <ele>379.4</ele>
        <time>2000-01-01T00:00:00Z</time>
      </trkpt>
      <trkpt lat="47.60235" lon="6.64362">
        <ele>379.94534328986</ele>
        <time>2000-01-01T00:00:00Z</time>
      </trkpt>
      <trkpt lat="47.60235" lon="6.64373">
        <ele>380.2</ele>
        <time>2000-01-01T00:00:00Z</time>
      </trkpt>
      <trkpt lat="47.60235" lon="6.64396">
        <ele>380.10418182425</ele>
        <time>2000-01-01T00:00:00Z</time>
      </trkpt>
      <trkpt lat="47.60229" lon="6.64405">
        <ele>380.05</ele>
        <time>2000-01-01T00:00:00Z</time>
      </trkpt>
      <trkpt lat="47.60225" lon="6.64412">
        <ele>379.97007606787</ele>
        <time>2000-01-01T00:00:00Z</time>
      </trkpt>
      <trkpt lat="47.60212" lon="6.64428">
        <ele>379.74720530444</ele>
        <time>2000-01-01T00:00:00Z</time>
      </trkpt>
      <trkpt lat="47.60209" lon="6.64428">
        <ele>379.70762715292</ele>
        <time>2000-01-01T00:00:00Z</time>
      </trkpt>
      <trkpt lat="47.60204" lon="6.64435">
        <ele>379.6169155962</ele>
        <time>2000-01-01T00:00:00Z</time>
      </trkpt>
      <trkpt lat="47.60198" lon="6.64439">
        <ele>379.53012959438</ele>
        <time>2000-01-01T00:00:00Z</time>
      </trkpt>
      <trkpt lat="47.60198" lon="6.64469">
        <ele>379.26</ele>
        <time>2000-01-01T00:00:00Z</time>
      </trkpt>
      <trkpt lat="47.60198" lon="6.64493">
        <ele>378.74107838509</ele>
        <time>2000-01-01T00:00:00Z</time>
      </trkpt>
      <trkpt lat="47.60203" lon="6.64503">
        <ele>378.48</ele>
        <time>2000-01-01T00:00:00Z</time>
      </trkpt>
      <trkpt lat="47.60203" lon="6.64504">
        <ele>378.47018873726</ele>
        <time>2000-01-01T00:00:00Z</time>
      </trkpt>
      <trkpt lat="47.60212" lon="6.64516">
        <ele>378.3421879173</ele>
        <time>2000-01-01T00:00:00Z</time>
      </trkpt>
      <trkpt lat="47.60213" lon="6.64522">
        <ele>378.29811158399</ele>
        <time>2000-01-01T00:00:00Z</time>
      </trkpt>
      <trkpt lat="47.60218" lon="6.64527">
        <ele>378.23433104168</ele>
        <time>2000-01-01T00:00:00Z</time>
      </trkpt>
      <trkpt lat="47.60222" lon="6.64536">
        <ele>378.15745968703</ele>
        <time>2000-01-01T00:00:00Z</time>
      </trkpt>
      <trkpt lat="47.60225" lon="6.64543">
        <ele>378.1</ele>
        <time>2000-01-01T00:00:00Z</time>
      </trkpt>
      <trkpt lat="47.60232" lon="6.64563">
        <ele>378.01675354687</ele>
        <time>2000-01-01T00:00:00Z</time>
      </trkpt>
      <trkpt lat="47.60234" lon="6.64575">
        <ele>377.97</ele>
        <time>2000-01-01T00:00:00Z</time>
      </trkpt>
      <trkpt lat="47.60235" lon="6.64579">
        <ele>377.98078515726</ele>
        <time>2000-01-01T00:00:00Z</time>
      </trkpt>
      <trkpt lat="47.60236" lon="6.64626">
        <ele>378.11315720394</ele>
        <time>2000-01-01T00:00:00Z</time>
      </trkpt>
      <trkpt lat="47.60239" lon="6.64646">
        <ele>378.17</ele>
        <time>2000-01-01T00:00:00Z</time>
      </trkpt>
      <trkpt lat="47.60241" lon="6.64658">
        <ele>378.13030358868</ele>
        <time>2000-01-01T00:00:00Z</time>
      </trkpt>
      <trkpt lat="47.60241" lon="6.6468">
        <ele>378.06129532439</ele>
        <time>2000-01-01T00:00:00Z</time>
      </trkpt>
      <trkpt lat="47.60235" lon="6.6468">
        <ele>378.03338306563</ele>
        <time>2000-01-01T00:00:00Z</time>
      </trkpt>
      <trkpt lat="47.60233" lon="6.64682">
        <ele>378.02216153901</ele>
        <time>2000-01-01T00:00:00Z</time>
      </trkpt>
      <trkpt lat="47.60219" lon="6.64689">
        <ele>377.95343123036</ele>
        <time>2000-01-01T00:00:00Z</time>
      </trkpt>
      <trkpt lat="47.60212" lon="6.64691">
        <ele>377.92026813832</ele>
        <time>2000-01-01T00:00:00Z</time>
      </trkpt>
      <trkpt lat="47.60209" lon="6.64705">
        <ele>377.87418922589</ele>
        <time>2000-01-01T00:00:00Z</time>
      </trkpt>
      <trkpt lat="47.60209" lon="6.64734">
        <ele>377.78322323017</ele>
        <time>2000-01-01T00:00:00Z</time>
      </trkpt>
      <trkpt lat="47.60213" lon="6.64745">
        <ele>377.88332423529</ele>
        <time>2000-01-01T00:00:00Z</time>
      </trkpt>
      <trkpt lat="47.60219" lon="6.64752">
        <ele>377.98531203172</ele>
        <time>2000-01-01T00:00:00Z</time>
      </trkpt>
      <trkpt lat="47.60224" lon="6.64757">
        <ele>378.06587689839</ele>
        <time>2000-01-01T00:00:00Z</time>
      </trkpt>
      <trkpt lat="47.60227" lon="6.64757">
        <ele>378.1</ele>
        <time>2000-01-01T00:00:00Z</time>
      </trkpt>
      <trkpt lat="47.60229" lon="6.64757">
        <ele>378.17964644925</ele>
        <time>2000-01-01T00:00:00Z</time>
      </trkpt>
      <trkpt lat="47.60238" lon="6.64768">
        <ele>378.55942470456</ele>
        <time>2000-01-01T00:00:00Z</time>
      </trkpt>
      <trkpt lat="47.60242" lon="6.64768">
        <ele>378.68968191208</ele>
        <time>2000-01-01T00:00:00Z</time>
      </trkpt>
      <trkpt lat="47.60244" lon="6.64773">
        <ele>378.81733246697</ele>
        <time>2000-01-01T00:00:00Z</time>
      </trkpt>
      <trkpt lat="47.60248" lon="6.64775">
        <ele>378.95479303063</ele>
        <time>2000-01-01T00:00:00Z</time>
      </trkpt>
      <trkpt lat="47.60255" lon="6.64786">
        <ele>379.27</ele>
        <time>2000-01-01T00:00:00Z</time>
      </trkpt>
      <trkpt lat="47.60265" lon="6.64802">
        <ele>380.07110153345</ele>
        <time>2000-01-01T00:00:00Z</time>
      </trkpt>
      <trkpt lat="47.60265" lon="6.64809">
        <ele>380.31938537326</ele>
        <time>2000-01-01T00:00:00Z</time>
      </trkpt>
      <trkpt lat="47.60267" lon="6.64814">
        <ele>380.53</ele>
        <time>2000-01-01T00:00:00Z</time>
      </trkpt>
      <trkpt lat="47.6027" lon="6.64822">
        <ele>380.88834718574</ele>
        <time>2000-01-01T00:00:00Z</time>
      </trkpt>
      <trkpt lat="47.60275" lon="6.64848">
        <ele>381.94</ele>
        <time>2000-01-01T00:00:00Z</time>
      </trkpt>
      <trkpt lat="47.60279" lon="6.64872">
        <ele>382.54429854684</ele>
        <time>2000-01-01T00:00:00Z</time>
      </trkpt>
      <trkpt lat="47.60279" lon="6.64881">
        <ele>382.75964619894</ele>
        <time>2000-01-01T00:00:00Z</time>
      </trkpt>
      <trkpt lat="47.60286" lon="6.6493">
        <ele>383.64204044477</ele>
        <time>2000-01-01T00:00:00Z</time>
      </trkpt>
      <trkpt lat="47.60286" lon="6.64935">
        <ele>383.72</ele>
        <time>2000-01-01T00:00:00Z</time>
      </trkpt>
      <trkpt lat="47.60291" lon="6.65005">
        <ele>385.04</ele>
        <time>2000-01-01T00:00:00Z</time>
      </trkpt>
      <trkpt lat="47.60293" lon="6.65041">
        <ele>386.3</ele>
        <time>2000-01-01T00:00:00Z</time>
      </trkpt>
      <trkpt lat="47.60297" lon="6.65094">
        <ele>388.43</ele>
        <time>2000-01-01T00:00:00Z</time>
      </trkpt>
      <trkpt lat="47.60299" lon="6.65129">
        <ele>390.63</ele>
        <time>2000-01-01T00:00:00Z</time>
      </trkpt>
      <trkpt lat="47.60301" lon="6.65162">
        <ele>391.2938510476</ele>
        <time>2000-01-01T00:00:00Z</time>
      </trkpt>
      <trkpt lat="47.60302" lon="6.65164">
        <ele>391.34</ele>
        <time>2000-01-01T00:00:00Z</time>
      </trkpt>
      <trkpt lat="47.60308" lon="6.65196">
        <ele>391.44480073002</ele>
        <time>2000-01-01T00:00:00Z</time>
      </trkpt>
      <trkpt lat="47.60309" lon="6.65216">
        <ele>391.50802955215</ele>
        <time>2000-01-01T00:00:00Z</time>
      </trkpt>
      <trkpt lat="47.60309" lon="6.65252">
        <ele>391.62</ele>
        <time>2000-01-01T00:00:00Z</time>
      </trkpt>
      <trkpt lat="47.60309" lon="6.65287">
        <ele>392.56</ele>
        <time>2000-01-01T00:00:00Z</time>
      </trkpt>
      <trkpt lat="47.60309" lon="6.65323">
        <ele>393.17</ele>
        <time>2000-01-01T00:00:00Z</time>
      </trkpt>
      <trkpt lat="47.60309" lon="6.65347">
        <ele>393.40388440722</ele>
        <time>2000-01-01T00:00:00Z</time>
      </trkpt>
      <trkpt lat="47.60306" lon="6.65354">
        <ele>393.48326929189</ele>
        <time>2000-01-01T00:00:00Z</time>
      </trkpt>
      <trkpt lat="47.60305" lon="6.65357">
        <ele>393.51</ele>
        <time>2000-01-01T00:00:00Z</time>
      </trkpt>
      <trkpt lat="47.60295" lon="6.65408">
        <ele>393.78</ele>
        <time>2000-01-01T00:00:00Z</time>
      </trkpt>
      <trkpt lat="47.60292" lon="6.65421">
        <ele>394.14424194706</ele>
        <time>2000-01-01T00:00:00Z</time>
      </trkpt>
      <trkpt lat="47.60286" lon="6.65435">
        <ele>394.57385534621</ele>
        <time>2000-01-01T00:00:00Z</time>
      </trkpt>
      <trkpt lat="47.60285" lon="6.6544">
        <ele>394.7</ele>
        <time>2000-01-01T00:00:00Z</time>
      </trkpt>
      <trkpt lat="47.60279" lon="6.65466">
        <ele>396.41514502672</ele>
        <time>2000-01-01T00:00:00Z</time>
      </trkpt>
      <trkpt lat="47.60276" lon="6.65473">
        <ele>396.89</ele>
        <time>2000-01-01T00:00:00Z</time>
      </trkpt>
      <trkpt lat="47.60273" lon="6.6548">
        <ele>397.10112082504</ele>
        <time>2000-01-01T00:00:00Z</time>
      </trkpt>
      <trkpt lat="47.60257" lon="6.65536">
        <ele>398.54612638007</ele>
        <time>2000-01-01T00:00:00Z</time>
      </trkpt>
      <trkpt lat="47.60252" lon="6.65553">
        <ele>399</ele>
        <time>2000-01-01T00:00:00Z</time>
      </trkpt>
      <trkpt lat="47.60247" lon="6.65568">
        <ele>399.68262592175</ele>
        <time>2000-01-01T00:00:00Z</time>
      </trkpt>
      <trkpt lat="47.6024" lon="6.65585">
        <ele>400.5</ele>
        <time>2000-01-01T00:00:00Z</time>
      </trkpt>
      <trkpt lat="47.60235" lon="6.65597">
        <ele>401.34646275813</ele>
        <time>2000-01-01T00:00:00Z</time>
      </trkpt>
      <trkpt lat="47.60226" lon="6.65613">
        <ele>402.55</ele>
        <time>2000-01-01T00:00:00Z</time>
      </trkpt>
      <trkpt lat="47.60215" lon="6.65635">
        <ele>403.46877061341</ele>
        <time>2000-01-01T00:00:00Z</time>
      </trkpt>
      <trkpt lat="47.60212" lon="6.65644">
        <ele>403.806032055</ele>
        <time>2000-01-01T00:00:00Z</time>
      </trkpt>
      <trkpt lat="47.60204" lon="6.65655">
        <ele>404.34</ele>
        <time>2000-01-01T00:00:00Z</time>
      </trkpt>
      <trkpt lat="47.60203" lon="6.65656">
        <ele>404.43711613427</ele>
        <time>2000-01-01T00:00:00Z</time>
      </trkpt>
      <trkpt lat="47.60189" lon="6.65682">
        <ele>406.02</ele>
        <time>2000-01-01T00:00:00Z</time>
      </trkpt>
      <trkpt lat="47.60187" lon="6.65685">
        <ele>406.07293686697</ele>
        <time>2000-01-01T00:00:00Z</time>
      </trkpt>
      <trkpt lat="47.60184" lon="6.65687">
        <ele>406.13747712199</ele>
        <time>2000-01-01T00:00:00Z</time>
      </trkpt>
      <trkpt lat="47.60183" lon="6.65694">
        <ele>406.23214819286</ele>
        <time>2000-01-01T00:00:00Z</time>
      </trkpt>
      <trkpt lat="47.60175" lon="6.65701">
        <ele>406.41440971996</ele>
        <time>2000-01-01T00:00:00Z</time>
      </trkpt>
      <trkpt lat="47.60174" lon="6.65708">
        <ele>406.50908094671</ele>
        <time>2000-01-01T00:00:00Z</time>
      </trkpt>
      <trkpt lat="47.60169" lon="6.65712">
        <ele>406.62055519076</ele>
        <time>2000-01-01T00:00:00Z</time>
      </trkpt>
      <trkpt lat="47.60168" lon="6.65719">
        <ele>406.71522652142</ele>
        <time>2000-01-01T00:00:00Z</time>
      </trkpt>
      <trkpt lat="47.60163" lon="6.65721">
        <ele>406.81684278898</ele>
        <time>2000-01-01T00:00:00Z</time>
      </trkpt>
      <trkpt lat="47.60158" lon="6.65729">
        <ele>406.96</ele>
        <time>2000-01-01T00:00:00Z</time>
      </trkpt>
      <trkpt lat="47.60146" lon="6.6575">
        <ele>407.24495880159</ele>
        <time>2000-01-01T00:00:00Z</time>
      </trkpt>
      <trkpt lat="47.6014" lon="6.65755">
        <ele>407.35031355044</ele>
        <time>2000-01-01T00:00:00Z</time>
      </trkpt>
      <trkpt lat="47.60132" lon="6.65765">
        <ele>407.51</ele>
        <time>2000-01-01T00:00:00Z</time>
      </trkpt>
      <trkpt lat="47.60131" lon="6.65766">
        <ele>407.51308342337</ele>
        <time>2000-01-01T00:00:00Z</time>
      </trkpt>
      <trkpt lat="47.60127" lon="6.65777">
        <ele>407.53419255928</ele>
        <time>2000-01-01T00:00:00Z</time>
      </trkpt>
      <trkpt lat="47.60127" lon="6.65798">
        <ele>407.57</ele>
        <time>2000-01-01T00:00:00Z</time>
      </trkpt>
      <trkpt lat="47.60127" lon="6.65834">
        <ele>407.15</ele>
        <time>2000-01-01T00:00:00Z</time>
      </trkpt>
      <trkpt lat="47.60127" lon="6.65843">
        <ele>407.24088528625</ele>
        <time>2000-01-01T00:00:00Z</time>
      </trkpt>
      <trkpt lat="47.60131" lon="6.65861">
        <ele>407.4265516128</ele>
        <time>2000-01-01T00:00:00Z</time>
      </trkpt>
      <trkpt lat="47.60137" lon="6.65877">
        <ele>407.60590476686</ele>
        <time>2000-01-01T00:00:00Z</time>
      </trkpt>
      <trkpt lat="47.60142" lon="6.65906">
        <ele>407.89914272922</ele>
        <time>2000-01-01T00:00:00Z</time>
      </trkpt>
      <trkpt lat="47.60142" lon="6.65919">
        <ele>408.02</ele>
        <time>2000-01-01T00:00:00Z</time>
      </trkpt>
      <trkpt lat="47.60146" lon="6.66025">
        <ele>410.73</ele>
        <time>2000-01-01T00:00:00Z</time>
      </trkpt>
      <trkpt lat="47.60148" lon="6.66078">
        <ele>414.05</ele>
        <time>2000-01-01T00:00:00Z</time>
      </trkpt>
      <trkpt lat="47.60149" lon="6.66114">
        <ele>417.62</ele>
        <time>2000-01-01T00:00:00Z</time>
      </trkpt>
      <trkpt lat="47.6015" lon="6.66149">
        <ele>421.66</ele>
        <time>2000-01-01T00:00:00Z</time>
      </trkpt>
      <trkpt lat="47.60151" lon="6.66185">
        <ele>425.67</ele>
        <time>2000-01-01T00:00:00Z</time>
      </trkpt>
      <trkpt lat="47.60153" lon="6.66238">
        <ele>429.37</ele>
        <time>2000-01-01T00:00:00Z</time>
      </trkpt>
      <trkpt lat="47.60154" lon="6.66273">
        <ele>433</ele>
        <time>2000-01-01T00:00:00Z</time>
      </trkpt>
      <trkpt lat="47.60156" lon="6.66309">
        <ele>436.86</ele>
        <time>2000-01-01T00:00:00Z</time>
      </trkpt>
      <trkpt lat="47.60157" lon="6.66344">
        <ele>441.04</ele>
        <time>2000-01-01T00:00:00Z</time>
      </trkpt>
      <trkpt lat="47.60157" lon="6.66354">
        <ele>441.59953736639</ele>
        <time>2000-01-01T00:00:00Z</time>
      </trkpt>
      <trkpt lat="47.60159" lon="6.66397">
        <ele>444.04</ele>
        <time>2000-01-01T00:00:00Z</time>
      </trkpt>
      <trkpt lat="47.60159" lon="6.664">
        <ele>444.26365355331</ele>
        <time>2000-01-01T00:00:00Z</time>
      </trkpt>
      <trkpt lat="47.60155" lon="6.66432">
        <ele>446.93</ele>
        <time>2000-01-01T00:00:00Z</time>
      </trkpt>
      <trkpt lat="47.60151" lon="6.66467">
        <ele>451.18</ele>
        <time>2000-01-01T00:00:00Z</time>
      </trkpt>
      <trkpt lat="47.6015" lon="6.6648">
        <ele>452.62229581188</ele>
        <time>2000-01-01T00:00:00Z</time>
      </trkpt>
      <trkpt lat="47.60153" lon="6.66502">
        <ele>455.18</ele>
        <time>2000-01-01T00:00:00Z</time>
      </trkpt>
      <trkpt lat="47.60154" lon="6.66515">
        <ele>456.06295628923</ele>
        <time>2000-01-01T00:00:00Z</time>
      </trkpt>
      <trkpt lat="47.60169" lon="6.66549">
        <ele>458.86</ele>
        <time>2000-01-01T00:00:00Z</time>
      </trkpt>
      <trkpt lat="47.6017" lon="6.66552">
        <ele>459.20044280506</ele>
        <time>2000-01-01T00:00:00Z</time>
      </trkpt>
      <trkpt lat="47.60168" lon="6.66584">
        <ele>462.36</ele>
        <time>2000-01-01T00:00:00Z</time>
      </trkpt>
      <trkpt lat="47.60167" lon="6.66596">
        <ele>463.44823630893</ele>
        <time>2000-01-01T00:00:00Z</time>
      </trkpt>
      <trkpt lat="47.60163" lon="6.66619">
        <ele>465.54</ele>
        <time>2000-01-01T00:00:00Z</time>
      </trkpt>
      <trkpt lat="47.60156" lon="6.66653">
        <ele>469.47</ele>
        <time>2000-01-01T00:00:00Z</time>
      </trkpt>
      <trkpt lat="47.60149" lon="6.66692">
        <ele>473.03401676451</ele>
        <time>2000-01-01T00:00:00Z</time>
      </trkpt>
      <trkpt lat="47.60145" lon="6.66703">
        <ele>474.13</ele>
        <time>2000-01-01T00:00:00Z</time>
      </trkpt>
      <trkpt lat="47.60134" lon="6.66735">
        <ele>478.5</ele>
        <time>2000-01-01T00:00:00Z</time>
      </trkpt>
      <trkpt lat="47.60133" lon="6.66737">
        <ele>478.77527023028</ele>
        <time>2000-01-01T00:00:00Z</time>
      </trkpt>
      <trkpt lat="47.60113" lon="6.66751">
        <ele>481.97</ele>
        <time>2000-01-01T00:00:00Z</time>
      </trkpt>
      <trkpt lat="47.60091" lon="6.66767">
        <ele>484.65312876475</ele>
        <time>2000-01-01T00:00:00Z</time>
      </trkpt>
      <trkpt lat="47.60075" lon="6.66778">
        <ele>485.89497289098</ele>
        <time>2000-01-01T00:00:00Z</time>
      </trkpt>
      <trkpt lat="47.60069" lon="6.66783">
        <ele>486.37960631398</ele>
        <time>2000-01-01T00:00:00Z</time>
      </trkpt>
      <trkpt lat="47.60062" lon="6.66795">
        <ele>487.14</ele>
        <time>2000-01-01T00:00:00Z</time>
      </trkpt>
      <trkpt lat="47.60061" lon="6.66796">
        <ele>487.21409388136</ele>
        <time>2000-01-01T00:00:00Z</time>
      </trkpt>
      <trkpt lat="47.60049" lon="6.66825">
        <ele>488.8</ele>
        <time>2000-01-01T00:00:00Z</time>
      </trkpt>
      <trkpt lat="47.60037" lon="6.66856">
        <ele>488.49</ele>
        <time>2000-01-01T00:00:00Z</time>
      </trkpt>
      <trkpt lat="47.60036" lon="6.66859">
        <ele>488.36017745109</ele>
        <time>2000-01-01T00:00:00Z</time>
      </trkpt>
      <trkpt lat="47.60044" lon="6.66885">
        <ele>487.34109823824</ele>
        <time>2000-01-01T00:00:00Z</time>
      </trkpt>
      <trkpt lat="47.60048" lon="6.66905">
        <ele>486.59</ele>
        <time>2000-01-01T00:00:00Z</time>
      </trkpt>
      <trkpt lat="47.60051" lon="6.66922">
        <ele>485.67585838689</ele>
        <time>2000-01-01T00:00:00Z</time>
      </trkpt>
      <trkpt lat="47.60045" lon="6.66938">
        <ele>484.72</ele>
        <time>2000-01-01T00:00:00Z</time>
      </trkpt>
      <trkpt lat="47.60041" lon="6.66951">
        <ele>483.93682560803</ele>
        <time>2000-01-01T00:00:00Z</time>
      </trkpt>
      <trkpt lat="47.6004" lon="6.66972">
        <ele>482.79</ele>
        <time>2000-01-01T00:00:00Z</time>
      </trkpt>
      <trkpt lat="47.60038" lon="6.66995">
        <ele>481.3192744213</ele>
        <time>2000-01-01T00:00:00Z</time>
      </trkpt>
      <trkpt lat="47.60035" lon="6.67006">
        <ele>480.53</ele>
        <time>2000-01-01T00:00:00Z</time>
      </trkpt>
      <trkpt lat="47.60032" lon="6.67016">
        <ele>480.2645081264</ele>
        <time>2000-01-01T00:00:00Z</time>
      </trkpt>
      <trkpt lat="47.60015" lon="6.67051">
        <ele>479.17</ele>
        <time>2000-01-01T00:00:00Z</time>
      </trkpt>
      <trkpt lat="47.60003" lon="6.67074">
        <ele>478.41878333937</ele>
        <time>2000-01-01T00:00:00Z</time>
      </trkpt>
      <trkpt lat="47.59997" lon="6.67115">
        <ele>477.35</ele>
        <time>2000-01-01T00:00:00Z</time>
      </trkpt>
      <trkpt lat="47.59993" lon="6.67137">
        <ele>475.88009482869</ele>
        <time>2000-01-01T00:00:00Z</time>
      </trkpt>
      <trkpt lat="47.59992" lon="6.6715">
        <ele>475.07174279306</ele>
        <time>2000-01-01T00:00:00Z</time>
      </trkpt>
      <trkpt lat="47.59988" lon="6.67156">
        <ele>474.94822970453</ele>
        <time>2000-01-01T00:00:00Z</time>
      </trkpt>
      <trkpt lat="47.59978" lon="6.67156">
        <ele>474.73113435865</ele>
        <time>2000-01-01T00:00:00Z</time>
      </trkpt>
      <trkpt lat="47.59975" lon="6.67148">
        <ele>474.5971317946</ele>
        <time>2000-01-01T00:00:00Z</time>
      </trkpt>
      <trkpt lat="47.59962" lon="6.67142">
        <ele>474.3</ele>
        <time>2000-01-01T00:00:00Z</time>
      </trkpt>
      <trkpt lat="47.59955" lon="6.67138">
        <ele>474.39912159765</ele>
        <time>2000-01-01T00:00:00Z</time>
      </trkpt>
      <trkpt lat="47.59939" lon="6.67142">
        <ele>474.62</ele>
        <time>2000-01-01T00:00:00Z</time>
      </trkpt>
      <trkpt lat="47.59919" lon="6.67146">
        <ele>475.69005881995</ele>
        <time>2000-01-01T00:00:00Z</time>
      </trkpt>
      <trkpt lat="47.59915" lon="6.67147">
        <ele>475.91</ele>
        <time>2000-01-01T00:00:00Z</time>
      </trkpt>
      <trkpt lat="47.59901" lon="6.67152">
        <ele>476.2398549346</ele>
        <time>2000-01-01T00:00:00Z</time>
      </trkpt>
      <trkpt lat="47.59894" lon="6.67162">
        <ele>476.46</ele>
        <time>2000-01-01T00:00:00Z</time>
      </trkpt>
      <trkpt lat="47.59889" lon="6.67168">
        <ele>476.48916722757</ele>
        <time>2000-01-01T00:00:00Z</time>
      </trkpt>
      <trkpt lat="47.59872" lon="6.67203">
        <ele>476.62</ele>
        <time>2000-01-01T00:00:00Z</time>
      </trkpt>
      <trkpt lat="47.59858" lon="6.67231">
        <ele>477.22080210718</ele>
        <time>2000-01-01T00:00:00Z</time>
      </trkpt>
      <trkpt lat="47.59842" lon="6.67256">
        <ele>478.4799698438</ele>
        <time>2000-01-01T00:00:00Z</time>
      </trkpt>
      <trkpt lat="47.59841" lon="6.67256">
        <ele>478.56</ele>
        <time>2000-01-01T00:00:00Z</time>
      </trkpt>
      <trkpt lat="47.59817" lon="6.67264">
        <ele>480.43</ele>
        <time>2000-01-01T00:00:00Z</time>
      </trkpt>
      <trkpt lat="47.59813" lon="6.67265">
        <ele>480.65334251065</ele>
        <time>2000-01-01T00:00:00Z</time>
      </trkpt>
      <trkpt lat="47.59781" lon="6.67264">
        <ele>482.33</ele>
        <time>2000-01-01T00:00:00Z</time>
      </trkpt>
      <trkpt lat="47.59761" lon="6.67263">
        <ele>483.55112940558</ele>
        <time>2000-01-01T00:00:00Z</time>
      </trkpt>
      <trkpt lat="47.59757" lon="6.67264">
        <ele>483.77</ele>
        <time>2000-01-01T00:00:00Z</time>
      </trkpt>
      <trkpt lat="47.5971" lon="6.6727">
        <ele>483.64088975451</ele>
        <time>2000-01-01T00:00:00Z</time>
      </trkpt>
      <trkpt lat="47.59678" lon="6.67294">
        <ele>482.62</ele>
        <time>2000-01-01T00:00:00Z</time>
      </trkpt>
      <trkpt lat="47.59662" lon="6.67305">
        <ele>482.28906586149</ele>
        <time>2000-01-01T00:00:00Z</time>
      </trkpt>
      <trkpt lat="47.59644" lon="6.67342">
        <ele>481.7</ele>
        <time>2000-01-01T00:00:00Z</time>
      </trkpt>
      <trkpt lat="47.59638" lon="6.67353">
        <ele>481.2741712561</ele>
        <time>2000-01-01T00:00:00Z</time>
      </trkpt>
      <trkpt lat="47.59634" lon="6.67373">
        <ele>480.64</ele>
        <time>2000-01-01T00:00:00Z</time>
      </trkpt>
      <trkpt lat="47.59623" lon="6.67424">
        <ele>479.78</ele>
        <time>2000-01-01T00:00:00Z</time>
      </trkpt>
      <trkpt lat="47.59621" lon="6.67432">
        <ele>479.60510187129</ele>
        <time>2000-01-01T00:00:00Z</time>
      </trkpt>
      <trkpt lat="47.59617" lon="6.67459">
        <ele>479.04</ele>
        <time>2000-01-01T00:00:00Z</time>
      </trkpt>
      <trkpt lat="47.59612" lon="6.67493">
        <ele>478.45</ele>
        <time>2000-01-01T00:00:00Z</time>
      </trkpt>
      <trkpt lat="47.59607" lon="6.67528">
        <ele>477.74</ele>
        <time>2000-01-01T00:00:00Z</time>
      </trkpt>
      <trkpt lat="47.59605" lon="6.67544">
        <ele>477.50104433194</ele>
        <time>2000-01-01T00:00:00Z</time>
      </trkpt>
      <trkpt lat="47.59605" lon="6.67581">
        <ele>476.96</ele>
        <time>2000-01-01T00:00:00Z</time>
      </trkpt>
      <trkpt lat="47.59606" lon="6.67617">
        <ele>476.17</ele>
        <time>2000-01-01T00:00:00Z</time>
      </trkpt>
      <trkpt lat="47.59606" lon="6.67656">
        <ele>475.90844156634</ele>
        <time>2000-01-01T00:00:00Z</time>
      </trkpt>
      <trkpt lat="47.59602" lon="6.67687">
        <ele>475.7</ele>
        <time>2000-01-01T00:00:00Z</time>
      </trkpt>
      <trkpt lat="47.59595" lon="6.67739">
        <ele>474.94</ele>
        <time>2000-01-01T00:00:00Z</time>
      </trkpt>
      <trkpt lat="47.5959" lon="6.67774">
        <ele>473.29</ele>
        <time>2000-01-01T00:00:00Z</time>
      </trkpt>
      <trkpt lat="47.59586" lon="6.67806">
        <ele>471.36256999878</ele>
        <time>2000-01-01T00:00:00Z</time>
      </trkpt>
      <trkpt lat="47.59586" lon="6.67809">
        <ele>471.19</ele>
        <time>2000-01-01T00:00:00Z</time>
      </trkpt>
      <trkpt lat="47.59584" lon="6.67862">
        <ele>468.86</ele>
        <time>2000-01-01T00:00:00Z</time>
      </trkpt>
      <trkpt lat="47.59583" lon="6.67898">
        <ele>466.83</ele>
        <time>2000-01-01T00:00:00Z</time>
      </trkpt>
      <trkpt lat="47.59583" lon="6.67905">
        <ele>466.58888426869</ele>
        <time>2000-01-01T00:00:00Z</time>
      </trkpt>
      <trkpt lat="47.59586" lon="6.67933">
        <ele>465.67</ele>
        <time>2000-01-01T00:00:00Z</time>
      </trkpt>
      <trkpt lat="47.59591" lon="6.67974">
        <ele>465.47193315877</ele>
        <time>2000-01-01T00:00:00Z</time>
      </trkpt>
      <trkpt lat="47.596" lon="6.68019">
        <ele>465.25</ele>
        <time>2000-01-01T00:00:00Z</time>
      </trkpt>
      <trkpt lat="47.59615" lon="6.68087">
        <ele>465.28</ele>
        <time>2000-01-01T00:00:00Z</time>
      </trkpt>
      <trkpt lat="47.59622" lon="6.68121">
        <ele>465.6</ele>
        <time>2000-01-01T00:00:00Z</time>
      </trkpt>
      <trkpt lat="47.59639" lon="6.68206">
        <ele>465.87</ele>
        <time>2000-01-01T00:00:00Z</time>
      </trkpt>
      <trkpt lat="47.59642" lon="6.68219">
        <ele>465.84613503491</ele>
        <time>2000-01-01T00:00:00Z</time>
      </trkpt>
      <trkpt lat="47.59646" lon="6.6824">
        <ele>465.81</ele>
        <time>2000-01-01T00:00:00Z</time>
      </trkpt>
      <trkpt lat="47.5965" lon="6.68266">
        <ele>465.53551391939</ele>
        <time>2000-01-01T00:00:00Z</time>
      </trkpt>
      <trkpt lat="47.59652" lon="6.68274">
        <ele>465.45</ele>
        <time>2000-01-01T00:00:00Z</time>
      </trkpt>
      <trkpt lat="47.59653" lon="6.68277">
        <ele>465.38694226255</ele>
        <time>2000-01-01T00:00:00Z</time>
      </trkpt>
      <trkpt lat="47.59684" lon="6.68297">
        <ele>464.47</ele>
        <time>2000-01-01T00:00:00Z</time>
      </trkpt>
      <trkpt lat="47.59706" lon="6.68312">
        <ele>462.73389971509</ele>
        <time>2000-01-01T00:00:00Z</time>
      </trkpt>
      <trkpt lat="47.59726" lon="6.6833">
        <ele>460.84</ele>
        <time>2000-01-01T00:00:00Z</time>
      </trkpt>
      <trkpt lat="47.59738" lon="6.68341">
        <ele>459.61861185749</ele>
        <time>2000-01-01T00:00:00Z</time>
      </trkpt>
      <trkpt lat="47.59746" lon="6.68349">
        <ele>458.75</ele>
        <time>2000-01-01T00:00:00Z</time>
      </trkpt>
      <trkpt lat="47.59776" lon="6.6838">
        <ele>456.83</ele>
        <time>2000-01-01T00:00:00Z</time>
      </trkpt>
      <trkpt lat="47.59778" lon="6.68382">
        <ele>456.62857164427</ele>
        <time>2000-01-01T00:00:00Z</time>
      </trkpt>
      <trkpt lat="47.59792" lon="6.68406">
        <ele>455.06027949681</ele>
        <time>2000-01-01T00:00:00Z</time>
      </trkpt>
      <trkpt lat="47.59805" lon="6.68437">
        <ele>453.77451599658</ele>
        <time>2000-01-01T00:00:00Z</time>
      </trkpt>
      <trkpt lat="47.59808" lon="6.68471">
        <ele>452.27</ele>
        <time>2000-01-01T00:00:00Z</time>
      </trkpt>
      <trkpt lat="47.59814" lon="6.68524">
        <ele>450.04</ele>
        <time>2000-01-01T00:00:00Z</time>
      </trkpt>
      <trkpt lat="47.59815" lon="6.68537">
        <ele>448.97149534876</ele>
        <time>2000-01-01T00:00:00Z</time>
      </trkpt>
      <trkpt lat="47.59819" lon="6.68558">
        <ele>447.24</ele>
        <time>2000-01-01T00:00:00Z</time>
      </trkpt>
      <trkpt lat="47.59821" lon="6.68569">
        <ele>446.1000016285</ele>
        <time>2000-01-01T00:00:00Z</time>
      </trkpt>
      <trkpt lat="47.59814" lon="6.68591">
        <ele>443.64</ele>
        <time>2000-01-01T00:00:00Z</time>
      </trkpt>
      <trkpt lat="47.59804" lon="6.68623">
        <ele>440.19</ele>
        <time>2000-01-01T00:00:00Z</time>
      </trkpt>
      <trkpt lat="47.59789" lon="6.68672">
        <ele>437.05</ele>
        <time>2000-01-01T00:00:00Z</time>
      </trkpt>
      <trkpt lat="47.59779" lon="6.68704">
        <ele>433.95</ele>
        <time>2000-01-01T00:00:00Z</time>
      </trkpt>
      <trkpt lat="47.59769" lon="6.68736">
        <ele>430.92</ele>
        <time>2000-01-01T00:00:00Z</time>
      </trkpt>
      <trkpt lat="47.59764" lon="6.6875">
        <ele>429.75687354993</ele>
        <time>2000-01-01T00:00:00Z</time>
      </trkpt>
      <trkpt lat="47.59751" lon="6.68753">
        <ele>428.28</ele>
        <time>2000-01-01T00:00:00Z</time>
      </trkpt>
      <trkpt lat="47.59692" lon="6.68767">
        <ele>426.01</ele>
        <time>2000-01-01T00:00:00Z</time>
      </trkpt>
      <trkpt lat="47.59668" lon="6.68772">
        <ele>423.05</ele>
        <time>2000-01-01T00:00:00Z</time>
      </trkpt>
      <trkpt lat="47.59644" lon="6.68778">
        <ele>419.8</ele>
        <time>2000-01-01T00:00:00Z</time>
      </trkpt>
      <trkpt lat="47.59609" lon="6.68786">
        <ele>416.22</ele>
        <time>2000-01-01T00:00:00Z</time>
      </trkpt>
      <trkpt lat="47.59585" lon="6.68791">
        <ele>413.04</ele>
        <time>2000-01-01T00:00:00Z</time>
      </trkpt>
      <trkpt lat="47.59574" lon="6.68794">
        <ele>412.7079130921</ele>
        <time>2000-01-01T00:00:00Z</time>
      </trkpt>
      <trkpt lat="47.59525" lon="6.68794">
        <ele>411.27</ele>
        <time>2000-01-01T00:00:00Z</time>
      </trkpt>
      <trkpt lat="47.59479" lon="6.68794">
        <ele>410.10887143339</ele>
        <time>2000-01-01T00:00:00Z</time>
      </trkpt>
      <trkpt lat="47.59478" lon="6.68793">
        <ele>410.07</ele>
        <time>2000-01-01T00:00:00Z</time>
      </trkpt>
      <trkpt lat="47.5947" lon="6.68789">
        <ele>409.92868650528</ele>
        <time>2000-01-01T00:00:00Z</time>
      </trkpt>
      <trkpt lat="47.59464" lon="6.68789">
        <ele>409.82347876074</ele>
        <time>2000-01-01T00:00:00Z</time>
      </trkpt>
      <trkpt lat="47.5946" lon="6.68786">
        <ele>409.74487943907</ele>
        <time>2000-01-01T00:00:00Z</time>
      </trkpt>
      <trkpt lat="47.59455" lon="6.68786">
        <ele>409.65720631862</ele>
        <time>2000-01-01T00:00:00Z</time>
      </trkpt>
      <trkpt lat="47.59447" lon="6.6878">
        <ele>409.70713995887</ele>
        <time>2000-01-01T00:00:00Z</time>
      </trkpt>
      <trkpt lat="47.59438" lon="6.6878">
        <ele>409.76725867004</ele>
        <time>2000-01-01T00:00:00Z</time>
      </trkpt>
      <trkpt lat="47.59434" lon="6.68775">
        <ele>409.8022049482</ele>
        <time>2000-01-01T00:00:00Z</time>
      </trkpt>
      <trkpt lat="47.59431" lon="6.68775">
        <ele>409.82224451859</ele>
        <time>2000-01-01T00:00:00Z</time>
      </trkpt>
      <trkpt lat="47.59421" lon="6.6877">
        <ele>409.89</ele>
        <time>2000-01-01T00:00:00Z</time>
      </trkpt>
      <trkpt lat="47.59414" lon="6.68767">
        <ele>409.78081045674</ele>
        <time>2000-01-01T00:00:00Z</time>
      </trkpt>
      <trkpt lat="47.59403" lon="6.68767">
        <ele>409.62466880413</ele>
        <time>2000-01-01T00:00:00Z</time>
      </trkpt>
      <trkpt lat="47.59399" lon="6.68763">
        <ele>409.55</ele>
        <time>2000-01-01T00:00:00Z</time>
      </trkpt>
      <trkpt lat="47.59394" lon="6.68758">
        <ele>409.41802417696</ele>
        <time>2000-01-01T00:00:00Z</time>
      </trkpt>
      <trkpt lat="47.59369" lon="6.68747">
        <ele>408.80290457131</ele>
        <time>2000-01-01T00:00:00Z</time>
      </trkpt>
      <trkpt lat="47.59358" lon="6.68739">
        <ele>408.51390589365</ele>
        <time>2000-01-01T00:00:00Z</time>
      </trkpt>
      <trkpt lat="47.59354" lon="6.68739">
        <ele>408.42</ele>
        <time>2000-01-01T00:00:00Z</time>
      </trkpt>
      <trkpt lat="47.59343" lon="6.68739">
        <ele>407.92623290697</ele>
        <time>2000-01-01T00:00:00Z</time>
      </trkpt>
      <trkpt lat="47.5934" lon="6.68736">
        <ele>407.76408758855</ele>
        <time>2000-01-01T00:00:00Z</time>
      </trkpt>
      <trkpt lat="47.59319" lon="6.68736">
        <ele>406.81</ele>
        <time>2000-01-01T00:00:00Z</time>
      </trkpt>
      <trkpt lat="47.59295" lon="6.68736">
        <ele>403.79</ele>
        <time>2000-01-01T00:00:00Z</time>
      </trkpt>
      <trkpt lat="47.59271" lon="6.68736">
        <ele>399.97</ele>
        <time>2000-01-01T00:00:00Z</time>
      </trkpt>
      <trkpt lat="47.59247" lon="6.68736">
        <ele>396.48</ele>
        <time>2000-01-01T00:00:00Z</time>
      </trkpt>
      <trkpt lat="47.59211" lon="6.68736">
        <ele>393.57</ele>
        <time>2000-01-01T00:00:00Z</time>
      </trkpt>
      <trkpt lat="47.59187" lon="6.68736">
        <ele>390.7</ele>
        <time>2000-01-01T00:00:00Z</time>
      </trkpt>
      <trkpt lat="47.59163" lon="6.68736">
        <ele>387.99</ele>
        <time>2000-01-01T00:00:00Z</time>
      </trkpt>
      <trkpt lat="47.59139" lon="6.68736">
        <ele>385.32</ele>
        <time>2000-01-01T00:00:00Z</time>
      </trkpt>
      <trkpt lat="47.59103" lon="6.68736">
        <ele>382.16</ele>
        <time>2000-01-01T00:00:00Z</time>
      </trkpt>
      <trkpt lat="47.59096" lon="6.68736">
        <ele>381.25742319347</ele>
        <time>2000-01-01T00:00:00Z</time>
      </trkpt>
      <trkpt lat="47.59089" lon="6.68714">
        <ele>379.13</ele>
        <time>2000-01-01T00:00:00Z</time>
      </trkpt>
      <trkpt lat="47.59078" lon="6.68682">
        <ele>377.96</ele>
        <time>2000-01-01T00:00:00Z</time>
      </trkpt>
      <trkpt lat="47.59067" lon="6.6865">
        <ele>377.8</ele>
        <time>2000-01-01T00:00:00Z</time>
      </trkpt>
      <trkpt lat="47.59059" lon="6.68626">
        <ele>377.91636958448</ele>
        <time>2000-01-01T00:00:00Z</time>
      </trkpt>
      <trkpt lat="47.59054" lon="6.68604">
        <ele>378.01659927951</ele>
        <time>2000-01-01T00:00:00Z</time>
      </trkpt>
      <trkpt lat="47.59054" lon="6.68601">
        <ele>378.03</ele>
        <time>2000-01-01T00:00:00Z</time>
      </trkpt>
      <trkpt lat="47.59054" lon="6.68593">
        <ele>377.9299529768</ele>
        <time>2000-01-01T00:00:00Z</time>
      </trkpt>
      <trkpt lat="47.59046" lon="6.68568">
        <ele>377.57718217588</ele>
        <time>2000-01-01T00:00:00Z</time>
      </trkpt>
      <trkpt lat="47.59039" lon="6.68534">
        <ele>375.65</ele>
        <time>2000-01-01T00:00:00Z</time>
      </trkpt>
      <trkpt lat="47.59031" lon="6.685">
        <ele>373.33</ele>
        <time>2000-01-01T00:00:00Z</time>
      </trkpt>
      <trkpt lat="47.5903" lon="6.68494">
        <ele>373.0002475542</ele>
        <time>2000-01-01T00:00:00Z</time>
      </trkpt>
      <trkpt lat="47.59026" lon="6.68486">
        <ele>372.51234220864</ele>
        <time>2000-01-01T00:00:00Z</time>
      </trkpt>
      <trkpt lat="47.59024" lon="6.68458">
        <ele>371.13287231604</ele>
        <time>2000-01-01T00:00:00Z</time>
      </trkpt>
      <trkpt lat="47.59022" lon="6.68455">
        <ele>370.92620610377</ele>
        <time>2000-01-01T00:00:00Z</time>
      </trkpt>
      <trkpt lat="47.5902" lon="6.68455">
        <ele>370.78091921845</ele>
        <time>2000-01-01T00:00:00Z</time>
      </trkpt>
      <trkpt lat="47.5902" lon="6.68453">
        <ele>370.64757135437</ele>
        <time>2000-01-01T00:00:00Z</time>
      </trkpt>
      <trkpt lat="47.59017" lon="6.68453">
        <ele>370.22173048358</ele>
        <time>2000-01-01T00:00:00Z</time>
      </trkpt>
      <trkpt lat="47.59017" lon="6.68455">
        <ele>370.0302641749</ele>
        <time>2000-01-01T00:00:00Z</time>
      </trkpt>
      <trkpt lat="47.58999" lon="6.68446">
        <ele>367.32</ele>
        <time>2000-01-01T00:00:00Z</time>
      </trkpt>
      <trkpt lat="47.58976" lon="6.68436">
        <ele>364.14</ele>
        <time>2000-01-01T00:00:00Z</time>
      </trkpt>
      <trkpt lat="47.58953" lon="6.68425">
        <ele>361.7</ele>
        <time>2000-01-01T00:00:00Z</time>
      </trkpt>
      <trkpt lat="47.58931" lon="6.68414">
        <ele>361.01148222608</ele>
        <time>2000-01-01T00:00:00Z</time>
      </trkpt>
      <trkpt lat="47.58927" lon="6.68409">
        <ele>360.85712995215</ele>
        <time>2000-01-01T00:00:00Z</time>
      </trkpt>
      <trkpt lat="47.5892" lon="6.68404">
        <ele>360.64</ele>
        <time>2000-01-01T00:00:00Z</time>
      </trkpt>
      <trkpt lat="47.58914" lon="6.684">
        <ele>360.6370827307</ele>
        <time>2000-01-01T00:00:00Z</time>
      </trkpt>
      <trkpt lat="47.58907" lon="6.68392">
        <ele>360.63339290622</ele>
        <time>2000-01-01T00:00:00Z</time>
      </trkpt>
      <trkpt lat="47.589" lon="6.68392">
        <ele>360.63047046888</ele>
        <time>2000-01-01T00:00:00Z</time>
      </trkpt>
      <trkpt lat="47.58899" lon="6.68391">
        <ele>360.63</ele>
        <time>2000-01-01T00:00:00Z</time>
      </trkpt>
      <trkpt lat="47.5889" lon="6.68384">
        <ele>360.75392792885</ele>
        <time>2000-01-01T00:00:00Z</time>
      </trkpt>
      <trkpt lat="47.58887" lon="6.68378">
        <ele>360.81491714608</ele>
        <time>2000-01-01T00:00:00Z</time>
      </trkpt>
      <trkpt lat="47.58883" lon="6.68378">
        <ele>360.86334610785</ele>
        <time>2000-01-01T00:00:00Z</time>
      </trkpt>
      <trkpt lat="47.58881" lon="6.68373">
        <ele>360.91081506189</ele>
        <time>2000-01-01T00:00:00Z</time>
      </trkpt>
      <trkpt lat="47.58875" lon="6.6837">
        <ele>360.96467496177</ele>
        <time>2000-01-01T00:00:00Z</time>
      </trkpt>
      <trkpt lat="47.58872" lon="6.68364">
        <ele>361.00505410441</ele>
        <time>2000-01-01T00:00:00Z</time>
      </trkpt>
      <trkpt lat="47.58868" lon="6.68364">
        <ele>361.03711741703</ele>
        <time>2000-01-01T00:00:00Z</time>
      </trkpt>
      <trkpt lat="47.58866" lon="6.68359">
        <ele>361.06854520496</ele>
        <time>2000-01-01T00:00:00Z</time>
      </trkpt>
      <trkpt lat="47.58856" lon="6.68365">
        <ele>361.15501802601</ele>
        <time>2000-01-01T00:00:00Z</time>
      </trkpt>
      <trkpt lat="47.58862" lon="6.68385">
        <ele>361.27335750116</ele>
        <time>2000-01-01T00:00:00Z</time>
      </trkpt>
      <trkpt lat="47.58874" lon="6.68372">
        <ele>361.39248759462</ele>
        <time>2000-01-01T00:00:00Z</time>
      </trkpt>
      <trkpt lat="47.58875" lon="6.68371">
        <ele>361.4</ele>
        <time>2000-01-01T00:00:00Z</time>
      </trkpt>
      <trkpt lat="47.58889" lon="6.68359">
        <ele>362.12055630309</ele>
        <time>2000-01-01T00:00:00Z</time>
      </trkpt>
      <trkpt lat="47.58892" lon="6.68352">
        <ele>362.36576280025</ele>
        <time>2000-01-01T00:00:00Z</time>
      </trkpt>
      <trkpt lat="47.58892" lon="6.68349">
        <ele>362.45</ele>
        <time>2000-01-01T00:00:00Z</time>
      </trkpt>
      <trkpt lat="47.58893" lon="6.68342">
        <ele>362.57265628342</ele>
        <time>2000-01-01T00:00:00Z</time>
      </trkpt>
      <trkpt lat="47.58889" lon="6.68314">
        <ele>363.05</ele>
        <time>2000-01-01T00:00:00Z</time>
      </trkpt>
      <trkpt lat="47.58886" lon="6.68289">
        <ele>363.17762112333</ele>
        <time>2000-01-01T00:00:00Z</time>
      </trkpt>
      <trkpt lat="47.5888" lon="6.68263">
        <ele>363.3138037126</ele>
        <time>2000-01-01T00:00:00Z</time>
      </trkpt>
      <trkpt lat="47.58872" lon="6.6823">
        <ele>363.49</ele>
        <time>2000-01-01T00:00:00Z</time>
      </trkpt>
      <trkpt lat="47.58864" lon="6.68196">
        <ele>364.49</ele>
        <time>2000-01-01T00:00:00Z</time>
      </trkpt>
      <trkpt lat="47.58857" lon="6.68167">
        <ele>365.83462534573</ele>
        <time>2000-01-01T00:00:00Z</time>
      </trkpt>
      <trkpt lat="47.58856" lon="6.68162">
        <ele>366.04</ele>
        <time>2000-01-01T00:00:00Z</time>
      </trkpt>
      <trkpt lat="47.58854" lon="6.68148">
        <ele>366.61540662918</ele>
        <time>2000-01-01T00:00:00Z</time>
      </trkpt>
      <trkpt lat="47.58879" lon="6.68135">
        <ele>368.11</ele>
        <time>2000-01-01T00:00:00Z</time>
      </trkpt>
      <trkpt lat="47.58901" lon="6.68124">
        <ele>370.54</ele>
        <time>2000-01-01T00:00:00Z</time>
      </trkpt>
      <trkpt lat="47.58904" lon="6.68122">
        <ele>370.79040006074</ele>
        <time>2000-01-01T00:00:00Z</time>
      </trkpt>
      <trkpt lat="47.58899" lon="6.68092">
        <ele>372.48</ele>
        <time>2000-01-01T00:00:00Z</time>
      </trkpt>
      <trkpt lat="47.58894" lon="6.68057">
        <ele>373.6</ele>
        <time>2000-01-01T00:00:00Z</time>
      </trkpt>
      <trkpt lat="47.58891" lon="6.68038">
        <ele>373.94457701416</ele>
        <time>2000-01-01T00:00:00Z</time>
      </trkpt>
      <trkpt lat="47.58884" lon="6.68006">
        <ele>374.53</ele>
        <time>2000-01-01T00:00:00Z</time>
      </trkpt>
      <trkpt lat="47.58879" lon="6.67981">
        <ele>374.55948488093</ele>
        <time>2000-01-01T00:00:00Z</time>
      </trkpt>
      <trkpt lat="47.58874" lon="6.67942">
        <ele>374.60419724693</ele>
        <time>2000-01-01T00:00:00Z</time>
      </trkpt>
      <trkpt lat="47.58874" lon="6.67937">
        <ele>374.61</ele>
        <time>2000-01-01T00:00:00Z</time>
      </trkpt>
      <trkpt lat="47.58874" lon="6.67932">
        <ele>374.60126355407</ele>
        <time>2000-01-01T00:00:00Z</time>
      </trkpt>
      <trkpt lat="47.58868" lon="6.67849">
        <ele>374.45</ele>
        <time>2000-01-01T00:00:00Z</time>
      </trkpt>
      <trkpt lat="47.58865" lon="6.67815">
        <ele>374.48809218712</ele>
        <time>2000-01-01T00:00:00Z</time>
      </trkpt>
      <trkpt lat="47.58865" lon="6.67813">
        <ele>374.49</ele>
        <time>2000-01-01T00:00:00Z</time>
      </trkpt>
      <trkpt lat="47.5886" lon="6.67779">
        <ele>374.7</ele>
        <time>2000-01-01T00:00:00Z</time>
      </trkpt>
      <trkpt lat="47.58857" lon="6.67756">
        <ele>374.97814415765</ele>
        <time>2000-01-01T00:00:00Z</time>
      </trkpt>
      <trkpt lat="47.58855" lon="6.67744">
        <ele>375.13</ele>
        <time>2000-01-01T00:00:00Z</time>
      </trkpt>
      <trkpt lat="47.58847" lon="6.67699">
        <ele>375.74781645336</ele>
        <time>2000-01-01T00:00:00Z</time>
      </trkpt>
      <trkpt lat="47.58846" lon="6.67692">
        <ele>375.84</ele>
        <time>2000-01-01T00:00:00Z</time>
      </trkpt>
      <trkpt lat="47.58842" lon="6.67657">
        <ele>376.92</ele>
        <time>2000-01-01T00:00:00Z</time>
      </trkpt>
      <trkpt lat="47.58841" lon="6.67646">
        <ele>377.46460625965</ele>
        <time>2000-01-01T00:00:00Z</time>
      </trkpt>
      <trkpt lat="47.58835" lon="6.67646">
        <ele>377.89295207669</ele>
        <time>2000-01-01T00:00:00Z</time>
      </trkpt>
      <trkpt lat="47.58845" lon="6.67642">
        <ele>378.63</ele>
        <time>2000-01-01T00:00:00Z</time>
      </trkpt>
      <trkpt lat="47.58852" lon="6.67639">
        <ele>379.67200642198</ele>
        <time>2000-01-01T00:00:00Z</time>
      </trkpt>
      <trkpt lat="47.58865" lon="6.67637">
        <ele>381.53268050222</ele>
        <time>2000-01-01T00:00:00Z</time>
      </trkpt>
      <trkpt lat="47.58868" lon="6.67635">
        <ele>382.04</ele>
        <time>2000-01-01T00:00:00Z</time>
      </trkpt>
      <trkpt lat="47.5889" lon="6.67623">
        <ele>384.40572260007</ele>
        <time>2000-01-01T00:00:00Z</time>
      </trkpt>
      <trkpt lat="47.58902" lon="6.67618">
        <ele>385.71</ele>
        <time>2000-01-01T00:00:00Z</time>
      </trkpt>
      <trkpt lat="47.58916" lon="6.67612">
        <ele>387.8486289169</ele>
        <time>2000-01-01T00:00:00Z</time>
      </trkpt>
      <trkpt lat="47.58926" lon="6.67609">
        <ele>389.3</ele>
        <time>2000-01-01T00:00:00Z</time>
      </trkpt>
      <trkpt lat="47.58949" lon="6.67602">
        <ele>393.09</ele>
        <time>2000-01-01T00:00:00Z</time>
      </trkpt>
      <trkpt lat="47.58969" lon="6.67596">
        <ele>395.94175416095</ele>
        <time>2000-01-01T00:00:00Z</time>
      </trkpt>
      <trkpt lat="47.58972" lon="6.67593">
        <ele>396.43</ele>
        <time>2000-01-01T00:00:00Z</time>
      </trkpt>
      <trkpt lat="47.58992" lon="6.67574">
        <ele>398.29016862354</ele>
        <time>2000-01-01T00:00:00Z</time>
      </trkpt>
      <trkpt lat="47.58999" lon="6.6756">
        <ele>399.23</ele>
        <time>2000-01-01T00:00:00Z</time>
      </trkpt>
      <trkpt lat="47.59001" lon="6.67556">
        <ele>399.48868988468</ele>
        <time>2000-01-01T00:00:00Z</time>
      </trkpt>
      <trkpt lat="47.59011" lon="6.67535">
        <ele>400.95806170474</ele>
        <time>2000-01-01T00:00:00Z</time>
      </trkpt>
      <trkpt lat="47.59012" lon="6.6753">
        <ele>401.26</ele>
        <time>2000-01-01T00:00:00Z</time>
      </trkpt>
      <trkpt lat="47.59022" lon="6.67497">
        <ele>403.01</ele>
        <time>2000-01-01T00:00:00Z</time>
      </trkpt>
      <trkpt lat="47.59031" lon="6.67465">
        <ele>405.38</ele>
        <time>2000-01-01T00:00:00Z</time>
      </trkpt>
      <trkpt lat="47.59037" lon="6.67444">
        <ele>406.85926502818</ele>
        <time>2000-01-01T00:00:00Z</time>
      </trkpt>
      <trkpt lat="47.59045" lon="6.67416">
        <ele>408.88</ele>
        <time>2000-01-01T00:00:00Z</time>
      </trkpt>
      <trkpt lat="47.59055" lon="6.67383">
        <ele>413.09</ele>
        <time>2000-01-01T00:00:00Z</time>
      </trkpt>
      <trkpt lat="47.59059" lon="6.67369">
        <ele>414.81104682058</ele>
        <time>2000-01-01T00:00:00Z</time>
      </trkpt>
      <trkpt lat="47.59063" lon="6.6735">
        <ele>417.03</ele>
        <time>2000-01-01T00:00:00Z</time>
      </trkpt>
      <trkpt lat="47.59074" lon="6.67299">
        <ele>420.41</ele>
        <time>2000-01-01T00:00:00Z</time>
      </trkpt>
      <trkpt lat="47.59082" lon="6.67266">
        <ele>423.56</ele>
        <time>2000-01-01T00:00:00Z</time>
      </trkpt>
      <trkpt lat="47.59085" lon="6.6725">
        <ele>425.17066848964</ele>
        <time>2000-01-01T00:00:00Z</time>
      </trkpt>
      <trkpt lat="47.59089" lon="6.67232">
        <ele>427.07</ele>
        <time>2000-01-01T00:00:00Z</time>
      </trkpt>
      <trkpt lat="47.59097" lon="6.67198">
        <ele>430.14</ele>
        <time>2000-01-01T00:00:00Z</time>
      </trkpt>
      <trkpt lat="47.59108" lon="6.67147">
        <ele>432.6</ele>
        <time>2000-01-01T00:00:00Z</time>
      </trkpt>
      <trkpt lat="47.59112" lon="6.67128">
        <ele>433.93209749578</ele>
        <time>2000-01-01T00:00:00Z</time>
      </trkpt>
      <trkpt lat="47.59115" lon="6.67113">
        <ele>434.92</ele>
        <time>2000-01-01T00:00:00Z</time>
      </trkpt>
      <trkpt lat="47.59121" lon="6.67079">
        <ele>437.35</ele>
        <time>2000-01-01T00:00:00Z</time>
      </trkpt>
      <trkpt lat="47.59127" lon="6.67047">
        <ele>440.14897259512</ele>
        <time>2000-01-01T00:00:00Z</time>
      </trkpt>
      <trkpt lat="47.59128" lon="6.67045">
        <ele>440.33</ele>
        <time>2000-01-01T00:00:00Z</time>
      </trkpt>
      <trkpt lat="47.59133" lon="6.67031">
        <ele>441.39705447485</ele>
        <time>2000-01-01T00:00:00Z</time>
      </trkpt>
      <trkpt lat="47.59136" lon="6.67025">
        <ele>441.89056144715</ele>
        <time>2000-01-01T00:00:00Z</time>
      </trkpt>
      <trkpt lat="47.59145" lon="6.67003">
        <ele>443.59069186146</ele>
        <time>2000-01-01T00:00:00Z</time>
      </trkpt>
      <trkpt lat="47.59147" lon="6.67">
        <ele>443.85</ele>
        <time>2000-01-01T00:00:00Z</time>
      </trkpt>
      <trkpt lat="47.59163" lon="6.66974">
        <ele>447.09</ele>
        <time>2000-01-01T00:00:00Z</time>
      </trkpt>
      <trkpt lat="47.59179" lon="6.66947">
        <ele>449.31</ele>
        <time>2000-01-01T00:00:00Z</time>
      </trkpt>
      <trkpt lat="47.59182" lon="6.66941">
        <ele>449.40348852625</ele>
        <time>2000-01-01T00:00:00Z</time>
      </trkpt>
      <trkpt lat="47.59191" lon="6.66929">
        <ele>449.61774016584</ele>
        <time>2000-01-01T00:00:00Z</time>
      </trkpt>
      <trkpt lat="47.59216" lon="6.66893">
        <ele>450.23462310388</ele>
        <time>2000-01-01T00:00:00Z</time>
      </trkpt>
      <trkpt lat="47.59219" lon="6.66883">
        <ele>450.37</ele>
        <time>2000-01-01T00:00:00Z</time>
      </trkpt>
      <trkpt lat="47.5923" lon="6.66851">
        <ele>450.91</ele>
        <time>2000-01-01T00:00:00Z</time>
      </trkpt>
      <trkpt lat="47.59232" lon="6.66843">
        <ele>451.04022184674</ele>
        <time>2000-01-01T00:00:00Z</time>
      </trkpt>
      <trkpt lat="47.59232" lon="6.66839">
        <ele>451.10160117112</ele>
        <time>2000-01-01T00:00:00Z</time>
      </trkpt>
      <trkpt lat="47.59229" lon="6.66781">
        <ele>452</ele>
        <time>2000-01-01T00:00:00Z</time>
      </trkpt>
      <trkpt lat="47.59226" lon="6.66728">
        <ele>454.73</ele>
        <time>2000-01-01T00:00:00Z</time>
      </trkpt>
      <trkpt lat="47.59224" lon="6.66692">
        <ele>457.97</ele>
        <time>2000-01-01T00:00:00Z</time>
      </trkpt>
      <trkpt lat="47.59224" lon="6.66688">
        <ele>458.34405946216</ele>
        <time>2000-01-01T00:00:00Z</time>
      </trkpt>
      <trkpt lat="47.59233" lon="6.6666">
        <ele>461.19</ele>
        <time>2000-01-01T00:00:00Z</time>
      </trkpt>
      <trkpt lat="47.59234" lon="6.66658">
        <ele>461.4001718225</ele>
        <time>2000-01-01T00:00:00Z</time>
      </trkpt>
      <trkpt lat="47.59246" lon="6.66629">
        <ele>464.79</ele>
        <time>2000-01-01T00:00:00Z</time>
      </trkpt>
      <trkpt lat="47.59246" lon="6.66628">
        <ele>464.88141169951</ele>
        <time>2000-01-01T00:00:00Z</time>
      </trkpt>
      <trkpt lat="47.59255" lon="6.6661">
        <ele>466.30723389255</ele>
        <time>2000-01-01T00:00:00Z</time>
      </trkpt>
      <trkpt lat="47.59269" lon="6.66589">
        <ele>468.18</ele>
        <time>2000-01-01T00:00:00Z</time>
      </trkpt>
      <trkpt lat="47.59279" lon="6.66572">
        <ele>470.04692101076</ele>
        <time>2000-01-01T00:00:00Z</time>
      </trkpt>
      <trkpt lat="47.59284" lon="6.66562">
        <ele>471.11</ele>
        <time>2000-01-01T00:00:00Z</time>
      </trkpt>
      <trkpt lat="47.59289" lon="6.66551">
        <ele>471.95107694937</ele>
        <time>2000-01-01T00:00:00Z</time>
      </trkpt>
      <trkpt lat="47.59297" lon="6.66531">
        <ele>473.44</ele>
        <time>2000-01-01T00:00:00Z</time>
      </trkpt>
      <trkpt lat="47.59307" lon="6.66504">
        <ele>474.87008479273</ele>
        <time>2000-01-01T00:00:00Z</time>
      </trkpt>
      <trkpt lat="47.59308" lon="6.665">
        <ele>475.06</ele>
        <time>2000-01-01T00:00:00Z</time>
      </trkpt>
      <trkpt lat="47.59323" lon="6.66452">
        <ele>476.5</ele>
        <time>2000-01-01T00:00:00Z</time>
      </trkpt>
      <trkpt lat="47.59334" lon="6.6642">
        <ele>477.54</ele>
        <time>2000-01-01T00:00:00Z</time>
      </trkpt>
      <trkpt lat="47.59336" lon="6.66412">
        <ele>477.79655264084</ele>
        <time>2000-01-01T00:00:00Z</time>
      </trkpt>
      <trkpt lat="47.59348" lon="6.66392">
        <ele>478.6</ele>
        <time>2000-01-01T00:00:00Z</time>
      </trkpt>
      <trkpt lat="47.59363" lon="6.66365">
        <ele>479.75</ele>
        <time>2000-01-01T00:00:00Z</time>
      </trkpt>
      <trkpt lat="47.59369" lon="6.66355">
        <ele>479.99760445048</ele>
        <time>2000-01-01T00:00:00Z</time>
      </trkpt>
      <trkpt lat="47.59386" lon="6.66323">
        <ele>480.79</ele>
        <time>2000-01-01T00:00:00Z</time>
      </trkpt>
      <trkpt lat="47.59389" lon="6.66316">
        <ele>481.12829967401</ele>
        <time>2000-01-01T00:00:00Z</time>
      </trkpt>
      <trkpt lat="47.59403" lon="6.66298">
        <ele>482.22</ele>
        <time>2000-01-01T00:00:00Z</time>
      </trkpt>
      <trkpt lat="47.59405" lon="6.66295">
        <ele>482.46955980089</ele>
        <time>2000-01-01T00:00:00Z</time>
      </trkpt>
      <trkpt lat="47.59411" lon="6.66285">
        <ele>483.20064979619</ele>
        <time>2000-01-01T00:00:00Z</time>
      </trkpt>
      <trkpt lat="47.59415" lon="6.66281">
        <ele>483.59140827332</ele>
        <time>2000-01-01T00:00:00Z</time>
      </trkpt>
      <trkpt lat="47.59419" lon="6.66273">
        <ele>484.16</ele>
        <time>2000-01-01T00:00:00Z</time>
      </trkpt>
      <trkpt lat="47.59426" lon="6.66259">
        <ele>485.13987731001</ele>
        <time>2000-01-01T00:00:00Z</time>
      </trkpt>
      <trkpt lat="47.59435" lon="6.66246">
        <ele>486.21</ele>
        <time>2000-01-01T00:00:00Z</time>
      </trkpt>
      <trkpt lat="47.5944" lon="6.66238">
        <ele>486.49462204166</ele>
        <time>2000-01-01T00:00:00Z</time>
      </trkpt>
      <trkpt lat="47.59441" lon="6.66196">
        <ele>487.59</ele>
        <time>2000-01-01T00:00:00Z</time>
      </trkpt>
      <trkpt lat="47.59441" lon="6.6616">
        <ele>487.93</ele>
        <time>2000-01-01T00:00:00Z</time>
      </trkpt>
      <trkpt lat="47.59441" lon="6.66125">
        <ele>487.75</ele>
        <time>2000-01-01T00:00:00Z</time>
      </trkpt>
      <trkpt lat="47.59442" lon="6.6608">
        <ele>487.66609527149</ele>
        <time>2000-01-01T00:00:00Z</time>
      </trkpt>
      <trkpt lat="47.59442" lon="6.66071">
        <ele>487.65</ele>
        <time>2000-01-01T00:00:00Z</time>
      </trkpt>
      <trkpt lat="47.59445" lon="6.66001">
        <ele>487.69</ele>
        <time>2000-01-01T00:00:00Z</time>
      </trkpt>
      <trkpt lat="47.59446" lon="6.65979">
        <ele>487.88669265498</ele>
        <time>2000-01-01T00:00:00Z</time>
      </trkpt>
      <trkpt lat="47.59448" lon="6.65934">
        <ele>488.2980757247</ele>
        <time>2000-01-01T00:00:00Z</time>
      </trkpt>
      <trkpt lat="47.59451" lon="6.65912">
        <ele>488.5</ele>
        <time>2000-01-01T00:00:00Z</time>
      </trkpt>
      <trkpt lat="47.59455" lon="6.65877">
        <ele>490.13</ele>
        <time>2000-01-01T00:00:00Z</time>
      </trkpt>
      <trkpt lat="47.59456" lon="6.65871">
        <ele>490.40433675041</ele>
        <time>2000-01-01T00:00:00Z</time>
      </trkpt>
      <trkpt lat="47.59456" lon="6.65853">
        <ele>491.16957465266</ele>
        <time>2000-01-01T00:00:00Z</time>
      </trkpt>
      <trkpt lat="47.59458" lon="6.65842">
        <ele>491.64</ele>
        <time>2000-01-01T00:00:00Z</time>
      </trkpt>
      <trkpt lat="47.59459" lon="6.65834">
        <ele>492.20373109128</ele>
        <time>2000-01-01T00:00:00Z</time>
      </trkpt>
      <trkpt lat="47.5946" lon="6.65807">
        <ele>494.01</ele>
        <time>2000-01-01T00:00:00Z</time>
      </trkpt>
      <trkpt lat="47.5946" lon="6.65788">
        <ele>494.5927323802</ele>
        <time>2000-01-01T00:00:00Z</time>
      </trkpt>
      <trkpt lat="47.59463" lon="6.65764">
        <ele>495.34317203041</ele>
        <time>2000-01-01T00:00:00Z</time>
      </trkpt>
      <trkpt lat="47.59463" lon="6.65744">
        <ele>495.95806435669</ele>
        <time>2000-01-01T00:00:00Z</time>
      </trkpt>
      <trkpt lat="47.59474" lon="6.65737">
        <ele>496.50378288545</ele>
        <time>2000-01-01T00:00:00Z</time>
      </trkpt>
      <trkpt lat="47.59472" lon="6.6573">
        <ele>496.74</ele>
        <time>2000-01-01T00:00:00Z</time>
      </trkpt>
      <trkpt lat="47.59469" lon="6.65721">
        <ele>496.86327452584</ele>
        <time>2000-01-01T00:00:00Z</time>
      </trkpt>
      <trkpt lat="47.59467" lon="6.65696">
        <ele>497.18</ele>
        <time>2000-01-01T00:00:00Z</time>
      </trkpt>
      <trkpt lat="47.59466" lon="6.65677">
        <ele>496.90685554441</ele>
        <time>2000-01-01T00:00:00Z</time>
      </trkpt>
      <trkpt lat="47.59466" lon="6.6566">
        <ele>496.66</ele>
        <time>2000-01-01T00:00:00Z</time>
      </trkpt>
      <trkpt lat="47.59467" lon="6.65618">
        <ele>496.54922159584</ele>
        <time>2000-01-01T00:00:00Z</time>
      </trkpt>
      <trkpt lat="47.59464" lon="6.65608">
        <ele>496.52</ele>
        <time>2000-01-01T00:00:00Z</time>
      </trkpt>
      <trkpt lat="47.59463" lon="6.65604">
        <ele>496.47170422764</ele>
        <time>2000-01-01T00:00:00Z</time>
      </trkpt>
      <trkpt lat="47.59443" lon="6.65595">
        <ele>496.1</ele>
        <time>2000-01-01T00:00:00Z</time>
      </trkpt>
      <trkpt lat="47.59431" lon="6.6559">
        <ele>495.57686837784</ele>
        <time>2000-01-01T00:00:00Z</time>
      </trkpt>
      <trkpt lat="47.5942" lon="6.65582">
        <ele>495.07</ele>
        <time>2000-01-01T00:00:00Z</time>
      </trkpt>
      <trkpt lat="47.59413" lon="6.65577">
        <ele>494.6712239406</ele>
        <time>2000-01-01T00:00:00Z</time>
      </trkpt>
      <trkpt lat="47.59402" lon="6.65561">
        <ele>493.91</ele>
        <time>2000-01-01T00:00:00Z</time>
      </trkpt>
      <trkpt lat="47.59376" lon="6.65523">
        <ele>492.25</ele>
        <time>2000-01-01T00:00:00Z</time>
      </trkpt>
      <trkpt lat="47.59369" lon="6.65513">
        <ele>491.24512672565</ele>
        <time>2000-01-01T00:00:00Z</time>
      </trkpt>
      <trkpt lat="47.59362" lon="6.65495">
        <ele>489.84</ele>
        <time>2000-01-01T00:00:00Z</time>
      </trkpt>
      <trkpt lat="47.59351" lon="6.65464">
        <ele>487.71</ele>
        <time>2000-01-01T00:00:00Z</time>
      </trkpt>
      <trkpt lat="47.59348" lon="6.65456">
        <ele>487.32676877095</ele>
        <time>2000-01-01T00:00:00Z</time>
      </trkpt>
      <trkpt lat="47.59344" lon="6.6543">
        <ele>486.15</ele>
        <time>2000-01-01T00:00:00Z</time>
      </trkpt>
      <trkpt lat="47.59337" lon="6.65387">
        <ele>485.04056682791</ele>
        <time>2000-01-01T00:00:00Z</time>
      </trkpt>
      <trkpt lat="47.59333" lon="6.6538">
        <ele>484.81</ele>
        <time>2000-01-01T00:00:00Z</time>
      </trkpt>
      <trkpt lat="47.59318" lon="6.65353">
        <ele>483.94</ele>
        <time>2000-01-01T00:00:00Z</time>
      </trkpt>
      <trkpt lat="47.59315" lon="6.65348">
        <ele>483.75094171812</ele>
        <time>2000-01-01T00:00:00Z</time>
      </trkpt>
      <trkpt lat="47.59304" lon="6.65323">
        <ele>482.85</ele>
        <time>2000-01-01T00:00:00Z</time>
      </trkpt>
      <trkpt lat="47.59299" lon="6.65311">
        <ele>481.98698408158</ele>
        <time>2000-01-01T00:00:00Z</time>
      </trkpt>
      <trkpt lat="47.59294" lon="6.65292">
        <ele>480.75</ele>
        <time>2000-01-01T00:00:00Z</time>
      </trkpt>
      <trkpt lat="47.59286" lon="6.65264">
        <ele>479.51057928879</ele>
        <time>2000-01-01T00:00:00Z</time>
      </trkpt>
      <trkpt lat="47.59278" lon="6.65244">
        <ele>478.54</ele>
        <time>2000-01-01T00:00:00Z</time>
      </trkpt>
      <trkpt lat="47.59272" lon="6.65228">
        <ele>477.609473695</ele>
        <time>2000-01-01T00:00:00Z</time>
      </trkpt>
      <trkpt lat="47.59269" lon="6.65211">
        <ele>476.72</ele>
        <time>2000-01-01T00:00:00Z</time>
      </trkpt>
      <trkpt lat="47.59265" lon="6.65187">
        <ele>475.82837110524</ele>
        <time>2000-01-01T00:00:00Z</time>
      </trkpt>
      <trkpt lat="47.59264" lon="6.65177">
        <ele>475.45</ele>
        <time>2000-01-01T00:00:00Z</time>
      </trkpt>
      <trkpt lat="47.59261" lon="6.65141">
        <ele>474.09</ele>
        <time>2000-01-01T00:00:00Z</time>
      </trkpt>
      <trkpt lat="47.5926" lon="6.65135">
        <ele>473.89456128873</ele>
        <time>2000-01-01T00:00:00Z</time>
      </trkpt>
      <trkpt lat="47.59262" lon="6.65088">
        <ele>472.47</ele>
        <time>2000-01-01T00:00:00Z</time>
      </trkpt>
      <trkpt lat="47.59263" lon="6.65055">
        <ele>471.15836680208</ele>
        <time>2000-01-01T00:00:00Z</time>
      </trkpt>
      <trkpt lat="47.59263" lon="6.65053">
        <ele>471.07</ele>
        <time>2000-01-01T00:00:00Z</time>
      </trkpt>
      <trkpt lat="47.59259" lon="6.65023">
        <ele>469.46597925006</ele>
        <time>2000-01-01T00:00:00Z</time>
      </trkpt>
      <trkpt lat="47.59257" lon="6.65019">
        <ele>469.19</ele>
        <time>2000-01-01T00:00:00Z</time>
      </trkpt>
      <trkpt lat="47.59245" lon="6.64996">
        <ele>466.56684141892</ele>
        <time>2000-01-01T00:00:00Z</time>
      </trkpt>
      <trkpt lat="47.59241" lon="6.64992">
        <ele>465.96</ele>
        <time>2000-01-01T00:00:00Z</time>
      </trkpt>
      <trkpt lat="47.59218" lon="6.64965">
        <ele>463.55873033411</ele>
        <time>2000-01-01T00:00:00Z</time>
      </trkpt>
      <trkpt lat="47.59213" lon="6.64959">
        <ele>463.05</ele>
        <time>2000-01-01T00:00:00Z</time>
      </trkpt>
      <trkpt lat="47.59195" lon="6.64935">
        <ele>460.88</ele>
        <time>2000-01-01T00:00:00Z</time>
      </trkpt>
      <trkpt lat="47.59184" lon="6.6492">
        <ele>459.43897937575</ele>
        <time>2000-01-01T00:00:00Z</time>
      </trkpt>
      <trkpt lat="47.59177" lon="6.64913">
        <ele>458.63</ele>
        <time>2000-01-01T00:00:00Z</time>
      </trkpt>
      <trkpt lat="47.59147" lon="6.64884">
        <ele>456.98</ele>
        <time>2000-01-01T00:00:00Z</time>
      </trkpt>
      <trkpt lat="47.59135" lon="6.64873">
        <ele>456.7088709272</ele>
        <time>2000-01-01T00:00:00Z</time>
      </trkpt>
      <trkpt lat="47.59113" lon="6.64843">
        <ele>456.1223865797</ele>
        <time>2000-01-01T00:00:00Z</time>
      </trkpt>
      <trkpt lat="47.59111" lon="6.64837">
        <ele>456.04</ele>
        <time>2000-01-01T00:00:00Z</time>
      </trkpt>
      <trkpt lat="47.59102" lon="6.64808">
        <ele>455.94880669626</ele>
        <time>2000-01-01T00:00:00Z</time>
      </trkpt>
      <trkpt lat="47.59101" lon="6.64805">
        <ele>455.94</ele>
        <time>2000-01-01T00:00:00Z</time>
      </trkpt>
      <trkpt lat="47.59083" lon="6.64759">
        <ele>456.65</ele>
        <time>2000-01-01T00:00:00Z</time>
      </trkpt>
      <trkpt lat="47.59073" lon="6.64734">
        <ele>457.18412716465</ele>
        <time>2000-01-01T00:00:00Z</time>
      </trkpt>
      <trkpt lat="47.59071" lon="6.64728">
        <ele>457.3</ele>
        <time>2000-01-01T00:00:00Z</time>
      </trkpt>
      <trkpt lat="47.59062" lon="6.64695">
        <ele>458.18</ele>
        <time>2000-01-01T00:00:00Z</time>
      </trkpt>
      <trkpt lat="47.59053" lon="6.64663">
        <ele>459.79</ele>
        <time>2000-01-01T00:00:00Z</time>
      </trkpt>
      <trkpt lat="47.59048" lon="6.64645">
        <ele>460.39427510039</ele>
        <time>2000-01-01T00:00:00Z</time>
      </trkpt>
      <trkpt lat="47.59037" lon="6.64615">
        <ele>461.48</ele>
        <time>2000-01-01T00:00:00Z</time>
      </trkpt>
      <trkpt lat="47.59026" lon="6.64583">
        <ele>463.25</ele>
        <time>2000-01-01T00:00:00Z</time>
      </trkpt>
      <trkpt lat="47.59015" lon="6.64552">
        <ele>465.32</ele>
        <time>2000-01-01T00:00:00Z</time>
      </trkpt>
      <trkpt lat="47.59004" lon="6.64521">
        <ele>467.16</ele>
        <time>2000-01-01T00:00:00Z</time>
      </trkpt>
      <trkpt lat="47.59" lon="6.64511">
        <ele>467.41914673817</ele>
        <time>2000-01-01T00:00:00Z</time>
      </trkpt>
      <trkpt lat="47.58986" lon="6.64474">
        <ele>468.42</ele>
        <time>2000-01-01T00:00:00Z</time>
      </trkpt>
      <trkpt lat="47.58976" lon="6.64447">
        <ele>469.11630673102</ele>
        <time>2000-01-01T00:00:00Z</time>
      </trkpt>
      <trkpt lat="47.58974" lon="6.64443">
        <ele>469.22</ele>
        <time>2000-01-01T00:00:00Z</time>
      </trkpt>
      <trkpt lat="47.58961" lon="6.64413">
        <ele>469.78</ele>
        <time>2000-01-01T00:00:00Z</time>
      </trkpt>
      <trkpt lat="47.58949" lon="6.64383">
        <ele>470.53</ele>
        <time>2000-01-01T00:00:00Z</time>
      </trkpt>
      <trkpt lat="47.58941" lon="6.64366">
        <ele>471.04728491292</ele>
        <time>2000-01-01T00:00:00Z</time>
      </trkpt>
      <trkpt lat="47.5893" lon="6.64338">
        <ele>471.87</ele>
        <time>2000-01-01T00:00:00Z</time>
      </trkpt>
      <trkpt lat="47.58918" lon="6.64307">
        <ele>473.3</ele>
        <time>2000-01-01T00:00:00Z</time>
      </trkpt>
      <trkpt lat="47.58916" lon="6.64301">
        <ele>473.48968336595</ele>
        <time>2000-01-01T00:00:00Z</time>
      </trkpt>
      <trkpt lat="47.58904" lon="6.64279">
        <ele>474.32</ele>
        <time>2000-01-01T00:00:00Z</time>
      </trkpt>
      <trkpt lat="47.58893" lon="6.6426">
        <ele>474.35025285009</ele>
        <time>2000-01-01T00:00:00Z</time>
      </trkpt>
      <trkpt lat="47.58868" lon="6.64207">
        <ele>474.43</ele>
        <time>2000-01-01T00:00:00Z</time>
      </trkpt>
      <trkpt lat="47.58855" lon="6.64178">
        <ele>473.83</ele>
        <time>2000-01-01T00:00:00Z</time>
      </trkpt>
      <trkpt lat="47.58846" lon="6.64159">
        <ele>473.43151075133</ele>
        <time>2000-01-01T00:00:00Z</time>
      </trkpt>
      <trkpt lat="47.58841" lon="6.64149">
        <ele>473.21</ele>
        <time>2000-01-01T00:00:00Z</time>
      </trkpt>
      <trkpt lat="47.58827" lon="6.6412">
        <ele>472.6</ele>
        <time>2000-01-01T00:00:00Z</time>
      </trkpt>
      <trkpt lat="47.58775" lon="6.63984">
        <ele>466.2</ele>
      </trkpt>
      <trkpt lat="47.58775" lon="6.63984">
        <ele>466.2</ele>
      </trkpt>
      <trkpt lat="47.58727" lon="6.638">
        <ele>456.5</ele>
      </trkpt>
      <trkpt lat="47.58727" lon="6.638">
        <ele>456.5</ele>
      </trkpt>
      <trkpt lat="47.58667" lon="6.63704">
        <ele>454.4</ele>
      </trkpt>
      <trkpt lat="47.58667" lon="6.63704">
        <ele>454.4</ele>
      </trkpt>
      <trkpt lat="47.58586" lon="6.63704">
        <ele>453.6</ele>
      </trkpt>
      <trkpt lat="47.58586" lon="6.63704">
        <ele>453.6</ele>
      </trkpt>
      <trkpt lat="47.585" lon="6.63576">
        <ele>461.1</ele>
      </trkpt>
      <trkpt lat="47.585" lon="6.63576">
        <ele>461.1</ele>
      </trkpt>
      <trkpt lat="47.58402" lon="6.6356">
        <ele>460.4</ele>
      </trkpt>
      <trkpt lat="47.58402" lon="6.6356">
        <ele>460.4</ele>
      </trkpt>
      <trkpt lat="47.58365" lon="6.6344">
        <ele>452.9</ele>
      </trkpt>
      <trkpt lat="47.58365" lon="6.6344">
        <ele>452.9</ele>
      </trkpt>
      <trkpt lat="47.5844" lon="6.6332">
        <ele>448.8</ele>
      </trkpt>
      <trkpt lat="47.5844" lon="6.6332">
        <ele>448.8</ele>
      </trkpt>
      <trkpt lat="47.58435" lon="6.63167">
        <ele>439.6</ele>
      </trkpt>
      <trkpt lat="47.58435" lon="6.63167">
        <ele>439.6</ele>
      </trkpt>
      <trkpt lat="47.58521" lon="6.63095">
        <ele>439.3</ele>
      </trkpt>
      <trkpt lat="47.58521" lon="6.63095">
        <ele>439.3</ele>
      </trkpt>
      <trkpt lat="47.5857" lon="6.63079">
        <ele>433.4</ele>
      </trkpt>
      <trkpt lat="47.5857" lon="6.63079">
        <ele>433.4</ele>
      </trkpt>
      <trkpt lat="47.58629" lon="6.62919">
        <ele>431.4</ele>
      </trkpt>
      <trkpt lat="47.58629" lon="6.62919">
        <ele>431.4</ele>
      </trkpt>
      <trkpt lat="47.58743" lon="6.62775">
        <ele>419.6</ele>
      </trkpt>
      <trkpt lat="47.58743" lon="6.62775">
        <ele>419.6</ele>
      </trkpt>
      <trkpt lat="47.58905" lon="6.62391">
        <ele>438.4</ele>
      </trkpt>
      <trkpt lat="47.58905" lon="6.62391">
        <ele>438.4</ele>
      </trkpt>
    </trkseg>
  </trk>
  <trk>
    <name><![CDATA[mega parcours rouge_5]]></name>
    <trkseg>
      <trkpt lat="47.63555" lon="6.65155">
        <ele>329.20001220703</ele>
        <time>2020-07-26T07:48:11.000Z</time>
      </trkpt>
      <trkpt lat="47.63551" lon="6.65172">
        <ele>328.60000610352</ele>
        <time>2020-07-26T07:48:13.000Z</time>
      </trkpt>
      <trkpt lat="47.63547" lon="6.65182">
        <ele>328.20001220703</ele>
        <time>2020-07-26T07:48:15.000Z</time>
      </trkpt>
      <trkpt lat="47.63546" lon="6.65188">
        <ele>327.60000610352</ele>
        <time>2020-07-26T07:48:18.000Z</time>
      </trkpt>
      <trkpt lat="47.63548" lon="6.6519">
        <ele>326.20001220703</ele>
        <time>2020-07-26T07:48:21.000Z</time>
      </trkpt>
      <trkpt lat="47.63545" lon="6.65199">
        <ele>325.79998779297</ele>
        <time>2020-07-26T07:48:27.000Z</time>
      </trkpt>
      <trkpt lat="47.63548" lon="6.65206">
        <ele>325.60000610352</ele>
        <time>2020-07-26T07:48:32.000Z</time>
      </trkpt>
      <trkpt lat="47.6355" lon="6.65206">
        <ele>325.60000610352</ele>
        <time>2020-07-26T07:48:33.000Z</time>
      </trkpt>
      <trkpt lat="47.63557" lon="6.65214">
        <ele>325.60000610352</ele>
        <time>2020-07-26T07:48:39.000Z</time>
      </trkpt>
      <trkpt lat="47.6357" lon="6.65228">
        <ele>325.60000610352</ele>
        <time>2020-07-26T07:48:49.000Z</time>
      </trkpt>
      <trkpt lat="47.63581" lon="6.65237">
        <ele>325.60000610352</ele>
        <time>2020-07-26T07:48:56.000Z</time>
      </trkpt>
      <trkpt lat="47.63597" lon="6.6524">
        <ele>326.20001220703</ele>
        <time>2020-07-26T07:49:02.000Z</time>
      </trkpt>
      <trkpt lat="47.6362" lon="6.65235">
        <ele>326.39999389648</ele>
        <time>2020-07-26T07:49:09.000Z</time>
      </trkpt>
      <trkpt lat="47.63642" lon="6.65229">
        <ele>326.79998779297</ele>
        <time>2020-07-26T07:49:16.000Z</time>
      </trkpt>
      <trkpt lat="47.63657" lon="6.65235">
        <ele>327.39999389648</ele>
        <time>2020-07-26T07:49:21.000Z</time>
      </trkpt>
      <trkpt lat="47.6366" lon="6.65236">
        <ele>327.39999389648</ele>
        <time>2020-07-26T07:49:22.000Z</time>
      </trkpt>
      <trkpt lat="47.63676" lon="6.65244">
        <ele>328.60000610352</ele>
        <time>2020-07-26T07:49:28.000Z</time>
      </trkpt>
      <trkpt lat="47.63685" lon="6.65248">
        <ele>329.79998779297</ele>
        <time>2020-07-26T07:49:32.000Z</time>
      </trkpt>
      <trkpt lat="47.63697" lon="6.6525">
        <ele>330.79998779297</ele>
        <time>2020-07-26T07:49:36.000Z</time>
      </trkpt>
      <trkpt lat="47.63713" lon="6.65248">
        <ele>331.79998779297</ele>
        <time>2020-07-26T07:49:41.000Z</time>
      </trkpt>
      <trkpt lat="47.6372" lon="6.65246">
        <ele>332</ele>
        <time>2020-07-26T07:49:43.000Z</time>
      </trkpt>
      <trkpt lat="47.63734" lon="6.65244">
        <ele>332.79998779297</ele>
        <time>2020-07-26T07:49:47.000Z</time>
      </trkpt>
      <trkpt lat="47.63745" lon="6.65244">
        <ele>333</ele>
        <time>2020-07-26T07:49:50.000Z</time>
      </trkpt>
      <trkpt lat="47.63774" lon="6.65247">
        <ele>333.39999389648</ele>
        <time>2020-07-26T07:49:58.000Z</time>
      </trkpt>
      <trkpt lat="47.63796" lon="6.65267">
        <ele>333.39999389648</ele>
        <time>2020-07-26T07:50:04.000Z</time>
      </trkpt>
      <trkpt lat="47.63803" lon="6.65274">
        <ele>333.39999389648</ele>
        <time>2020-07-26T07:50:06.000Z</time>
      </trkpt>
      <trkpt lat="47.63819" lon="6.65287">
        <ele>333.60000610352</ele>
        <time>2020-07-26T07:50:11.000Z</time>
      </trkpt>
      <trkpt lat="47.63843" lon="6.65301">
        <ele>334</ele>
        <time>2020-07-26T07:50:18.000Z</time>
      </trkpt>
      <trkpt lat="47.63847" lon="6.65302">
        <ele>334.20001220703</ele>
        <time>2020-07-26T07:50:19.000Z</time>
      </trkpt>
      <trkpt lat="47.63884" lon="6.6532">
        <ele>334.39999389648</ele>
        <time>2020-07-26T07:50:28.000Z</time>
      </trkpt>
      <trkpt lat="47.63892" lon="6.65327">
        <ele>334</ele>
        <time>2020-07-26T07:50:32.000Z</time>
      </trkpt>
      <trkpt lat="47.63893" lon="6.65329">
        <ele>334.20001220703</ele>
        <time>2020-07-26T07:50:44.000Z</time>
      </trkpt>
      <trkpt lat="47.63893" lon="6.65329">
        <ele>334.20001220703</ele>
        <time>2020-07-26T07:51:03.000Z</time>
      </trkpt>
      <trkpt lat="47.63893" lon="6.65329">
        <ele>333.79998779297</ele>
        <time>2020-07-26T07:51:22.000Z</time>
      </trkpt>
      <trkpt lat="47.63893" lon="6.6533">
        <ele>333.79998779297</ele>
        <time>2020-07-26T07:51:32.000Z</time>
      </trkpt>
      <trkpt lat="47.63893" lon="6.65334">
        <ele>333.79998779297</ele>
        <time>2020-07-26T07:51:34.000Z</time>
      </trkpt>
      <trkpt lat="47.6389" lon="6.6534">
        <ele>333.39999389648</ele>
        <time>2020-07-26T07:51:41.000Z</time>
      </trkpt>
      <trkpt lat="47.63889" lon="6.65342">
        <ele>333.39999389648</ele>
        <time>2020-07-26T07:51:43.000Z</time>
      </trkpt>
      <trkpt lat="47.63885" lon="6.65348">
        <ele>332.79998779297</ele>
        <time>2020-07-26T07:51:48.000Z</time>
      </trkpt>
      <trkpt lat="47.63879" lon="6.65354">
        <ele>332.39999389648</ele>
        <time>2020-07-26T07:51:51.000Z</time>
      </trkpt>
      <trkpt lat="47.63877" lon="6.65356">
        <ele>332</ele>
        <time>2020-07-26T07:51:52.000Z</time>
      </trkpt>
      <trkpt lat="47.63874" lon="6.65363">
        <ele>331.60000610352</ele>
        <time>2020-07-26T07:51:55.000Z</time>
      </trkpt>
      <trkpt lat="47.63874" lon="6.65366">
        <ele>331.20001220703</ele>
        <time>2020-07-26T07:51:57.000Z</time>
      </trkpt>
      <trkpt lat="47.63876" lon="6.65366">
        <ele>330.20001220703</ele>
        <time>2020-07-26T07:52:03.000Z</time>
      </trkpt>
      <trkpt lat="47.63877" lon="6.65365">
        <ele>330</ele>
        <time>2020-07-26T07:52:04.000Z</time>
      </trkpt>
      <trkpt lat="47.63882" lon="6.65354">
        <ele>330</ele>
        <time>2020-07-26T07:52:11.000Z</time>
      </trkpt>
      <trkpt lat="47.63888" lon="6.65345">
        <ele>331</ele>
        <time>2020-07-26T07:52:18.000Z</time>
      </trkpt>
      <trkpt lat="47.63892" lon="6.65337">
        <ele>332.20001220703</ele>
        <time>2020-07-26T07:52:26.000Z</time>
      </trkpt>
      <trkpt lat="47.63892" lon="6.65337">
        <ele>332.39999389648</ele>
        <time>2020-07-26T07:52:27.000Z</time>
      </trkpt>
      <trkpt lat="47.63892" lon="6.65338">
        <ele>333.20001220703</ele>
        <time>2020-07-26T07:52:32.000Z</time>
      </trkpt>
      <trkpt lat="47.63893" lon="6.65342">
        <ele>333.60000610352</ele>
        <time>2020-07-26T07:52:37.000Z</time>
      </trkpt>
      <trkpt lat="47.63894" lon="6.65343">
        <ele>333.60000610352</ele>
        <time>2020-07-26T07:52:38.000Z</time>
      </trkpt>
      <trkpt lat="47.63899" lon="6.6535">
        <ele>333.60000610352</ele>
        <time>2020-07-26T07:52:42.000Z</time>
      </trkpt>
      <trkpt lat="47.639" lon="6.65351">
        <ele>333.60000610352</ele>
        <time>2020-07-26T07:52:43.000Z</time>
      </trkpt>
      <trkpt lat="47.63901" lon="6.65353">
        <ele>333.60000610352</ele>
        <time>2020-07-26T07:52:44.000Z</time>
      </trkpt>
      <trkpt lat="47.639" lon="6.65359">
        <ele>333</ele>
        <time>2020-07-26T07:52:48.000Z</time>
      </trkpt>
      <trkpt lat="47.639" lon="6.65367">
        <ele>332.20001220703</ele>
        <time>2020-07-26T07:52:52.000Z</time>
      </trkpt>
      <trkpt lat="47.639" lon="6.65371">
        <ele>331.79998779297</ele>
        <time>2020-07-26T07:52:54.000Z</time>
      </trkpt>
      <trkpt lat="47.63899" lon="6.65378">
        <ele>331</ele>
        <time>2020-07-26T07:52:58.000Z</time>
      </trkpt>
      <trkpt lat="47.63899" lon="6.6538">
        <ele>330.79998779297</ele>
        <time>2020-07-26T07:52:59.000Z</time>
      </trkpt>
      <trkpt lat="47.63899" lon="6.65388">
        <ele>330.39999389648</ele>
        <time>2020-07-26T07:53:03.000Z</time>
      </trkpt>
      <trkpt lat="47.63899" lon="6.65391">
        <ele>330.20001220703</ele>
        <time>2020-07-26T07:53:04.000Z</time>
      </trkpt>
      <trkpt lat="47.63899" lon="6.65399">
        <ele>330</ele>
        <time>2020-07-26T07:53:07.000Z</time>
      </trkpt>
      <trkpt lat="47.63897" lon="6.65404">
        <ele>329.79998779297</ele>
        <time>2020-07-26T07:53:11.000Z</time>
      </trkpt>
      <trkpt lat="47.63893" lon="6.65418">
        <ele>329.60000610352</ele>
        <time>2020-07-26T07:53:24.000Z</time>
      </trkpt>
      <trkpt lat="47.63893" lon="6.65419">
        <ele>329.60000610352</ele>
        <time>2020-07-26T07:53:42.000Z</time>
      </trkpt>
      <trkpt lat="47.63892" lon="6.65419">
        <ele>330</ele>
        <time>2020-07-26T07:53:56.000Z</time>
      </trkpt>
      <trkpt lat="47.63893" lon="6.65415">
        <ele>329.60000610352</ele>
        <time>2020-07-26T07:54:10.000Z</time>
      </trkpt>
      <trkpt lat="47.63894" lon="6.65407">
        <ele>329.39999389648</ele>
        <time>2020-07-26T07:54:23.000Z</time>
      </trkpt>
      <trkpt lat="47.63893" lon="6.65393">
        <ele>329.60000610352</ele>
        <time>2020-07-26T07:54:34.000Z</time>
      </trkpt>
      <trkpt lat="47.63893" lon="6.65386">
        <ele>329.79998779297</ele>
        <time>2020-07-26T07:54:37.000Z</time>
      </trkpt>
      <trkpt lat="47.63894" lon="6.65378">
        <ele>330.60000610352</ele>
        <time>2020-07-26T07:54:42.000Z</time>
      </trkpt>
      <trkpt lat="47.63895" lon="6.65375">
        <ele>330.60000610352</ele>
        <time>2020-07-26T07:54:43.000Z</time>
      </trkpt>
      <trkpt lat="47.63896" lon="6.65371">
        <ele>331</ele>
        <time>2020-07-26T07:54:45.000Z</time>
      </trkpt>
      <trkpt lat="47.63895" lon="6.65359">
        <ele>331.79998779297</ele>
        <time>2020-07-26T07:54:52.000Z</time>
      </trkpt>
      <trkpt lat="47.63895" lon="6.65358">
        <ele>331.79998779297</ele>
        <time>2020-07-26T07:54:54.000Z</time>
      </trkpt>
      <trkpt lat="47.63894" lon="6.65349">
        <ele>332.79998779297</ele>
        <time>2020-07-26T07:55:02.000Z</time>
      </trkpt>
      <trkpt lat="47.63894" lon="6.65349">
        <ele>332.79998779297</ele>
        <time>2020-07-26T07:55:03.000Z</time>
      </trkpt>
      <trkpt lat="47.63891" lon="6.65336">
        <ele>333.79998779297</ele>
        <time>2020-07-26T07:55:12.000Z</time>
      </trkpt>
      <trkpt lat="47.63891" lon="6.65336">
        <ele>333.79998779297</ele>
        <time>2020-07-26T07:55:14.000Z</time>
      </trkpt>
      <trkpt lat="47.63891" lon="6.65335">
        <ele>334.39999389648</ele>
        <time>2020-07-26T07:55:20.000Z</time>
      </trkpt>
      <trkpt lat="47.63891" lon="6.65334">
        <ele>334.60000610352</ele>
        <time>2020-07-26T07:55:37.000Z</time>
      </trkpt>
      <trkpt lat="47.6389" lon="6.65334">
        <ele>334.39999389648</ele>
        <time>2020-07-26T07:55:52.000Z</time>
      </trkpt>
      <trkpt lat="47.6389" lon="6.65333">
        <ele>334.60000610352</ele>
        <time>2020-07-26T07:56:09.000Z</time>
      </trkpt>
      <trkpt lat="47.6389" lon="6.65333">
        <ele>334.39999389648</ele>
        <time>2020-07-26T07:56:22.000Z</time>
      </trkpt>
      <trkpt lat="47.63894" lon="6.65334">
        <ele>334.39999389648</ele>
        <time>2020-07-26T07:56:30.000Z</time>
      </trkpt>
      <trkpt lat="47.63897" lon="6.65337">
        <ele>334.39999389648</ele>
        <time>2020-07-26T07:56:32.000Z</time>
      </trkpt>
      <trkpt lat="47.63903" lon="6.65343">
        <ele>334.39999389648</ele>
        <time>2020-07-26T07:56:36.000Z</time>
      </trkpt>
      <trkpt lat="47.63907" lon="6.65345">
        <ele>334.20001220703</ele>
        <time>2020-07-26T07:56:38.000Z</time>
      </trkpt>
      <trkpt lat="47.6392" lon="6.6535">
        <ele>334</ele>
        <time>2020-07-26T07:56:44.000Z</time>
      </trkpt>
      <trkpt lat="47.6394" lon="6.65354">
        <ele>334</ele>
        <time>2020-07-26T07:56:51.000Z</time>
      </trkpt>
      <trkpt lat="47.63962" lon="6.6535">
        <ele>334</ele>
        <time>2020-07-26T07:56:57.000Z</time>
      </trkpt>
      <trkpt lat="47.64004" lon="6.65355">
        <ele>333.39999389648</ele>
        <time>2020-07-26T07:57:05.000Z</time>
      </trkpt>
      <trkpt lat="47.64034" lon="6.65366">
        <ele>333</ele>
        <time>2020-07-26T07:57:11.000Z</time>
      </trkpt>
      <trkpt lat="47.64066" lon="6.6537">
        <ele>333.20001220703</ele>
        <time>2020-07-26T07:57:18.000Z</time>
      </trkpt>
      <trkpt lat="47.64098" lon="6.6536">
        <ele>333.39999389648</ele>
        <time>2020-07-26T07:57:25.000Z</time>
      </trkpt>
      <trkpt lat="47.64125" lon="6.65347">
        <ele>333.79998779297</ele>
        <time>2020-07-26T07:57:32.000Z</time>
      </trkpt>
      <trkpt lat="47.64147" lon="6.65346">
        <ele>334.39999389648</ele>
        <time>2020-07-26T07:57:38.000Z</time>
      </trkpt>
      <trkpt lat="47.64154" lon="6.65347">
        <ele>334.39999389648</ele>
        <time>2020-07-26T07:57:40.000Z</time>
      </trkpt>
      <trkpt lat="47.64186" lon="6.65361">
        <ele>334.60000610352</ele>
        <time>2020-07-26T07:57:48.000Z</time>
      </trkpt>
      <trkpt lat="47.64215" lon="6.65381">
        <ele>334.39999389648</ele>
        <time>2020-07-26T07:57:54.000Z</time>
      </trkpt>
      <trkpt lat="47.64243" lon="6.65395">
        <ele>335.39999389648</ele>
        <time>2020-07-26T07:58:01.000Z</time>
      </trkpt>
      <trkpt lat="47.6426" lon="6.654">
        <ele>336.39999389648</ele>
        <time>2020-07-26T07:58:06.000Z</time>
      </trkpt>
      <trkpt lat="47.64268" lon="6.65402">
        <ele>336.79998779297</ele>
        <time>2020-07-26T07:58:08.000Z</time>
      </trkpt>
      <trkpt lat="47.64287" lon="6.65406">
        <ele>337.39999389648</ele>
        <time>2020-07-26T07:58:13.000Z</time>
      </trkpt>
      <trkpt lat="47.64293" lon="6.65407">
        <ele>337.60000610352</ele>
        <time>2020-07-26T07:58:14.000Z</time>
      </trkpt>
      <trkpt lat="47.64311" lon="6.65422">
        <ele>338</ele>
        <time>2020-07-26T07:58:18.000Z</time>
      </trkpt>
      <trkpt lat="47.64316" lon="6.65427">
        <ele>338</ele>
        <time>2020-07-26T07:58:19.000Z</time>
      </trkpt>
      <trkpt lat="47.64338" lon="6.65452">
        <ele>338.20001220703</ele>
        <time>2020-07-26T07:58:24.000Z</time>
      </trkpt>
      <trkpt lat="47.64347" lon="6.65461">
        <ele>338.39999389648</ele>
        <time>2020-07-26T07:58:26.000Z</time>
      </trkpt>
      <trkpt lat="47.64363" lon="6.65473">
        <ele>338.39999389648</ele>
        <time>2020-07-26T07:58:29.000Z</time>
      </trkpt>
      <trkpt lat="47.64377" lon="6.65483">
        <ele>338.39999389648</ele>
        <time>2020-07-26T07:58:32.000Z</time>
      </trkpt>
      <trkpt lat="47.64396" lon="6.65498">
        <ele>338.60000610352</ele>
        <time>2020-07-26T07:58:36.000Z</time>
      </trkpt>
      <trkpt lat="47.64424" lon="6.6553">
        <ele>338.79998779297</ele>
        <time>2020-07-26T07:58:43.000Z</time>
      </trkpt>
      <trkpt lat="47.64444" lon="6.65555">
        <ele>339.20001220703</ele>
        <time>2020-07-26T07:58:48.000Z</time>
      </trkpt>
      <trkpt lat="47.64453" lon="6.65564">
        <ele>339.20001220703</ele>
        <time>2020-07-26T07:58:50.000Z</time>
      </trkpt>
      <trkpt lat="47.64457" lon="6.65569">
        <ele>339.20001220703</ele>
        <time>2020-07-26T07:58:51.000Z</time>
      </trkpt>
      <trkpt lat="47.64471" lon="6.6559">
        <ele>339.39999389648</ele>
        <time>2020-07-26T07:58:55.000Z</time>
      </trkpt>
      <trkpt lat="47.64475" lon="6.65595">
        <ele>339.39999389648</ele>
        <time>2020-07-26T07:58:56.000Z</time>
      </trkpt>
      <trkpt lat="47.64498" lon="6.65619">
        <ele>339.39999389648</ele>
        <time>2020-07-26T07:59:02.000Z</time>
      </trkpt>
      <trkpt lat="47.64526" lon="6.65651">
        <ele>339.20001220703</ele>
        <time>2020-07-26T07:59:09.000Z</time>
      </trkpt>
      <trkpt lat="47.64554" lon="6.65692">
        <ele>338.79998779297</ele>
        <time>2020-07-26T07:59:16.000Z</time>
      </trkpt>
      <trkpt lat="47.64582" lon="6.65737">
        <ele>338.20001220703</ele>
        <time>2020-07-26T07:59:24.000Z</time>
      </trkpt>
      <trkpt lat="47.64592" lon="6.65756">
        <ele>338</ele>
        <time>2020-07-26T07:59:27.000Z</time>
      </trkpt>
      <trkpt lat="47.64596" lon="6.6577">
        <ele>338</ele>
        <time>2020-07-26T07:59:29.000Z</time>
      </trkpt>
      <trkpt lat="47.64597" lon="6.65778">
        <ele>338</ele>
        <time>2020-07-26T07:59:30.000Z</time>
      </trkpt>
      <trkpt lat="47.64597" lon="6.658">
        <ele>338</ele>
        <time>2020-07-26T07:59:33.000Z</time>
      </trkpt>
      <trkpt lat="47.64594" lon="6.65812">
        <ele>338</ele>
        <time>2020-07-26T07:59:35.000Z</time>
      </trkpt>
      <trkpt lat="47.64591" lon="6.65827">
        <ele>338.20001220703</ele>
        <time>2020-07-26T07:59:38.000Z</time>
      </trkpt>
      <trkpt lat="47.64584" lon="6.65865">
        <ele>338.20001220703</ele>
        <time>2020-07-26T07:59:45.000Z</time>
      </trkpt>
      <trkpt lat="47.64579" lon="6.65884">
        <ele>339</ele>
        <time>2020-07-26T07:59:50.000Z</time>
      </trkpt>
      <trkpt lat="47.64577" lon="6.65889">
        <ele>340</ele>
        <time>2020-07-26T07:59:54.000Z</time>
      </trkpt>
      <trkpt lat="47.64577" lon="6.6589">
        <ele>340.60000610352</ele>
        <time>2020-07-26T07:59:56.000Z</time>
      </trkpt>
      <trkpt lat="47.64576" lon="6.65891">
        <ele>341.20001220703</ele>
        <time>2020-07-26T07:59:58.000Z</time>
      </trkpt>
      <trkpt lat="47.64577" lon="6.65892">
        <ele>342.20001220703</ele>
        <time>2020-07-26T08:00:09.000Z</time>
      </trkpt>
      <trkpt lat="47.64576" lon="6.65896">
        <ele>342.20001220703</ele>
        <time>2020-07-26T08:00:16.000Z</time>
      </trkpt>
      <trkpt lat="47.64576" lon="6.659">
        <ele>342.60000610352</ele>
        <time>2020-07-26T08:00:25.000Z</time>
      </trkpt>
      <trkpt lat="47.64573" lon="6.65897">
        <ele>342.60000610352</ele>
        <time>2020-07-26T08:00:39.000Z</time>
      </trkpt>
      <trkpt lat="47.6457" lon="6.65895">
        <ele>342.39999389648</ele>
        <time>2020-07-26T08:00:41.000Z</time>
      </trkpt>
      <trkpt lat="47.64566" lon="6.65883">
        <ele>342.39999389648</ele>
        <time>2020-07-26T08:00:45.000Z</time>
      </trkpt>
      <trkpt lat="47.64564" lon="6.65878">
        <ele>342.39999389648</ele>
        <time>2020-07-26T08:00:46.000Z</time>
      </trkpt>
      <trkpt lat="47.64563" lon="6.65868">
        <ele>340.79998779297</ele>
        <time>2020-07-26T08:00:49.000Z</time>
      </trkpt>
      <trkpt lat="47.64561" lon="6.65864">
        <ele>339.60000610352</ele>
        <time>2020-07-26T08:00:51.000Z</time>
      </trkpt>
      <trkpt lat="47.64555" lon="6.65851">
        <ele>338.60000610352</ele>
        <time>2020-07-26T08:00:56.000Z</time>
      </trkpt>
      <trkpt lat="47.6455" lon="6.65834">
        <ele>338.60000610352</ele>
        <time>2020-07-26T08:01:02.000Z</time>
      </trkpt>
      <trkpt lat="47.64549" lon="6.65832">
        <ele>338.79998779297</ele>
        <time>2020-07-26T08:01:03.000Z</time>
      </trkpt>
      <trkpt lat="47.64544" lon="6.65824">
        <ele>340.60000610352</ele>
        <time>2020-07-26T08:01:07.000Z</time>
      </trkpt>
      <trkpt lat="47.64541" lon="6.65814">
        <ele>342</ele>
        <time>2020-07-26T08:01:10.000Z</time>
      </trkpt>
      <trkpt lat="47.64534" lon="6.65809">
        <ele>343.20001220703</ele>
        <time>2020-07-26T08:01:14.000Z</time>
      </trkpt>
      <trkpt lat="47.6453" lon="6.65809">
        <ele>343.79998779297</ele>
        <time>2020-07-26T08:01:16.000Z</time>
      </trkpt>
      <trkpt lat="47.64528" lon="6.65809">
        <ele>344</ele>
        <time>2020-07-26T08:01:17.000Z</time>
      </trkpt>
      <trkpt lat="47.64526" lon="6.6581">
        <ele>344.39999389648</ele>
        <time>2020-07-26T08:01:18.000Z</time>
      </trkpt>
      <trkpt lat="47.64517" lon="6.65817">
        <ele>345.39999389648</ele>
        <time>2020-07-26T08:01:24.000Z</time>
      </trkpt>
      <trkpt lat="47.64515" lon="6.65819">
        <ele>346.20001220703</ele>
        <time>2020-07-26T08:01:26.000Z</time>
      </trkpt>
      <trkpt lat="47.64514" lon="6.6582">
        <ele>346.60000610352</ele>
        <time>2020-07-26T08:01:27.000Z</time>
      </trkpt>
      <trkpt lat="47.64513" lon="6.65821">
        <ele>346.79998779297</ele>
        <time>2020-07-26T08:01:28.000Z</time>
      </trkpt>
      <trkpt lat="47.64512" lon="6.65825">
        <ele>347.60000610352</ele>
        <time>2020-07-26T08:01:31.000Z</time>
      </trkpt>
      <trkpt lat="47.64511" lon="6.65828">
        <ele>348</ele>
        <time>2020-07-26T08:01:33.000Z</time>
      </trkpt>
      <trkpt lat="47.6451" lon="6.65832">
        <ele>348.60000610352</ele>
        <time>2020-07-26T08:01:36.000Z</time>
      </trkpt>
      <trkpt lat="47.64509" lon="6.65837">
        <ele>349.20001220703</ele>
        <time>2020-07-26T08:01:39.000Z</time>
      </trkpt>
      <trkpt lat="47.64507" lon="6.65842">
        <ele>349.79998779297</ele>
        <time>2020-07-26T08:01:42.000Z</time>
      </trkpt>
      <trkpt lat="47.64504" lon="6.65851">
        <ele>351.20001220703</ele>
        <time>2020-07-26T08:01:47.000Z</time>
      </trkpt>
      <trkpt lat="47.64503" lon="6.65854">
        <ele>351.39999389648</ele>
        <time>2020-07-26T08:01:49.000Z</time>
      </trkpt>
      <trkpt lat="47.64501" lon="6.65861">
        <ele>352.20001220703</ele>
        <time>2020-07-26T08:01:53.000Z</time>
      </trkpt>
      <trkpt lat="47.64498" lon="6.65866">
        <ele>352.79998779297</ele>
        <time>2020-07-26T08:01:57.000Z</time>
      </trkpt>
      <trkpt lat="47.64496" lon="6.65868">
        <ele>353</ele>
        <time>2020-07-26T08:01:59.000Z</time>
      </trkpt>
      <trkpt lat="47.6449" lon="6.6587">
        <ele>354</ele>
        <time>2020-07-26T08:02:04.000Z</time>
      </trkpt>
      <trkpt lat="47.64489" lon="6.6587">
        <ele>354.20001220703</ele>
        <time>2020-07-26T08:02:05.000Z</time>
      </trkpt>
      <trkpt lat="47.64484" lon="6.65869">
        <ele>355.20001220703</ele>
        <time>2020-07-26T08:02:10.000Z</time>
      </trkpt>
      <trkpt lat="47.64481" lon="6.65868">
        <ele>355.60000610352</ele>
        <time>2020-07-26T08:02:13.000Z</time>
      </trkpt>
      <trkpt lat="47.64477" lon="6.65869">
        <ele>356.20001220703</ele>
        <time>2020-07-26T08:02:16.000Z</time>
      </trkpt>
      <trkpt lat="47.64472" lon="6.65867">
        <ele>357.60000610352</ele>
        <time>2020-07-26T08:02:21.000Z</time>
      </trkpt>
      <trkpt lat="47.64467" lon="6.65869">
        <ele>358.79998779297</ele>
        <time>2020-07-26T08:02:26.000Z</time>
      </trkpt>
      <trkpt lat="47.64462" lon="6.6587">
        <ele>359.79998779297</ele>
        <time>2020-07-26T08:02:30.000Z</time>
      </trkpt>
      <trkpt lat="47.64461" lon="6.6587">
        <ele>360.20001220703</ele>
        <time>2020-07-26T08:02:31.000Z</time>
      </trkpt>
      <trkpt lat="47.64459" lon="6.6587">
        <ele>361</ele>
        <time>2020-07-26T08:02:34.000Z</time>
      </trkpt>
      <trkpt lat="47.64456" lon="6.6587">
        <ele>362.20001220703</ele>
        <time>2020-07-26T08:02:39.000Z</time>
      </trkpt>
      <trkpt lat="47.64456" lon="6.6587">
        <ele>362.39999389648</ele>
        <time>2020-07-26T08:02:40.000Z</time>
      </trkpt>
      <trkpt lat="47.64455" lon="6.6587">
        <ele>363</ele>
        <time>2020-07-26T08:02:45.000Z</time>
      </trkpt>
      <trkpt lat="47.64455" lon="6.6587">
        <ele>363.79998779297</ele>
        <time>2020-07-26T08:02:52.000Z</time>
      </trkpt>
      <trkpt lat="47.64452" lon="6.65872">
        <ele>364</ele>
        <time>2020-07-26T08:03:03.000Z</time>
      </trkpt>
      <trkpt lat="47.64449" lon="6.65871">
        <ele>364</ele>
        <time>2020-07-26T08:03:06.000Z</time>
      </trkpt>
      <trkpt lat="47.64442" lon="6.65871">
        <ele>365</ele>
        <time>2020-07-26T08:03:14.000Z</time>
      </trkpt>
      <trkpt lat="47.64442" lon="6.65871">
        <ele>365.20001220703</ele>
        <time>2020-07-26T08:03:15.000Z</time>
      </trkpt>
      <trkpt lat="47.64439" lon="6.65871">
        <ele>366.20001220703</ele>
        <time>2020-07-26T08:03:19.000Z</time>
      </trkpt>
      <trkpt lat="47.64435" lon="6.65871">
        <ele>367.39999389648</ele>
        <time>2020-07-26T08:03:26.000Z</time>
      </trkpt>
      <trkpt lat="47.64433" lon="6.65871">
        <ele>367.79998779297</ele>
        <time>2020-07-26T08:03:28.000Z</time>
      </trkpt>
      <trkpt lat="47.64432" lon="6.65871">
        <ele>368.39999389648</ele>
        <time>2020-07-26T08:03:30.000Z</time>
      </trkpt>
      <trkpt lat="47.6443" lon="6.65871">
        <ele>369.60000610352</ele>
        <time>2020-07-26T08:03:34.000Z</time>
      </trkpt>
      <trkpt lat="47.64426" lon="6.65871">
        <ele>370.79998779297</ele>
        <time>2020-07-26T08:03:40.000Z</time>
      </trkpt>
      <trkpt lat="47.64425" lon="6.6587">
        <ele>371</ele>
        <time>2020-07-26T08:03:41.000Z</time>
      </trkpt>
      <trkpt lat="47.64423" lon="6.65869">
        <ele>371.79998779297</ele>
        <time>2020-07-26T08:03:44.000Z</time>
      </trkpt>
      <trkpt lat="47.64421" lon="6.65866">
        <ele>372.60000610352</ele>
        <time>2020-07-26T08:03:51.000Z</time>
      </trkpt>
      <trkpt lat="47.64421" lon="6.65866">
        <ele>372.79998779297</ele>
        <time>2020-07-26T08:03:52.000Z</time>
      </trkpt>
      <trkpt lat="47.6442" lon="6.65865">
        <ele>373.20001220703</ele>
        <time>2020-07-26T08:04:02.000Z</time>
      </trkpt>
      <trkpt lat="47.6442" lon="6.65864">
        <ele>373.60000610352</ele>
        <time>2020-07-26T08:04:11.000Z</time>
      </trkpt>
      <trkpt lat="47.64419" lon="6.6586">
        <ele>373.60000610352</ele>
        <time>2020-07-26T08:04:14.000Z</time>
      </trkpt>
      <trkpt lat="47.64416" lon="6.65853">
        <ele>373.60000610352</ele>
        <time>2020-07-26T08:04:19.000Z</time>
      </trkpt>
      <trkpt lat="47.64413" lon="6.65847">
        <ele>373.79998779297</ele>
        <time>2020-07-26T08:04:23.000Z</time>
      </trkpt>
      <trkpt lat="47.64409" lon="6.65836">
        <ele>374.79998779297</ele>
        <time>2020-07-26T08:04:29.000Z</time>
      </trkpt>
      <trkpt lat="47.64406" lon="6.65828">
        <ele>375.39999389648</ele>
        <time>2020-07-26T08:04:33.000Z</time>
      </trkpt>
      <trkpt lat="47.64404" lon="6.65825">
        <ele>375.79998779297</ele>
        <time>2020-07-26T08:04:35.000Z</time>
      </trkpt>
      <trkpt lat="47.64392" lon="6.65811">
        <ele>376.79998779297</ele>
        <time>2020-07-26T08:04:45.000Z</time>
      </trkpt>
      <trkpt lat="47.64377" lon="6.658">
        <ele>377.79998779297</ele>
        <time>2020-07-26T08:04:56.000Z</time>
      </trkpt>
      <trkpt lat="47.64373" lon="6.65793">
        <ele>378.79998779297</ele>
        <time>2020-07-26T08:05:00.000Z</time>
      </trkpt>
      <trkpt lat="47.64372" lon="6.65792">
        <ele>379</ele>
        <time>2020-07-26T08:05:01.000Z</time>
      </trkpt>
      <trkpt lat="47.64367" lon="6.65791">
        <ele>380.20001220703</ele>
        <time>2020-07-26T08:05:05.000Z</time>
      </trkpt>
      <trkpt lat="47.64363" lon="6.65786">
        <ele>381.79998779297</ele>
        <time>2020-07-26T08:05:09.000Z</time>
      </trkpt>
      <trkpt lat="47.6436" lon="6.65783">
        <ele>382.39999389648</ele>
        <time>2020-07-26T08:05:11.000Z</time>
      </trkpt>
      <trkpt lat="47.64358" lon="6.6578">
        <ele>383</ele>
        <time>2020-07-26T08:05:13.000Z</time>
      </trkpt>
      <trkpt lat="47.64354" lon="6.6578">
        <ele>384.20001220703</ele>
        <time>2020-07-26T08:05:16.000Z</time>
      </trkpt>
      <trkpt lat="47.64347" lon="6.65781">
        <ele>385.20001220703</ele>
        <time>2020-07-26T08:05:21.000Z</time>
      </trkpt>
      <trkpt lat="47.64346" lon="6.65782">
        <ele>385.39999389648</ele>
        <time>2020-07-26T08:05:22.000Z</time>
      </trkpt>
      <trkpt lat="47.64341" lon="6.65793">
        <ele>386.20001220703</ele>
        <time>2020-07-26T08:05:30.000Z</time>
      </trkpt>
      <trkpt lat="47.64341" lon="6.65794">
        <ele>386.39999389648</ele>
        <time>2020-07-26T08:05:31.000Z</time>
      </trkpt>
      <trkpt lat="47.6434" lon="6.658">
        <ele>387.20001220703</ele>
        <time>2020-07-26T08:05:37.000Z</time>
      </trkpt>
      <trkpt lat="47.64339" lon="6.65802">
        <ele>387.79998779297</ele>
        <time>2020-07-26T08:05:41.000Z</time>
      </trkpt>
      <trkpt lat="47.64339" lon="6.65803">
        <ele>388.20001220703</ele>
        <time>2020-07-26T08:05:50.000Z</time>
      </trkpt>
      <trkpt lat="47.64339" lon="6.65803">
        <ele>388</ele>
        <time>2020-07-26T08:05:52.000Z</time>
      </trkpt>
      <trkpt lat="47.64338" lon="6.65804">
        <ele>388.60000610352</ele>
        <time>2020-07-26T08:06:05.000Z</time>
      </trkpt>
      <trkpt lat="47.64337" lon="6.65806">
        <ele>388.39999389648</ele>
        <time>2020-07-26T08:06:20.000Z</time>
      </trkpt>
      <trkpt lat="47.64337" lon="6.65805">
        <ele>388.39999389648</ele>
        <time>2020-07-26T08:06:34.000Z</time>
      </trkpt>
      <trkpt lat="47.64335" lon="6.65813">
        <ele>388.60000610352</ele>
        <time>2020-07-26T08:06:42.000Z</time>
      </trkpt>
      <trkpt lat="47.64331" lon="6.65828">
        <ele>388.60000610352</ele>
        <time>2020-07-26T08:06:48.000Z</time>
      </trkpt>
      <trkpt lat="47.64328" lon="6.65851">
        <ele>388.60000610352</ele>
        <time>2020-07-26T08:06:54.000Z</time>
      </trkpt>
      <trkpt lat="47.64324" lon="6.65874">
        <ele>389</ele>
        <time>2020-07-26T08:07:01.000Z</time>
      </trkpt>
      <trkpt lat="47.64322" lon="6.6588">
        <ele>389.20001220703</ele>
        <time>2020-07-26T08:07:03.000Z</time>
      </trkpt>
      <trkpt lat="47.64319" lon="6.65891">
        <ele>390.39999389648</ele>
        <time>2020-07-26T08:07:07.000Z</time>
      </trkpt>
      <trkpt lat="47.64318" lon="6.65894">
        <ele>390.60000610352</ele>
        <time>2020-07-26T08:07:08.000Z</time>
      </trkpt>
      <trkpt lat="47.64317" lon="6.65906">
        <ele>391.60000610352</ele>
        <time>2020-07-26T08:07:12.000Z</time>
      </trkpt>
      <trkpt lat="47.64314" lon="6.65916">
        <ele>392.20001220703</ele>
        <time>2020-07-26T08:07:15.000Z</time>
      </trkpt>
      <trkpt lat="47.64313" lon="6.65921">
        <ele>392.60000610352</ele>
        <time>2020-07-26T08:07:17.000Z</time>
      </trkpt>
      <trkpt lat="47.64309" lon="6.65935">
        <ele>393.60000610352</ele>
        <time>2020-07-26T08:07:21.000Z</time>
      </trkpt>
      <trkpt lat="47.64309" lon="6.65937">
        <ele>393.79998779297</ele>
        <time>2020-07-26T08:07:22.000Z</time>
      </trkpt>
      <trkpt lat="47.64307" lon="6.65945">
        <ele>394.60000610352</ele>
        <time>2020-07-26T08:07:25.000Z</time>
      </trkpt>
      <trkpt lat="47.64302" lon="6.65958">
        <ele>395.60000610352</ele>
        <time>2020-07-26T08:07:30.000Z</time>
      </trkpt>
      <trkpt lat="47.64302" lon="6.6596">
        <ele>396</ele>
        <time>2020-07-26T08:07:31.000Z</time>
      </trkpt>
      <trkpt lat="47.643" lon="6.65965">
        <ele>396.79998779297</ele>
        <time>2020-07-26T08:07:34.000Z</time>
      </trkpt>
      <trkpt lat="47.64297" lon="6.65974">
        <ele>397.60000610352</ele>
        <time>2020-07-26T08:07:38.000Z</time>
      </trkpt>
      <trkpt lat="47.64295" lon="6.65976">
        <ele>398</ele>
        <time>2020-07-26T08:07:39.000Z</time>
      </trkpt>
      <trkpt lat="47.6429" lon="6.65987">
        <ele>399</ele>
        <time>2020-07-26T08:07:44.000Z</time>
      </trkpt>
      <trkpt lat="47.6429" lon="6.65989">
        <ele>399.20001220703</ele>
        <time>2020-07-26T08:07:45.000Z</time>
      </trkpt>
      <trkpt lat="47.64287" lon="6.65997">
        <ele>400</ele>
        <time>2020-07-26T08:07:49.000Z</time>
      </trkpt>
      <trkpt lat="47.64285" lon="6.66004">
        <ele>401</ele>
        <time>2020-07-26T08:07:53.000Z</time>
      </trkpt>
      <trkpt lat="47.64282" lon="6.66011">
        <ele>402.20001220703</ele>
        <time>2020-07-26T08:07:57.000Z</time>
      </trkpt>
      <trkpt lat="47.6428" lon="6.6602">
        <ele>403.20001220703</ele>
        <time>2020-07-26T08:08:01.000Z</time>
      </trkpt>
      <trkpt lat="47.64277" lon="6.66029">
        <ele>404.39999389648</ele>
        <time>2020-07-26T08:08:05.000Z</time>
      </trkpt>
      <trkpt lat="47.64275" lon="6.66037">
        <ele>405.79998779297</ele>
        <time>2020-07-26T08:08:09.000Z</time>
      </trkpt>
      <trkpt lat="47.64273" lon="6.66044">
        <ele>406.79998779297</ele>
        <time>2020-07-26T08:08:13.000Z</time>
      </trkpt>
      <trkpt lat="47.64271" lon="6.6605">
        <ele>407.60000610352</ele>
        <time>2020-07-26T08:08:16.000Z</time>
      </trkpt>
      <trkpt lat="47.64271" lon="6.66052">
        <ele>407.79998779297</ele>
        <time>2020-07-26T08:08:17.000Z</time>
      </trkpt>
      <trkpt lat="47.64268" lon="6.6606">
        <ele>409</ele>
        <time>2020-07-26T08:08:21.000Z</time>
      </trkpt>
      <trkpt lat="47.64264" lon="6.66068">
        <ele>410.20001220703</ele>
        <time>2020-07-26T08:08:25.000Z</time>
      </trkpt>
      <trkpt lat="47.64261" lon="6.66076">
        <ele>411.20001220703</ele>
        <time>2020-07-26T08:08:29.000Z</time>
      </trkpt>
      <trkpt lat="47.64259" lon="6.66082">
        <ele>412.20001220703</ele>
        <time>2020-07-26T08:08:32.000Z</time>
      </trkpt>
      <trkpt lat="47.64255" lon="6.66092">
        <ele>413.39999389648</ele>
        <time>2020-07-26T08:08:37.000Z</time>
      </trkpt>
      <trkpt lat="47.64254" lon="6.66094">
        <ele>413.60000610352</ele>
        <time>2020-07-26T08:08:38.000Z</time>
      </trkpt>
      <trkpt lat="47.64252" lon="6.661">
        <ele>414.39999389648</ele>
        <time>2020-07-26T08:08:41.000Z</time>
      </trkpt>
      <trkpt lat="47.64249" lon="6.66109">
        <ele>415.20001220703</ele>
        <time>2020-07-26T08:08:45.000Z</time>
      </trkpt>
      <trkpt lat="47.64247" lon="6.66114">
        <ele>415.60000610352</ele>
        <time>2020-07-26T08:08:47.000Z</time>
      </trkpt>
      <trkpt lat="47.64245" lon="6.66125">
        <ele>416.39999389648</ele>
        <time>2020-07-26T08:08:53.000Z</time>
      </trkpt>
      <trkpt lat="47.64244" lon="6.66127">
        <ele>416.60000610352</ele>
        <time>2020-07-26T08:08:56.000Z</time>
      </trkpt>
      <trkpt lat="47.64244" lon="6.66128">
        <ele>416.79998779297</ele>
        <time>2020-07-26T08:09:00.000Z</time>
      </trkpt>
      <trkpt lat="47.64243" lon="6.66129">
        <ele>416.79998779297</ele>
        <time>2020-07-26T08:09:18.000Z</time>
      </trkpt>
      <trkpt lat="47.64243" lon="6.66128">
        <ele>416.79998779297</ele>
        <time>2020-07-26T08:09:37.000Z</time>
      </trkpt>
      <trkpt lat="47.64242" lon="6.66128">
        <ele>416.79998779297</ele>
        <time>2020-07-26T08:09:54.000Z</time>
      </trkpt>
      <trkpt lat="47.64241" lon="6.66138">
        <ele>416.79998779297</ele>
        <time>2020-07-26T08:10:01.000Z</time>
      </trkpt>
      <trkpt lat="47.6424" lon="6.66155">
        <ele>416.60000610352</ele>
        <time>2020-07-26T08:10:05.000Z</time>
      </trkpt>
      <trkpt lat="47.64238" lon="6.66179">
        <ele>416.39999389648</ele>
        <time>2020-07-26T08:10:10.000Z</time>
      </trkpt>
      <trkpt lat="47.64234" lon="6.66223">
        <ele>416.20001220703</ele>
        <time>2020-07-26T08:10:18.000Z</time>
      </trkpt>
      <trkpt lat="47.64228" lon="6.66258">
        <ele>416.20001220703</ele>
        <time>2020-07-26T08:10:24.000Z</time>
      </trkpt>
      <trkpt lat="47.64222" lon="6.66283">
        <ele>417.20001220703</ele>
        <time>2020-07-26T08:10:29.000Z</time>
      </trkpt>
      <trkpt lat="47.64212" lon="6.66305">
        <ele>417.79998779297</ele>
        <time>2020-07-26T08:10:34.000Z</time>
      </trkpt>
      <trkpt lat="47.6421" lon="6.66309">
        <ele>417.79998779297</ele>
        <time>2020-07-26T08:10:35.000Z</time>
      </trkpt>
      <trkpt lat="47.64202" lon="6.66324">
        <ele>418.79998779297</ele>
        <time>2020-07-26T08:10:40.000Z</time>
      </trkpt>
      <trkpt lat="47.64198" lon="6.66329">
        <ele>419.39999389648</ele>
        <time>2020-07-26T08:10:42.000Z</time>
      </trkpt>
      <trkpt lat="47.64194" lon="6.66335">
        <ele>419.79998779297</ele>
        <time>2020-07-26T08:10:44.000Z</time>
      </trkpt>
      <trkpt lat="47.64188" lon="6.66346">
        <ele>421</ele>
        <time>2020-07-26T08:10:48.000Z</time>
      </trkpt>
      <trkpt lat="47.64186" lon="6.66348">
        <ele>421.20001220703</ele>
        <time>2020-07-26T08:10:49.000Z</time>
      </trkpt>
      <trkpt lat="47.64179" lon="6.66355">
        <ele>422.20001220703</ele>
        <time>2020-07-26T08:10:53.000Z</time>
      </trkpt>
      <trkpt lat="47.64174" lon="6.6636">
        <ele>423</ele>
        <time>2020-07-26T08:10:55.000Z</time>
      </trkpt>
      <trkpt lat="47.64172" lon="6.66361">
        <ele>423.39999389648</ele>
        <time>2020-07-26T08:10:56.000Z</time>
      </trkpt>
      <trkpt lat="47.64167" lon="6.66367">
        <ele>424.39999389648</ele>
        <time>2020-07-26T08:10:59.000Z</time>
      </trkpt>
      <trkpt lat="47.6416" lon="6.66376">
        <ele>425.60000610352</ele>
        <time>2020-07-26T08:11:03.000Z</time>
      </trkpt>
      <trkpt lat="47.64158" lon="6.66378">
        <ele>425.79998779297</ele>
        <time>2020-07-26T08:11:04.000Z</time>
      </trkpt>
      <trkpt lat="47.64154" lon="6.66391">
        <ele>426.79998779297</ele>
        <time>2020-07-26T08:11:08.000Z</time>
      </trkpt>
      <trkpt lat="47.64154" lon="6.66394">
        <ele>427</ele>
        <time>2020-07-26T08:11:09.000Z</time>
      </trkpt>
      <trkpt lat="47.64153" lon="6.66404">
        <ele>427.79998779297</ele>
        <time>2020-07-26T08:11:12.000Z</time>
      </trkpt>
      <trkpt lat="47.64153" lon="6.66418">
        <ele>428.39999389648</ele>
        <time>2020-07-26T08:11:16.000Z</time>
      </trkpt>
      <trkpt lat="47.64154" lon="6.66441">
        <ele>429</ele>
        <time>2020-07-26T08:11:21.000Z</time>
      </trkpt>
      <trkpt lat="47.64154" lon="6.66447">
        <ele>429</ele>
        <time>2020-07-26T08:11:22.000Z</time>
      </trkpt>
      <trkpt lat="47.64156" lon="6.66492">
        <ele>429</ele>
        <time>2020-07-26T08:11:28.000Z</time>
      </trkpt>
      <trkpt lat="47.64162" lon="6.66545">
        <ele>428</ele>
        <time>2020-07-26T08:11:33.000Z</time>
      </trkpt>
      <trkpt lat="47.64163" lon="6.66556">
        <ele>427.60000610352</ele>
        <time>2020-07-26T08:11:34.000Z</time>
      </trkpt>
      <trkpt lat="47.64167" lon="6.66591">
        <ele>426.60000610352</ele>
        <time>2020-07-26T08:11:37.000Z</time>
      </trkpt>
      <trkpt lat="47.64168" lon="6.66615">
        <ele>425.39999389648</ele>
        <time>2020-07-26T08:11:39.000Z</time>
      </trkpt>
      <trkpt lat="47.64171" lon="6.6665">
        <ele>424.20001220703</ele>
        <time>2020-07-26T08:11:42.000Z</time>
      </trkpt>
      <trkpt lat="47.64173" lon="6.66684">
        <ele>423</ele>
        <time>2020-07-26T08:11:45.000Z</time>
      </trkpt>
      <trkpt lat="47.64173" lon="6.66696">
        <ele>422.79998779297</ele>
        <time>2020-07-26T08:11:46.000Z</time>
      </trkpt>
      <trkpt lat="47.64174" lon="6.66762">
        <ele>421.60000610352</ele>
        <time>2020-07-26T08:11:52.000Z</time>
      </trkpt>
      <trkpt lat="47.64172" lon="6.66783">
        <ele>421.20001220703</ele>
        <time>2020-07-26T08:11:54.000Z</time>
      </trkpt>
      <trkpt lat="47.64171" lon="6.66794">
        <ele>421</ele>
        <time>2020-07-26T08:11:55.000Z</time>
      </trkpt>
      <trkpt lat="47.64165" lon="6.66814">
        <ele>420.60000610352</ele>
        <time>2020-07-26T08:11:57.000Z</time>
      </trkpt>
      <trkpt lat="47.64161" lon="6.66824">
        <ele>420.39999389648</ele>
        <time>2020-07-26T08:11:58.000Z</time>
      </trkpt>
      <trkpt lat="47.64144" lon="6.66857">
        <ele>419.60000610352</ele>
        <time>2020-07-26T08:12:02.000Z</time>
      </trkpt>
      <trkpt lat="47.64142" lon="6.66866">
        <ele>419.20001220703</ele>
        <time>2020-07-26T08:12:03.000Z</time>
      </trkpt>
      <trkpt lat="47.64138" lon="6.66885">
        <ele>418.79998779297</ele>
        <time>2020-07-26T08:12:05.000Z</time>
      </trkpt>
      <trkpt lat="47.64138" lon="6.66895">
        <ele>418.60000610352</ele>
        <time>2020-07-26T08:12:06.000Z</time>
      </trkpt>
      <trkpt lat="47.64145" lon="6.66904">
        <ele>418.60000610352</ele>
        <time>2020-07-26T08:12:07.000Z</time>
      </trkpt>
      <trkpt lat="47.6415" lon="6.6692">
        <ele>418.60000610352</ele>
        <time>2020-07-26T08:12:09.000Z</time>
      </trkpt>
      <trkpt lat="47.64163" lon="6.66958">
        <ele>418.60000610352</ele>
        <time>2020-07-26T08:12:14.000Z</time>
      </trkpt>
      <trkpt lat="47.64165" lon="6.66973">
        <ele>418.60000610352</ele>
        <time>2020-07-26T08:12:16.000Z</time>
      </trkpt>
      <trkpt lat="47.64164" lon="6.67013">
        <ele>420</ele>
        <time>2020-07-26T08:12:22.000Z</time>
      </trkpt>
      <trkpt lat="47.64164" lon="6.67024">
        <ele>420.20001220703</ele>
        <time>2020-07-26T08:12:24.000Z</time>
      </trkpt>
      <trkpt lat="47.64167" lon="6.67046">
        <ele>421</ele>
        <time>2020-07-26T08:12:28.000Z</time>
      </trkpt>
      <trkpt lat="47.64167" lon="6.67051">
        <ele>421.20001220703</ele>
        <time>2020-07-26T08:12:29.000Z</time>
      </trkpt>
      <trkpt lat="47.64168" lon="6.67072">
        <ele>422.60000610352</ele>
        <time>2020-07-26T08:12:33.000Z</time>
      </trkpt>
      <trkpt lat="47.6417" lon="6.67087">
        <ele>423.39999389648</ele>
        <time>2020-07-26T08:12:36.000Z</time>
      </trkpt>
      <trkpt lat="47.64171" lon="6.67092">
        <ele>423.79998779297</ele>
        <time>2020-07-26T08:12:37.000Z</time>
      </trkpt>
      <trkpt lat="47.64174" lon="6.67115">
        <ele>424.79998779297</ele>
        <time>2020-07-26T08:12:41.000Z</time>
      </trkpt>
      <trkpt lat="47.64174" lon="6.67121">
        <ele>425</ele>
        <time>2020-07-26T08:12:42.000Z</time>
      </trkpt>
      <trkpt lat="47.64181" lon="6.67174">
        <ele>425.20001220703</ele>
        <time>2020-07-26T08:12:50.000Z</time>
      </trkpt>
      <trkpt lat="47.64193" lon="6.67236">
        <ele>424.60000610352</ele>
        <time>2020-07-26T08:12:59.000Z</time>
      </trkpt>
      <trkpt lat="47.642" lon="6.6727">
        <ele>424.39999389648</ele>
        <time>2020-07-26T08:13:04.000Z</time>
      </trkpt>
      <trkpt lat="47.64204" lon="6.67296">
        <ele>423.79998779297</ele>
        <time>2020-07-26T08:13:08.000Z</time>
      </trkpt>
      <trkpt lat="47.64204" lon="6.67303">
        <ele>423.79998779297</ele>
        <time>2020-07-26T08:13:09.000Z</time>
      </trkpt>
      <trkpt lat="47.64206" lon="6.67348">
        <ele>423.79998779297</ele>
        <time>2020-07-26T08:13:16.000Z</time>
      </trkpt>
      <trkpt lat="47.64207" lon="6.67376">
        <ele>423.79998779297</ele>
        <time>2020-07-26T08:13:20.000Z</time>
      </trkpt>
      <trkpt lat="47.64207" lon="6.67391">
        <ele>423.79998779297</ele>
        <time>2020-07-26T08:13:22.000Z</time>
      </trkpt>
      <trkpt lat="47.64204" lon="6.67412">
        <ele>423.60000610352</ele>
        <time>2020-07-26T08:13:26.000Z</time>
      </trkpt>
      <trkpt lat="47.64211" lon="6.6743">
        <ele>423.39999389648</ele>
        <time>2020-07-26T08:13:30.000Z</time>
      </trkpt>
      <trkpt lat="47.6423" lon="6.67467">
        <ele>423</ele>
        <time>2020-07-26T08:13:37.000Z</time>
      </trkpt>
      <trkpt lat="47.64233" lon="6.67472">
        <ele>422.79998779297</ele>
        <time>2020-07-26T08:13:38.000Z</time>
      </trkpt>
      <trkpt lat="47.64256" lon="6.67507">
        <ele>422.20001220703</ele>
        <time>2020-07-26T08:13:45.000Z</time>
      </trkpt>
      <trkpt lat="47.64278" lon="6.67539">
        <ele>421.79998779297</ele>
        <time>2020-07-26T08:13:52.000Z</time>
      </trkpt>
      <trkpt lat="47.64283" lon="6.67544">
        <ele>422</ele>
        <time>2020-07-26T08:13:56.000Z</time>
      </trkpt>
      <trkpt lat="47.64283" lon="6.67543">
        <ele>423.20001220703</ele>
        <time>2020-07-26T08:14:11.000Z</time>
      </trkpt>
      <trkpt lat="47.64283" lon="6.67543">
        <ele>422.79998779297</ele>
        <time>2020-07-26T08:14:45.000Z</time>
      </trkpt>
      <trkpt lat="47.64288" lon="6.67549">
        <ele>423</ele>
        <time>2020-07-26T08:15:28.000Z</time>
      </trkpt>
      <trkpt lat="47.64303" lon="6.6757">
        <ele>423</ele>
        <time>2020-07-26T08:15:34.000Z</time>
      </trkpt>
      <trkpt lat="47.64328" lon="6.67603">
        <ele>423.20001220703</ele>
        <time>2020-07-26T08:15:42.000Z</time>
      </trkpt>
      <trkpt lat="47.6435" lon="6.67628">
        <ele>423.60000610352</ele>
        <time>2020-07-26T08:15:49.000Z</time>
      </trkpt>
      <trkpt lat="47.64362" lon="6.67637">
        <ele>424.39999389648</ele>
        <time>2020-07-26T08:15:53.000Z</time>
      </trkpt>
      <trkpt lat="47.64374" lon="6.67645">
        <ele>425.60000610352</ele>
        <time>2020-07-26T08:15:57.000Z</time>
      </trkpt>
      <trkpt lat="47.64392" lon="6.67657">
        <ele>426.60000610352</ele>
        <time>2020-07-26T08:16:04.000Z</time>
      </trkpt>
      <trkpt lat="47.64405" lon="6.67667">
        <ele>428</ele>
        <time>2020-07-26T08:16:09.000Z</time>
      </trkpt>
      <trkpt lat="47.64414" lon="6.67674">
        <ele>429</ele>
        <time>2020-07-26T08:16:13.000Z</time>
      </trkpt>
      <trkpt lat="47.64421" lon="6.67678">
        <ele>430</ele>
        <time>2020-07-26T08:16:16.000Z</time>
      </trkpt>
      <trkpt lat="47.64429" lon="6.67684">
        <ele>431.20001220703</ele>
        <time>2020-07-26T08:16:20.000Z</time>
      </trkpt>
      <trkpt lat="47.64433" lon="6.67685">
        <ele>432</ele>
        <time>2020-07-26T08:16:22.000Z</time>
      </trkpt>
      <trkpt lat="47.64435" lon="6.67686">
        <ele>432.39999389648</ele>
        <time>2020-07-26T08:16:23.000Z</time>
      </trkpt>
      <trkpt lat="47.64445" lon="6.67687">
        <ele>433.39999389648</ele>
        <time>2020-07-26T08:16:27.000Z</time>
      </trkpt>
      <trkpt lat="47.64453" lon="6.67689">
        <ele>434.20001220703</ele>
        <time>2020-07-26T08:16:30.000Z</time>
      </trkpt>
      <trkpt lat="47.64457" lon="6.67688">
        <ele>434.79998779297</ele>
        <time>2020-07-26T08:16:32.000Z</time>
      </trkpt>
      <trkpt lat="47.64464" lon="6.67687">
        <ele>435.20001220703</ele>
        <time>2020-07-26T08:16:36.000Z</time>
      </trkpt>
      <trkpt lat="47.64469" lon="6.67689">
        <ele>435.79998779297</ele>
        <time>2020-07-26T08:16:38.000Z</time>
      </trkpt>
      <trkpt lat="47.64479" lon="6.67696">
        <ele>436.79998779297</ele>
        <time>2020-07-26T08:16:42.000Z</time>
      </trkpt>
      <trkpt lat="47.64481" lon="6.67698">
        <ele>437</ele>
        <time>2020-07-26T08:16:43.000Z</time>
      </trkpt>
      <trkpt lat="47.64494" lon="6.67712">
        <ele>437.60000610352</ele>
        <time>2020-07-26T08:16:48.000Z</time>
      </trkpt>
      <trkpt lat="47.64505" lon="6.67732">
        <ele>437.79998779297</ele>
        <time>2020-07-26T08:16:54.000Z</time>
      </trkpt>
      <trkpt lat="47.64507" lon="6.67735">
        <ele>438</ele>
        <time>2020-07-26T08:16:55.000Z</time>
      </trkpt>
      <trkpt lat="47.64514" lon="6.67746">
        <ele>439.20001220703</ele>
        <time>2020-07-26T08:16:59.000Z</time>
      </trkpt>
      <trkpt lat="47.64524" lon="6.6776">
        <ele>440.20001220703</ele>
        <time>2020-07-26T08:17:04.000Z</time>
      </trkpt>
      <trkpt lat="47.6453" lon="6.67766">
        <ele>440.39999389648</ele>
        <time>2020-07-26T08:17:06.000Z</time>
      </trkpt>
      <trkpt lat="47.64543" lon="6.67781">
        <ele>440.79998779297</ele>
        <time>2020-07-26T08:17:10.000Z</time>
      </trkpt>
      <trkpt lat="47.64551" lon="6.67788">
        <ele>440.79998779297</ele>
        <time>2020-07-26T08:17:12.000Z</time>
      </trkpt>
      <trkpt lat="47.64577" lon="6.67804">
        <ele>440.79998779297</ele>
        <time>2020-07-26T08:17:17.000Z</time>
      </trkpt>
      <trkpt lat="47.64583" lon="6.67806">
        <ele>440.79998779297</ele>
        <time>2020-07-26T08:17:18.000Z</time>
      </trkpt>
      <trkpt lat="47.6461" lon="6.67808">
        <ele>440.20001220703</ele>
        <time>2020-07-26T08:17:22.000Z</time>
      </trkpt>
      <trkpt lat="47.64617" lon="6.67808">
        <ele>440</ele>
        <time>2020-07-26T08:17:23.000Z</time>
      </trkpt>
      <trkpt lat="47.64645" lon="6.67804">
        <ele>439</ele>
        <time>2020-07-26T08:17:27.000Z</time>
      </trkpt>
      <trkpt lat="47.64659" lon="6.678">
        <ele>438.20001220703</ele>
        <time>2020-07-26T08:17:29.000Z</time>
      </trkpt>
      <trkpt lat="47.64672" lon="6.67797">
        <ele>437.60000610352</ele>
        <time>2020-07-26T08:17:31.000Z</time>
      </trkpt>
      <trkpt lat="47.64679" lon="6.67801">
        <ele>437.39999389648</ele>
        <time>2020-07-26T08:17:32.000Z</time>
      </trkpt>
      <trkpt lat="47.64694" lon="6.6782">
        <ele>436.60000610352</ele>
        <time>2020-07-26T08:17:35.000Z</time>
      </trkpt>
      <trkpt lat="47.64701" lon="6.67856">
        <ele>436.20001220703</ele>
        <time>2020-07-26T08:17:39.000Z</time>
      </trkpt>
      <trkpt lat="47.64697" lon="6.67887">
        <ele>436.20001220703</ele>
        <time>2020-07-26T08:17:43.000Z</time>
      </trkpt>
      <trkpt lat="47.64693" lon="6.67898">
        <ele>436.20001220703</ele>
        <time>2020-07-26T08:17:45.000Z</time>
      </trkpt>
      <trkpt lat="47.64686" lon="6.67915">
        <ele>437</ele>
        <time>2020-07-26T08:17:49.000Z</time>
      </trkpt>
      <trkpt lat="47.64685" lon="6.6792">
        <ele>437.60000610352</ele>
        <time>2020-07-26T08:17:51.000Z</time>
      </trkpt>
      <trkpt lat="47.64682" lon="6.6793">
        <ele>438.60000610352</ele>
        <time>2020-07-26T08:17:55.000Z</time>
      </trkpt>
      <trkpt lat="47.64682" lon="6.67932">
        <ele>438.60000610352</ele>
        <time>2020-07-26T08:17:56.000Z</time>
      </trkpt>
      <trkpt lat="47.64678" lon="6.67949">
        <ele>438.60000610352</ele>
        <time>2020-07-26T08:18:03.000Z</time>
      </trkpt>
      <trkpt lat="47.64675" lon="6.67973">
        <ele>437.60000610352</ele>
        <time>2020-07-26T08:18:07.000Z</time>
      </trkpt>
      <trkpt lat="47.64674" lon="6.68014">
        <ele>436.39999389648</ele>
        <time>2020-07-26T08:18:12.000Z</time>
      </trkpt>
      <trkpt lat="47.64672" lon="6.68048">
        <ele>435.20001220703</ele>
        <time>2020-07-26T08:18:15.000Z</time>
      </trkpt>
      <trkpt lat="47.6467" lon="6.68073">
        <ele>434.60000610352</ele>
        <time>2020-07-26T08:18:17.000Z</time>
      </trkpt>
      <trkpt lat="47.64669" lon="6.68086">
        <ele>434</ele>
        <time>2020-07-26T08:18:18.000Z</time>
      </trkpt>
      <trkpt lat="47.64669" lon="6.68112">
        <ele>432.60000610352</ele>
        <time>2020-07-26T08:18:20.000Z</time>
      </trkpt>
      <trkpt lat="47.64667" lon="6.68138">
        <ele>430.79998779297</ele>
        <time>2020-07-26T08:18:22.000Z</time>
      </trkpt>
      <trkpt lat="47.64666" lon="6.68151">
        <ele>429.79998779297</ele>
        <time>2020-07-26T08:18:23.000Z</time>
      </trkpt>
      <trkpt lat="47.64663" lon="6.68173">
        <ele>428.20001220703</ele>
        <time>2020-07-26T08:18:25.000Z</time>
      </trkpt>
      <trkpt lat="47.6466" lon="6.68202">
        <ele>427.20001220703</ele>
        <time>2020-07-26T08:18:28.000Z</time>
      </trkpt>
      <trkpt lat="47.64659" lon="6.6822">
        <ele>427.20001220703</ele>
        <time>2020-07-26T08:18:30.000Z</time>
      </trkpt>
      <trkpt lat="47.64655" lon="6.68257">
        <ele>427.39999389648</ele>
        <time>2020-07-26T08:18:35.000Z</time>
      </trkpt>
      <trkpt lat="47.64652" lon="6.68289">
        <ele>428.60000610352</ele>
        <time>2020-07-26T08:18:41.000Z</time>
      </trkpt>
      <trkpt lat="47.64652" lon="6.68293">
        <ele>429.39999389648</ele>
        <time>2020-07-26T08:18:42.000Z</time>
      </trkpt>
      <trkpt lat="47.64651" lon="6.68296">
        <ele>430.20001220703</ele>
        <time>2020-07-26T08:18:43.000Z</time>
      </trkpt>
      <trkpt lat="47.64651" lon="6.68298">
        <ele>431.20001220703</ele>
        <time>2020-07-26T08:18:46.000Z</time>
      </trkpt>
      <trkpt lat="47.64651" lon="6.68298">
        <ele>432.39999389648</ele>
        <time>2020-07-26T08:18:49.000Z</time>
      </trkpt>
      <trkpt lat="47.64651" lon="6.68298">
        <ele>432.79998779297</ele>
        <time>2020-07-26T08:19:02.000Z</time>
      </trkpt>
      <trkpt lat="47.64651" lon="6.68298">
        <ele>432.79998779297</ele>
        <time>2020-07-26T08:19:21.000Z</time>
      </trkpt>
      <trkpt lat="47.64652" lon="6.68301">
        <ele>432.79998779297</ele>
        <time>2020-07-26T08:19:24.000Z</time>
      </trkpt>
      <trkpt lat="47.64653" lon="6.68307">
        <ele>432.79998779297</ele>
        <time>2020-07-26T08:19:26.000Z</time>
      </trkpt>
      <trkpt lat="47.64657" lon="6.68335">
        <ele>432.79998779297</ele>
        <time>2020-07-26T08:19:31.000Z</time>
      </trkpt>
      <trkpt lat="47.64659" lon="6.6835">
        <ele>432.60000610352</ele>
        <time>2020-07-26T08:19:33.000Z</time>
      </trkpt>
      <trkpt lat="47.6466" lon="6.68378">
        <ele>432.20001220703</ele>
        <time>2020-07-26T08:19:36.000Z</time>
      </trkpt>
      <trkpt lat="47.64663" lon="6.68411">
        <ele>431.20001220703</ele>
        <time>2020-07-26T08:19:39.000Z</time>
      </trkpt>
      <trkpt lat="47.64666" lon="6.68436">
        <ele>430.39999389648</ele>
        <time>2020-07-26T08:19:41.000Z</time>
      </trkpt>
      <trkpt lat="47.64667" lon="6.68448">
        <ele>429.79998779297</ele>
        <time>2020-07-26T08:19:42.000Z</time>
      </trkpt>
      <trkpt lat="47.6467" lon="6.68472">
        <ele>428.79998779297</ele>
        <time>2020-07-26T08:19:44.000Z</time>
      </trkpt>
      <trkpt lat="47.64672" lon="6.68493">
        <ele>427.39999389648</ele>
        <time>2020-07-26T08:19:46.000Z</time>
      </trkpt>
      <trkpt lat="47.64672" lon="6.68502">
        <ele>426.39999389648</ele>
        <time>2020-07-26T08:19:47.000Z</time>
      </trkpt>
      <trkpt lat="47.64671" lon="6.68508">
        <ele>425.79998779297</ele>
        <time>2020-07-26T08:19:48.000Z</time>
      </trkpt>
      <trkpt lat="47.6467" lon="6.68517">
        <ele>424.20001220703</ele>
        <time>2020-07-26T08:19:50.000Z</time>
      </trkpt>
      <trkpt lat="47.6467" lon="6.68522">
        <ele>423.20001220703</ele>
        <time>2020-07-26T08:19:52.000Z</time>
      </trkpt>
      <trkpt lat="47.64669" lon="6.68528">
        <ele>422</ele>
        <time>2020-07-26T08:19:55.000Z</time>
      </trkpt>
      <trkpt lat="47.64671" lon="6.68526">
        <ele>421.60000610352</ele>
        <time>2020-07-26T08:19:59.000Z</time>
      </trkpt>
      <trkpt lat="47.64671" lon="6.68524">
        <ele>421.39999389648</ele>
        <time>2020-07-26T08:20:00.000Z</time>
      </trkpt>
      <trkpt lat="47.64671" lon="6.68518">
        <ele>421.20001220703</ele>
        <time>2020-07-26T08:20:03.000Z</time>
      </trkpt>
      <trkpt lat="47.64673" lon="6.68508">
        <ele>421.20001220703</ele>
        <time>2020-07-26T08:20:06.000Z</time>
      </trkpt>
      <trkpt lat="47.64672" lon="6.68488">
        <ele>421.20001220703</ele>
        <time>2020-07-26T08:20:11.000Z</time>
      </trkpt>
      <trkpt lat="47.64678" lon="6.68485">
        <ele>421.20001220703</ele>
        <time>2020-07-26T08:20:15.000Z</time>
      </trkpt>
      <trkpt lat="47.64682" lon="6.68487">
        <ele>421.60000610352</ele>
        <time>2020-07-26T08:20:17.000Z</time>
      </trkpt>
      <trkpt lat="47.64691" lon="6.68488">
        <ele>421.79998779297</ele>
        <time>2020-07-26T08:20:20.000Z</time>
      </trkpt>
      <trkpt lat="47.64704" lon="6.68494">
        <ele>421.79998779297</ele>
        <time>2020-07-26T08:20:24.000Z</time>
      </trkpt>
      <trkpt lat="47.64708" lon="6.68498">
        <ele>421.79998779297</ele>
        <time>2020-07-26T08:20:25.000Z</time>
      </trkpt>
      <trkpt lat="47.64716" lon="6.68509">
        <ele>419.79998779297</ele>
        <time>2020-07-26T08:20:27.000Z</time>
      </trkpt>
      <trkpt lat="47.64721" lon="6.68515">
        <ele>419</ele>
        <time>2020-07-26T08:20:28.000Z</time>
      </trkpt>
      <trkpt lat="47.6473" lon="6.68531">
        <ele>417.20001220703</ele>
        <time>2020-07-26T08:20:30.000Z</time>
      </trkpt>
      <trkpt lat="47.6474" lon="6.68549">
        <ele>416</ele>
        <time>2020-07-26T08:20:32.000Z</time>
      </trkpt>
      <trkpt lat="47.64746" lon="6.68558">
        <ele>415.20001220703</ele>
        <time>2020-07-26T08:20:33.000Z</time>
      </trkpt>
      <trkpt lat="47.64752" lon="6.68568">
        <ele>414</ele>
        <time>2020-07-26T08:20:34.000Z</time>
      </trkpt>
      <trkpt lat="47.64759" lon="6.68579">
        <ele>412.79998779297</ele>
        <time>2020-07-26T08:20:35.000Z</time>
      </trkpt>
      <trkpt lat="47.64765" lon="6.68589">
        <ele>411.79998779297</ele>
        <time>2020-07-26T08:20:36.000Z</time>
      </trkpt>
      <trkpt lat="47.64777" lon="6.68609">
        <ele>409.79998779297</ele>
        <time>2020-07-26T08:20:38.000Z</time>
      </trkpt>
      <trkpt lat="47.64782" lon="6.68619">
        <ele>408.79998779297</ele>
        <time>2020-07-26T08:20:39.000Z</time>
      </trkpt>
      <trkpt lat="47.64787" lon="6.68629">
        <ele>408</ele>
        <time>2020-07-26T08:20:40.000Z</time>
      </trkpt>
      <trkpt lat="47.64801" lon="6.68654">
        <ele>406.20001220703</ele>
        <time>2020-07-26T08:20:43.000Z</time>
      </trkpt>
      <trkpt lat="47.6481" lon="6.68672">
        <ele>404.79998779297</ele>
        <time>2020-07-26T08:20:45.000Z</time>
      </trkpt>
      <trkpt lat="47.64823" lon="6.68698">
        <ele>403.79998779297</ele>
        <time>2020-07-26T08:20:48.000Z</time>
      </trkpt>
      <trkpt lat="47.64836" lon="6.68719">
        <ele>402.20001220703</ele>
        <time>2020-07-26T08:20:50.000Z</time>
      </trkpt>
      <trkpt lat="47.64842" lon="6.6873">
        <ele>401.20001220703</ele>
        <time>2020-07-26T08:20:51.000Z</time>
      </trkpt>
      <trkpt lat="47.64849" lon="6.68741">
        <ele>400.20001220703</ele>
        <time>2020-07-26T08:20:52.000Z</time>
      </trkpt>
      <trkpt lat="47.6486" lon="6.6876">
        <ele>398.39999389648</ele>
        <time>2020-07-26T08:20:54.000Z</time>
      </trkpt>
      <trkpt lat="47.64864" lon="6.68768">
        <ele>397</ele>
        <time>2020-07-26T08:20:55.000Z</time>
      </trkpt>
      <trkpt lat="47.64869" lon="6.68775">
        <ele>395.60000610352</ele>
        <time>2020-07-26T08:20:56.000Z</time>
      </trkpt>
      <trkpt lat="47.64873" lon="6.6878">
        <ele>394.79998779297</ele>
        <time>2020-07-26T08:20:57.000Z</time>
      </trkpt>
      <trkpt lat="47.64878" lon="6.68782">
        <ele>394</ele>
        <time>2020-07-26T08:20:58.000Z</time>
      </trkpt>
      <trkpt lat="47.64886" lon="6.6878">
        <ele>393.39999389648</ele>
        <time>2020-07-26T08:20:59.000Z</time>
      </trkpt>
      <trkpt lat="47.64891" lon="6.68774">
        <ele>392.79998779297</ele>
        <time>2020-07-26T08:21:00.000Z</time>
      </trkpt>
      <trkpt lat="47.64903" lon="6.6876">
        <ele>392.20001220703</ele>
        <time>2020-07-26T08:21:02.000Z</time>
      </trkpt>
      <trkpt lat="47.64907" lon="6.68752">
        <ele>392</ele>
        <time>2020-07-26T08:21:03.000Z</time>
      </trkpt>
      <trkpt lat="47.64911" lon="6.6874">
        <ele>391.60000610352</ele>
        <time>2020-07-26T08:21:05.000Z</time>
      </trkpt>
      <trkpt lat="47.64913" lon="6.68735">
        <ele>390.79998779297</ele>
        <time>2020-07-26T08:21:06.000Z</time>
      </trkpt>
      <trkpt lat="47.64914" lon="6.6873">
        <ele>390.20001220703</ele>
        <time>2020-07-26T08:21:07.000Z</time>
      </trkpt>
      <trkpt lat="47.64917" lon="6.68719">
        <ele>388.79998779297</ele>
        <time>2020-07-26T08:21:09.000Z</time>
      </trkpt>
      <trkpt lat="47.64922" lon="6.68703">
        <ele>388.20001220703</ele>
        <time>2020-07-26T08:21:12.000Z</time>
      </trkpt>
      <trkpt lat="47.64926" lon="6.68699">
        <ele>388</ele>
        <time>2020-07-26T08:21:15.000Z</time>
      </trkpt>
      <trkpt lat="47.64927" lon="6.68699">
        <ele>388</ele>
        <time>2020-07-26T08:21:16.000Z</time>
      </trkpt>
      <trkpt lat="47.64929" lon="6.68699">
        <ele>387.60000610352</ele>
        <time>2020-07-26T08:21:17.000Z</time>
      </trkpt>
      <trkpt lat="47.64938" lon="6.687">
        <ele>386.79998779297</ele>
        <time>2020-07-26T08:21:22.000Z</time>
      </trkpt>
      <trkpt lat="47.64944" lon="6.68703">
        <ele>386.39999389648</ele>
        <time>2020-07-26T08:21:25.000Z</time>
      </trkpt>
      <trkpt lat="47.64946" lon="6.68704">
        <ele>386.20001220703</ele>
        <time>2020-07-26T08:21:26.000Z</time>
      </trkpt>
      <trkpt lat="47.64949" lon="6.68707">
        <ele>386.20001220703</ele>
        <time>2020-07-26T08:21:27.000Z</time>
      </trkpt>
      <trkpt lat="47.64952" lon="6.68709">
        <ele>386.20001220703</ele>
        <time>2020-07-26T08:21:28.000Z</time>
      </trkpt>
      <trkpt lat="47.64966" lon="6.68722">
        <ele>386</ele>
        <time>2020-07-26T08:21:34.000Z</time>
      </trkpt>
      <trkpt lat="47.64968" lon="6.68722">
        <ele>386</ele>
        <time>2020-07-26T08:21:35.000Z</time>
      </trkpt>
      <trkpt lat="47.64983" lon="6.68724">
        <ele>386.39999389648</ele>
        <time>2020-07-26T08:21:43.000Z</time>
      </trkpt>
      <trkpt lat="47.65001" lon="6.68721">
        <ele>386.39999389648</ele>
        <time>2020-07-26T08:21:50.000Z</time>
      </trkpt>
      <trkpt lat="47.65019" lon="6.68707">
        <ele>386.39999389648</ele>
        <time>2020-07-26T08:21:56.000Z</time>
      </trkpt>
      <trkpt lat="47.65031" lon="6.68697">
        <ele>387.20001220703</ele>
        <time>2020-07-26T08:22:02.000Z</time>
      </trkpt>
      <trkpt lat="47.65033" lon="6.68695">
        <ele>387.39999389648</ele>
        <time>2020-07-26T08:22:03.000Z</time>
      </trkpt>
      <trkpt lat="47.65041" lon="6.68693">
        <ele>388.79998779297</ele>
        <time>2020-07-26T08:22:06.000Z</time>
      </trkpt>
      <trkpt lat="47.65048" lon="6.68693">
        <ele>390</ele>
        <time>2020-07-26T08:22:09.000Z</time>
      </trkpt>
      <trkpt lat="47.65053" lon="6.68693">
        <ele>391</ele>
        <time>2020-07-26T08:22:12.000Z</time>
      </trkpt>
      <trkpt lat="47.65058" lon="6.68692">
        <ele>391.79998779297</ele>
        <time>2020-07-26T08:22:15.000Z</time>
      </trkpt>
      <trkpt lat="47.6506" lon="6.68693">
        <ele>392</ele>
        <time>2020-07-26T08:22:16.000Z</time>
      </trkpt>
      <trkpt lat="47.65061" lon="6.68693">
        <ele>392.39999389648</ele>
        <time>2020-07-26T08:22:17.000Z</time>
      </trkpt>
      <trkpt lat="47.65064" lon="6.68692">
        <ele>393.39999389648</ele>
        <time>2020-07-26T08:22:20.000Z</time>
      </trkpt>
      <trkpt lat="47.65071" lon="6.68693">
        <ele>394.20001220703</ele>
        <time>2020-07-26T08:22:23.000Z</time>
      </trkpt>
      <trkpt lat="47.65073" lon="6.68693">
        <ele>394.39999389648</ele>
        <time>2020-07-26T08:22:24.000Z</time>
      </trkpt>
      <trkpt lat="47.65081" lon="6.68699">
        <ele>395</ele>
        <time>2020-07-26T08:22:35.000Z</time>
      </trkpt>
      <trkpt lat="47.65083" lon="6.687">
        <ele>395</ele>
        <time>2020-07-26T08:22:36.000Z</time>
      </trkpt>
      <trkpt lat="47.65094" lon="6.68706">
        <ele>395.20001220703</ele>
        <time>2020-07-26T08:22:42.000Z</time>
      </trkpt>
      <trkpt lat="47.65099" lon="6.68709">
        <ele>395.60000610352</ele>
        <time>2020-07-26T08:22:45.000Z</time>
      </trkpt>
      <trkpt lat="47.65106" lon="6.68713">
        <ele>395.79998779297</ele>
        <time>2020-07-26T08:22:48.000Z</time>
      </trkpt>
      <trkpt lat="47.65114" lon="6.68718">
        <ele>396.60000610352</ele>
        <time>2020-07-26T08:22:51.000Z</time>
      </trkpt>
      <trkpt lat="47.65122" lon="6.68722">
        <ele>397.79998779297</ele>
        <time>2020-07-26T08:22:55.000Z</time>
      </trkpt>
      <trkpt lat="47.65134" lon="6.6873">
        <ele>398.60000610352</ele>
        <time>2020-07-26T08:23:00.000Z</time>
      </trkpt>
      <trkpt lat="47.65141" lon="6.68734">
        <ele>398.79998779297</ele>
        <time>2020-07-26T08:23:02.000Z</time>
      </trkpt>
      <trkpt lat="47.65154" lon="6.68742">
        <ele>399</ele>
        <time>2020-07-26T08:23:07.000Z</time>
      </trkpt>
      <trkpt lat="47.65177" lon="6.68754">
        <ele>399.20001220703</ele>
        <time>2020-07-26T08:23:15.000Z</time>
      </trkpt>
      <trkpt lat="47.65199" lon="6.68759">
        <ele>399.20001220703</ele>
        <time>2020-07-26T08:23:22.000Z</time>
      </trkpt>
      <trkpt lat="47.6521" lon="6.68755">
        <ele>399.20001220703</ele>
        <time>2020-07-26T08:23:26.000Z</time>
      </trkpt>
      <trkpt lat="47.65212" lon="6.68752">
        <ele>399.20001220703</ele>
        <time>2020-07-26T08:23:27.000Z</time>
      </trkpt>
      <trkpt lat="47.65222" lon="6.68739">
        <ele>400</ele>
        <time>2020-07-26T08:23:33.000Z</time>
      </trkpt>
      <trkpt lat="47.65227" lon="6.68731">
        <ele>401</ele>
        <time>2020-07-26T08:23:37.000Z</time>
      </trkpt>
      <trkpt lat="47.65228" lon="6.68726">
        <ele>401.39999389648</ele>
        <time>2020-07-26T08:23:40.000Z</time>
      </trkpt>
      <trkpt lat="47.65229" lon="6.68715">
        <ele>402</ele>
        <time>2020-07-26T08:23:45.000Z</time>
      </trkpt>
      <trkpt lat="47.65229" lon="6.6871">
        <ele>402.79998779297</ele>
        <time>2020-07-26T08:23:48.000Z</time>
      </trkpt>
      <trkpt lat="47.65229" lon="6.68707">
        <ele>403</ele>
        <time>2020-07-26T08:23:49.000Z</time>
      </trkpt>
      <trkpt lat="47.65228" lon="6.68692">
        <ele>404.20001220703</ele>
        <time>2020-07-26T08:23:55.000Z</time>
      </trkpt>
      <trkpt lat="47.65227" lon="6.68689">
        <ele>404.39999389648</ele>
        <time>2020-07-26T08:23:56.000Z</time>
      </trkpt>
      <trkpt lat="47.65225" lon="6.68678">
        <ele>405.39999389648</ele>
        <time>2020-07-26T08:24:00.000Z</time>
      </trkpt>
      <trkpt lat="47.65224" lon="6.68669">
        <ele>406</ele>
        <time>2020-07-26T08:24:03.000Z</time>
      </trkpt>
      <trkpt lat="47.65223" lon="6.68664">
        <ele>406.60000610352</ele>
        <time>2020-07-26T08:24:05.000Z</time>
      </trkpt>
      <trkpt lat="47.65221" lon="6.68652">
        <ele>407.79998779297</ele>
        <time>2020-07-26T08:24:10.000Z</time>
      </trkpt>
      <trkpt lat="47.65221" lon="6.68649">
        <ele>408</ele>
        <time>2020-07-26T08:24:11.000Z</time>
      </trkpt>
      <trkpt lat="47.65218" lon="6.68635">
        <ele>408.79998779297</ele>
        <time>2020-07-26T08:24:16.000Z</time>
      </trkpt>
      <trkpt lat="47.65218" lon="6.68632">
        <ele>409.20001220703</ele>
        <time>2020-07-26T08:24:17.000Z</time>
      </trkpt>
      <trkpt lat="47.65215" lon="6.6862">
        <ele>409.79998779297</ele>
        <time>2020-07-26T08:24:21.000Z</time>
      </trkpt>
      <trkpt lat="47.65213" lon="6.68602">
        <ele>410.60000610352</ele>
        <time>2020-07-26T08:24:26.000Z</time>
      </trkpt>
      <trkpt lat="47.65212" lon="6.6859">
        <ele>411</ele>
        <time>2020-07-26T08:24:29.000Z</time>
      </trkpt>
      <trkpt lat="47.65209" lon="6.68574">
        <ele>411.39999389648</ele>
        <time>2020-07-26T08:24:33.000Z</time>
      </trkpt>
      <trkpt lat="47.65207" lon="6.68563">
        <ele>412</ele>
        <time>2020-07-26T08:24:36.000Z</time>
      </trkpt>
      <trkpt lat="47.65204" lon="6.68545">
        <ele>412.20001220703</ele>
        <time>2020-07-26T08:24:41.000Z</time>
      </trkpt>
      <trkpt lat="47.65201" lon="6.68519">
        <ele>412.79998779297</ele>
        <time>2020-07-26T08:24:49.000Z</time>
      </trkpt>
      <trkpt lat="47.65201" lon="6.68517">
        <ele>413</ele>
        <time>2020-07-26T08:24:50.000Z</time>
      </trkpt>
      <trkpt lat="47.65196" lon="6.68489">
        <ele>413.79998779297</ele>
        <time>2020-07-26T08:24:58.000Z</time>
      </trkpt>
      <trkpt lat="47.65196" lon="6.68486">
        <ele>414</ele>
        <time>2020-07-26T08:24:59.000Z</time>
      </trkpt>
      <trkpt lat="47.65192" lon="6.68471">
        <ele>415.20001220703</ele>
        <time>2020-07-26T08:25:04.000Z</time>
      </trkpt>
      <trkpt lat="47.65191" lon="6.68468">
        <ele>415.39999389648</ele>
        <time>2020-07-26T08:25:05.000Z</time>
      </trkpt>
      <trkpt lat="47.65188" lon="6.68454">
        <ele>416.39999389648</ele>
        <time>2020-07-26T08:25:10.000Z</time>
      </trkpt>
      <trkpt lat="47.65185" lon="6.68446">
        <ele>416.79998779297</ele>
        <time>2020-07-26T08:25:12.000Z</time>
      </trkpt>
      <trkpt lat="47.65184" lon="6.68441">
        <ele>417.39999389648</ele>
        <time>2020-07-26T08:25:14.000Z</time>
      </trkpt>
      <trkpt lat="47.65183" lon="6.68426">
        <ele>418.39999389648</ele>
        <time>2020-07-26T08:25:19.000Z</time>
      </trkpt>
      <trkpt lat="47.65182" lon="6.68424">
        <ele>418.79998779297</ele>
        <time>2020-07-26T08:25:20.000Z</time>
      </trkpt>
      <trkpt lat="47.6518" lon="6.68412">
        <ele>419.60000610352</ele>
        <time>2020-07-26T08:25:24.000Z</time>
      </trkpt>
      <trkpt lat="47.65179" lon="6.68403">
        <ele>420.20001220703</ele>
        <time>2020-07-26T08:25:27.000Z</time>
      </trkpt>
      <trkpt lat="47.65176" lon="6.68393">
        <ele>420.79998779297</ele>
        <time>2020-07-26T08:25:30.000Z</time>
      </trkpt>
      <trkpt lat="47.65174" lon="6.68379">
        <ele>421.39999389648</ele>
        <time>2020-07-26T08:25:34.000Z</time>
      </trkpt>
      <trkpt lat="47.65172" lon="6.6837">
        <ele>421.79998779297</ele>
        <time>2020-07-26T08:25:36.000Z</time>
      </trkpt>
      <trkpt lat="47.65164" lon="6.68347">
        <ele>422.20001220703</ele>
        <time>2020-07-26T08:25:41.000Z</time>
      </trkpt>
      <trkpt lat="47.65152" lon="6.68323">
        <ele>422.79998779297</ele>
        <time>2020-07-26T08:25:49.000Z</time>
      </trkpt>
      <trkpt lat="47.65146" lon="6.68319">
        <ele>423</ele>
        <time>2020-07-26T08:25:52.000Z</time>
      </trkpt>
      <trkpt lat="47.65144" lon="6.68316">
        <ele>423.39999389648</ele>
        <time>2020-07-26T08:25:55.000Z</time>
      </trkpt>
      <trkpt lat="47.65144" lon="6.68315">
        <ele>424.20001220703</ele>
        <time>2020-07-26T08:25:59.000Z</time>
      </trkpt>
      <trkpt lat="47.65144" lon="6.68315">
        <ele>424.79998779297</ele>
        <time>2020-07-26T08:26:10.000Z</time>
      </trkpt>
      <trkpt lat="47.65143" lon="6.68315">
        <ele>424.79998779297</ele>
        <time>2020-07-26T08:26:27.000Z</time>
      </trkpt>
      <trkpt lat="47.65144" lon="6.68312">
        <ele>424.60000610352</ele>
        <time>2020-07-26T08:26:43.000Z</time>
      </trkpt>
      <trkpt lat="47.65149" lon="6.68312">
        <ele>424.60000610352</ele>
        <time>2020-07-26T08:26:49.000Z</time>
      </trkpt>
      <trkpt lat="47.65151" lon="6.68313">
        <ele>424.60000610352</ele>
        <time>2020-07-26T08:26:50.000Z</time>
      </trkpt>
      <trkpt lat="47.65155" lon="6.6832">
        <ele>424.39999389648</ele>
        <time>2020-07-26T08:26:54.000Z</time>
      </trkpt>
      <trkpt lat="47.65155" lon="6.6832">
        <ele>423</ele>
        <time>2020-07-26T08:27:07.000Z</time>
      </trkpt>
      <trkpt lat="47.65155" lon="6.68319">
        <ele>423</ele>
        <time>2020-07-26T08:27:12.000Z</time>
      </trkpt>
      <trkpt lat="47.65152" lon="6.68315">
        <ele>422.79998779297</ele>
        <time>2020-07-26T08:27:17.000Z</time>
      </trkpt>
      <trkpt lat="47.65146" lon="6.68309">
        <ele>422.79998779297</ele>
        <time>2020-07-26T08:27:21.000Z</time>
      </trkpt>
      <trkpt lat="47.65145" lon="6.68308">
        <ele>422.79998779297</ele>
        <time>2020-07-26T08:27:22.000Z</time>
      </trkpt>
      <trkpt lat="47.65141" lon="6.68305">
        <ele>423.39999389648</ele>
        <time>2020-07-26T08:27:28.000Z</time>
      </trkpt>
      <trkpt lat="47.65141" lon="6.68304">
        <ele>424</ele>
        <time>2020-07-26T08:27:31.000Z</time>
      </trkpt>
      <trkpt lat="47.65141" lon="6.68304">
        <ele>424.60000610352</ele>
        <time>2020-07-26T08:27:42.000Z</time>
      </trkpt>
      <trkpt lat="47.65142" lon="6.68303">
        <ele>424.60000610352</ele>
        <time>2020-07-26T08:28:01.000Z</time>
      </trkpt>
      <trkpt lat="47.65143" lon="6.68303">
        <ele>424.60000610352</ele>
        <time>2020-07-26T08:28:11.000Z</time>
      </trkpt>
      <trkpt lat="47.65146" lon="6.68303">
        <ele>424.60000610352</ele>
        <time>2020-07-26T08:28:13.000Z</time>
      </trkpt>
      <trkpt lat="47.65149" lon="6.68311">
        <ele>424.60000610352</ele>
        <time>2020-07-26T08:28:16.000Z</time>
      </trkpt>
      <trkpt lat="47.65157" lon="6.68312">
        <ele>424.60000610352</ele>
        <time>2020-07-26T08:28:20.000Z</time>
      </trkpt>
      <trkpt lat="47.65163" lon="6.68293">
        <ele>423.20001220703</ele>
        <time>2020-07-26T08:28:24.000Z</time>
      </trkpt>
      <trkpt lat="47.65165" lon="6.68287">
        <ele>423</ele>
        <time>2020-07-26T08:28:25.000Z</time>
      </trkpt>
      <trkpt lat="47.65167" lon="6.68282">
        <ele>422.79998779297</ele>
        <time>2020-07-26T08:28:26.000Z</time>
      </trkpt>
      <trkpt lat="47.65171" lon="6.68267">
        <ele>422.60000610352</ele>
        <time>2020-07-26T08:28:29.000Z</time>
      </trkpt>
      <trkpt lat="47.65172" lon="6.68261">
        <ele>421.60000610352</ele>
        <time>2020-07-26T08:28:31.000Z</time>
      </trkpt>
      <trkpt lat="47.65173" lon="6.68258">
        <ele>420.39999389648</ele>
        <time>2020-07-26T08:28:33.000Z</time>
      </trkpt>
      <trkpt lat="47.65174" lon="6.68257">
        <ele>420.20001220703</ele>
        <time>2020-07-26T08:28:34.000Z</time>
      </trkpt>
      <trkpt lat="47.65175" lon="6.68255">
        <ele>418.79998779297</ele>
        <time>2020-07-26T08:28:36.000Z</time>
      </trkpt>
      <trkpt lat="47.6518" lon="6.68259">
        <ele>418.39999389648</ele>
        <time>2020-07-26T08:28:43.000Z</time>
      </trkpt>
      <trkpt lat="47.65181" lon="6.68261">
        <ele>418.39999389648</ele>
        <time>2020-07-26T08:28:44.000Z</time>
      </trkpt>
      <trkpt lat="47.65188" lon="6.68276">
        <ele>418.39999389648</ele>
        <time>2020-07-26T08:28:50.000Z</time>
      </trkpt>
      <trkpt lat="47.65196" lon="6.68288">
        <ele>418.39999389648</ele>
        <time>2020-07-26T08:28:55.000Z</time>
      </trkpt>
      <trkpt lat="47.65205" lon="6.68292">
        <ele>418.20001220703</ele>
        <time>2020-07-26T08:29:03.000Z</time>
      </trkpt>
      <trkpt lat="47.65216" lon="6.68293">
        <ele>419.79998779297</ele>
        <time>2020-07-26T08:29:13.000Z</time>
      </trkpt>
      <trkpt lat="47.65218" lon="6.68294">
        <ele>419.79998779297</ele>
        <time>2020-07-26T08:29:15.000Z</time>
      </trkpt>
      <trkpt lat="47.65224" lon="6.68295">
        <ele>420.79998779297</ele>
        <time>2020-07-26T08:29:23.000Z</time>
      </trkpt>
      <trkpt lat="47.65226" lon="6.68295">
        <ele>421.39999389648</ele>
        <time>2020-07-26T08:29:26.000Z</time>
      </trkpt>
      <trkpt lat="47.65226" lon="6.68295">
        <ele>422</ele>
        <time>2020-07-26T08:29:28.000Z</time>
      </trkpt>
      <trkpt lat="47.6523" lon="6.68294">
        <ele>423</ele>
        <time>2020-07-26T08:29:33.000Z</time>
      </trkpt>
      <trkpt lat="47.65231" lon="6.68294">
        <ele>424.39999389648</ele>
        <time>2020-07-26T08:29:38.000Z</time>
      </trkpt>
      <trkpt lat="47.65231" lon="6.68294">
        <ele>424.60000610352</ele>
        <time>2020-07-26T08:29:39.000Z</time>
      </trkpt>
      <trkpt lat="47.65232" lon="6.68294">
        <ele>425.39999389648</ele>
        <time>2020-07-26T08:29:43.000Z</time>
      </trkpt>
      <trkpt lat="47.65235" lon="6.68294">
        <ele>426</ele>
        <time>2020-07-26T08:29:49.000Z</time>
      </trkpt>
      <trkpt lat="47.65239" lon="6.68291">
        <ele>426.60000610352</ele>
        <time>2020-07-26T08:29:56.000Z</time>
      </trkpt>
      <trkpt lat="47.65242" lon="6.6829">
        <ele>427.60000610352</ele>
        <time>2020-07-26T08:30:00.000Z</time>
      </trkpt>
      <trkpt lat="47.65243" lon="6.6829">
        <ele>428.20001220703</ele>
        <time>2020-07-26T08:30:02.000Z</time>
      </trkpt>
      <trkpt lat="47.65244" lon="6.68289">
        <ele>428.60000610352</ele>
        <time>2020-07-26T08:30:04.000Z</time>
      </trkpt>
      <trkpt lat="47.65247" lon="6.68288">
        <ele>429.60000610352</ele>
        <time>2020-07-26T08:30:10.000Z</time>
      </trkpt>
      <trkpt lat="47.65251" lon="6.68287">
        <ele>430.60000610352</ele>
        <time>2020-07-26T08:30:15.000Z</time>
      </trkpt>
      <trkpt lat="47.65255" lon="6.68283">
        <ele>431.60000610352</ele>
        <time>2020-07-26T08:30:22.000Z</time>
      </trkpt>
      <trkpt lat="47.65259" lon="6.6828">
        <ele>432</ele>
        <time>2020-07-26T08:30:26.000Z</time>
      </trkpt>
      <trkpt lat="47.65261" lon="6.68279">
        <ele>432.20001220703</ele>
        <time>2020-07-26T08:30:28.000Z</time>
      </trkpt>
      <trkpt lat="47.65272" lon="6.68277">
        <ele>432.60000610352</ele>
        <time>2020-07-26T08:30:37.000Z</time>
      </trkpt>
      <trkpt lat="47.65276" lon="6.68276">
        <ele>432.79998779297</ele>
        <time>2020-07-26T08:30:40.000Z</time>
      </trkpt>
      <trkpt lat="47.65295" lon="6.68271">
        <ele>432.79998779297</ele>
        <time>2020-07-26T08:30:53.000Z</time>
      </trkpt>
      <trkpt lat="47.6531" lon="6.68264">
        <ele>432.79998779297</ele>
        <time>2020-07-26T08:30:59.000Z</time>
      </trkpt>
      <trkpt lat="47.6533" lon="6.68257">
        <ele>432</ele>
        <time>2020-07-26T08:31:03.000Z</time>
      </trkpt>
      <trkpt lat="47.65337" lon="6.68254">
        <ele>431.39999389648</ele>
        <time>2020-07-26T08:31:04.000Z</time>
      </trkpt>
      <trkpt lat="47.65349" lon="6.6825">
        <ele>430.39999389648</ele>
        <time>2020-07-26T08:31:06.000Z</time>
      </trkpt>
      <trkpt lat="47.65363" lon="6.68245">
        <ele>428.20001220703</ele>
        <time>2020-07-26T08:31:08.000Z</time>
      </trkpt>
      <trkpt lat="47.65368" lon="6.68243">
        <ele>426.20001220703</ele>
        <time>2020-07-26T08:31:09.000Z</time>
      </trkpt>
      <trkpt lat="47.65373" lon="6.6824">
        <ele>424.60000610352</ele>
        <time>2020-07-26T08:31:10.000Z</time>
      </trkpt>
      <trkpt lat="47.65379" lon="6.68237">
        <ele>422.79998779297</ele>
        <time>2020-07-26T08:31:11.000Z</time>
      </trkpt>
      <trkpt lat="47.65384" lon="6.68233">
        <ele>421.39999389648</ele>
        <time>2020-07-26T08:31:12.000Z</time>
      </trkpt>
      <trkpt lat="47.65389" lon="6.68228">
        <ele>419.79998779297</ele>
        <time>2020-07-26T08:31:13.000Z</time>
      </trkpt>
      <trkpt lat="47.65393" lon="6.68224">
        <ele>418.60000610352</ele>
        <time>2020-07-26T08:31:14.000Z</time>
      </trkpt>
      <trkpt lat="47.65397" lon="6.6822">
        <ele>417.39999389648</ele>
        <time>2020-07-26T08:31:15.000Z</time>
      </trkpt>
      <trkpt lat="47.65407" lon="6.68211">
        <ele>416.39999389648</ele>
        <time>2020-07-26T08:31:18.000Z</time>
      </trkpt>
      <trkpt lat="47.65422" lon="6.68201">
        <ele>416.20001220703</ele>
        <time>2020-07-26T08:31:23.000Z</time>
      </trkpt>
      <trkpt lat="47.65427" lon="6.68196">
        <ele>416.20001220703</ele>
        <time>2020-07-26T08:31:27.000Z</time>
      </trkpt>
      <trkpt lat="47.65429" lon="6.68196">
        <ele>416.39999389648</ele>
        <time>2020-07-26T08:31:28.000Z</time>
      </trkpt>
      <trkpt lat="47.65432" lon="6.68196">
        <ele>416.39999389648</ele>
        <time>2020-07-26T08:31:30.000Z</time>
      </trkpt>
      <trkpt lat="47.65439" lon="6.68192">
        <ele>416.39999389648</ele>
        <time>2020-07-26T08:31:33.000Z</time>
      </trkpt>
      <trkpt lat="47.65442" lon="6.68192">
        <ele>416.39999389648</ele>
        <time>2020-07-26T08:31:34.000Z</time>
      </trkpt>
      <trkpt lat="47.65451" lon="6.68192">
        <ele>416.20001220703</ele>
        <time>2020-07-26T08:31:39.000Z</time>
      </trkpt>
      <trkpt lat="47.65457" lon="6.68195">
        <ele>415.60000610352</ele>
        <time>2020-07-26T08:31:46.000Z</time>
      </trkpt>
      <trkpt lat="47.6546" lon="6.68198">
        <ele>415.20001220703</ele>
        <time>2020-07-26T08:31:58.000Z</time>
      </trkpt>
      <trkpt lat="47.6546" lon="6.68198">
        <ele>415.20001220703</ele>
        <time>2020-07-26T08:32:06.000Z</time>
      </trkpt>
      <trkpt lat="47.65461" lon="6.68198">
        <ele>415.20001220703</ele>
        <time>2020-07-26T08:32:16.000Z</time>
      </trkpt>
      <trkpt lat="47.65463" lon="6.68197">
        <ele>415.20001220703</ele>
        <time>2020-07-26T08:32:31.000Z</time>
      </trkpt>
      <trkpt lat="47.65463" lon="6.68196">
        <ele>415.20001220703</ele>
        <time>2020-07-26T08:32:48.000Z</time>
      </trkpt>
      <trkpt lat="47.65464" lon="6.68196">
        <ele>415.20001220703</ele>
        <time>2020-07-26T08:33:04.000Z</time>
      </trkpt>
      <trkpt lat="47.65468" lon="6.68195">
        <ele>415.20001220703</ele>
        <time>2020-07-26T08:33:17.000Z</time>
      </trkpt>
      <trkpt lat="47.65483" lon="6.68192">
        <ele>414.79998779297</ele>
        <time>2020-07-26T08:33:24.000Z</time>
      </trkpt>
      <trkpt lat="47.65494" lon="6.68186">
        <ele>414</ele>
        <time>2020-07-26T08:33:28.000Z</time>
      </trkpt>
      <trkpt lat="47.65502" lon="6.68184">
        <ele>413.79998779297</ele>
        <time>2020-07-26T08:33:30.000Z</time>
      </trkpt>
      <trkpt lat="47.65514" lon="6.68179">
        <ele>412.79998779297</ele>
        <time>2020-07-26T08:33:33.000Z</time>
      </trkpt>
      <trkpt lat="47.65518" lon="6.68175">
        <ele>412.60000610352</ele>
        <time>2020-07-26T08:33:35.000Z</time>
      </trkpt>
      <trkpt lat="47.65518" lon="6.68172">
        <ele>412.39999389648</ele>
        <time>2020-07-26T08:33:36.000Z</time>
      </trkpt>
      <trkpt lat="47.65517" lon="6.68155">
        <ele>412.20001220703</ele>
        <time>2020-07-26T08:33:41.000Z</time>
      </trkpt>
      <trkpt lat="47.65521" lon="6.68135">
        <ele>411.79998779297</ele>
        <time>2020-07-26T08:33:44.000Z</time>
      </trkpt>
      <trkpt lat="47.65524" lon="6.68128">
        <ele>411.60000610352</ele>
        <time>2020-07-26T08:33:45.000Z</time>
      </trkpt>
      <trkpt lat="47.65536" lon="6.68109">
        <ele>411</ele>
        <time>2020-07-26T08:33:48.000Z</time>
      </trkpt>
      <trkpt lat="47.65545" lon="6.68095">
        <ele>410.60000610352</ele>
        <time>2020-07-26T08:33:50.000Z</time>
      </trkpt>
      <trkpt lat="47.65556" lon="6.68079">
        <ele>410</ele>
        <time>2020-07-26T08:33:52.000Z</time>
      </trkpt>
      <trkpt lat="47.6556" lon="6.68071">
        <ele>409.39999389648</ele>
        <time>2020-07-26T08:33:53.000Z</time>
      </trkpt>
      <trkpt lat="47.65564" lon="6.68062">
        <ele>409.20001220703</ele>
        <time>2020-07-26T08:33:54.000Z</time>
      </trkpt>
      <trkpt lat="47.65569" lon="6.68034">
        <ele>408</ele>
        <time>2020-07-26T08:33:57.000Z</time>
      </trkpt>
      <trkpt lat="47.65569" lon="6.68024">
        <ele>407.39999389648</ele>
        <time>2020-07-26T08:33:58.000Z</time>
      </trkpt>
      <trkpt lat="47.65566" lon="6.68013">
        <ele>407</ele>
        <time>2020-07-26T08:33:59.000Z</time>
      </trkpt>
      <trkpt lat="47.65559" lon="6.67995">
        <ele>406.20001220703</ele>
        <time>2020-07-26T08:34:01.000Z</time>
      </trkpt>
      <trkpt lat="47.65555" lon="6.67986">
        <ele>405.39999389648</ele>
        <time>2020-07-26T08:34:02.000Z</time>
      </trkpt>
      <trkpt lat="47.65551" lon="6.67978">
        <ele>404.79998779297</ele>
        <time>2020-07-26T08:34:03.000Z</time>
      </trkpt>
      <trkpt lat="47.65546" lon="6.6797">
        <ele>404.39999389648</ele>
        <time>2020-07-26T08:34:04.000Z</time>
      </trkpt>
      <trkpt lat="47.65536" lon="6.67954">
        <ele>403.20001220703</ele>
        <time>2020-07-26T08:34:06.000Z</time>
      </trkpt>
      <trkpt lat="47.65532" lon="6.67945">
        <ele>402.79998779297</ele>
        <time>2020-07-26T08:34:07.000Z</time>
      </trkpt>
      <trkpt lat="47.65526" lon="6.67927">
        <ele>401.20001220703</ele>
        <time>2020-07-26T08:34:09.000Z</time>
      </trkpt>
      <trkpt lat="47.65523" lon="6.67918">
        <ele>400.60000610352</ele>
        <time>2020-07-26T08:34:10.000Z</time>
      </trkpt>
      <trkpt lat="47.6552" lon="6.67908">
        <ele>400.20001220703</ele>
        <time>2020-07-26T08:34:11.000Z</time>
      </trkpt>
      <trkpt lat="47.65516" lon="6.67873">
        <ele>399</ele>
        <time>2020-07-26T08:34:14.000Z</time>
      </trkpt>
      <trkpt lat="47.65515" lon="6.6786">
        <ele>398.39999389648</ele>
        <time>2020-07-26T08:34:15.000Z</time>
      </trkpt>
      <trkpt lat="47.65515" lon="6.67833">
        <ele>397.60000610352</ele>
        <time>2020-07-26T08:34:17.000Z</time>
      </trkpt>
      <trkpt lat="47.65517" lon="6.67806">
        <ele>396.20001220703</ele>
        <time>2020-07-26T08:34:19.000Z</time>
      </trkpt>
      <trkpt lat="47.65518" lon="6.67779">
        <ele>395</ele>
        <time>2020-07-26T08:34:21.000Z</time>
      </trkpt>
      <trkpt lat="47.65522" lon="6.67754">
        <ele>393.79998779297</ele>
        <time>2020-07-26T08:34:23.000Z</time>
      </trkpt>
      <trkpt lat="47.65525" lon="6.67744">
        <ele>393.20001220703</ele>
        <time>2020-07-26T08:34:24.000Z</time>
      </trkpt>
      <trkpt lat="47.65533" lon="6.67726">
        <ele>392.39999389648</ele>
        <time>2020-07-26T08:34:26.000Z</time>
      </trkpt>
      <trkpt lat="47.65536" lon="6.67717">
        <ele>392.20001220703</ele>
        <time>2020-07-26T08:34:27.000Z</time>
      </trkpt>
      <trkpt lat="47.65539" lon="6.67709">
        <ele>392</ele>
        <time>2020-07-26T08:34:28.000Z</time>
      </trkpt>
      <trkpt lat="47.65537" lon="6.67683">
        <ele>391.60000610352</ele>
        <time>2020-07-26T08:34:31.000Z</time>
      </trkpt>
      <trkpt lat="47.65534" lon="6.67667">
        <ele>391.60000610352</ele>
        <time>2020-07-26T08:34:33.000Z</time>
      </trkpt>
      <trkpt lat="47.65529" lon="6.6765">
        <ele>391.39999389648</ele>
        <time>2020-07-26T08:34:35.000Z</time>
      </trkpt>
      <trkpt lat="47.65527" lon="6.67641">
        <ele>391.39999389648</ele>
        <time>2020-07-26T08:34:36.000Z</time>
      </trkpt>
      <trkpt lat="47.65511" lon="6.67596">
        <ele>391</ele>
        <time>2020-07-26T08:34:41.000Z</time>
      </trkpt>
      <trkpt lat="47.655" lon="6.67563">
        <ele>390.79998779297</ele>
        <time>2020-07-26T08:34:45.000Z</time>
      </trkpt>
      <trkpt lat="47.65495" lon="6.67546">
        <ele>390.20001220703</ele>
        <time>2020-07-26T08:34:47.000Z</time>
      </trkpt>
      <trkpt lat="47.65492" lon="6.67537">
        <ele>390</ele>
        <time>2020-07-26T08:34:48.000Z</time>
      </trkpt>
      <trkpt lat="47.6549" lon="6.67527">
        <ele>390</ele>
        <time>2020-07-26T08:34:49.000Z</time>
      </trkpt>
      <trkpt lat="47.65483" lon="6.67485">
        <ele>389.60000610352</ele>
        <time>2020-07-26T08:34:53.000Z</time>
      </trkpt>
      <trkpt lat="47.65479" lon="6.67437">
        <ele>389</ele>
        <time>2020-07-26T08:34:57.000Z</time>
      </trkpt>
      <trkpt lat="47.6548" lon="6.67425">
        <ele>389</ele>
        <time>2020-07-26T08:34:58.000Z</time>
      </trkpt>
      <trkpt lat="47.65482" lon="6.67389">
        <ele>387.39999389648</ele>
        <time>2020-07-26T08:35:01.000Z</time>
      </trkpt>
      <trkpt lat="47.65487" lon="6.67355">
        <ele>386.20001220703</ele>
        <time>2020-07-26T08:35:04.000Z</time>
      </trkpt>
      <trkpt lat="47.65491" lon="6.67332">
        <ele>385.20001220703</ele>
        <time>2020-07-26T08:35:06.000Z</time>
      </trkpt>
      <trkpt lat="47.65494" lon="6.67322">
        <ele>384.39999389648</ele>
        <time>2020-07-26T08:35:07.000Z</time>
      </trkpt>
      <trkpt lat="47.65497" lon="6.67311">
        <ele>384</ele>
        <time>2020-07-26T08:35:08.000Z</time>
      </trkpt>
      <trkpt lat="47.655" lon="6.67301">
        <ele>383.60000610352</ele>
        <time>2020-07-26T08:35:09.000Z</time>
      </trkpt>
      <trkpt lat="47.65507" lon="6.6728">
        <ele>382.60000610352</ele>
        <time>2020-07-26T08:35:11.000Z</time>
      </trkpt>
      <trkpt lat="47.65511" lon="6.6727">
        <ele>382.20001220703</ele>
        <time>2020-07-26T08:35:12.000Z</time>
      </trkpt>
      <trkpt lat="47.65521" lon="6.67252">
        <ele>381</ele>
        <time>2020-07-26T08:35:14.000Z</time>
      </trkpt>
      <trkpt lat="47.65531" lon="6.67233">
        <ele>380</ele>
        <time>2020-07-26T08:35:16.000Z</time>
      </trkpt>
      <trkpt lat="47.65538" lon="6.67214">
        <ele>378.20001220703</ele>
        <time>2020-07-26T08:35:18.000Z</time>
      </trkpt>
      <trkpt lat="47.6554" lon="6.67203">
        <ele>377.39999389648</ele>
        <time>2020-07-26T08:35:19.000Z</time>
      </trkpt>
      <trkpt lat="47.65541" lon="6.67191">
        <ele>376.79998779297</ele>
        <time>2020-07-26T08:35:20.000Z</time>
      </trkpt>
      <trkpt lat="47.65542" lon="6.67168">
        <ele>376</ele>
        <time>2020-07-26T08:35:22.000Z</time>
      </trkpt>
      <trkpt lat="47.65542" lon="6.67157">
        <ele>375.60000610352</ele>
        <time>2020-07-26T08:35:23.000Z</time>
      </trkpt>
      <trkpt lat="47.65542" lon="6.67145">
        <ele>375.20001220703</ele>
        <time>2020-07-26T08:35:24.000Z</time>
      </trkpt>
      <trkpt lat="47.65539" lon="6.67124">
        <ele>374.60000610352</ele>
        <time>2020-07-26T08:35:26.000Z</time>
      </trkpt>
      <trkpt lat="47.65537" lon="6.67113">
        <ele>374.60000610352</ele>
        <time>2020-07-26T08:35:27.000Z</time>
      </trkpt>
      <trkpt lat="47.65532" lon="6.67094">
        <ele>374.39999389648</ele>
        <time>2020-07-26T08:35:29.000Z</time>
      </trkpt>
      <trkpt lat="47.6552" lon="6.67059">
        <ele>374.39999389648</ele>
        <time>2020-07-26T08:35:33.000Z</time>
      </trkpt>
      <trkpt lat="47.65518" lon="6.67017">
        <ele>374.20001220703</ele>
        <time>2020-07-26T08:35:37.000Z</time>
      </trkpt>
      <trkpt lat="47.65519" lon="6.67006">
        <ele>374.20001220703</ele>
        <time>2020-07-26T08:35:38.000Z</time>
      </trkpt>
      <trkpt lat="47.65523" lon="6.66971">
        <ele>374.20001220703</ele>
        <time>2020-07-26T08:35:41.000Z</time>
      </trkpt>
      <trkpt lat="47.65524" lon="6.66938">
        <ele>374</ele>
        <time>2020-07-26T08:35:44.000Z</time>
      </trkpt>
      <trkpt lat="47.65528" lon="6.6692">
        <ele>373.79998779297</ele>
        <time>2020-07-26T08:35:46.000Z</time>
      </trkpt>
      <trkpt lat="47.65535" lon="6.66906">
        <ele>373</ele>
        <time>2020-07-26T08:35:48.000Z</time>
      </trkpt>
      <trkpt lat="47.65538" lon="6.66901">
        <ele>372.39999389648</ele>
        <time>2020-07-26T08:35:49.000Z</time>
      </trkpt>
      <trkpt lat="47.65546" lon="6.66892">
        <ele>372.20001220703</ele>
        <time>2020-07-26T08:35:51.000Z</time>
      </trkpt>
      <trkpt lat="47.65554" lon="6.66883">
        <ele>371.79998779297</ele>
        <time>2020-07-26T08:35:53.000Z</time>
      </trkpt>
      <trkpt lat="47.65559" lon="6.66878">
        <ele>371.79998779297</ele>
        <time>2020-07-26T08:35:54.000Z</time>
      </trkpt>
      <trkpt lat="47.65567" lon="6.66867">
        <ele>371.39999389648</ele>
        <time>2020-07-26T08:35:56.000Z</time>
      </trkpt>
      <trkpt lat="47.65578" lon="6.66855">
        <ele>371.20001220703</ele>
        <time>2020-07-26T08:35:59.000Z</time>
      </trkpt>
      <trkpt lat="47.65584" lon="6.66843">
        <ele>371.20001220703</ele>
        <time>2020-07-26T08:36:03.000Z</time>
      </trkpt>
      <trkpt lat="47.65585" lon="6.66836">
        <ele>371.79998779297</ele>
        <time>2020-07-26T08:36:11.000Z</time>
      </trkpt>
      <trkpt lat="47.65584" lon="6.66837">
        <ele>371.79998779297</ele>
        <time>2020-07-26T08:36:28.000Z</time>
      </trkpt>
      <trkpt lat="47.65584" lon="6.66836">
        <ele>371.79998779297</ele>
        <time>2020-07-26T08:36:51.000Z</time>
      </trkpt>
      <trkpt lat="47.6558" lon="6.66833">
        <ele>371.79998779297</ele>
        <time>2020-07-26T08:37:12.000Z</time>
      </trkpt>
      <trkpt lat="47.65582" lon="6.66831">
        <ele>371.79998779297</ele>
        <time>2020-07-26T08:37:26.000Z</time>
      </trkpt>
      <trkpt lat="47.65575" lon="6.66824">
        <ele>371.79998779297</ele>
        <time>2020-07-26T08:37:41.000Z</time>
      </trkpt>
      <trkpt lat="47.65574" lon="6.66819">
        <ele>371.79998779297</ele>
        <time>2020-07-26T08:37:44.000Z</time>
      </trkpt>
      <trkpt lat="47.6557" lon="6.66805">
        <ele>371.79998779297</ele>
        <time>2020-07-26T08:37:49.000Z</time>
      </trkpt>
      <trkpt lat="47.65561" lon="6.66777">
        <ele>372.60000610352</ele>
        <time>2020-07-26T08:37:57.000Z</time>
      </trkpt>
      <trkpt lat="47.65555" lon="6.66745">
        <ele>373.39999389648</ele>
        <time>2020-07-26T08:38:03.000Z</time>
      </trkpt>
      <trkpt lat="47.65553" lon="6.66719">
        <ele>373.60000610352</ele>
        <time>2020-07-26T08:38:07.000Z</time>
      </trkpt>
      <trkpt lat="47.65553" lon="6.66705">
        <ele>373.79998779297</ele>
        <time>2020-07-26T08:38:09.000Z</time>
      </trkpt>
      <trkpt lat="47.65559" lon="6.66679">
        <ele>374.20001220703</ele>
        <time>2020-07-26T08:38:14.000Z</time>
      </trkpt>
      <trkpt lat="47.65575" lon="6.66661">
        <ele>374.39999389648</ele>
        <time>2020-07-26T08:38:19.000Z</time>
      </trkpt>
      <trkpt lat="47.65578" lon="6.66657">
        <ele>374.39999389648</ele>
        <time>2020-07-26T08:38:20.000Z</time>
      </trkpt>
      <trkpt lat="47.65597" lon="6.66632">
        <ele>374.39999389648</ele>
        <time>2020-07-26T08:38:25.000Z</time>
      </trkpt>
      <trkpt lat="47.65625" lon="6.66607">
        <ele>373</ele>
        <time>2020-07-26T08:38:31.000Z</time>
      </trkpt>
      <trkpt lat="47.6563" lon="6.66601">
        <ele>372.60000610352</ele>
        <time>2020-07-26T08:38:32.000Z</time>
      </trkpt>
      <trkpt lat="47.65642" lon="6.66582">
        <ele>371.60000610352</ele>
        <time>2020-07-26T08:38:35.000Z</time>
      </trkpt>
      <trkpt lat="47.65643" lon="6.66575">
        <ele>371.20001220703</ele>
        <time>2020-07-26T08:38:36.000Z</time>
      </trkpt>
      <trkpt lat="47.65636" lon="6.66557">
        <ele>370.60000610352</ele>
        <time>2020-07-26T08:38:38.000Z</time>
      </trkpt>
      <trkpt lat="47.65619" lon="6.66538">
        <ele>370.39999389648</ele>
        <time>2020-07-26T08:38:42.000Z</time>
      </trkpt>
      <trkpt lat="47.65598" lon="6.6652">
        <ele>370.79998779297</ele>
        <time>2020-07-26T08:38:48.000Z</time>
      </trkpt>
      <trkpt lat="47.65587" lon="6.66515">
        <ele>371.79998779297</ele>
        <time>2020-07-26T08:38:51.000Z</time>
      </trkpt>
      <trkpt lat="47.65581" lon="6.6651">
        <ele>373</ele>
        <time>2020-07-26T08:38:53.000Z</time>
      </trkpt>
      <trkpt lat="47.65576" lon="6.66506">
        <ele>374</ele>
        <time>2020-07-26T08:38:55.000Z</time>
      </trkpt>
      <trkpt lat="47.65567" lon="6.66499">
        <ele>375.60000610352</ele>
        <time>2020-07-26T08:38:58.000Z</time>
      </trkpt>
      <trkpt lat="47.65555" lon="6.6649">
        <ele>376.39999389648</ele>
        <time>2020-07-26T08:39:02.000Z</time>
      </trkpt>
      <trkpt lat="47.65551" lon="6.66488">
        <ele>376.79998779297</ele>
        <time>2020-07-26T08:39:03.000Z</time>
      </trkpt>
      <trkpt lat="47.65542" lon="6.66479">
        <ele>377.79998779297</ele>
        <time>2020-07-26T08:39:06.000Z</time>
      </trkpt>
      <trkpt lat="47.65538" lon="6.66475">
        <ele>378</ele>
        <time>2020-07-26T08:39:07.000Z</time>
      </trkpt>
      <trkpt lat="47.6553" lon="6.66469">
        <ele>378</ele>
        <time>2020-07-26T08:39:09.000Z</time>
      </trkpt>
      <trkpt lat="47.6552" lon="6.66461">
        <ele>378</ele>
        <time>2020-07-26T08:39:12.000Z</time>
      </trkpt>
      <trkpt lat="47.65503" lon="6.66453">
        <ele>377.79998779297</ele>
        <time>2020-07-26T08:39:18.000Z</time>
      </trkpt>
      <trkpt lat="47.65484" lon="6.66448">
        <ele>377.39999389648</ele>
        <time>2020-07-26T08:39:24.000Z</time>
      </trkpt>
      <trkpt lat="47.65472" lon="6.66441">
        <ele>377.39999389648</ele>
        <time>2020-07-26T08:39:27.000Z</time>
      </trkpt>
      <trkpt lat="47.65463" lon="6.66434">
        <ele>377.20001220703</ele>
        <time>2020-07-26T08:39:29.000Z</time>
      </trkpt>
      <trkpt lat="47.65437" lon="6.66407">
        <ele>377.20001220703</ele>
        <time>2020-07-26T08:39:36.000Z</time>
      </trkpt>
      <trkpt lat="47.65416" lon="6.66391">
        <ele>377.20001220703</ele>
        <time>2020-07-26T08:39:42.000Z</time>
      </trkpt>
      <trkpt lat="47.65398" lon="6.66372">
        <ele>378.20001220703</ele>
        <time>2020-07-26T08:39:48.000Z</time>
      </trkpt>
      <trkpt lat="47.65391" lon="6.66357">
        <ele>379.20001220703</ele>
        <time>2020-07-26T08:39:52.000Z</time>
      </trkpt>
      <trkpt lat="47.65387" lon="6.66348">
        <ele>379.60000610352</ele>
        <time>2020-07-26T08:39:54.000Z</time>
      </trkpt>
      <trkpt lat="47.65379" lon="6.66327">
        <ele>380</ele>
        <time>2020-07-26T08:39:59.000Z</time>
      </trkpt>
      <trkpt lat="47.65378" lon="6.66316">
        <ele>380.20001220703</ele>
        <time>2020-07-26T08:40:01.000Z</time>
      </trkpt>
      <trkpt lat="47.65378" lon="6.66304">
        <ele>380.39999389648</ele>
        <time>2020-07-26T08:40:03.000Z</time>
      </trkpt>
      <trkpt lat="47.65381" lon="6.66272">
        <ele>380.39999389648</ele>
        <time>2020-07-26T08:40:09.000Z</time>
      </trkpt>
      <trkpt lat="47.65382" lon="6.66248">
        <ele>379.60000610352</ele>
        <time>2020-07-26T08:40:13.000Z</time>
      </trkpt>
      <trkpt lat="47.65373" lon="6.66232">
        <ele>379.20001220703</ele>
        <time>2020-07-26T08:40:16.000Z</time>
      </trkpt>
      <trkpt lat="47.65356" lon="6.66229">
        <ele>379</ele>
        <time>2020-07-26T08:40:19.000Z</time>
      </trkpt>
      <trkpt lat="47.65342" lon="6.66226">
        <ele>378.79998779297</ele>
        <time>2020-07-26T08:40:21.000Z</time>
      </trkpt>
      <trkpt lat="47.65336" lon="6.66224">
        <ele>378.79998779297</ele>
        <time>2020-07-26T08:40:22.000Z</time>
      </trkpt>
      <trkpt lat="47.6533" lon="6.66222">
        <ele>378.39999389648</ele>
        <time>2020-07-26T08:40:23.000Z</time>
      </trkpt>
      <trkpt lat="47.65323" lon="6.6622">
        <ele>378</ele>
        <time>2020-07-26T08:40:24.000Z</time>
      </trkpt>
      <trkpt lat="47.65316" lon="6.66223">
        <ele>377.39999389648</ele>
        <time>2020-07-26T08:40:25.000Z</time>
      </trkpt>
      <trkpt lat="47.65309" lon="6.66228">
        <ele>376.60000610352</ele>
        <time>2020-07-26T08:40:26.000Z</time>
      </trkpt>
      <trkpt lat="47.65299" lon="6.66244">
        <ele>375</ele>
        <time>2020-07-26T08:40:28.000Z</time>
      </trkpt>
      <trkpt lat="47.65294" lon="6.66253">
        <ele>374.60000610352</ele>
        <time>2020-07-26T08:40:29.000Z</time>
      </trkpt>
      <trkpt lat="47.65289" lon="6.66261">
        <ele>374.20001220703</ele>
        <time>2020-07-26T08:40:30.000Z</time>
      </trkpt>
      <trkpt lat="47.65283" lon="6.6627">
        <ele>373.79998779297</ele>
        <time>2020-07-26T08:40:31.000Z</time>
      </trkpt>
      <trkpt lat="47.65267" lon="6.66281">
        <ele>372.79998779297</ele>
        <time>2020-07-26T08:40:33.000Z</time>
      </trkpt>
      <trkpt lat="47.65259" lon="6.66285">
        <ele>371.20001220703</ele>
        <time>2020-07-26T08:40:34.000Z</time>
      </trkpt>
      <trkpt lat="47.65246" lon="6.66292">
        <ele>370</ele>
        <time>2020-07-26T08:40:36.000Z</time>
      </trkpt>
      <trkpt lat="47.6524" lon="6.66292">
        <ele>368.79998779297</ele>
        <time>2020-07-26T08:40:37.000Z</time>
      </trkpt>
      <trkpt lat="47.65234" lon="6.6629">
        <ele>367.79998779297</ele>
        <time>2020-07-26T08:40:38.000Z</time>
      </trkpt>
      <trkpt lat="47.65224" lon="6.66282">
        <ele>366.79998779297</ele>
        <time>2020-07-26T08:40:40.000Z</time>
      </trkpt>
      <trkpt lat="47.65221" lon="6.66278">
        <ele>366.60000610352</ele>
        <time>2020-07-26T08:40:41.000Z</time>
      </trkpt>
      <trkpt lat="47.65208" lon="6.66262">
        <ele>366.60000610352</ele>
        <time>2020-07-26T08:40:45.000Z</time>
      </trkpt>
      <trkpt lat="47.65188" lon="6.66239">
        <ele>367.20001220703</ele>
        <time>2020-07-26T08:40:52.000Z</time>
      </trkpt>
      <trkpt lat="47.65183" lon="6.66229">
        <ele>367.79998779297</ele>
        <time>2020-07-26T08:40:55.000Z</time>
      </trkpt>
      <trkpt lat="47.65175" lon="6.66218">
        <ele>368.39999389648</ele>
        <time>2020-07-26T08:40:58.000Z</time>
      </trkpt>
      <trkpt lat="47.65163" lon="6.66203">
        <ele>369</ele>
        <time>2020-07-26T08:41:02.000Z</time>
      </trkpt>
      <trkpt lat="47.65158" lon="6.66196">
        <ele>369.39999389648</ele>
        <time>2020-07-26T08:41:04.000Z</time>
      </trkpt>
      <trkpt lat="47.65152" lon="6.66187">
        <ele>370</ele>
        <time>2020-07-26T08:41:07.000Z</time>
      </trkpt>
      <trkpt lat="47.6515" lon="6.6618">
        <ele>370.60000610352</ele>
        <time>2020-07-26T08:41:09.000Z</time>
      </trkpt>
      <trkpt lat="47.65143" lon="6.66167">
        <ele>371.20001220703</ele>
        <time>2020-07-26T08:41:13.000Z</time>
      </trkpt>
      <trkpt lat="47.65139" lon="6.66159">
        <ele>371.79998779297</ele>
        <time>2020-07-26T08:41:16.000Z</time>
      </trkpt>
      <trkpt lat="47.65135" lon="6.66149">
        <ele>372.20001220703</ele>
        <time>2020-07-26T08:41:19.000Z</time>
      </trkpt>
      <trkpt lat="47.65132" lon="6.66135">
        <ele>372.79998779297</ele>
        <time>2020-07-26T08:41:22.000Z</time>
      </trkpt>
      <trkpt lat="47.65131" lon="6.66126">
        <ele>373.20001220703</ele>
        <time>2020-07-26T08:41:24.000Z</time>
      </trkpt>
      <trkpt lat="47.65127" lon="6.66112">
        <ele>373.60000610352</ele>
        <time>2020-07-26T08:41:27.000Z</time>
      </trkpt>
      <trkpt lat="47.65123" lon="6.661">
        <ele>374.20001220703</ele>
        <time>2020-07-26T08:41:30.000Z</time>
      </trkpt>
      <trkpt lat="47.6512" lon="6.66082">
        <ele>374.79998779297</ele>
        <time>2020-07-26T08:41:33.000Z</time>
      </trkpt>
      <trkpt lat="47.65119" lon="6.66066">
        <ele>375.20001220703</ele>
        <time>2020-07-26T08:41:36.000Z</time>
      </trkpt>
      <trkpt lat="47.65119" lon="6.66046">
        <ele>376.20001220703</ele>
        <time>2020-07-26T08:41:40.000Z</time>
      </trkpt>
      <trkpt lat="47.65119" lon="6.66036">
        <ele>376.39999389648</ele>
        <time>2020-07-26T08:41:42.000Z</time>
      </trkpt>
      <trkpt lat="47.65121" lon="6.66016">
        <ele>377.20001220703</ele>
        <time>2020-07-26T08:41:46.000Z</time>
      </trkpt>
      <trkpt lat="47.65121" lon="6.66007">
        <ele>377.60000610352</ele>
        <time>2020-07-26T08:41:48.000Z</time>
      </trkpt>
      <trkpt lat="47.65118" lon="6.65992">
        <ele>378.20001220703</ele>
        <time>2020-07-26T08:41:51.000Z</time>
      </trkpt>
      <trkpt lat="47.65109" lon="6.65982">
        <ele>378.79998779297</ele>
        <time>2020-07-26T08:41:55.000Z</time>
      </trkpt>
      <trkpt lat="47.65098" lon="6.65982">
        <ele>379.60000610352</ele>
        <time>2020-07-26T08:42:00.000Z</time>
      </trkpt>
      <trkpt lat="47.65096" lon="6.65982">
        <ele>380</ele>
        <time>2020-07-26T08:42:01.000Z</time>
      </trkpt>
      <trkpt lat="47.65085" lon="6.65988">
        <ele>380.79998779297</ele>
        <time>2020-07-26T08:42:06.000Z</time>
      </trkpt>
      <trkpt lat="47.65082" lon="6.65989">
        <ele>381</ele>
        <time>2020-07-26T08:42:07.000Z</time>
      </trkpt>
      <trkpt lat="47.65066" lon="6.65988">
        <ele>381.60000610352</ele>
        <time>2020-07-26T08:42:12.000Z</time>
      </trkpt>
      <trkpt lat="47.65053" lon="6.65981">
        <ele>382</ele>
        <time>2020-07-26T08:42:15.000Z</time>
      </trkpt>
      <trkpt lat="47.6505" lon="6.65979">
        <ele>382.20001220703</ele>
        <time>2020-07-26T08:42:16.000Z</time>
      </trkpt>
      <trkpt lat="47.65036" lon="6.65961">
        <ele>382.60000610352</ele>
        <time>2020-07-26T08:42:21.000Z</time>
      </trkpt>
      <trkpt lat="47.65032" lon="6.65954">
        <ele>383.20001220703</ele>
        <time>2020-07-26T08:42:23.000Z</time>
      </trkpt>
      <trkpt lat="47.65024" lon="6.6594">
        <ele>384</ele>
        <time>2020-07-26T08:42:27.000Z</time>
      </trkpt>
      <trkpt lat="47.65022" lon="6.65936">
        <ele>384.20001220703</ele>
        <time>2020-07-26T08:42:28.000Z</time>
      </trkpt>
      <trkpt lat="47.65013" lon="6.65924">
        <ele>385.20001220703</ele>
        <time>2020-07-26T08:42:32.000Z</time>
      </trkpt>
      <trkpt lat="47.65011" lon="6.65923">
        <ele>385.39999389648</ele>
        <time>2020-07-26T08:42:33.000Z</time>
      </trkpt>
      <trkpt lat="47.65002" lon="6.65924">
        <ele>385.79998779297</ele>
        <time>2020-07-26T08:42:37.000Z</time>
      </trkpt>
      <trkpt lat="47.64999" lon="6.65924">
        <ele>386.39999389648</ele>
        <time>2020-07-26T08:42:39.000Z</time>
      </trkpt>
      <trkpt lat="47.64984" lon="6.65919">
        <ele>387.20001220703</ele>
        <time>2020-07-26T08:42:43.000Z</time>
      </trkpt>
      <trkpt lat="47.64979" lon="6.65916">
        <ele>387.39999389648</ele>
        <time>2020-07-26T08:42:44.000Z</time>
      </trkpt>
      <trkpt lat="47.64961" lon="6.65905">
        <ele>388.39999389648</ele>
        <time>2020-07-26T08:42:49.000Z</time>
      </trkpt>
      <trkpt lat="47.64955" lon="6.65901">
        <ele>388.39999389648</ele>
        <time>2020-07-26T08:42:51.000Z</time>
      </trkpt>
      <trkpt lat="47.64944" lon="6.65892">
        <ele>389</ele>
        <time>2020-07-26T08:42:55.000Z</time>
      </trkpt>
      <trkpt lat="47.64938" lon="6.65889">
        <ele>389.60000610352</ele>
        <time>2020-07-26T08:42:57.000Z</time>
      </trkpt>
      <trkpt lat="47.64926" lon="6.6588">
        <ele>390.60000610352</ele>
        <time>2020-07-26T08:43:01.000Z</time>
      </trkpt>
      <trkpt lat="47.64924" lon="6.65877">
        <ele>390.79998779297</ele>
        <time>2020-07-26T08:43:02.000Z</time>
      </trkpt>
      <trkpt lat="47.6491" lon="6.65863">
        <ele>391.39999389648</ele>
        <time>2020-07-26T08:43:07.000Z</time>
      </trkpt>
      <trkpt lat="47.64902" lon="6.65852">
        <ele>391.79998779297</ele>
        <time>2020-07-26T08:43:10.000Z</time>
      </trkpt>
      <trkpt lat="47.64897" lon="6.65843">
        <ele>392.20001220703</ele>
        <time>2020-07-26T08:43:13.000Z</time>
      </trkpt>
      <trkpt lat="47.64891" lon="6.65836">
        <ele>392.79998779297</ele>
        <time>2020-07-26T08:43:16.000Z</time>
      </trkpt>
      <trkpt lat="47.64887" lon="6.65831">
        <ele>393.20001220703</ele>
        <time>2020-07-26T08:43:18.000Z</time>
      </trkpt>
      <trkpt lat="47.64875" lon="6.65817">
        <ele>394</ele>
        <time>2020-07-26T08:43:23.000Z</time>
      </trkpt>
      <trkpt lat="47.64861" lon="6.658">
        <ele>395.20001220703</ele>
        <time>2020-07-26T08:43:29.000Z</time>
      </trkpt>
      <trkpt lat="47.64855" lon="6.65786">
        <ele>395.79998779297</ele>
        <time>2020-07-26T08:43:34.000Z</time>
      </trkpt>
      <trkpt lat="47.64854" lon="6.65783">
        <ele>396.20001220703</ele>
        <time>2020-07-26T08:43:35.000Z</time>
      </trkpt>
      <trkpt lat="47.64849" lon="6.65767">
        <ele>397.39999389648</ele>
        <time>2020-07-26T08:43:40.000Z</time>
      </trkpt>
      <trkpt lat="47.64848" lon="6.65764">
        <ele>397.60000610352</ele>
        <time>2020-07-26T08:43:41.000Z</time>
      </trkpt>
      <trkpt lat="47.64842" lon="6.65749">
        <ele>398.39999389648</ele>
        <time>2020-07-26T08:43:46.000Z</time>
      </trkpt>
      <trkpt lat="47.64841" lon="6.65745">
        <ele>398.60000610352</ele>
        <time>2020-07-26T08:43:47.000Z</time>
      </trkpt>
      <trkpt lat="47.64835" lon="6.65725">
        <ele>399.60000610352</ele>
        <time>2020-07-26T08:43:52.000Z</time>
      </trkpt>
      <trkpt lat="47.64833" lon="6.65717">
        <ele>399.79998779297</ele>
        <time>2020-07-26T08:43:54.000Z</time>
      </trkpt>
      <trkpt lat="47.64827" lon="6.6568">
        <ele>400.60000610352</ele>
        <time>2020-07-26T08:44:01.000Z</time>
      </trkpt>
      <trkpt lat="47.64829" lon="6.65649">
        <ele>401.60000610352</ele>
        <time>2020-07-26T08:44:07.000Z</time>
      </trkpt>
      <trkpt lat="47.64831" lon="6.65646">
        <ele>401.60000610352</ele>
        <time>2020-07-26T08:44:08.000Z</time>
      </trkpt>
      <trkpt lat="47.64839" lon="6.65631">
        <ele>402.39999389648</ele>
        <time>2020-07-26T08:44:13.000Z</time>
      </trkpt>
      <trkpt lat="47.64843" lon="6.65622">
        <ele>402.79998779297</ele>
        <time>2020-07-26T08:44:16.000Z</time>
      </trkpt>
      <trkpt lat="47.64845" lon="6.65614">
        <ele>403</ele>
        <time>2020-07-26T08:44:18.000Z</time>
      </trkpt>
      <trkpt lat="47.64844" lon="6.65607">
        <ele>403.39999389648</ele>
        <time>2020-07-26T08:44:20.000Z</time>
      </trkpt>
      <trkpt lat="47.64843" lon="6.65596">
        <ele>403.79998779297</ele>
        <time>2020-07-26T08:44:23.000Z</time>
      </trkpt>
      <trkpt lat="47.64843" lon="6.65576">
        <ele>404.60000610352</ele>
        <time>2020-07-26T08:44:28.000Z</time>
      </trkpt>
      <trkpt lat="47.64843" lon="6.65572">
        <ele>404.79998779297</ele>
        <time>2020-07-26T08:44:29.000Z</time>
      </trkpt>
      <trkpt lat="47.64841" lon="6.65557">
        <ele>405.60000610352</ele>
        <time>2020-07-26T08:44:33.000Z</time>
      </trkpt>
      <trkpt lat="47.64835" lon="6.65545">
        <ele>406.20001220703</ele>
        <time>2020-07-26T08:44:36.000Z</time>
      </trkpt>
      <trkpt lat="47.64831" lon="6.65537">
        <ele>406.20001220703</ele>
        <time>2020-07-26T08:44:38.000Z</time>
      </trkpt>
      <trkpt lat="47.64822" lon="6.65525">
        <ele>407</ele>
        <time>2020-07-26T08:44:42.000Z</time>
      </trkpt>
      <trkpt lat="47.64818" lon="6.65522">
        <ele>407.20001220703</ele>
        <time>2020-07-26T08:44:44.000Z</time>
      </trkpt>
      <trkpt lat="47.64808" lon="6.65518">
        <ele>408</ele>
        <time>2020-07-26T08:44:48.000Z</time>
      </trkpt>
      <trkpt lat="47.64804" lon="6.65517">
        <ele>408.39999389648</ele>
        <time>2020-07-26T08:44:50.000Z</time>
      </trkpt>
      <trkpt lat="47.64796" lon="6.65517">
        <ele>409</ele>
        <time>2020-07-26T08:44:54.000Z</time>
      </trkpt>
      <trkpt lat="47.64789" lon="6.65519">
        <ele>409.20001220703</ele>
        <time>2020-07-26T08:44:58.000Z</time>
      </trkpt>
      <trkpt lat="47.6478" lon="6.6552">
        <ele>410</ele>
        <time>2020-07-26T08:45:02.000Z</time>
      </trkpt>
      <trkpt lat="47.64776" lon="6.65522">
        <ele>410.39999389648</ele>
        <time>2020-07-26T08:45:04.000Z</time>
      </trkpt>
      <trkpt lat="47.64759" lon="6.65527">
        <ele>411</ele>
        <time>2020-07-26T08:45:10.000Z</time>
      </trkpt>
      <trkpt lat="47.64744" lon="6.65523">
        <ele>411.39999389648</ele>
        <time>2020-07-26T08:45:16.000Z</time>
      </trkpt>
      <trkpt lat="47.64736" lon="6.65513">
        <ele>412.20001220703</ele>
        <time>2020-07-26T08:45:20.000Z</time>
      </trkpt>
      <trkpt lat="47.64731" lon="6.65506">
        <ele>412.79998779297</ele>
        <time>2020-07-26T08:45:23.000Z</time>
      </trkpt>
      <trkpt lat="47.64729" lon="6.65499">
        <ele>413.20001220703</ele>
        <time>2020-07-26T08:45:25.000Z</time>
      </trkpt>
      <trkpt lat="47.64723" lon="6.65487">
        <ele>414</ele>
        <time>2020-07-26T08:45:29.000Z</time>
      </trkpt>
      <trkpt lat="47.64722" lon="6.6548">
        <ele>414</ele>
        <time>2020-07-26T08:45:31.000Z</time>
      </trkpt>
      <trkpt lat="47.64717" lon="6.65458">
        <ele>414.79998779297</ele>
        <time>2020-07-26T08:45:36.000Z</time>
      </trkpt>
      <trkpt lat="47.64715" lon="6.65447">
        <ele>415.20001220703</ele>
        <time>2020-07-26T08:45:39.000Z</time>
      </trkpt>
      <trkpt lat="47.64715" lon="6.65432">
        <ele>415.39999389648</ele>
        <time>2020-07-26T08:45:43.000Z</time>
      </trkpt>
      <trkpt lat="47.64714" lon="6.65406">
        <ele>416.20001220703</ele>
        <time>2020-07-26T08:45:49.000Z</time>
      </trkpt>
      <trkpt lat="47.64713" lon="6.65402">
        <ele>416.20001220703</ele>
        <time>2020-07-26T08:45:50.000Z</time>
      </trkpt>
      <trkpt lat="47.64713" lon="6.65382">
        <ele>417.20001220703</ele>
        <time>2020-07-26T08:45:55.000Z</time>
      </trkpt>
      <trkpt lat="47.64713" lon="6.65375">
        <ele>417.60000610352</ele>
        <time>2020-07-26T08:45:57.000Z</time>
      </trkpt>
      <trkpt lat="47.64718" lon="6.65361">
        <ele>418.20001220703</ele>
        <time>2020-07-26T08:46:02.000Z</time>
      </trkpt>
      <trkpt lat="47.6472" lon="6.6536">
        <ele>418.39999389648</ele>
        <time>2020-07-26T08:46:03.000Z</time>
      </trkpt>
      <trkpt lat="47.64726" lon="6.65361">
        <ele>418.79998779297</ele>
        <time>2020-07-26T08:46:07.000Z</time>
      </trkpt>
      <trkpt lat="47.64734" lon="6.65376">
        <ele>419.39999389648</ele>
        <time>2020-07-26T08:46:13.000Z</time>
      </trkpt>
      <trkpt lat="47.64735" lon="6.65379">
        <ele>419.60000610352</ele>
        <time>2020-07-26T08:46:14.000Z</time>
      </trkpt>
      <trkpt lat="47.64736" lon="6.65384">
        <ele>420.39999389648</ele>
        <time>2020-07-26T08:46:16.000Z</time>
      </trkpt>
      <trkpt lat="47.64738" lon="6.65397">
        <ele>421.39999389648</ele>
        <time>2020-07-26T08:46:20.000Z</time>
      </trkpt>
      <trkpt lat="47.6474" lon="6.654">
        <ele>421.60000610352</ele>
        <time>2020-07-26T08:46:21.000Z</time>
      </trkpt>
      <trkpt lat="47.64746" lon="6.65417">
        <ele>422.39999389648</ele>
        <time>2020-07-26T08:46:26.000Z</time>
      </trkpt>
      <trkpt lat="47.64749" lon="6.65421">
        <ele>422.60000610352</ele>
        <time>2020-07-26T08:46:28.000Z</time>
      </trkpt>
      <trkpt lat="47.64755" lon="6.65439">
        <ele>423.39999389648</ele>
        <time>2020-07-26T08:46:34.000Z</time>
      </trkpt>
      <trkpt lat="47.64757" lon="6.65441">
        <ele>423.60000610352</ele>
        <time>2020-07-26T08:46:35.000Z</time>
      </trkpt>
      <trkpt lat="47.64767" lon="6.65449">
        <ele>424.60000610352</ele>
        <time>2020-07-26T08:46:41.000Z</time>
      </trkpt>
      <trkpt lat="47.6478" lon="6.65452">
        <ele>425.60000610352</ele>
        <time>2020-07-26T08:46:48.000Z</time>
      </trkpt>
      <trkpt lat="47.64793" lon="6.6545">
        <ele>426.20001220703</ele>
        <time>2020-07-26T08:46:55.000Z</time>
      </trkpt>
      <trkpt lat="47.64797" lon="6.65449">
        <ele>426.60000610352</ele>
        <time>2020-07-26T08:46:57.000Z</time>
      </trkpt>
      <trkpt lat="47.64808" lon="6.65445">
        <ele>427.20001220703</ele>
        <time>2020-07-26T08:47:03.000Z</time>
      </trkpt>
      <trkpt lat="47.64812" lon="6.65443">
        <ele>427.60000610352</ele>
        <time>2020-07-26T08:47:05.000Z</time>
      </trkpt>
      <trkpt lat="47.64822" lon="6.65442">
        <ele>428.39999389648</ele>
        <time>2020-07-26T08:47:11.000Z</time>
      </trkpt>
      <trkpt lat="47.64824" lon="6.65442">
        <ele>428.79998779297</ele>
        <time>2020-07-26T08:47:12.000Z</time>
      </trkpt>
      <trkpt lat="47.64836" lon="6.65445">
        <ele>429.79998779297</ele>
        <time>2020-07-26T08:47:18.000Z</time>
      </trkpt>
      <trkpt lat="47.64838" lon="6.65444">
        <ele>430</ele>
        <time>2020-07-26T08:47:20.000Z</time>
      </trkpt>
      <trkpt lat="47.64838" lon="6.65443">
        <ele>430.20001220703</ele>
        <time>2020-07-26T08:47:22.000Z</time>
      </trkpt>
      <trkpt lat="47.64836" lon="6.65442">
        <ele>430.39999389648</ele>
        <time>2020-07-26T08:47:25.000Z</time>
      </trkpt>
      <trkpt lat="47.6483" lon="6.65442">
        <ele>430.60000610352</ele>
        <time>2020-07-26T08:47:32.000Z</time>
      </trkpt>
      <trkpt lat="47.64832" lon="6.65449">
        <ele>430.20001220703</ele>
        <time>2020-07-26T08:47:38.000Z</time>
      </trkpt>
      <trkpt lat="47.64835" lon="6.6545">
        <ele>430</ele>
        <time>2020-07-26T08:47:40.000Z</time>
      </trkpt>
      <trkpt lat="47.64845" lon="6.65452">
        <ele>430</ele>
        <time>2020-07-26T08:47:44.000Z</time>
      </trkpt>
      <trkpt lat="47.64859" lon="6.65463">
        <ele>430</ele>
        <time>2020-07-26T08:47:50.000Z</time>
      </trkpt>
      <trkpt lat="47.64866" lon="6.65468">
        <ele>430.39999389648</ele>
        <time>2020-07-26T08:47:53.000Z</time>
      </trkpt>
      <trkpt lat="47.64872" lon="6.65473">
        <ele>431</ele>
        <time>2020-07-26T08:47:56.000Z</time>
      </trkpt>
      <trkpt lat="47.64879" lon="6.65481">
        <ele>431.60000610352</ele>
        <time>2020-07-26T08:48:00.000Z</time>
      </trkpt>
      <trkpt lat="47.64883" lon="6.65491">
        <ele>432</ele>
        <time>2020-07-26T08:48:03.000Z</time>
      </trkpt>
      <trkpt lat="47.64889" lon="6.655">
        <ele>432.60000610352</ele>
        <time>2020-07-26T08:48:06.000Z</time>
      </trkpt>
      <trkpt lat="47.64895" lon="6.65512">
        <ele>433</ele>
        <time>2020-07-26T08:48:10.000Z</time>
      </trkpt>
      <trkpt lat="47.64901" lon="6.65526">
        <ele>433.79998779297</ele>
        <time>2020-07-26T08:48:14.000Z</time>
      </trkpt>
      <trkpt lat="47.64906" lon="6.65537">
        <ele>434.20001220703</ele>
        <time>2020-07-26T08:48:17.000Z</time>
      </trkpt>
      <trkpt lat="47.64913" lon="6.65555">
        <ele>434.60000610352</ele>
        <time>2020-07-26T08:48:22.000Z</time>
      </trkpt>
      <trkpt lat="47.64915" lon="6.65562">
        <ele>435</ele>
        <time>2020-07-26T08:48:24.000Z</time>
      </trkpt>
      <trkpt lat="47.6492" lon="6.65575">
        <ele>435.60000610352</ele>
        <time>2020-07-26T08:48:28.000Z</time>
      </trkpt>
      <trkpt lat="47.64924" lon="6.65584">
        <ele>436.20001220703</ele>
        <time>2020-07-26T08:48:31.000Z</time>
      </trkpt>
      <trkpt lat="47.64928" lon="6.65593">
        <ele>436.60000610352</ele>
        <time>2020-07-26T08:48:34.000Z</time>
      </trkpt>
      <trkpt lat="47.64933" lon="6.65602">
        <ele>437</ele>
        <time>2020-07-26T08:48:37.000Z</time>
      </trkpt>
      <trkpt lat="47.64941" lon="6.65619">
        <ele>437.79998779297</ele>
        <time>2020-07-26T08:48:42.000Z</time>
      </trkpt>
      <trkpt lat="47.64944" lon="6.65625">
        <ele>438.20001220703</ele>
        <time>2020-07-26T08:48:44.000Z</time>
      </trkpt>
      <trkpt lat="47.64952" lon="6.65639">
        <ele>438.79998779297</ele>
        <time>2020-07-26T08:48:48.000Z</time>
      </trkpt>
      <trkpt lat="47.64957" lon="6.65647">
        <ele>439.39999389648</ele>
        <time>2020-07-26T08:48:51.000Z</time>
      </trkpt>
      <trkpt lat="47.64964" lon="6.65656">
        <ele>439.79998779297</ele>
        <time>2020-07-26T08:48:55.000Z</time>
      </trkpt>
      <trkpt lat="47.64973" lon="6.65664">
        <ele>440.39999389648</ele>
        <time>2020-07-26T08:48:59.000Z</time>
      </trkpt>
      <trkpt lat="47.64982" lon="6.65674">
        <ele>441</ele>
        <time>2020-07-26T08:49:03.000Z</time>
      </trkpt>
      <trkpt lat="47.64991" lon="6.65681">
        <ele>441.60000610352</ele>
        <time>2020-07-26T08:49:07.000Z</time>
      </trkpt>
      <trkpt lat="47.64999" lon="6.65689">
        <ele>442</ele>
        <time>2020-07-26T08:49:11.000Z</time>
      </trkpt>
      <trkpt lat="47.65004" lon="6.65694">
        <ele>442.39999389648</ele>
        <time>2020-07-26T08:49:14.000Z</time>
      </trkpt>
      <trkpt lat="47.65015" lon="6.65695">
        <ele>443</ele>
        <time>2020-07-26T08:49:19.000Z</time>
      </trkpt>
      <trkpt lat="47.65018" lon="6.65694">
        <ele>443</ele>
        <time>2020-07-26T08:49:20.000Z</time>
      </trkpt>
      <trkpt lat="47.65028" lon="6.65695">
        <ele>443.79998779297</ele>
        <time>2020-07-26T08:49:26.000Z</time>
      </trkpt>
      <trkpt lat="47.65032" lon="6.65695">
        <ele>444.20001220703</ele>
        <time>2020-07-26T08:49:28.000Z</time>
      </trkpt>
      <trkpt lat="47.65038" lon="6.65695">
        <ele>444.79998779297</ele>
        <time>2020-07-26T08:49:32.000Z</time>
      </trkpt>
      <trkpt lat="47.65046" lon="6.65693">
        <ele>445.20001220703</ele>
        <time>2020-07-26T08:49:35.000Z</time>
      </trkpt>
      <trkpt lat="47.65054" lon="6.65693">
        <ele>445.60000610352</ele>
        <time>2020-07-26T08:49:38.000Z</time>
      </trkpt>
      <trkpt lat="47.65067" lon="6.65699">
        <ele>446.39999389648</ele>
        <time>2020-07-26T08:49:44.000Z</time>
      </trkpt>
      <trkpt lat="47.6507" lon="6.657">
        <ele>446.60000610352</ele>
        <time>2020-07-26T08:49:45.000Z</time>
      </trkpt>
      <trkpt lat="47.65084" lon="6.65707">
        <ele>447.39999389648</ele>
        <time>2020-07-26T08:49:51.000Z</time>
      </trkpt>
      <trkpt lat="47.65086" lon="6.65708">
        <ele>447.39999389648</ele>
        <time>2020-07-26T08:49:52.000Z</time>
      </trkpt>
      <trkpt lat="47.65095" lon="6.65714">
        <ele>448.20001220703</ele>
        <time>2020-07-26T08:49:57.000Z</time>
      </trkpt>
      <trkpt lat="47.65102" lon="6.65717">
        <ele>448.79998779297</ele>
        <time>2020-07-26T08:50:00.000Z</time>
      </trkpt>
      <trkpt lat="47.65114" lon="6.65723">
        <ele>449.60000610352</ele>
        <time>2020-07-26T08:50:05.000Z</time>
      </trkpt>
      <trkpt lat="47.65117" lon="6.65724">
        <ele>449.79998779297</ele>
        <time>2020-07-26T08:50:06.000Z</time>
      </trkpt>
      <trkpt lat="47.65139" lon="6.65733">
        <ele>451</ele>
        <time>2020-07-26T08:50:13.000Z</time>
      </trkpt>
      <trkpt lat="47.65158" lon="6.65742">
        <ele>451.60000610352</ele>
        <time>2020-07-26T08:50:20.000Z</time>
      </trkpt>
      <trkpt lat="47.65164" lon="6.65745">
        <ele>452</ele>
        <time>2020-07-26T08:50:22.000Z</time>
      </trkpt>
      <trkpt lat="47.65172" lon="6.6575">
        <ele>452.39999389648</ele>
        <time>2020-07-26T08:50:25.000Z</time>
      </trkpt>
      <trkpt lat="47.65187" lon="6.65756">
        <ele>453</ele>
        <time>2020-07-26T08:50:31.000Z</time>
      </trkpt>
      <trkpt lat="47.6519" lon="6.65758">
        <ele>453</ele>
        <time>2020-07-26T08:50:32.000Z</time>
      </trkpt>
      <trkpt lat="47.65203" lon="6.65766">
        <ele>454</ele>
        <time>2020-07-26T08:50:38.000Z</time>
      </trkpt>
      <trkpt lat="47.65205" lon="6.65767">
        <ele>454.20001220703</ele>
        <time>2020-07-26T08:50:39.000Z</time>
      </trkpt>
      <trkpt lat="47.65219" lon="6.6577">
        <ele>454.79998779297</ele>
        <time>2020-07-26T08:50:45.000Z</time>
      </trkpt>
      <trkpt lat="47.65222" lon="6.6577">
        <ele>455.20001220703</ele>
        <time>2020-07-26T08:50:47.000Z</time>
      </trkpt>
      <trkpt lat="47.65224" lon="6.6577">
        <ele>455.39999389648</ele>
        <time>2020-07-26T08:50:50.000Z</time>
      </trkpt>
      <trkpt lat="47.6523" lon="6.6576">
        <ele>456.39999389648</ele>
        <time>2020-07-26T08:51:06.000Z</time>
      </trkpt>
      <trkpt lat="47.65231" lon="6.65757">
        <ele>456.20001220703</ele>
        <time>2020-07-26T08:51:21.000Z</time>
      </trkpt>
      <trkpt lat="47.65232" lon="6.65765">
        <ele>456.20001220703</ele>
        <time>2020-07-26T08:51:36.000Z</time>
      </trkpt>
      <trkpt lat="47.65231" lon="6.65766">
        <ele>455.79998779297</ele>
        <time>2020-07-26T08:51:55.000Z</time>
      </trkpt>
      <trkpt lat="47.65231" lon="6.65766">
        <ele>456.20001220703</ele>
        <time>2020-07-26T08:52:13.000Z</time>
      </trkpt>
      <trkpt lat="47.65232" lon="6.65768">
        <ele>456.20001220703</ele>
        <time>2020-07-26T08:52:27.000Z</time>
      </trkpt>
      <trkpt lat="47.65235" lon="6.6577">
        <ele>456.20001220703</ele>
        <time>2020-07-26T08:52:46.000Z</time>
      </trkpt>
      <trkpt lat="47.65236" lon="6.65772">
        <ele>456</ele>
        <time>2020-07-26T08:53:01.000Z</time>
      </trkpt>
      <trkpt lat="47.65235" lon="6.65773">
        <ele>456.20001220703</ele>
        <time>2020-07-26T08:53:18.000Z</time>
      </trkpt>
      <trkpt lat="47.65232" lon="6.65774">
        <ele>456</ele>
        <time>2020-07-26T08:53:34.000Z</time>
      </trkpt>
      <trkpt lat="47.65233" lon="6.6578">
        <ele>456.20001220703</ele>
        <time>2020-07-26T08:53:49.000Z</time>
      </trkpt>
      <trkpt lat="47.6524" lon="6.65794">
        <ele>456.20001220703</ele>
        <time>2020-07-26T08:53:54.000Z</time>
      </trkpt>
      <trkpt lat="47.65253" lon="6.65812">
        <ele>455.39999389648</ele>
        <time>2020-07-26T08:54:00.000Z</time>
      </trkpt>
      <trkpt lat="47.65267" lon="6.65832">
        <ele>455.39999389648</ele>
        <time>2020-07-26T08:54:06.000Z</time>
      </trkpt>
      <trkpt lat="47.65277" lon="6.65849">
        <ele>456.20001220703</ele>
        <time>2020-07-26T08:54:11.000Z</time>
      </trkpt>
      <trkpt lat="47.65285" lon="6.65861">
        <ele>456.60000610352</ele>
        <time>2020-07-26T08:54:14.000Z</time>
      </trkpt>
      <trkpt lat="47.65294" lon="6.65878">
        <ele>457.20001220703</ele>
        <time>2020-07-26T08:54:18.000Z</time>
      </trkpt>
      <trkpt lat="47.65307" lon="6.65891">
        <ele>457.60000610352</ele>
        <time>2020-07-26T08:54:23.000Z</time>
      </trkpt>
      <trkpt lat="47.6531" lon="6.65893">
        <ele>457.60000610352</ele>
        <time>2020-07-26T08:54:24.000Z</time>
      </trkpt>
      <trkpt lat="47.65332" lon="6.65903">
        <ele>458.20001220703</ele>
        <time>2020-07-26T08:54:31.000Z</time>
      </trkpt>
      <trkpt lat="47.6534" lon="6.65905">
        <ele>458.79998779297</ele>
        <time>2020-07-26T08:54:33.000Z</time>
      </trkpt>
      <trkpt lat="47.6536" lon="6.65912">
        <ele>459</ele>
        <time>2020-07-26T08:54:38.000Z</time>
      </trkpt>
      <trkpt lat="47.65377" lon="6.65914">
        <ele>459.20001220703</ele>
        <time>2020-07-26T08:54:43.000Z</time>
      </trkpt>
      <trkpt lat="47.65389" lon="6.65909">
        <ele>459.20001220703</ele>
        <time>2020-07-26T08:54:48.000Z</time>
      </trkpt>
      <trkpt lat="47.65397" lon="6.65904">
        <ele>459.79998779297</ele>
        <time>2020-07-26T08:54:51.000Z</time>
      </trkpt>
      <trkpt lat="47.65407" lon="6.65899">
        <ele>460.79998779297</ele>
        <time>2020-07-26T08:54:54.000Z</time>
      </trkpt>
      <trkpt lat="47.65411" lon="6.65898">
        <ele>461</ele>
        <time>2020-07-26T08:54:55.000Z</time>
      </trkpt>
      <trkpt lat="47.65424" lon="6.65891">
        <ele>461</ele>
        <time>2020-07-26T08:54:58.000Z</time>
      </trkpt>
      <trkpt lat="47.65432" lon="6.65886">
        <ele>461</ele>
        <time>2020-07-26T08:55:00.000Z</time>
      </trkpt>
      <trkpt lat="47.65443" lon="6.6588">
        <ele>461</ele>
        <time>2020-07-26T08:55:03.000Z</time>
      </trkpt>
      <trkpt lat="47.65446" lon="6.65879">
        <ele>461</ele>
        <time>2020-07-26T08:55:04.000Z</time>
      </trkpt>
      <trkpt lat="47.65464" lon="6.65876">
        <ele>461.20001220703</ele>
        <time>2020-07-26T08:55:09.000Z</time>
      </trkpt>
      <trkpt lat="47.65479" lon="6.65885">
        <ele>462.20001220703</ele>
        <time>2020-07-26T08:55:14.000Z</time>
      </trkpt>
      <trkpt lat="47.65495" lon="6.65894">
        <ele>463.20001220703</ele>
        <time>2020-07-26T08:55:19.000Z</time>
      </trkpt>
      <trkpt lat="47.65498" lon="6.65895">
        <ele>463.39999389648</ele>
        <time>2020-07-26T08:55:20.000Z</time>
      </trkpt>
      <trkpt lat="47.65519" lon="6.65902">
        <ele>464</ele>
        <time>2020-07-26T08:55:26.000Z</time>
      </trkpt>
      <trkpt lat="47.65526" lon="6.65905">
        <ele>464.39999389648</ele>
        <time>2020-07-26T08:55:29.000Z</time>
      </trkpt>
      <trkpt lat="47.65535" lon="6.65907">
        <ele>464.79998779297</ele>
        <time>2020-07-26T08:55:32.000Z</time>
      </trkpt>
      <trkpt lat="47.65541" lon="6.65909">
        <ele>465.39999389648</ele>
        <time>2020-07-26T08:55:35.000Z</time>
      </trkpt>
      <trkpt lat="47.65549" lon="6.65913">
        <ele>466.60000610352</ele>
        <time>2020-07-26T08:55:39.000Z</time>
      </trkpt>
      <trkpt lat="47.65558" lon="6.65918">
        <ele>467.79998779297</ele>
        <time>2020-07-26T08:55:44.000Z</time>
      </trkpt>
      <trkpt lat="47.65561" lon="6.65921">
        <ele>468.20001220703</ele>
        <time>2020-07-26T08:55:47.000Z</time>
      </trkpt>
      <trkpt lat="47.65565" lon="6.65923">
        <ele>469</ele>
        <time>2020-07-26T08:55:51.000Z</time>
      </trkpt>
      <trkpt lat="47.65568" lon="6.65925">
        <ele>470.20001220703</ele>
        <time>2020-07-26T08:55:55.000Z</time>
      </trkpt>
      <trkpt lat="47.65574" lon="6.65929">
        <ele>471.20001220703</ele>
        <time>2020-07-26T08:55:59.000Z</time>
      </trkpt>
      <trkpt lat="47.6558" lon="6.65933">
        <ele>472.60000610352</ele>
        <time>2020-07-26T08:56:03.000Z</time>
      </trkpt>
      <trkpt lat="47.65585" lon="6.65937">
        <ele>473.79998779297</ele>
        <time>2020-07-26T08:56:06.000Z</time>
      </trkpt>
      <trkpt lat="47.6559" lon="6.65943">
        <ele>474.79998779297</ele>
        <time>2020-07-26T08:56:09.000Z</time>
      </trkpt>
      <trkpt lat="47.65592" lon="6.65945">
        <ele>475</ele>
        <time>2020-07-26T08:56:10.000Z</time>
      </trkpt>
      <trkpt lat="47.65597" lon="6.6595">
        <ele>475.60000610352</ele>
        <time>2020-07-26T08:56:13.000Z</time>
      </trkpt>
      <trkpt lat="47.65604" lon="6.65957">
        <ele>476.20001220703</ele>
        <time>2020-07-26T08:56:17.000Z</time>
      </trkpt>
      <trkpt lat="47.65609" lon="6.65963">
        <ele>476.60000610352</ele>
        <time>2020-07-26T08:56:20.000Z</time>
      </trkpt>
      <trkpt lat="47.65617" lon="6.6597">
        <ele>477.60000610352</ele>
        <time>2020-07-26T08:56:25.000Z</time>
      </trkpt>
      <trkpt lat="47.65618" lon="6.65972">
        <ele>477.79998779297</ele>
        <time>2020-07-26T08:56:26.000Z</time>
      </trkpt>
      <trkpt lat="47.65628" lon="6.65983">
        <ele>479</ele>
        <time>2020-07-26T08:56:33.000Z</time>
      </trkpt>
      <trkpt lat="47.65637" lon="6.65993">
        <ele>480</ele>
        <time>2020-07-26T08:56:39.000Z</time>
      </trkpt>
      <trkpt lat="47.65637" lon="6.65994">
        <ele>480.20001220703</ele>
        <time>2020-07-26T08:56:40.000Z</time>
      </trkpt>
      <trkpt lat="47.65644" lon="6.66005">
        <ele>481.20001220703</ele>
        <time>2020-07-26T08:56:46.000Z</time>
      </trkpt>
      <trkpt lat="47.65647" lon="6.66009">
        <ele>481.79998779297</ele>
        <time>2020-07-26T08:56:48.000Z</time>
      </trkpt>
      <trkpt lat="47.6565" lon="6.66012">
        <ele>482.39999389648</ele>
        <time>2020-07-26T08:56:50.000Z</time>
      </trkpt>
      <trkpt lat="47.65658" lon="6.6602">
        <ele>483.39999389648</ele>
        <time>2020-07-26T08:56:55.000Z</time>
      </trkpt>
      <trkpt lat="47.65661" lon="6.66023">
        <ele>483.60000610352</ele>
        <time>2020-07-26T08:56:57.000Z</time>
      </trkpt>
      <trkpt lat="47.65671" lon="6.66031">
        <ele>484.60000610352</ele>
        <time>2020-07-26T08:57:03.000Z</time>
      </trkpt>
      <trkpt lat="47.65673" lon="6.66033">
        <ele>484.60000610352</ele>
        <time>2020-07-26T08:57:04.000Z</time>
      </trkpt>
      <trkpt lat="47.65684" lon="6.66042">
        <ele>485</ele>
        <time>2020-07-26T08:57:08.000Z</time>
      </trkpt>
      <trkpt lat="47.65696" lon="6.66045">
        <ele>485.20001220703</ele>
        <time>2020-07-26T08:57:13.000Z</time>
      </trkpt>
      <trkpt lat="47.65709" lon="6.66046">
        <ele>485.39999389648</ele>
        <time>2020-07-26T08:57:18.000Z</time>
      </trkpt>
      <trkpt lat="47.65712" lon="6.66046">
        <ele>485.79998779297</ele>
        <time>2020-07-26T08:57:20.000Z</time>
      </trkpt>
      <trkpt lat="47.6572" lon="6.66048">
        <ele>486.79998779297</ele>
        <time>2020-07-26T08:57:24.000Z</time>
      </trkpt>
      <trkpt lat="47.65722" lon="6.66049">
        <ele>487</ele>
        <time>2020-07-26T08:57:25.000Z</time>
      </trkpt>
      <trkpt lat="47.65729" lon="6.66049">
        <ele>488</ele>
        <time>2020-07-26T08:57:29.000Z</time>
      </trkpt>
      <trkpt lat="47.65733" lon="6.66051">
        <ele>488.60000610352</ele>
        <time>2020-07-26T08:57:32.000Z</time>
      </trkpt>
      <trkpt lat="47.65737" lon="6.66052">
        <ele>489</ele>
        <time>2020-07-26T08:57:34.000Z</time>
      </trkpt>
      <trkpt lat="47.65746" lon="6.66055">
        <ele>489.60000610352</ele>
        <time>2020-07-26T08:57:38.000Z</time>
      </trkpt>
      <trkpt lat="47.65754" lon="6.66056">
        <ele>490.20001220703</ele>
        <time>2020-07-26T08:57:41.000Z</time>
      </trkpt>
      <trkpt lat="47.65759" lon="6.66055">
        <ele>490.60000610352</ele>
        <time>2020-07-26T08:57:43.000Z</time>
      </trkpt>
      <trkpt lat="47.65774" lon="6.66056">
        <ele>491.39999389648</ele>
        <time>2020-07-26T08:57:49.000Z</time>
      </trkpt>
      <trkpt lat="47.65776" lon="6.66056">
        <ele>491.60000610352</ele>
        <time>2020-07-26T08:57:50.000Z</time>
      </trkpt>
      <trkpt lat="47.65799" lon="6.66058">
        <ele>492.39999389648</ele>
        <time>2020-07-26T08:57:57.000Z</time>
      </trkpt>
      <trkpt lat="47.65801" lon="6.66058">
        <ele>492.39999389648</ele>
        <time>2020-07-26T08:57:58.000Z</time>
      </trkpt>
      <trkpt lat="47.65816" lon="6.66058">
        <ele>493.60000610352</ele>
        <time>2020-07-26T08:58:03.000Z</time>
      </trkpt>
      <trkpt lat="47.65821" lon="6.66058">
        <ele>493.79998779297</ele>
        <time>2020-07-26T08:58:05.000Z</time>
      </trkpt>
      <trkpt lat="47.65831" lon="6.66059">
        <ele>494.39999389648</ele>
        <time>2020-07-26T08:58:09.000Z</time>
      </trkpt>
      <trkpt lat="47.65842" lon="6.66057">
        <ele>494.79998779297</ele>
        <time>2020-07-26T08:58:13.000Z</time>
      </trkpt>
      <trkpt lat="47.65845" lon="6.66056">
        <ele>495</ele>
        <time>2020-07-26T08:58:14.000Z</time>
      </trkpt>
      <trkpt lat="47.65858" lon="6.66051">
        <ele>495.79998779297</ele>
        <time>2020-07-26T08:58:19.000Z</time>
      </trkpt>
      <trkpt lat="47.65876" lon="6.66042">
        <ele>496.39999389648</ele>
        <time>2020-07-26T08:58:26.000Z</time>
      </trkpt>
      <trkpt lat="47.65894" lon="6.66035">
        <ele>497</ele>
        <time>2020-07-26T08:58:32.000Z</time>
      </trkpt>
      <trkpt lat="47.65913" lon="6.6603">
        <ele>497.60000610352</ele>
        <time>2020-07-26T08:58:38.000Z</time>
      </trkpt>
      <trkpt lat="47.65938" lon="6.66029">
        <ele>497.39999389648</ele>
        <time>2020-07-26T08:58:44.000Z</time>
      </trkpt>
      <trkpt lat="47.65973" lon="6.66029">
        <ele>496</ele>
        <time>2020-07-26T08:58:51.000Z</time>
      </trkpt>
      <trkpt lat="47.66005" lon="6.66036">
        <ele>495</ele>
        <time>2020-07-26T08:58:58.000Z</time>
      </trkpt>
      <trkpt lat="47.66031" lon="6.66049">
        <ele>495</ele>
        <time>2020-07-26T08:59:03.000Z</time>
      </trkpt>
      <trkpt lat="47.66037" lon="6.66051">
        <ele>495</ele>
        <time>2020-07-26T08:59:04.000Z</time>
      </trkpt>
      <trkpt lat="47.66054" lon="6.6606">
        <ele>495</ele>
        <time>2020-07-26T08:59:07.000Z</time>
      </trkpt>
      <trkpt lat="47.66082" lon="6.66081">
        <ele>494.20001220703</ele>
        <time>2020-07-26T08:59:12.000Z</time>
      </trkpt>
      <trkpt lat="47.66088" lon="6.66084">
        <ele>494</ele>
        <time>2020-07-26T08:59:13.000Z</time>
      </trkpt>
      <trkpt lat="47.66114" lon="6.66101">
        <ele>493.60000610352</ele>
        <time>2020-07-26T08:59:17.000Z</time>
      </trkpt>
      <trkpt lat="47.66141" lon="6.6612">
        <ele>493.60000610352</ele>
        <time>2020-07-26T08:59:23.000Z</time>
      </trkpt>
      <trkpt lat="47.6616" lon="6.6613">
        <ele>495.20001220703</ele>
        <time>2020-07-26T08:59:28.000Z</time>
      </trkpt>
      <trkpt lat="47.66176" lon="6.66143">
        <ele>496.20001220703</ele>
        <time>2020-07-26T08:59:33.000Z</time>
      </trkpt>
      <trkpt lat="47.66178" lon="6.66145">
        <ele>496.39999389648</ele>
        <time>2020-07-26T08:59:34.000Z</time>
      </trkpt>
      <trkpt lat="47.66186" lon="6.66155">
        <ele>497</ele>
        <time>2020-07-26T08:59:39.000Z</time>
      </trkpt>
      <trkpt lat="47.66188" lon="6.66156">
        <ele>497.39999389648</ele>
        <time>2020-07-26T08:59:42.000Z</time>
      </trkpt>
      <trkpt lat="47.66191" lon="6.66159">
        <ele>497.79998779297</ele>
        <time>2020-07-26T08:59:48.000Z</time>
      </trkpt>
      <trkpt lat="47.66192" lon="6.66161">
        <ele>498</ele>
        <time>2020-07-26T09:00:01.000Z</time>
      </trkpt>
      <trkpt lat="47.66195" lon="6.6616">
        <ele>498</ele>
        <time>2020-07-26T09:00:14.000Z</time>
      </trkpt>
      <trkpt lat="47.66195" lon="6.6616">
        <ele>497.79998779297</ele>
        <time>2020-07-26T09:00:31.000Z</time>
      </trkpt>
      <trkpt lat="47.66197" lon="6.66162">
        <ele>498</ele>
        <time>2020-07-26T09:00:48.000Z</time>
      </trkpt>
      <trkpt lat="47.66198" lon="6.6616">
        <ele>498.20001220703</ele>
        <time>2020-07-26T09:01:03.000Z</time>
      </trkpt>
      <trkpt lat="47.66196" lon="6.6617">
        <ele>498.20001220703</ele>
        <time>2020-07-26T09:01:13.000Z</time>
      </trkpt>
      <trkpt lat="47.66194" lon="6.66188">
        <ele>498</ele>
        <time>2020-07-26T09:01:18.000Z</time>
      </trkpt>
      <trkpt lat="47.66191" lon="6.66206">
        <ele>498</ele>
        <time>2020-07-26T09:01:24.000Z</time>
      </trkpt>
      <trkpt lat="47.66189" lon="6.66225">
        <ele>498.79998779297</ele>
        <time>2020-07-26T09:01:29.000Z</time>
      </trkpt>
      <trkpt lat="47.66189" lon="6.66229">
        <ele>499.39999389648</ele>
        <time>2020-07-26T09:01:30.000Z</time>
      </trkpt>
      <trkpt lat="47.66188" lon="6.66234">
        <ele>500</ele>
        <time>2020-07-26T09:01:31.000Z</time>
      </trkpt>
      <trkpt lat="47.66182" lon="6.66257">
        <ele>501.20001220703</ele>
        <time>2020-07-26T09:01:36.000Z</time>
      </trkpt>
      <trkpt lat="47.66176" lon="6.66288">
        <ele>501.39999389648</ele>
        <time>2020-07-26T09:01:41.000Z</time>
      </trkpt>
      <trkpt lat="47.66176" lon="6.66296">
        <ele>501.39999389648</ele>
        <time>2020-07-26T09:01:42.000Z</time>
      </trkpt>
      <trkpt lat="47.66178" lon="6.66311">
        <ele>501.39999389648</ele>
        <time>2020-07-26T09:01:44.000Z</time>
      </trkpt>
      <trkpt lat="47.66185" lon="6.66326">
        <ele>501.20001220703</ele>
        <time>2020-07-26T09:01:47.000Z</time>
      </trkpt>
      <trkpt lat="47.66187" lon="6.6633">
        <ele>501.20001220703</ele>
        <time>2020-07-26T09:01:48.000Z</time>
      </trkpt>
      <trkpt lat="47.66194" lon="6.66348">
        <ele>501.20001220703</ele>
        <time>2020-07-26T09:01:54.000Z</time>
      </trkpt>
      <trkpt lat="47.66196" lon="6.66357">
        <ele>502.39999389648</ele>
        <time>2020-07-26T09:01:58.000Z</time>
      </trkpt>
      <trkpt lat="47.66197" lon="6.66362">
        <ele>503.39999389648</ele>
        <time>2020-07-26T09:02:00.000Z</time>
      </trkpt>
      <trkpt lat="47.66199" lon="6.66364">
        <ele>504</ele>
        <time>2020-07-26T09:02:01.000Z</time>
      </trkpt>
      <trkpt lat="47.662" lon="6.66368">
        <ele>504.79998779297</ele>
        <time>2020-07-26T09:02:03.000Z</time>
      </trkpt>
      <trkpt lat="47.66203" lon="6.66375">
        <ele>506</ele>
        <time>2020-07-26T09:02:06.000Z</time>
      </trkpt>
      <trkpt lat="47.66206" lon="6.66384">
        <ele>507</ele>
        <time>2020-07-26T09:02:09.000Z</time>
      </trkpt>
      <trkpt lat="47.6621" lon="6.6639">
        <ele>507.39999389648</ele>
        <time>2020-07-26T09:02:11.000Z</time>
      </trkpt>
      <trkpt lat="47.66218" lon="6.66407">
        <ele>508.20001220703</ele>
        <time>2020-07-26T09:02:15.000Z</time>
      </trkpt>
      <trkpt lat="47.66222" lon="6.66418">
        <ele>509</ele>
        <time>2020-07-26T09:02:18.000Z</time>
      </trkpt>
      <trkpt lat="47.66226" lon="6.66424">
        <ele>509.39999389648</ele>
        <time>2020-07-26T09:02:20.000Z</time>
      </trkpt>
      <trkpt lat="47.66233" lon="6.66439">
        <ele>509.79998779297</ele>
        <time>2020-07-26T09:02:25.000Z</time>
      </trkpt>
      <trkpt lat="47.66242" lon="6.66461">
        <ele>510.20001220703</ele>
        <time>2020-07-26T09:02:32.000Z</time>
      </trkpt>
      <trkpt lat="47.66251" lon="6.66484">
        <ele>510.20001220703</ele>
        <time>2020-07-26T09:02:36.000Z</time>
      </trkpt>
      <trkpt lat="47.66263" lon="6.66532">
        <ele>508.79998779297</ele>
        <time>2020-07-26T09:02:42.000Z</time>
      </trkpt>
      <trkpt lat="47.66266" lon="6.66539">
        <ele>508.20001220703</ele>
        <time>2020-07-26T09:02:43.000Z</time>
      </trkpt>
      <trkpt lat="47.66276" lon="6.66569">
        <ele>507.79998779297</ele>
        <time>2020-07-26T09:02:47.000Z</time>
      </trkpt>
      <trkpt lat="47.66278" lon="6.66607">
        <ele>507.79998779297</ele>
        <time>2020-07-26T09:02:52.000Z</time>
      </trkpt>
      <trkpt lat="47.6628" lon="6.66627">
        <ele>508.60000610352</ele>
        <time>2020-07-26T09:02:56.000Z</time>
      </trkpt>
      <trkpt lat="47.66271" lon="6.6664">
        <ele>508.79998779297</ele>
        <time>2020-07-26T09:03:00.000Z</time>
      </trkpt>
      <trkpt lat="47.66266" lon="6.66645">
        <ele>508.79998779297</ele>
        <time>2020-07-26T09:03:01.000Z</time>
      </trkpt>
      <trkpt lat="47.66247" lon="6.66661">
        <ele>508.79998779297</ele>
        <time>2020-07-26T09:03:05.000Z</time>
      </trkpt>
      <trkpt lat="47.66231" lon="6.66677">
        <ele>507.20001220703</ele>
        <time>2020-07-26T09:03:10.000Z</time>
      </trkpt>
      <trkpt lat="47.66219" lon="6.66686">
        <ele>506</ele>
        <time>2020-07-26T09:03:13.000Z</time>
      </trkpt>
      <trkpt lat="47.66208" lon="6.66694">
        <ele>505.60000610352</ele>
        <time>2020-07-26T09:03:15.000Z</time>
      </trkpt>
      <trkpt lat="47.66202" lon="6.66699">
        <ele>505</ele>
        <time>2020-07-26T09:03:16.000Z</time>
      </trkpt>
      <trkpt lat="47.66185" lon="6.66712">
        <ele>505.20001220703</ele>
        <time>2020-07-26T09:03:20.000Z</time>
      </trkpt>
      <trkpt lat="47.66175" lon="6.66718">
        <ele>506.20001220703</ele>
        <time>2020-07-26T09:03:23.000Z</time>
      </trkpt>
      <trkpt lat="47.66167" lon="6.66729">
        <ele>506.39999389648</ele>
        <time>2020-07-26T09:03:26.000Z</time>
      </trkpt>
      <trkpt lat="47.66164" lon="6.66741">
        <ele>506.79998779297</ele>
        <time>2020-07-26T09:03:29.000Z</time>
      </trkpt>
      <trkpt lat="47.66163" lon="6.66745">
        <ele>507</ele>
        <time>2020-07-26T09:03:30.000Z</time>
      </trkpt>
      <trkpt lat="47.66164" lon="6.66748">
        <ele>507.79998779297</ele>
        <time>2020-07-26T09:03:31.000Z</time>
      </trkpt>
      <trkpt lat="47.66166" lon="6.66755">
        <ele>508.60000610352</ele>
        <time>2020-07-26T09:03:33.000Z</time>
      </trkpt>
      <trkpt lat="47.66167" lon="6.66758">
        <ele>509</ele>
        <time>2020-07-26T09:03:34.000Z</time>
      </trkpt>
      <trkpt lat="47.66168" lon="6.66763">
        <ele>510.20001220703</ele>
        <time>2020-07-26T09:03:36.000Z</time>
      </trkpt>
      <trkpt lat="47.66169" lon="6.66766">
        <ele>510.39999389648</ele>
        <time>2020-07-26T09:03:37.000Z</time>
      </trkpt>
      <trkpt lat="47.66172" lon="6.66775">
        <ele>511.60000610352</ele>
        <time>2020-07-26T09:03:41.000Z</time>
      </trkpt>
      <trkpt lat="47.66173" lon="6.66781">
        <ele>512.20001220703</ele>
        <time>2020-07-26T09:03:43.000Z</time>
      </trkpt>
      <trkpt lat="47.66172" lon="6.6679">
        <ele>513</ele>
        <time>2020-07-26T09:03:46.000Z</time>
      </trkpt>
      <trkpt lat="47.66172" lon="6.66801">
        <ele>514.20001220703</ele>
        <time>2020-07-26T09:03:50.000Z</time>
      </trkpt>
      <trkpt lat="47.66177" lon="6.66823">
        <ele>514.40002441406</ele>
        <time>2020-07-26T09:03:55.000Z</time>
      </trkpt>
      <trkpt lat="47.66185" lon="6.66854">
        <ele>514.79998779297</ele>
        <time>2020-07-26T09:04:02.000Z</time>
      </trkpt>
      <trkpt lat="47.66194" lon="6.66875">
        <ele>514.79998779297</ele>
        <time>2020-07-26T09:04:08.000Z</time>
      </trkpt>
      <trkpt lat="47.662" lon="6.66885">
        <ele>515.20001220703</ele>
        <time>2020-07-26T09:04:11.000Z</time>
      </trkpt>
      <trkpt lat="47.66204" lon="6.66895">
        <ele>515.59997558594</ele>
        <time>2020-07-26T09:04:14.000Z</time>
      </trkpt>
      <trkpt lat="47.6621" lon="6.66906">
        <ele>516.20001220703</ele>
        <time>2020-07-26T09:04:19.000Z</time>
      </trkpt>
      <trkpt lat="47.66211" lon="6.66909">
        <ele>516.40002441406</ele>
        <time>2020-07-26T09:04:20.000Z</time>
      </trkpt>
      <trkpt lat="47.66214" lon="6.66921">
        <ele>517.40002441406</ele>
        <time>2020-07-26T09:04:25.000Z</time>
      </trkpt>
      <trkpt lat="47.66215" lon="6.66926">
        <ele>518.20001220703</ele>
        <time>2020-07-26T09:04:28.000Z</time>
      </trkpt>
      <trkpt lat="47.66216" lon="6.66928">
        <ele>518.59997558594</ele>
        <time>2020-07-26T09:04:29.000Z</time>
      </trkpt>
      <trkpt lat="47.66219" lon="6.66934">
        <ele>519.79998779297</ele>
        <time>2020-07-26T09:04:32.000Z</time>
      </trkpt>
      <trkpt lat="47.66223" lon="6.66943">
        <ele>520.40002441406</ele>
        <time>2020-07-26T09:04:35.000Z</time>
      </trkpt>
      <trkpt lat="47.66226" lon="6.66951">
        <ele>521</ele>
        <time>2020-07-26T09:04:38.000Z</time>
      </trkpt>
      <trkpt lat="47.66233" lon="6.66961">
        <ele>522</ele>
        <time>2020-07-26T09:04:43.000Z</time>
      </trkpt>
      <trkpt lat="47.66234" lon="6.66965">
        <ele>522.20001220703</ele>
        <time>2020-07-26T09:04:45.000Z</time>
      </trkpt>
      <trkpt lat="47.66238" lon="6.66975">
        <ele>523</ele>
        <time>2020-07-26T09:04:50.000Z</time>
      </trkpt>
      <trkpt lat="47.66238" lon="6.66979">
        <ele>523.40002441406</ele>
        <time>2020-07-26T09:04:52.000Z</time>
      </trkpt>
      <trkpt lat="47.66242" lon="6.66989">
        <ele>524.40002441406</ele>
        <time>2020-07-26T09:04:57.000Z</time>
      </trkpt>
      <trkpt lat="47.66246" lon="6.66998">
        <ele>525.59997558594</ele>
        <time>2020-07-26T09:05:01.000Z</time>
      </trkpt>
      <trkpt lat="47.66249" lon="6.67002">
        <ele>526</ele>
        <time>2020-07-26T09:05:03.000Z</time>
      </trkpt>
      <trkpt lat="47.66257" lon="6.67017">
        <ele>526.59997558594</ele>
        <time>2020-07-26T09:05:09.000Z</time>
      </trkpt>
      <trkpt lat="47.66264" lon="6.67031">
        <ele>527.40002441406</ele>
        <time>2020-07-26T09:05:16.000Z</time>
      </trkpt>
      <trkpt lat="47.66268" lon="6.67037">
        <ele>527.59997558594</ele>
        <time>2020-07-26T09:05:19.000Z</time>
      </trkpt>
      <trkpt lat="47.66274" lon="6.67049">
        <ele>528.20001220703</ele>
        <time>2020-07-26T09:05:24.000Z</time>
      </trkpt>
      <trkpt lat="47.66278" lon="6.67061">
        <ele>528.79998779297</ele>
        <time>2020-07-26T09:05:28.000Z</time>
      </trkpt>
      <trkpt lat="47.66281" lon="6.67068">
        <ele>529</ele>
        <time>2020-07-26T09:05:31.000Z</time>
      </trkpt>
      <trkpt lat="47.66287" lon="6.67079">
        <ele>529.59997558594</ele>
        <time>2020-07-26T09:05:37.000Z</time>
      </trkpt>
      <trkpt lat="47.66287" lon="6.67083">
        <ele>530</ele>
        <time>2020-07-26T09:05:39.000Z</time>
      </trkpt>
      <trkpt lat="47.66287" lon="6.67089">
        <ele>530.79998779297</ele>
        <time>2020-07-26T09:05:45.000Z</time>
      </trkpt>
      <trkpt lat="47.66288" lon="6.6709">
        <ele>531.20001220703</ele>
        <time>2020-07-26T09:05:46.000Z</time>
      </trkpt>
      <trkpt lat="47.66289" lon="6.67096">
        <ele>532</ele>
        <time>2020-07-26T09:05:58.000Z</time>
      </trkpt>
      <trkpt lat="47.6629" lon="6.67097">
        <ele>532.40002441406</ele>
        <time>2020-07-26T09:06:00.000Z</time>
      </trkpt>
      <trkpt lat="47.66291" lon="6.67099">
        <ele>533</ele>
        <time>2020-07-26T09:06:11.000Z</time>
      </trkpt>
      <trkpt lat="47.66292" lon="6.671">
        <ele>532.79998779297</ele>
        <time>2020-07-26T09:06:24.000Z</time>
      </trkpt>
      <trkpt lat="47.66292" lon="6.67101">
        <ele>532.40002441406</ele>
        <time>2020-07-26T09:06:38.000Z</time>
      </trkpt>
      <trkpt lat="47.66294" lon="6.67103">
        <ele>532.20001220703</ele>
        <time>2020-07-26T09:06:50.000Z</time>
      </trkpt>
      <trkpt lat="47.66299" lon="6.67103">
        <ele>532.20001220703</ele>
        <time>2020-07-26T09:07:05.000Z</time>
      </trkpt>
      <trkpt lat="47.663" lon="6.67103">
        <ele>532.20001220703</ele>
        <time>2020-07-26T09:07:21.000Z</time>
      </trkpt>
      <trkpt lat="47.663" lon="6.67103">
        <ele>532.40002441406</ele>
        <time>2020-07-26T09:07:39.000Z</time>
      </trkpt>
      <trkpt lat="47.66297" lon="6.67099">
        <ele>532.40002441406</ele>
        <time>2020-07-26T09:07:53.000Z</time>
      </trkpt>
      <trkpt lat="47.66296" lon="6.67098">
        <ele>532.40002441406</ele>
        <time>2020-07-26T09:08:07.000Z</time>
      </trkpt>
      <trkpt lat="47.66296" lon="6.67099">
        <ele>532.59997558594</ele>
        <time>2020-07-26T09:08:22.000Z</time>
      </trkpt>
      <trkpt lat="47.66296" lon="6.67097">
        <ele>532.79998779297</ele>
        <time>2020-07-26T09:08:36.000Z</time>
      </trkpt>
      <trkpt lat="47.66298" lon="6.67102">
        <ele>532.79998779297</ele>
        <time>2020-07-26T09:08:46.000Z</time>
      </trkpt>
      <trkpt lat="47.66307" lon="6.67121">
        <ele>533</ele>
        <time>2020-07-26T09:08:54.000Z</time>
      </trkpt>
      <trkpt lat="47.66314" lon="6.67139">
        <ele>533.79998779297</ele>
        <time>2020-07-26T09:09:02.000Z</time>
      </trkpt>
      <trkpt lat="47.66315" lon="6.6714">
        <ele>533.79998779297</ele>
        <time>2020-07-26T09:09:03.000Z</time>
      </trkpt>
      <trkpt lat="47.66319" lon="6.67153">
        <ele>534.79998779297</ele>
        <time>2020-07-26T09:09:09.000Z</time>
      </trkpt>
      <trkpt lat="47.66321" lon="6.67156">
        <ele>535</ele>
        <time>2020-07-26T09:09:10.000Z</time>
      </trkpt>
      <trkpt lat="47.66325" lon="6.67163">
        <ele>536</ele>
        <time>2020-07-26T09:09:14.000Z</time>
      </trkpt>
      <trkpt lat="47.66325" lon="6.67165">
        <ele>536.20001220703</ele>
        <time>2020-07-26T09:09:15.000Z</time>
      </trkpt>
      <trkpt lat="47.66327" lon="6.67174">
        <ele>537.20001220703</ele>
        <time>2020-07-26T09:09:19.000Z</time>
      </trkpt>
      <trkpt lat="47.6633" lon="6.6718">
        <ele>537.79998779297</ele>
        <time>2020-07-26T09:09:22.000Z</time>
      </trkpt>
      <trkpt lat="47.66332" lon="6.67186">
        <ele>538.20001220703</ele>
        <time>2020-07-26T09:09:25.000Z</time>
      </trkpt>
      <trkpt lat="47.66339" lon="6.67199">
        <ele>538.79998779297</ele>
        <time>2020-07-26T09:09:30.000Z</time>
      </trkpt>
      <trkpt lat="47.66344" lon="6.67211">
        <ele>539.40002441406</ele>
        <time>2020-07-26T09:09:34.000Z</time>
      </trkpt>
      <trkpt lat="47.66347" lon="6.67225">
        <ele>540.59997558594</ele>
        <time>2020-07-26T09:09:39.000Z</time>
      </trkpt>
      <trkpt lat="47.66357" lon="6.67249">
        <ele>541.20001220703</ele>
        <time>2020-07-26T09:09:46.000Z</time>
      </trkpt>
      <trkpt lat="47.66369" lon="6.67277">
        <ele>541.20001220703</ele>
        <time>2020-07-26T09:09:53.000Z</time>
      </trkpt>
      <trkpt lat="47.66375" lon="6.6731">
        <ele>541.79998779297</ele>
        <time>2020-07-26T09:10:00.000Z</time>
      </trkpt>
      <trkpt lat="47.66377" lon="6.67317">
        <ele>541.79998779297</ele>
        <time>2020-07-26T09:10:01.000Z</time>
      </trkpt>
      <trkpt lat="47.66386" lon="6.67358">
        <ele>541.79998779297</ele>
        <time>2020-07-26T09:10:07.000Z</time>
      </trkpt>
      <trkpt lat="47.6639" lon="6.67393">
        <ele>540.40002441406</ele>
        <time>2020-07-26T09:10:12.000Z</time>
      </trkpt>
      <trkpt lat="47.66391" lon="6.67399">
        <ele>539.79998779297</ele>
        <time>2020-07-26T09:10:13.000Z</time>
      </trkpt>
      <trkpt lat="47.66391" lon="6.67406">
        <ele>539</ele>
        <time>2020-07-26T09:10:14.000Z</time>
      </trkpt>
      <trkpt lat="47.6639" lon="6.67436">
        <ele>538.40002441406</ele>
        <time>2020-07-26T09:10:19.000Z</time>
      </trkpt>
      <trkpt lat="47.66389" lon="6.67467">
        <ele>538</ele>
        <time>2020-07-26T09:10:23.000Z</time>
      </trkpt>
      <trkpt lat="47.66389" lon="6.67476">
        <ele>537.79998779297</ele>
        <time>2020-07-26T09:10:24.000Z</time>
      </trkpt>
      <trkpt lat="47.6638" lon="6.67518">
        <ele>536.40002441406</ele>
        <time>2020-07-26T09:10:29.000Z</time>
      </trkpt>
      <trkpt lat="47.66377" lon="6.67536">
        <ele>535.20001220703</ele>
        <time>2020-07-26T09:10:31.000Z</time>
      </trkpt>
      <trkpt lat="47.66373" lon="6.67569">
        <ele>534.40002441406</ele>
        <time>2020-07-26T09:10:34.000Z</time>
      </trkpt>
      <trkpt lat="47.66371" lon="6.67581">
        <ele>534</ele>
        <time>2020-07-26T09:10:35.000Z</time>
      </trkpt>
      <trkpt lat="47.66372" lon="6.67601">
        <ele>533.59997558594</ele>
        <time>2020-07-26T09:10:38.000Z</time>
      </trkpt>
      <trkpt lat="47.66372" lon="6.67611">
        <ele>533.40002441406</ele>
        <time>2020-07-26T09:10:42.000Z</time>
      </trkpt>
      <trkpt lat="47.66374" lon="6.6762">
        <ele>535.40002441406</ele>
        <time>2020-07-26T09:10:47.000Z</time>
      </trkpt>
      <trkpt lat="47.66374" lon="6.67625">
        <ele>536.40002441406</ele>
        <time>2020-07-26T09:10:50.000Z</time>
      </trkpt>
      <trkpt lat="47.66375" lon="6.67631">
        <ele>537.40002441406</ele>
        <time>2020-07-26T09:10:53.000Z</time>
      </trkpt>
      <trkpt lat="47.66375" lon="6.67635">
        <ele>538.59997558594</ele>
        <time>2020-07-26T09:10:57.000Z</time>
      </trkpt>
      <trkpt lat="47.66377" lon="6.67643">
        <ele>539.59997558594</ele>
        <time>2020-07-26T09:11:03.000Z</time>
      </trkpt>
      <trkpt lat="47.66379" lon="6.67646">
        <ele>539.79998779297</ele>
        <time>2020-07-26T09:11:05.000Z</time>
      </trkpt>
      <trkpt lat="47.66386" lon="6.67666">
        <ele>540.40002441406</ele>
        <time>2020-07-26T09:11:13.000Z</time>
      </trkpt>
      <trkpt lat="47.66387" lon="6.67672">
        <ele>540.79998779297</ele>
        <time>2020-07-26T09:11:15.000Z</time>
      </trkpt>
      <trkpt lat="47.66391" lon="6.67681">
        <ele>541.79998779297</ele>
        <time>2020-07-26T09:11:20.000Z</time>
      </trkpt>
      <trkpt lat="47.66393" lon="6.67685">
        <ele>542.40002441406</ele>
        <time>2020-07-26T09:11:22.000Z</time>
      </trkpt>
      <trkpt lat="47.66394" lon="6.67689">
        <ele>542.79998779297</ele>
        <time>2020-07-26T09:11:24.000Z</time>
      </trkpt>
      <trkpt lat="47.66396" lon="6.67699">
        <ele>543.79998779297</ele>
        <time>2020-07-26T09:11:29.000Z</time>
      </trkpt>
      <trkpt lat="47.664" lon="6.6771">
        <ele>545</ele>
        <time>2020-07-26T09:11:35.000Z</time>
      </trkpt>
      <trkpt lat="47.66403" lon="6.67713">
        <ele>545.59997558594</ele>
        <time>2020-07-26T09:11:38.000Z</time>
      </trkpt>
      <trkpt lat="47.66405" lon="6.67715">
        <ele>546.20001220703</ele>
        <time>2020-07-26T09:11:40.000Z</time>
      </trkpt>
      <trkpt lat="47.66408" lon="6.67719">
        <ele>547.40002441406</ele>
        <time>2020-07-26T09:11:44.000Z</time>
      </trkpt>
      <trkpt lat="47.6641" lon="6.67721">
        <ele>548</ele>
        <time>2020-07-26T09:11:46.000Z</time>
      </trkpt>
      <trkpt lat="47.66411" lon="6.67723">
        <ele>548.59997558594</ele>
        <time>2020-07-26T09:11:48.000Z</time>
      </trkpt>
      <trkpt lat="47.66416" lon="6.67727">
        <ele>549.59997558594</ele>
        <time>2020-07-26T09:11:52.000Z</time>
      </trkpt>
      <trkpt lat="47.66418" lon="6.67728">
        <ele>549.79998779297</ele>
        <time>2020-07-26T09:11:53.000Z</time>
      </trkpt>
      <trkpt lat="47.66423" lon="6.67732">
        <ele>550.79998779297</ele>
        <time>2020-07-26T09:11:57.000Z</time>
      </trkpt>
      <trkpt lat="47.66429" lon="6.67736">
        <ele>551.79998779297</ele>
        <time>2020-07-26T09:12:01.000Z</time>
      </trkpt>
      <trkpt lat="47.66434" lon="6.67744">
        <ele>552.79998779297</ele>
        <time>2020-07-26T09:12:06.000Z</time>
      </trkpt>
      <trkpt lat="47.66434" lon="6.67745">
        <ele>553.20001220703</ele>
        <time>2020-07-26T09:12:07.000Z</time>
      </trkpt>
      <trkpt lat="47.66434" lon="6.67747">
        <ele>554</ele>
        <time>2020-07-26T09:12:09.000Z</time>
      </trkpt>
      <trkpt lat="47.66434" lon="6.67748">
        <ele>555</ele>
        <time>2020-07-26T09:12:14.000Z</time>
      </trkpt>
      <trkpt lat="47.66434" lon="6.67748">
        <ele>555</ele>
        <time>2020-07-26T09:12:15.000Z</time>
      </trkpt>
      <trkpt lat="47.66435" lon="6.67748">
        <ele>555</ele>
        <time>2020-07-26T09:12:33.000Z</time>
      </trkpt>
      <trkpt lat="47.66435" lon="6.67747">
        <ele>555</ele>
        <time>2020-07-26T09:12:51.000Z</time>
      </trkpt>
      <trkpt lat="47.66434" lon="6.67748">
        <ele>555</ele>
        <time>2020-07-26T09:13:08.000Z</time>
      </trkpt>
      <trkpt lat="47.66434" lon="6.67747">
        <ele>555</ele>
        <time>2020-07-26T09:13:34.000Z</time>
      </trkpt>
      <trkpt lat="47.66436" lon="6.67748">
        <ele>554.79998779297</ele>
        <time>2020-07-26T09:13:53.000Z</time>
      </trkpt>
      <trkpt lat="47.66436" lon="6.67751">
        <ele>554.79998779297</ele>
        <time>2020-07-26T09:14:09.000Z</time>
      </trkpt>
      <trkpt lat="47.66436" lon="6.67751">
        <ele>554.59997558594</ele>
        <time>2020-07-26T09:14:27.000Z</time>
      </trkpt>
      <trkpt lat="47.66434" lon="6.67755">
        <ele>554.59997558594</ele>
        <time>2020-07-26T09:14:30.000Z</time>
      </trkpt>
      <trkpt lat="47.66431" lon="6.6776">
        <ele>554.59997558594</ele>
        <time>2020-07-26T09:14:32.000Z</time>
      </trkpt>
      <trkpt lat="47.66418" lon="6.67775">
        <ele>554.40002441406</ele>
        <time>2020-07-26T09:14:37.000Z</time>
      </trkpt>
      <trkpt lat="47.66406" lon="6.67785">
        <ele>554</ele>
        <time>2020-07-26T09:14:40.000Z</time>
      </trkpt>
      <trkpt lat="47.66398" lon="6.67791">
        <ele>553.79998779297</ele>
        <time>2020-07-26T09:14:42.000Z</time>
      </trkpt>
      <trkpt lat="47.66389" lon="6.67795">
        <ele>553.40002441406</ele>
        <time>2020-07-26T09:14:44.000Z</time>
      </trkpt>
      <trkpt lat="47.66384" lon="6.67797">
        <ele>553.20001220703</ele>
        <time>2020-07-26T09:14:45.000Z</time>
      </trkpt>
      <trkpt lat="47.66379" lon="6.67798">
        <ele>553</ele>
        <time>2020-07-26T09:14:46.000Z</time>
      </trkpt>
      <trkpt lat="47.66364" lon="6.67797">
        <ele>552.59997558594</ele>
        <time>2020-07-26T09:14:49.000Z</time>
      </trkpt>
      <trkpt lat="47.66355" lon="6.67795">
        <ele>551.79998779297</ele>
        <time>2020-07-26T09:14:51.000Z</time>
      </trkpt>
      <trkpt lat="47.6633" lon="6.67785">
        <ele>551.20001220703</ele>
        <time>2020-07-26T09:14:56.000Z</time>
      </trkpt>
      <trkpt lat="47.66313" lon="6.67775">
        <ele>550.59997558594</ele>
        <time>2020-07-26T09:14:59.000Z</time>
      </trkpt>
      <trkpt lat="47.66297" lon="6.67762">
        <ele>550.20001220703</ele>
        <time>2020-07-26T09:15:02.000Z</time>
      </trkpt>
      <trkpt lat="47.66264" lon="6.67722">
        <ele>549.79998779297</ele>
        <time>2020-07-26T09:15:09.000Z</time>
      </trkpt>
      <trkpt lat="47.66253" lon="6.67702">
        <ele>549.59997558594</ele>
        <time>2020-07-26T09:15:12.000Z</time>
      </trkpt>
      <trkpt lat="47.66239" lon="6.67678">
        <ele>549.20001220703</ele>
        <time>2020-07-26T09:15:16.000Z</time>
      </trkpt>
      <trkpt lat="47.66226" lon="6.67661">
        <ele>548.40002441406</ele>
        <time>2020-07-26T09:15:19.000Z</time>
      </trkpt>
      <trkpt lat="47.66208" lon="6.67638">
        <ele>547.40002441406</ele>
        <time>2020-07-26T09:15:23.000Z</time>
      </trkpt>
      <trkpt lat="47.66179" lon="6.67604">
        <ele>546.40002441406</ele>
        <time>2020-07-26T09:15:29.000Z</time>
      </trkpt>
      <trkpt lat="47.66174" lon="6.67599">
        <ele>546.20001220703</ele>
        <time>2020-07-26T09:15:30.000Z</time>
      </trkpt>
      <trkpt lat="47.66146" lon="6.67573">
        <ele>545.20001220703</ele>
        <time>2020-07-26T09:15:35.000Z</time>
      </trkpt>
      <trkpt lat="47.6614" lon="6.67568">
        <ele>545.20001220703</ele>
        <time>2020-07-26T09:15:36.000Z</time>
      </trkpt>
      <trkpt lat="47.66123" lon="6.67554">
        <ele>544.20001220703</ele>
        <time>2020-07-26T09:15:39.000Z</time>
      </trkpt>
      <trkpt lat="47.66107" lon="6.67544">
        <ele>544</ele>
        <time>2020-07-26T09:15:42.000Z</time>
      </trkpt>
      <trkpt lat="47.66083" lon="6.67533">
        <ele>544</ele>
        <time>2020-07-26T09:15:47.000Z</time>
      </trkpt>
      <trkpt lat="47.66078" lon="6.67532">
        <ele>544</ele>
        <time>2020-07-26T09:15:48.000Z</time>
      </trkpt>
      <trkpt lat="47.66068" lon="6.67531">
        <ele>544</ele>
        <time>2020-07-26T09:15:50.000Z</time>
      </trkpt>
      <trkpt lat="47.66055" lon="6.67537">
        <ele>544.59997558594</ele>
        <time>2020-07-26T09:15:53.000Z</time>
      </trkpt>
      <trkpt lat="47.66051" lon="6.67551">
        <ele>545</ele>
        <time>2020-07-26T09:15:56.000Z</time>
      </trkpt>
      <trkpt lat="47.66056" lon="6.67562">
        <ele>545.20001220703</ele>
        <time>2020-07-26T09:15:59.000Z</time>
      </trkpt>
      <trkpt lat="47.66058" lon="6.67564">
        <ele>545.40002441406</ele>
        <time>2020-07-26T09:16:00.000Z</time>
      </trkpt>
      <trkpt lat="47.66067" lon="6.67567">
        <ele>546.40002441406</ele>
        <time>2020-07-26T09:16:04.000Z</time>
      </trkpt>
      <trkpt lat="47.6607" lon="6.67568">
        <ele>546.79998779297</ele>
        <time>2020-07-26T09:16:05.000Z</time>
      </trkpt>
      <trkpt lat="47.66074" lon="6.67571">
        <ele>547.79998779297</ele>
        <time>2020-07-26T09:16:07.000Z</time>
      </trkpt>
      <trkpt lat="47.66081" lon="6.67581">
        <ele>548.79998779297</ele>
        <time>2020-07-26T09:16:10.000Z</time>
      </trkpt>
      <trkpt lat="47.66083" lon="6.67583">
        <ele>549</ele>
        <time>2020-07-26T09:16:11.000Z</time>
      </trkpt>
      <trkpt lat="47.66091" lon="6.67597">
        <ele>550.20001220703</ele>
        <time>2020-07-26T09:16:16.000Z</time>
      </trkpt>
      <trkpt lat="47.66092" lon="6.67603">
        <ele>550.79998779297</ele>
        <time>2020-07-26T09:16:19.000Z</time>
      </trkpt>
      <trkpt lat="47.66091" lon="6.67608">
        <ele>551.20001220703</ele>
        <time>2020-07-26T09:16:21.000Z</time>
      </trkpt>
      <trkpt lat="47.6609" lon="6.67614">
        <ele>551.79998779297</ele>
        <time>2020-07-26T09:16:23.000Z</time>
      </trkpt>
      <trkpt lat="47.6609" lon="6.67621">
        <ele>552.40002441406</ele>
        <time>2020-07-26T09:16:25.000Z</time>
      </trkpt>
      <trkpt lat="47.66092" lon="6.67623">
        <ele>552.79998779297</ele>
        <time>2020-07-26T09:16:26.000Z</time>
      </trkpt>
      <trkpt lat="47.66093" lon="6.67627">
        <ele>552.79998779297</ele>
        <time>2020-07-26T09:16:27.000Z</time>
      </trkpt>
      <trkpt lat="47.66098" lon="6.67638">
        <ele>553.40002441406</ele>
        <time>2020-07-26T09:16:30.000Z</time>
      </trkpt>
      <trkpt lat="47.66101" lon="6.67645">
        <ele>553.59997558594</ele>
        <time>2020-07-26T09:16:32.000Z</time>
      </trkpt>
      <trkpt lat="47.6611" lon="6.67668">
        <ele>554.40002441406</ele>
        <time>2020-07-26T09:16:38.000Z</time>
      </trkpt>
      <trkpt lat="47.6611" lon="6.67676">
        <ele>554.79998779297</ele>
        <time>2020-07-26T09:16:40.000Z</time>
      </trkpt>
      <trkpt lat="47.66105" lon="6.67696">
        <ele>555.59997558594</ele>
        <time>2020-07-26T09:16:44.000Z</time>
      </trkpt>
      <trkpt lat="47.66098" lon="6.67732">
        <ele>555.59997558594</ele>
        <time>2020-07-26T09:16:50.000Z</time>
      </trkpt>
      <trkpt lat="47.66104" lon="6.67745">
        <ele>554</ele>
        <time>2020-07-26T09:16:53.000Z</time>
      </trkpt>
      <trkpt lat="47.66108" lon="6.67752">
        <ele>553</ele>
        <time>2020-07-26T09:16:55.000Z</time>
      </trkpt>
      <trkpt lat="47.6611" lon="6.67756">
        <ele>552.59997558594</ele>
        <time>2020-07-26T09:16:56.000Z</time>
      </trkpt>
      <trkpt lat="47.66115" lon="6.67765">
        <ele>552.40002441406</ele>
        <time>2020-07-26T09:16:59.000Z</time>
      </trkpt>
      <trkpt lat="47.66119" lon="6.67771">
        <ele>552.20001220703</ele>
        <time>2020-07-26T09:17:01.000Z</time>
      </trkpt>
      <trkpt lat="47.66136" lon="6.67793">
        <ele>552.40002441406</ele>
        <time>2020-07-26T09:17:07.000Z</time>
      </trkpt>
      <trkpt lat="47.66156" lon="6.67817">
        <ele>552.59997558594</ele>
        <time>2020-07-26T09:17:14.000Z</time>
      </trkpt>
      <trkpt lat="47.66175" lon="6.67837">
        <ele>552.79998779297</ele>
        <time>2020-07-26T09:17:19.000Z</time>
      </trkpt>
      <trkpt lat="47.66192" lon="6.6786">
        <ele>553</ele>
        <time>2020-07-26T09:17:25.000Z</time>
      </trkpt>
      <trkpt lat="47.66206" lon="6.67878">
        <ele>553</ele>
        <time>2020-07-26T09:17:29.000Z</time>
      </trkpt>
      <trkpt lat="47.6621" lon="6.67883">
        <ele>553</ele>
        <time>2020-07-26T09:17:30.000Z</time>
      </trkpt>
      <trkpt lat="47.66226" lon="6.67897">
        <ele>552.79998779297</ele>
        <time>2020-07-26T09:17:33.000Z</time>
      </trkpt>
      <trkpt lat="47.66239" lon="6.6791">
        <ele>552.40002441406</ele>
        <time>2020-07-26T09:17:36.000Z</time>
      </trkpt>
      <trkpt lat="47.66248" lon="6.67917">
        <ele>551</ele>
        <time>2020-07-26T09:17:38.000Z</time>
      </trkpt>
      <trkpt lat="47.66258" lon="6.67925">
        <ele>550</ele>
        <time>2020-07-26T09:17:40.000Z</time>
      </trkpt>
      <trkpt lat="47.6627" lon="6.67931">
        <ele>549</ele>
        <time>2020-07-26T09:17:43.000Z</time>
      </trkpt>
      <trkpt lat="47.66274" lon="6.67932">
        <ele>548.79998779297</ele>
        <time>2020-07-26T09:17:44.000Z</time>
      </trkpt>
      <trkpt lat="47.66287" lon="6.67938">
        <ele>548.59997558594</ele>
        <time>2020-07-26T09:17:49.000Z</time>
      </trkpt>
      <trkpt lat="47.66301" lon="6.67945">
        <ele>549.40002441406</ele>
        <time>2020-07-26T09:17:55.000Z</time>
      </trkpt>
      <trkpt lat="47.66304" lon="6.67947">
        <ele>550</ele>
        <time>2020-07-26T09:17:56.000Z</time>
      </trkpt>
      <trkpt lat="47.66316" lon="6.67954">
        <ele>551</ele>
        <time>2020-07-26T09:18:01.000Z</time>
      </trkpt>
      <trkpt lat="47.66319" lon="6.67955">
        <ele>551</ele>
        <time>2020-07-26T09:18:02.000Z</time>
      </trkpt>
      <trkpt lat="47.66334" lon="6.67959">
        <ele>551.40002441406</ele>
        <time>2020-07-26T09:18:07.000Z</time>
      </trkpt>
      <trkpt lat="47.6635" lon="6.67967">
        <ele>551.59997558594</ele>
        <time>2020-07-26T09:18:12.000Z</time>
      </trkpt>
      <trkpt lat="47.66359" lon="6.67971">
        <ele>552.20001220703</ele>
        <time>2020-07-26T09:18:15.000Z</time>
      </trkpt>
      <trkpt lat="47.6637" lon="6.67977">
        <ele>553</ele>
        <time>2020-07-26T09:18:20.000Z</time>
      </trkpt>
      <trkpt lat="47.66371" lon="6.67977">
        <ele>553.20001220703</ele>
        <time>2020-07-26T09:18:21.000Z</time>
      </trkpt>
      <trkpt lat="47.66375" lon="6.67978">
        <ele>554</ele>
        <time>2020-07-26T09:18:26.000Z</time>
      </trkpt>
      <trkpt lat="47.66378" lon="6.6798">
        <ele>553.79998779297</ele>
        <time>2020-07-26T09:18:40.000Z</time>
      </trkpt>
      <trkpt lat="47.6638" lon="6.6798">
        <ele>554</ele>
        <time>2020-07-26T09:18:50.000Z</time>
      </trkpt>
      <trkpt lat="47.66381" lon="6.67981">
        <ele>554</ele>
        <time>2020-07-26T09:19:00.000Z</time>
      </trkpt>
      <trkpt lat="47.66384" lon="6.67982">
        <ele>553.79998779297</ele>
        <time>2020-07-26T09:19:17.000Z</time>
      </trkpt>
      <trkpt lat="47.66387" lon="6.67982">
        <ele>553.79998779297</ele>
        <time>2020-07-26T09:19:33.000Z</time>
      </trkpt>
      <trkpt lat="47.66388" lon="6.67981">
        <ele>553.79998779297</ele>
        <time>2020-07-26T09:19:53.000Z</time>
      </trkpt>
      <trkpt lat="47.66389" lon="6.67981">
        <ele>553.79998779297</ele>
        <time>2020-07-26T09:20:11.000Z</time>
      </trkpt>
      <trkpt lat="47.66395" lon="6.67987">
        <ele>554</ele>
        <time>2020-07-26T09:20:23.000Z</time>
      </trkpt>
      <trkpt lat="47.66399" lon="6.67988">
        <ele>553.79998779297</ele>
        <time>2020-07-26T09:20:24.000Z</time>
      </trkpt>
      <trkpt lat="47.66405" lon="6.67984">
        <ele>554</ele>
        <time>2020-07-26T09:20:26.000Z</time>
      </trkpt>
      <trkpt lat="47.6642" lon="6.67966">
        <ele>553.59997558594</ele>
        <time>2020-07-26T09:20:33.000Z</time>
      </trkpt>
      <trkpt lat="47.66428" lon="6.67955">
        <ele>553.59997558594</ele>
        <time>2020-07-26T09:20:39.000Z</time>
      </trkpt>
      <trkpt lat="47.66435" lon="6.67949">
        <ele>554.79998779297</ele>
        <time>2020-07-26T09:20:42.000Z</time>
      </trkpt>
      <trkpt lat="47.6644" lon="6.67944">
        <ele>555.59997558594</ele>
        <time>2020-07-26T09:20:44.000Z</time>
      </trkpt>
      <trkpt lat="47.66442" lon="6.67942">
        <ele>556</ele>
        <time>2020-07-26T09:20:45.000Z</time>
      </trkpt>
      <trkpt lat="47.6645" lon="6.67931">
        <ele>557</ele>
        <time>2020-07-26T09:20:49.000Z</time>
      </trkpt>
      <trkpt lat="47.66451" lon="6.67927">
        <ele>557.20001220703</ele>
        <time>2020-07-26T09:20:50.000Z</time>
      </trkpt>
      <trkpt lat="47.66464" lon="6.6791">
        <ele>557.20001220703</ele>
        <time>2020-07-26T09:20:55.000Z</time>
      </trkpt>
      <trkpt lat="47.66478" lon="6.67888">
        <ele>556.79998779297</ele>
        <time>2020-07-26T09:20:59.000Z</time>
      </trkpt>
      <trkpt lat="47.66491" lon="6.67871">
        <ele>556.79998779297</ele>
        <time>2020-07-26T09:21:04.000Z</time>
      </trkpt>
      <trkpt lat="47.66507" lon="6.67853">
        <ele>557.40002441406</ele>
        <time>2020-07-26T09:21:11.000Z</time>
      </trkpt>
      <trkpt lat="47.66512" lon="6.67846">
        <ele>558.20001220703</ele>
        <time>2020-07-26T09:21:14.000Z</time>
      </trkpt>
      <trkpt lat="47.66517" lon="6.67838">
        <ele>559.20001220703</ele>
        <time>2020-07-26T09:21:17.000Z</time>
      </trkpt>
      <trkpt lat="47.66519" lon="6.67835">
        <ele>559.20001220703</ele>
        <time>2020-07-26T09:21:18.000Z</time>
      </trkpt>
      <trkpt lat="47.66528" lon="6.67825">
        <ele>560.40002441406</ele>
        <time>2020-07-26T09:21:22.000Z</time>
      </trkpt>
      <trkpt lat="47.6653" lon="6.67822">
        <ele>560.59997558594</ele>
        <time>2020-07-26T09:21:23.000Z</time>
      </trkpt>
      <trkpt lat="47.66543" lon="6.67806">
        <ele>561</ele>
        <time>2020-07-26T09:21:29.000Z</time>
      </trkpt>
      <trkpt lat="47.66549" lon="6.67794">
        <ele>561.59997558594</ele>
        <time>2020-07-26T09:21:33.000Z</time>
      </trkpt>
      <trkpt lat="47.66555" lon="6.67782">
        <ele>562.79998779297</ele>
        <time>2020-07-26T09:21:37.000Z</time>
      </trkpt>
      <trkpt lat="47.66563" lon="6.67765">
        <ele>564</ele>
        <time>2020-07-26T09:21:42.000Z</time>
      </trkpt>
      <trkpt lat="47.66564" lon="6.67761">
        <ele>564.40002441406</ele>
        <time>2020-07-26T09:21:43.000Z</time>
      </trkpt>
      <trkpt lat="47.66576" lon="6.67739">
        <ele>565</ele>
        <time>2020-07-26T09:21:49.000Z</time>
      </trkpt>
      <trkpt lat="47.66586" lon="6.67716">
        <ele>565</ele>
        <time>2020-07-26T09:21:55.000Z</time>
      </trkpt>
      <trkpt lat="47.66589" lon="6.67708">
        <ele>565.40002441406</ele>
        <time>2020-07-26T09:21:57.000Z</time>
      </trkpt>
      <trkpt lat="47.66595" lon="6.67687">
        <ele>566</ele>
        <time>2020-07-26T09:22:02.000Z</time>
      </trkpt>
      <trkpt lat="47.66604" lon="6.67654">
        <ele>566.20001220703</ele>
        <time>2020-07-26T09:22:08.000Z</time>
      </trkpt>
      <trkpt lat="47.66615" lon="6.67614">
        <ele>566</ele>
        <time>2020-07-26T09:22:14.000Z</time>
      </trkpt>
      <trkpt lat="47.66627" lon="6.67572">
        <ele>565.59997558594</ele>
        <time>2020-07-26T09:22:19.000Z</time>
      </trkpt>
      <trkpt lat="47.66635" lon="6.67536">
        <ele>564.20001220703</ele>
        <time>2020-07-26T09:22:24.000Z</time>
      </trkpt>
      <trkpt lat="47.66636" lon="6.6753">
        <ele>564.20001220703</ele>
        <time>2020-07-26T09:22:25.000Z</time>
      </trkpt>
      <trkpt lat="47.66643" lon="6.67482">
        <ele>563.59997558594</ele>
        <time>2020-07-26T09:22:31.000Z</time>
      </trkpt>
      <trkpt lat="47.66651" lon="6.67451">
        <ele>563.20001220703</ele>
        <time>2020-07-26T09:22:36.000Z</time>
      </trkpt>
      <trkpt lat="47.66656" lon="6.67432">
        <ele>562.20001220703</ele>
        <time>2020-07-26T09:22:39.000Z</time>
      </trkpt>
      <trkpt lat="47.66655" lon="6.67422">
        <ele>561.79998779297</ele>
        <time>2020-07-26T09:22:40.000Z</time>
      </trkpt>
      <trkpt lat="47.66657" lon="6.6741">
        <ele>561.40002441406</ele>
        <time>2020-07-26T09:22:41.000Z</time>
      </trkpt>
      <trkpt lat="47.66657" lon="6.67399">
        <ele>561.20001220703</ele>
        <time>2020-07-26T09:22:42.000Z</time>
      </trkpt>
      <trkpt lat="47.66659" lon="6.67387">
        <ele>560.59997558594</ele>
        <time>2020-07-26T09:22:43.000Z</time>
      </trkpt>
      <trkpt lat="47.66663" lon="6.67368">
        <ele>560</ele>
        <time>2020-07-26T09:22:45.000Z</time>
      </trkpt>
      <trkpt lat="47.66664" lon="6.67356">
        <ele>559.59997558594</ele>
        <time>2020-07-26T09:22:46.000Z</time>
      </trkpt>
      <trkpt lat="47.66666" lon="6.67333">
        <ele>559.20001220703</ele>
        <time>2020-07-26T09:22:48.000Z</time>
      </trkpt>
      <trkpt lat="47.66666" lon="6.67322">
        <ele>558.79998779297</ele>
        <time>2020-07-26T09:22:49.000Z</time>
      </trkpt>
      <trkpt lat="47.66666" lon="6.67297">
        <ele>558.40002441406</ele>
        <time>2020-07-26T09:22:51.000Z</time>
      </trkpt>
      <trkpt lat="47.66668" lon="6.67287">
        <ele>558.20001220703</ele>
        <time>2020-07-26T09:22:52.000Z</time>
      </trkpt>
      <trkpt lat="47.66671" lon="6.6726">
        <ele>557.79998779297</ele>
        <time>2020-07-26T09:22:55.000Z</time>
      </trkpt>
      <trkpt lat="47.66672" lon="6.67251">
        <ele>557.79998779297</ele>
        <time>2020-07-26T09:22:56.000Z</time>
      </trkpt>
      <trkpt lat="47.66678" lon="6.67191">
        <ele>557.40002441406</ele>
        <time>2020-07-26T09:23:02.000Z</time>
      </trkpt>
      <trkpt lat="47.66678" lon="6.67117">
        <ele>557.20001220703</ele>
        <time>2020-07-26T09:23:08.000Z</time>
      </trkpt>
      <trkpt lat="47.66679" lon="6.67092">
        <ele>556.79998779297</ele>
        <time>2020-07-26T09:23:10.000Z</time>
      </trkpt>
      <trkpt lat="47.66678" lon="6.67067">
        <ele>555.40002441406</ele>
        <time>2020-07-26T09:23:12.000Z</time>
      </trkpt>
      <trkpt lat="47.66673" lon="6.67041">
        <ele>554</ele>
        <time>2020-07-26T09:23:14.000Z</time>
      </trkpt>
      <trkpt lat="47.66664" lon="6.66998">
        <ele>552.79998779297</ele>
        <time>2020-07-26T09:23:17.000Z</time>
      </trkpt>
      <trkpt lat="47.66659" lon="6.66972">
        <ele>551.79998779297</ele>
        <time>2020-07-26T09:23:19.000Z</time>
      </trkpt>
      <trkpt lat="47.66657" lon="6.66959">
        <ele>551.20001220703</ele>
        <time>2020-07-26T09:23:20.000Z</time>
      </trkpt>
      <trkpt lat="47.66652" lon="6.66933">
        <ele>549.79998779297</ele>
        <time>2020-07-26T09:23:22.000Z</time>
      </trkpt>
      <trkpt lat="47.66647" lon="6.66905">
        <ele>548.79998779297</ele>
        <time>2020-07-26T09:23:24.000Z</time>
      </trkpt>
      <trkpt lat="47.66644" lon="6.66891">
        <ele>548</ele>
        <time>2020-07-26T09:23:25.000Z</time>
      </trkpt>
      <trkpt lat="47.66641" lon="6.66875">
        <ele>547.40002441406</ele>
        <time>2020-07-26T09:23:26.000Z</time>
      </trkpt>
      <trkpt lat="47.66637" lon="6.6686">
        <ele>546.79998779297</ele>
        <time>2020-07-26T09:23:27.000Z</time>
      </trkpt>
      <trkpt lat="47.66634" lon="6.66845">
        <ele>546.40002441406</ele>
        <time>2020-07-26T09:23:28.000Z</time>
      </trkpt>
      <trkpt lat="47.66626" lon="6.66815">
        <ele>544.79998779297</ele>
        <time>2020-07-26T09:23:30.000Z</time>
      </trkpt>
      <trkpt lat="47.66616" lon="6.66782">
        <ele>542.79998779297</ele>
        <time>2020-07-26T09:23:32.000Z</time>
      </trkpt>
      <trkpt lat="47.66612" lon="6.66767">
        <ele>541.40002441406</ele>
        <time>2020-07-26T09:23:33.000Z</time>
      </trkpt>
      <trkpt lat="47.66605" lon="6.66734">
        <ele>539.40002441406</ele>
        <time>2020-07-26T09:23:35.000Z</time>
      </trkpt>
      <trkpt lat="47.666" lon="6.66704">
        <ele>538.20001220703</ele>
        <time>2020-07-26T09:23:37.000Z</time>
      </trkpt>
      <trkpt lat="47.66595" lon="6.66681">
        <ele>535</ele>
        <time>2020-07-26T09:23:39.000Z</time>
      </trkpt>
      <trkpt lat="47.66593" lon="6.66673">
        <ele>534.40002441406</ele>
        <time>2020-07-26T09:23:40.000Z</time>
      </trkpt>
      <trkpt lat="47.66591" lon="6.66666">
        <ele>534</ele>
        <time>2020-07-26T09:23:41.000Z</time>
      </trkpt>
      <trkpt lat="47.66588" lon="6.66652">
        <ele>533.59997558594</ele>
        <time>2020-07-26T09:23:44.000Z</time>
      </trkpt>
      <trkpt lat="47.6659" lon="6.66653">
        <ele>533.59997558594</ele>
        <time>2020-07-26T09:23:47.000Z</time>
      </trkpt>
      <trkpt lat="47.66592" lon="6.66654">
        <ele>533.59997558594</ele>
        <time>2020-07-26T09:23:48.000Z</time>
      </trkpt>
      <trkpt lat="47.66598" lon="6.6667">
        <ele>533.79998779297</ele>
        <time>2020-07-26T09:23:53.000Z</time>
      </trkpt>
      <trkpt lat="47.66607" lon="6.66698">
        <ele>533.79998779297</ele>
        <time>2020-07-26T09:23:59.000Z</time>
      </trkpt>
      <trkpt lat="47.6661" lon="6.66702">
        <ele>533.79998779297</ele>
        <time>2020-07-26T09:24:01.000Z</time>
      </trkpt>
      <trkpt lat="47.66612" lon="6.66701">
        <ele>533.59997558594</ele>
        <time>2020-07-26T09:24:02.000Z</time>
      </trkpt>
      <trkpt lat="47.66614" lon="6.667">
        <ele>533.20001220703</ele>
        <time>2020-07-26T09:24:06.000Z</time>
      </trkpt>
      <trkpt lat="47.66615" lon="6.667">
        <ele>532.59997558594</ele>
        <time>2020-07-26T09:24:08.000Z</time>
      </trkpt>
      <trkpt lat="47.66615" lon="6.66701">
        <ele>532</ele>
        <time>2020-07-26T09:24:20.000Z</time>
      </trkpt>
      <trkpt lat="47.66617" lon="6.66695">
        <ele>531.79998779297</ele>
        <time>2020-07-26T09:24:39.000Z</time>
      </trkpt>
      <trkpt lat="47.66619" lon="6.66674">
        <ele>531.79998779297</ele>
        <time>2020-07-26T09:24:43.000Z</time>
      </trkpt>
      <trkpt lat="47.66622" lon="6.66643">
        <ele>531.40002441406</ele>
        <time>2020-07-26T09:24:47.000Z</time>
      </trkpt>
      <trkpt lat="47.66623" lon="6.66625">
        <ele>530.20001220703</ele>
        <time>2020-07-26T09:24:49.000Z</time>
      </trkpt>
      <trkpt lat="47.66627" lon="6.66603">
        <ele>529.20001220703</ele>
        <time>2020-07-26T09:24:51.000Z</time>
      </trkpt>
      <trkpt lat="47.66629" lon="6.66581">
        <ele>527.59997558594</ele>
        <time>2020-07-26T09:24:53.000Z</time>
      </trkpt>
      <trkpt lat="47.66629" lon="6.6657">
        <ele>526</ele>
        <time>2020-07-26T09:24:54.000Z</time>
      </trkpt>
      <trkpt lat="47.6663" lon="6.66561">
        <ele>524.79998779297</ele>
        <time>2020-07-26T09:24:55.000Z</time>
      </trkpt>
      <trkpt lat="47.66632" lon="6.66545">
        <ele>523.40002441406</ele>
        <time>2020-07-26T09:24:57.000Z</time>
      </trkpt>
      <trkpt lat="47.66637" lon="6.66514">
        <ele>522.59997558594</ele>
        <time>2020-07-26T09:25:01.000Z</time>
      </trkpt>
      <trkpt lat="47.66638" lon="6.66506">
        <ele>522.59997558594</ele>
        <time>2020-07-26T09:25:02.000Z</time>
      </trkpt>
      <trkpt lat="47.66646" lon="6.66473">
        <ele>523</ele>
        <time>2020-07-26T09:25:08.000Z</time>
      </trkpt>
      <trkpt lat="47.66658" lon="6.66447">
        <ele>523</ele>
        <time>2020-07-26T09:25:13.000Z</time>
      </trkpt>
      <trkpt lat="47.66681" lon="6.66413">
        <ele>522.59997558594</ele>
        <time>2020-07-26T09:25:18.000Z</time>
      </trkpt>
      <trkpt lat="47.66687" lon="6.66405">
        <ele>522.20001220703</ele>
        <time>2020-07-26T09:25:19.000Z</time>
      </trkpt>
      <trkpt lat="47.66695" lon="6.66389">
        <ele>520.79998779297</ele>
        <time>2020-07-26T09:25:21.000Z</time>
      </trkpt>
      <trkpt lat="47.66699" lon="6.66381">
        <ele>519.79998779297</ele>
        <time>2020-07-26T09:25:22.000Z</time>
      </trkpt>
      <trkpt lat="47.66707" lon="6.66365">
        <ele>518.79998779297</ele>
        <time>2020-07-26T09:25:24.000Z</time>
      </trkpt>
      <trkpt lat="47.6673" lon="6.66325">
        <ele>517.40002441406</ele>
        <time>2020-07-26T09:25:29.000Z</time>
      </trkpt>
      <trkpt lat="47.66734" lon="6.66318">
        <ele>516.79998779297</ele>
        <time>2020-07-26T09:25:30.000Z</time>
      </trkpt>
      <trkpt lat="47.66745" lon="6.66304">
        <ele>516</ele>
        <time>2020-07-26T09:25:32.000Z</time>
      </trkpt>
      <trkpt lat="47.66758" lon="6.66282">
        <ele>514.59997558594</ele>
        <time>2020-07-26T09:25:35.000Z</time>
      </trkpt>
      <trkpt lat="47.66766" lon="6.66266">
        <ele>514</ele>
        <time>2020-07-26T09:25:37.000Z</time>
      </trkpt>
      <trkpt lat="47.66773" lon="6.66248">
        <ele>513.59997558594</ele>
        <time>2020-07-26T09:25:39.000Z</time>
      </trkpt>
      <trkpt lat="47.66782" lon="6.66224">
        <ele>512.40002441406</ele>
        <time>2020-07-26T09:25:42.000Z</time>
      </trkpt>
      <trkpt lat="47.66786" lon="6.66218">
        <ele>511.79998779297</ele>
        <time>2020-07-26T09:25:43.000Z</time>
      </trkpt>
      <trkpt lat="47.66789" lon="6.66212">
        <ele>511.39999389648</ele>
        <time>2020-07-26T09:25:44.000Z</time>
      </trkpt>
      <trkpt lat="47.66792" lon="6.66202">
        <ele>510.39999389648</ele>
        <time>2020-07-26T09:25:46.000Z</time>
      </trkpt>
      <trkpt lat="47.66794" lon="6.66197">
        <ele>509.79998779297</ele>
        <time>2020-07-26T09:25:47.000Z</time>
      </trkpt>
      <trkpt lat="47.66795" lon="6.66182">
        <ele>509.20001220703</ele>
        <time>2020-07-26T09:25:49.000Z</time>
      </trkpt>
      <trkpt lat="47.66794" lon="6.66165">
        <ele>508</ele>
        <time>2020-07-26T09:25:51.000Z</time>
      </trkpt>
      <trkpt lat="47.66794" lon="6.66157">
        <ele>507.60000610352</ele>
        <time>2020-07-26T09:25:52.000Z</time>
      </trkpt>
      <trkpt lat="47.66793" lon="6.66139">
        <ele>506.39999389648</ele>
        <time>2020-07-26T09:25:54.000Z</time>
      </trkpt>
      <trkpt lat="47.66791" lon="6.6613">
        <ele>505.79998779297</ele>
        <time>2020-07-26T09:25:55.000Z</time>
      </trkpt>
      <trkpt lat="47.66789" lon="6.66119">
        <ele>505.20001220703</ele>
        <time>2020-07-26T09:25:56.000Z</time>
      </trkpt>
      <trkpt lat="47.66786" lon="6.66109">
        <ele>504.79998779297</ele>
        <time>2020-07-26T09:25:57.000Z</time>
      </trkpt>
      <trkpt lat="47.66783" lon="6.66097">
        <ele>504.20001220703</ele>
        <time>2020-07-26T09:25:58.000Z</time>
      </trkpt>
      <trkpt lat="47.66776" lon="6.66073">
        <ele>502.79998779297</ele>
        <time>2020-07-26T09:26:00.000Z</time>
      </trkpt>
      <trkpt lat="47.66772" lon="6.66061">
        <ele>502.39999389648</ele>
        <time>2020-07-26T09:26:01.000Z</time>
      </trkpt>
      <trkpt lat="47.66768" lon="6.66048">
        <ele>501.39999389648</ele>
        <time>2020-07-26T09:26:02.000Z</time>
      </trkpt>
      <trkpt lat="47.6676" lon="6.66032">
        <ele>501</ele>
        <time>2020-07-26T09:26:03.000Z</time>
      </trkpt>
      <trkpt lat="47.66752" lon="6.66005">
        <ele>499.79998779297</ele>
        <time>2020-07-26T09:26:05.000Z</time>
      </trkpt>
      <trkpt lat="47.66737" lon="6.65959">
        <ele>498.79998779297</ele>
        <time>2020-07-26T09:26:08.000Z</time>
      </trkpt>
      <trkpt lat="47.66732" lon="6.65933">
        <ele>497.39999389648</ele>
        <time>2020-07-26T09:26:10.000Z</time>
      </trkpt>
      <trkpt lat="47.66733" lon="6.65925">
        <ele>496.79998779297</ele>
        <time>2020-07-26T09:26:11.000Z</time>
      </trkpt>
      <trkpt lat="47.66735" lon="6.65917">
        <ele>496</ele>
        <time>2020-07-26T09:26:12.000Z</time>
      </trkpt>
      <trkpt lat="47.66744" lon="6.65892">
        <ele>494.60000610352</ele>
        <time>2020-07-26T09:26:15.000Z</time>
      </trkpt>
      <trkpt lat="47.66763" lon="6.65859">
        <ele>493.60000610352</ele>
        <time>2020-07-26T09:26:19.000Z</time>
      </trkpt>
      <trkpt lat="47.66768" lon="6.6585">
        <ele>493.60000610352</ele>
        <time>2020-07-26T09:26:20.000Z</time>
      </trkpt>
      <trkpt lat="47.66777" lon="6.65834">
        <ele>492.39999389648</ele>
        <time>2020-07-26T09:26:22.000Z</time>
      </trkpt>
      <trkpt lat="47.66783" lon="6.65825">
        <ele>492.20001220703</ele>
        <time>2020-07-26T09:26:23.000Z</time>
      </trkpt>
      <trkpt lat="47.66792" lon="6.65809">
        <ele>491.39999389648</ele>
        <time>2020-07-26T09:26:25.000Z</time>
      </trkpt>
      <trkpt lat="47.66801" lon="6.65795">
        <ele>490.39999389648</ele>
        <time>2020-07-26T09:26:27.000Z</time>
      </trkpt>
      <trkpt lat="47.66817" lon="6.65775">
        <ele>489.79998779297</ele>
        <time>2020-07-26T09:26:30.000Z</time>
      </trkpt>
      <trkpt lat="47.66831" lon="6.65755">
        <ele>489.60000610352</ele>
        <time>2020-07-26T09:26:33.000Z</time>
      </trkpt>
      <trkpt lat="47.6684" lon="6.65744">
        <ele>489.20001220703</ele>
        <time>2020-07-26T09:26:35.000Z</time>
      </trkpt>
      <trkpt lat="47.66845" lon="6.6574">
        <ele>488.20001220703</ele>
        <time>2020-07-26T09:26:36.000Z</time>
      </trkpt>
      <trkpt lat="47.6685" lon="6.65735">
        <ele>486.79998779297</ele>
        <time>2020-07-26T09:26:37.000Z</time>
      </trkpt>
      <trkpt lat="47.66855" lon="6.65729">
        <ele>485.79998779297</ele>
        <time>2020-07-26T09:26:38.000Z</time>
      </trkpt>
      <trkpt lat="47.66859" lon="6.65721">
        <ele>485.20001220703</ele>
        <time>2020-07-26T09:26:39.000Z</time>
      </trkpt>
      <trkpt lat="47.66873" lon="6.65705">
        <ele>484.20001220703</ele>
        <time>2020-07-26T09:26:42.000Z</time>
      </trkpt>
      <trkpt lat="47.66874" lon="6.65701">
        <ele>483.39999389648</ele>
        <time>2020-07-26T09:26:43.000Z</time>
      </trkpt>
      <trkpt lat="47.66876" lon="6.65697">
        <ele>482.60000610352</ele>
        <time>2020-07-26T09:26:44.000Z</time>
      </trkpt>
      <trkpt lat="47.66882" lon="6.65689">
        <ele>481.60000610352</ele>
        <time>2020-07-26T09:26:50.000Z</time>
      </trkpt>
      <trkpt lat="47.66882" lon="6.65683">
        <ele>481.60000610352</ele>
        <time>2020-07-26T09:27:04.000Z</time>
      </trkpt>
      <trkpt lat="47.66882" lon="6.65681">
        <ele>481.60000610352</ele>
        <time>2020-07-26T09:27:24.000Z</time>
      </trkpt>
      <trkpt lat="47.66884" lon="6.65676">
        <ele>481.60000610352</ele>
        <time>2020-07-26T09:27:40.000Z</time>
      </trkpt>
      <trkpt lat="47.66895" lon="6.65673">
        <ele>481.60000610352</ele>
        <time>2020-07-26T09:27:44.000Z</time>
      </trkpt>
      <trkpt lat="47.66923" lon="6.65668">
        <ele>480.79998779297</ele>
        <time>2020-07-26T09:27:49.000Z</time>
      </trkpt>
      <trkpt lat="47.66935" lon="6.65666">
        <ele>479</ele>
        <time>2020-07-26T09:27:51.000Z</time>
      </trkpt>
      <trkpt lat="47.66948" lon="6.65665">
        <ele>477.39999389648</ele>
        <time>2020-07-26T09:27:53.000Z</time>
      </trkpt>
      <trkpt lat="47.66962" lon="6.65663">
        <ele>476.39999389648</ele>
        <time>2020-07-26T09:27:55.000Z</time>
      </trkpt>
      <trkpt lat="47.6697" lon="6.65663">
        <ele>476</ele>
        <time>2020-07-26T09:27:56.000Z</time>
      </trkpt>
      <trkpt lat="47.66978" lon="6.65662">
        <ele>474.79998779297</ele>
        <time>2020-07-26T09:27:57.000Z</time>
      </trkpt>
      <trkpt lat="47.6701" lon="6.65658">
        <ele>473.39999389648</ele>
        <time>2020-07-26T09:28:01.000Z</time>
      </trkpt>
      <trkpt lat="47.67052" lon="6.65655">
        <ele>472.60000610352</ele>
        <time>2020-07-26T09:28:07.000Z</time>
      </trkpt>
      <trkpt lat="47.67083" lon="6.65654">
        <ele>472.39999389648</ele>
        <time>2020-07-26T09:28:12.000Z</time>
      </trkpt>
      <trkpt lat="47.67111" lon="6.65649">
        <ele>472.60000610352</ele>
        <time>2020-07-26T09:28:17.000Z</time>
      </trkpt>
      <trkpt lat="47.67115" lon="6.65648">
        <ele>472.79998779297</ele>
        <time>2020-07-26T09:28:18.000Z</time>
      </trkpt>
      <trkpt lat="47.67135" lon="6.65647">
        <ele>474</ele>
        <time>2020-07-26T09:28:22.000Z</time>
      </trkpt>
      <trkpt lat="47.6714" lon="6.65647">
        <ele>474.60000610352</ele>
        <time>2020-07-26T09:28:23.000Z</time>
      </trkpt>
      <trkpt lat="47.67155" lon="6.65646">
        <ele>476.39999389648</ele>
        <time>2020-07-26T09:28:26.000Z</time>
      </trkpt>
      <trkpt lat="47.67172" lon="6.65646">
        <ele>476.60000610352</ele>
        <time>2020-07-26T09:28:29.000Z</time>
      </trkpt>
      <trkpt lat="47.67182" lon="6.65646">
        <ele>476.79998779297</ele>
        <time>2020-07-26T09:28:31.000Z</time>
      </trkpt>
      <trkpt lat="47.67197" lon="6.65647">
        <ele>476.79998779297</ele>
        <time>2020-07-26T09:28:34.000Z</time>
      </trkpt>
      <trkpt lat="47.67226" lon="6.65647">
        <ele>476.79998779297</ele>
        <time>2020-07-26T09:28:39.000Z</time>
      </trkpt>
      <trkpt lat="47.67271" lon="6.65643">
        <ele>476</ele>
        <time>2020-07-26T09:28:45.000Z</time>
      </trkpt>
      <trkpt lat="47.67291" lon="6.65643">
        <ele>474.79998779297</ele>
        <time>2020-07-26T09:28:48.000Z</time>
      </trkpt>
      <trkpt lat="47.67303" lon="6.65643">
        <ele>473.39999389648</ele>
        <time>2020-07-26T09:28:50.000Z</time>
      </trkpt>
      <trkpt lat="47.67315" lon="6.65641">
        <ele>472.79998779297</ele>
        <time>2020-07-26T09:28:52.000Z</time>
      </trkpt>
      <trkpt lat="47.6733" lon="6.65629">
        <ele>472.60000610352</ele>
        <time>2020-07-26T09:28:55.000Z</time>
      </trkpt>
      <trkpt lat="47.67334" lon="6.65624">
        <ele>472.60000610352</ele>
        <time>2020-07-26T09:28:56.000Z</time>
      </trkpt>
      <trkpt lat="47.67354" lon="6.656">
        <ele>472.60000610352</ele>
        <time>2020-07-26T09:29:01.000Z</time>
      </trkpt>
      <trkpt lat="47.67357" lon="6.65594">
        <ele>472.60000610352</ele>
        <time>2020-07-26T09:29:02.000Z</time>
      </trkpt>
      <trkpt lat="47.67375" lon="6.65571">
        <ele>472.79998779297</ele>
        <time>2020-07-26T09:29:07.000Z</time>
      </trkpt>
      <trkpt lat="47.67378" lon="6.65565">
        <ele>472.79998779297</ele>
        <time>2020-07-26T09:29:08.000Z</time>
      </trkpt>
      <trkpt lat="47.67394" lon="6.65542">
        <ele>472.79998779297</ele>
        <time>2020-07-26T09:29:12.000Z</time>
      </trkpt>
      <trkpt lat="47.674" lon="6.65537">
        <ele>472.79998779297</ele>
        <time>2020-07-26T09:29:13.000Z</time>
      </trkpt>
      <trkpt lat="47.67412" lon="6.65518">
        <ele>472.79998779297</ele>
        <time>2020-07-26T09:29:17.000Z</time>
      </trkpt>
      <trkpt lat="47.67427" lon="6.65498">
        <ele>473.79998779297</ele>
        <time>2020-07-26T09:29:22.000Z</time>
      </trkpt>
      <trkpt lat="47.67428" lon="6.65493">
        <ele>474.39999389648</ele>
        <time>2020-07-26T09:29:23.000Z</time>
      </trkpt>
      <trkpt lat="47.6744" lon="6.65487">
        <ele>475.60000610352</ele>
        <time>2020-07-26T09:29:27.000Z</time>
      </trkpt>
      <trkpt lat="47.67444" lon="6.65486">
        <ele>476.20001220703</ele>
        <time>2020-07-26T09:29:28.000Z</time>
      </trkpt>
      <trkpt lat="47.67453" lon="6.65484">
        <ele>477</ele>
        <time>2020-07-26T09:29:30.000Z</time>
      </trkpt>
      <trkpt lat="47.67474" lon="6.65473">
        <ele>477.60000610352</ele>
        <time>2020-07-26T09:29:35.000Z</time>
      </trkpt>
      <trkpt lat="47.67505" lon="6.65463">
        <ele>477.60000610352</ele>
        <time>2020-07-26T09:29:42.000Z</time>
      </trkpt>
      <trkpt lat="47.6753" lon="6.65455">
        <ele>477.60000610352</ele>
        <time>2020-07-26T09:29:48.000Z</time>
      </trkpt>
      <trkpt lat="47.67552" lon="6.65447">
        <ele>477.79998779297</ele>
        <time>2020-07-26T09:29:53.000Z</time>
      </trkpt>
      <trkpt lat="47.6758" lon="6.65443">
        <ele>477.79998779297</ele>
        <time>2020-07-26T09:29:58.000Z</time>
      </trkpt>
      <trkpt lat="47.67607" lon="6.65437">
        <ele>478</ele>
        <time>2020-07-26T09:30:04.000Z</time>
      </trkpt>
      <trkpt lat="47.67628" lon="6.65449">
        <ele>477.79998779297</ele>
        <time>2020-07-26T09:30:08.000Z</time>
      </trkpt>
      <trkpt lat="47.67642" lon="6.6546">
        <ele>477.60000610352</ele>
        <time>2020-07-26T09:30:10.000Z</time>
      </trkpt>
      <trkpt lat="47.67655" lon="6.65468">
        <ele>477.39999389648</ele>
        <time>2020-07-26T09:30:12.000Z</time>
      </trkpt>
      <trkpt lat="47.67674" lon="6.65475">
        <ele>476.39999389648</ele>
        <time>2020-07-26T09:30:16.000Z</time>
      </trkpt>
      <trkpt lat="47.67676" lon="6.65473">
        <ele>475.20001220703</ele>
        <time>2020-07-26T09:30:17.000Z</time>
      </trkpt>
      <trkpt lat="47.67676" lon="6.65469">
        <ele>474</ele>
        <time>2020-07-26T09:30:18.000Z</time>
      </trkpt>
      <trkpt lat="47.67675" lon="6.65466">
        <ele>473</ele>
        <time>2020-07-26T09:30:19.000Z</time>
      </trkpt>
      <trkpt lat="47.67675" lon="6.65463">
        <ele>472.20001220703</ele>
        <time>2020-07-26T09:30:20.000Z</time>
      </trkpt>
      <trkpt lat="47.67672" lon="6.65452">
        <ele>471.60000610352</ele>
        <time>2020-07-26T09:30:22.000Z</time>
      </trkpt>
      <trkpt lat="47.67671" lon="6.65448">
        <ele>471.60000610352</ele>
        <time>2020-07-26T09:30:23.000Z</time>
      </trkpt>
      <trkpt lat="47.67665" lon="6.65425">
        <ele>471.39999389648</ele>
        <time>2020-07-26T09:30:29.000Z</time>
      </trkpt>
      <trkpt lat="47.67659" lon="6.65401">
        <ele>473.39999389648</ele>
        <time>2020-07-26T09:30:36.000Z</time>
      </trkpt>
      <trkpt lat="47.67656" lon="6.65391">
        <ele>474.39999389648</ele>
        <time>2020-07-26T09:30:39.000Z</time>
      </trkpt>
      <trkpt lat="47.67655" lon="6.65374">
        <ele>475.20001220703</ele>
        <time>2020-07-26T09:30:43.000Z</time>
      </trkpt>
      <trkpt lat="47.67654" lon="6.65369">
        <ele>475.39999389648</ele>
        <time>2020-07-26T09:30:44.000Z</time>
      </trkpt>
      <trkpt lat="47.67649" lon="6.65341">
        <ele>475.60000610352</ele>
        <time>2020-07-26T09:30:48.000Z</time>
      </trkpt>
      <trkpt lat="47.6764" lon="6.65291">
        <ele>475</ele>
        <time>2020-07-26T09:30:54.000Z</time>
      </trkpt>
      <trkpt lat="47.67639" lon="6.65281">
        <ele>474.39999389648</ele>
        <time>2020-07-26T09:30:55.000Z</time>
      </trkpt>
      <trkpt lat="47.67636" lon="6.65262">
        <ele>473</ele>
        <time>2020-07-26T09:30:57.000Z</time>
      </trkpt>
      <trkpt lat="47.67635" lon="6.65252">
        <ele>472.60000610352</ele>
        <time>2020-07-26T09:30:58.000Z</time>
      </trkpt>
      <trkpt lat="47.67634" lon="6.65243">
        <ele>472.20001220703</ele>
        <time>2020-07-26T09:30:59.000Z</time>
      </trkpt>
      <trkpt lat="47.67632" lon="6.65232">
        <ele>471.60000610352</ele>
        <time>2020-07-26T09:31:00.000Z</time>
      </trkpt>
      <trkpt lat="47.67626" lon="6.65195">
        <ele>471</ele>
        <time>2020-07-26T09:31:04.000Z</time>
      </trkpt>
      <trkpt lat="47.67621" lon="6.65164">
        <ele>471</ele>
        <time>2020-07-26T09:31:08.000Z</time>
      </trkpt>
      <trkpt lat="47.67624" lon="6.65153">
        <ele>471</ele>
        <time>2020-07-26T09:31:10.000Z</time>
      </trkpt>
      <trkpt lat="47.67627" lon="6.65142">
        <ele>470.79998779297</ele>
        <time>2020-07-26T09:31:12.000Z</time>
      </trkpt>
      <trkpt lat="47.67628" lon="6.65131">
        <ele>470.79998779297</ele>
        <time>2020-07-26T09:31:13.000Z</time>
      </trkpt>
      <trkpt lat="47.67629" lon="6.65121">
        <ele>470.60000610352</ele>
        <time>2020-07-26T09:31:14.000Z</time>
      </trkpt>
      <trkpt lat="47.67632" lon="6.6511">
        <ele>470.60000610352</ele>
        <time>2020-07-26T09:31:15.000Z</time>
      </trkpt>
      <trkpt lat="47.67643" lon="6.65047">
        <ele>468.39999389648</ele>
        <time>2020-07-26T09:31:20.000Z</time>
      </trkpt>
      <trkpt lat="47.67646" lon="6.65037">
        <ele>467.20001220703</ele>
        <time>2020-07-26T09:31:21.000Z</time>
      </trkpt>
      <trkpt lat="47.6765" lon="6.65027">
        <ele>465.60000610352</ele>
        <time>2020-07-26T09:31:22.000Z</time>
      </trkpt>
      <trkpt lat="47.67652" lon="6.65015">
        <ele>463.79998779297</ele>
        <time>2020-07-26T09:31:23.000Z</time>
      </trkpt>
      <trkpt lat="47.67653" lon="6.65003">
        <ele>462.39999389648</ele>
        <time>2020-07-26T09:31:24.000Z</time>
      </trkpt>
      <trkpt lat="47.67655" lon="6.64991">
        <ele>461</ele>
        <time>2020-07-26T09:31:25.000Z</time>
      </trkpt>
      <trkpt lat="47.67657" lon="6.64979">
        <ele>459.79998779297</ele>
        <time>2020-07-26T09:31:26.000Z</time>
      </trkpt>
      <trkpt lat="47.67658" lon="6.64954">
        <ele>458.39999389648</ele>
        <time>2020-07-26T09:31:28.000Z</time>
      </trkpt>
      <trkpt lat="47.67662" lon="6.64934">
        <ele>457.79998779297</ele>
        <time>2020-07-26T09:31:30.000Z</time>
      </trkpt>
      <trkpt lat="47.67676" lon="6.64916">
        <ele>457.20001220703</ele>
        <time>2020-07-26T09:31:33.000Z</time>
      </trkpt>
      <trkpt lat="47.67694" lon="6.64902">
        <ele>456.79998779297</ele>
        <time>2020-07-26T09:31:35.000Z</time>
      </trkpt>
      <trkpt lat="47.67724" lon="6.64882">
        <ele>455.79998779297</ele>
        <time>2020-07-26T09:31:38.000Z</time>
      </trkpt>
      <trkpt lat="47.6774" lon="6.6487">
        <ele>454.79998779297</ele>
        <time>2020-07-26T09:31:40.000Z</time>
      </trkpt>
      <trkpt lat="47.67746" lon="6.64865">
        <ele>454.60000610352</ele>
        <time>2020-07-26T09:31:41.000Z</time>
      </trkpt>
      <trkpt lat="47.67752" lon="6.64861">
        <ele>454.60000610352</ele>
        <time>2020-07-26T09:31:42.000Z</time>
      </trkpt>
      <trkpt lat="47.67762" lon="6.64857">
        <ele>454.39999389648</ele>
        <time>2020-07-26T09:31:44.000Z</time>
      </trkpt>
      <trkpt lat="47.67777" lon="6.64854">
        <ele>454.39999389648</ele>
        <time>2020-07-26T09:31:46.000Z</time>
      </trkpt>
      <trkpt lat="47.67794" lon="6.64854">
        <ele>454</ele>
        <time>2020-07-26T09:31:48.000Z</time>
      </trkpt>
      <trkpt lat="47.67813" lon="6.6485">
        <ele>454.39999389648</ele>
        <time>2020-07-26T09:31:52.000Z</time>
      </trkpt>
      <trkpt lat="47.67841" lon="6.64848">
        <ele>454.79998779297</ele>
        <time>2020-07-26T09:31:57.000Z</time>
      </trkpt>
      <trkpt lat="47.67876" lon="6.64845">
        <ele>454.79998779297</ele>
        <time>2020-07-26T09:32:02.000Z</time>
      </trkpt>
      <trkpt lat="47.67889" lon="6.64832">
        <ele>454.60000610352</ele>
        <time>2020-07-26T09:32:05.000Z</time>
      </trkpt>
      <trkpt lat="47.67885" lon="6.64818">
        <ele>453.39999389648</ele>
        <time>2020-07-26T09:32:08.000Z</time>
      </trkpt>
      <trkpt lat="47.67884" lon="6.64815">
        <ele>453.39999389648</ele>
        <time>2020-07-26T09:32:09.000Z</time>
      </trkpt>
      <trkpt lat="47.67877" lon="6.64797">
        <ele>453.39999389648</ele>
        <time>2020-07-26T09:32:15.000Z</time>
      </trkpt>
      <trkpt lat="47.67866" lon="6.64778">
        <ele>453.79998779297</ele>
        <time>2020-07-26T09:32:21.000Z</time>
      </trkpt>
      <trkpt lat="47.67851" lon="6.64753">
        <ele>453.79998779297</ele>
        <time>2020-07-26T09:32:27.000Z</time>
      </trkpt>
      <trkpt lat="47.67847" lon="6.64749">
        <ele>453.79998779297</ele>
        <time>2020-07-26T09:32:28.000Z</time>
      </trkpt>
      <trkpt lat="47.67836" lon="6.64742">
        <ele>453.60000610352</ele>
        <time>2020-07-26T09:32:30.000Z</time>
      </trkpt>
      <trkpt lat="47.67816" lon="6.64734">
        <ele>452.60000610352</ele>
        <time>2020-07-26T09:32:33.000Z</time>
      </trkpt>
      <trkpt lat="47.67808" lon="6.6473">
        <ele>452.20001220703</ele>
        <time>2020-07-26T09:32:34.000Z</time>
      </trkpt>
      <trkpt lat="47.67802" lon="6.6473">
        <ele>452</ele>
        <time>2020-07-26T09:32:35.000Z</time>
      </trkpt>
      <trkpt lat="47.67796" lon="6.64729">
        <ele>451.60000610352</ele>
        <time>2020-07-26T09:32:36.000Z</time>
      </trkpt>
      <trkpt lat="47.67777" lon="6.64724">
        <ele>450.79998779297</ele>
        <time>2020-07-26T09:32:39.000Z</time>
      </trkpt>
      <trkpt lat="47.67772" lon="6.64722">
        <ele>450.60000610352</ele>
        <time>2020-07-26T09:32:40.000Z</time>
      </trkpt>
      <trkpt lat="47.67754" lon="6.64715">
        <ele>449.60000610352</ele>
        <time>2020-07-26T09:32:43.000Z</time>
      </trkpt>
      <trkpt lat="47.67739" lon="6.64709">
        <ele>449.39999389648</ele>
        <time>2020-07-26T09:32:46.000Z</time>
      </trkpt>
      <trkpt lat="47.6773" lon="6.64699">
        <ele>449.20001220703</ele>
        <time>2020-07-26T09:32:50.000Z</time>
      </trkpt>
      <trkpt lat="47.67725" lon="6.64688">
        <ele>451.20001220703</ele>
        <time>2020-07-26T09:32:53.000Z</time>
      </trkpt>
      <trkpt lat="47.67723" lon="6.64683">
        <ele>451.79998779297</ele>
        <time>2020-07-26T09:32:54.000Z</time>
      </trkpt>
      <trkpt lat="47.67711" lon="6.64655">
        <ele>452.20001220703</ele>
        <time>2020-07-26T09:32:58.000Z</time>
      </trkpt>
      <trkpt lat="47.67692" lon="6.64617">
        <ele>452.20001220703</ele>
        <time>2020-07-26T09:33:02.000Z</time>
      </trkpt>
      <trkpt lat="47.67666" lon="6.6456">
        <ele>450.20001220703</ele>
        <time>2020-07-26T09:33:08.000Z</time>
      </trkpt>
      <trkpt lat="47.67657" lon="6.64539">
        <ele>448.79998779297</ele>
        <time>2020-07-26T09:33:10.000Z</time>
      </trkpt>
      <trkpt lat="47.67643" lon="6.64507">
        <ele>447.79998779297</ele>
        <time>2020-07-26T09:33:13.000Z</time>
      </trkpt>
      <trkpt lat="47.67635" lon="6.64486">
        <ele>446.60000610352</ele>
        <time>2020-07-26T09:33:15.000Z</time>
      </trkpt>
      <trkpt lat="47.67621" lon="6.6445">
        <ele>445.60000610352</ele>
        <time>2020-07-26T09:33:18.000Z</time>
      </trkpt>
      <trkpt lat="47.67616" lon="6.64436">
        <ele>445.20001220703</ele>
        <time>2020-07-26T09:33:19.000Z</time>
      </trkpt>
      <trkpt lat="47.67608" lon="6.64414">
        <ele>444.20001220703</ele>
        <time>2020-07-26T09:33:21.000Z</time>
      </trkpt>
      <trkpt lat="47.67601" lon="6.64392">
        <ele>443</ele>
        <time>2020-07-26T09:33:23.000Z</time>
      </trkpt>
      <trkpt lat="47.67597" lon="6.64381">
        <ele>442.39999389648</ele>
        <time>2020-07-26T09:33:24.000Z</time>
      </trkpt>
      <trkpt lat="47.67594" lon="6.64373">
        <ele>441.39999389648</ele>
        <time>2020-07-26T09:33:25.000Z</time>
      </trkpt>
      <trkpt lat="47.67591" lon="6.64366">
        <ele>440.39999389648</ele>
        <time>2020-07-26T09:33:26.000Z</time>
      </trkpt>
      <trkpt lat="47.67586" lon="6.64348">
        <ele>438.79998779297</ele>
        <time>2020-07-26T09:33:28.000Z</time>
      </trkpt>
      <trkpt lat="47.67579" lon="6.64327">
        <ele>437.39999389648</ele>
        <time>2020-07-26T09:33:30.000Z</time>
      </trkpt>
      <trkpt lat="47.6757" lon="6.64302">
        <ele>437</ele>
        <time>2020-07-26T09:33:32.000Z</time>
      </trkpt>
      <trkpt lat="47.67569" lon="6.64293">
        <ele>436.79998779297</ele>
        <time>2020-07-26T09:33:33.000Z</time>
      </trkpt>
      <trkpt lat="47.6757" lon="6.64286">
        <ele>436</ele>
        <time>2020-07-26T09:33:34.000Z</time>
      </trkpt>
      <trkpt lat="47.67573" lon="6.6428">
        <ele>435</ele>
        <time>2020-07-26T09:33:35.000Z</time>
      </trkpt>
      <trkpt lat="47.67574" lon="6.6427">
        <ele>433.60000610352</ele>
        <time>2020-07-26T09:33:36.000Z</time>
      </trkpt>
      <trkpt lat="47.67578" lon="6.64261">
        <ele>432</ele>
        <time>2020-07-26T09:33:37.000Z</time>
      </trkpt>
      <trkpt lat="47.67582" lon="6.64252">
        <ele>430.39999389648</ele>
        <time>2020-07-26T09:33:38.000Z</time>
      </trkpt>
      <trkpt lat="47.67587" lon="6.64231">
        <ele>429</ele>
        <time>2020-07-26T09:33:40.000Z</time>
      </trkpt>
      <trkpt lat="47.67588" lon="6.64219">
        <ele>427.79998779297</ele>
        <time>2020-07-26T09:33:42.000Z</time>
      </trkpt>
      <trkpt lat="47.67588" lon="6.64215">
        <ele>427.60000610352</ele>
        <time>2020-07-26T09:33:43.000Z</time>
      </trkpt>
      <trkpt lat="47.67583" lon="6.64205">
        <ele>426.60000610352</ele>
        <time>2020-07-26T09:33:46.000Z</time>
      </trkpt>
      <trkpt lat="47.67582" lon="6.64204">
        <ele>426.60000610352</ele>
        <time>2020-07-26T09:33:47.000Z</time>
      </trkpt>
      <trkpt lat="47.67581" lon="6.64202">
        <ele>426.60000610352</ele>
        <time>2020-07-26T09:33:48.000Z</time>
      </trkpt>
      <trkpt lat="47.67582" lon="6.64196">
        <ele>427</ele>
        <time>2020-07-26T09:33:57.000Z</time>
      </trkpt>
      <trkpt lat="47.67582" lon="6.64196">
        <ele>427.20001220703</ele>
        <time>2020-07-26T09:34:10.000Z</time>
      </trkpt>
      <trkpt lat="47.67582" lon="6.64195">
        <ele>427.20001220703</ele>
        <time>2020-07-26T09:34:22.000Z</time>
      </trkpt>
      <trkpt lat="47.67582" lon="6.64194">
        <ele>427.20001220703</ele>
        <time>2020-07-26T09:34:35.000Z</time>
      </trkpt>
      <trkpt lat="47.67584" lon="6.64194">
        <ele>427.20001220703</ele>
        <time>2020-07-26T09:34:46.000Z</time>
      </trkpt>
      <trkpt lat="47.67583" lon="6.64194">
        <ele>427.39999389648</ele>
        <time>2020-07-26T09:35:00.000Z</time>
      </trkpt>
      <trkpt lat="47.67584" lon="6.64194">
        <ele>427.39999389648</ele>
        <time>2020-07-26T09:35:14.000Z</time>
      </trkpt>
      <trkpt lat="47.67583" lon="6.64195">
        <ele>427.60000610352</ele>
        <time>2020-07-26T09:35:29.000Z</time>
      </trkpt>
      <trkpt lat="47.67583" lon="6.64195">
        <ele>427.39999389648</ele>
        <time>2020-07-26T09:35:43.000Z</time>
      </trkpt>
      <trkpt lat="47.67583" lon="6.64195">
        <ele>427.39999389648</ele>
        <time>2020-07-26T09:35:56.000Z</time>
      </trkpt>
      <trkpt lat="47.67581" lon="6.64195">
        <ele>427.39999389648</ele>
        <time>2020-07-26T09:36:08.000Z</time>
      </trkpt>
      <trkpt lat="47.6758" lon="6.64194">
        <ele>427.39999389648</ele>
        <time>2020-07-26T09:36:17.000Z</time>
      </trkpt>
      <trkpt lat="47.6758" lon="6.64194">
        <ele>427.60000610352</ele>
        <time>2020-07-26T09:36:22.000Z</time>
      </trkpt>
      <trkpt lat="47.6758" lon="6.64194">
        <ele>427.60000610352</ele>
        <time>2020-07-26T09:36:36.000Z</time>
      </trkpt>
      <trkpt lat="47.67577" lon="6.64195">
        <ele>427.79998779297</ele>
        <time>2020-07-26T09:36:48.000Z</time>
      </trkpt>
      <trkpt lat="47.67574" lon="6.64194">
        <ele>427.79998779297</ele>
        <time>2020-07-26T09:36:50.000Z</time>
      </trkpt>
      <trkpt lat="47.67564" lon="6.64191">
        <ele>427.79998779297</ele>
        <time>2020-07-26T09:36:55.000Z</time>
      </trkpt>
      <trkpt lat="47.67544" lon="6.64179">
        <ele>428.20001220703</ele>
        <time>2020-07-26T09:37:02.000Z</time>
      </trkpt>
      <trkpt lat="47.67542" lon="6.64177">
        <ele>428.20001220703</ele>
        <time>2020-07-26T09:37:03.000Z</time>
      </trkpt>
      <trkpt lat="47.67532" lon="6.64173">
        <ele>428.39999389648</ele>
        <time>2020-07-26T09:37:07.000Z</time>
      </trkpt>
      <trkpt lat="47.67517" lon="6.64166">
        <ele>429.20001220703</ele>
        <time>2020-07-26T09:37:12.000Z</time>
      </trkpt>
      <trkpt lat="47.67512" lon="6.64164">
        <ele>429.39999389648</ele>
        <time>2020-07-26T09:37:13.000Z</time>
      </trkpt>
      <trkpt lat="47.67494" lon="6.64157">
        <ele>429.39999389648</ele>
        <time>2020-07-26T09:37:17.000Z</time>
      </trkpt>
      <trkpt lat="47.67475" lon="6.64147">
        <ele>429.39999389648</ele>
        <time>2020-07-26T09:37:22.000Z</time>
      </trkpt>
      <trkpt lat="47.67458" lon="6.6414">
        <ele>429.20001220703</ele>
        <time>2020-07-26T09:37:27.000Z</time>
      </trkpt>
      <trkpt lat="47.67431" lon="6.64128">
        <ele>428.39999389648</ele>
        <time>2020-07-26T09:37:32.000Z</time>
      </trkpt>
      <trkpt lat="47.67425" lon="6.64125">
        <ele>428.20001220703</ele>
        <time>2020-07-26T09:37:33.000Z</time>
      </trkpt>
      <trkpt lat="47.674" lon="6.64113">
        <ele>427</ele>
        <time>2020-07-26T09:37:37.000Z</time>
      </trkpt>
      <trkpt lat="47.6738" lon="6.64104">
        <ele>425.79998779297</ele>
        <time>2020-07-26T09:37:40.000Z</time>
      </trkpt>
      <trkpt lat="47.67358" lon="6.64093">
        <ele>424.20001220703</ele>
        <time>2020-07-26T09:37:43.000Z</time>
      </trkpt>
      <trkpt lat="47.6735" lon="6.64089">
        <ele>423.39999389648</ele>
        <time>2020-07-26T09:37:44.000Z</time>
      </trkpt>
      <trkpt lat="47.67342" lon="6.64085">
        <ele>422.39999389648</ele>
        <time>2020-07-26T09:37:45.000Z</time>
      </trkpt>
      <trkpt lat="47.67325" lon="6.64077">
        <ele>421.20001220703</ele>
        <time>2020-07-26T09:37:47.000Z</time>
      </trkpt>
      <trkpt lat="47.67308" lon="6.64068">
        <ele>420</ele>
        <time>2020-07-26T09:37:49.000Z</time>
      </trkpt>
      <trkpt lat="47.67282" lon="6.64056">
        <ele>418.60000610352</ele>
        <time>2020-07-26T09:37:52.000Z</time>
      </trkpt>
      <trkpt lat="47.67265" lon="6.64047">
        <ele>417.20001220703</ele>
        <time>2020-07-26T09:37:54.000Z</time>
      </trkpt>
      <trkpt lat="47.67256" lon="6.64043">
        <ele>416.39999389648</ele>
        <time>2020-07-26T09:37:55.000Z</time>
      </trkpt>
      <trkpt lat="47.67248" lon="6.64038">
        <ele>415.79998779297</ele>
        <time>2020-07-26T09:37:56.000Z</time>
      </trkpt>
      <trkpt lat="47.6724" lon="6.64033">
        <ele>414.79998779297</ele>
        <time>2020-07-26T09:37:57.000Z</time>
      </trkpt>
      <trkpt lat="47.67229" lon="6.64028">
        <ele>413</ele>
        <time>2020-07-26T09:37:59.000Z</time>
      </trkpt>
      <trkpt lat="47.67223" lon="6.64029">
        <ele>410.79998779297</ele>
        <time>2020-07-26T09:38:00.000Z</time>
      </trkpt>
      <trkpt lat="47.67217" lon="6.64029">
        <ele>409.39999389648</ele>
        <time>2020-07-26T09:38:01.000Z</time>
      </trkpt>
      <trkpt lat="47.67211" lon="6.64034">
        <ele>408.20001220703</ele>
        <time>2020-07-26T09:38:02.000Z</time>
      </trkpt>
      <trkpt lat="47.67207" lon="6.6404">
        <ele>407</ele>
        <time>2020-07-26T09:38:03.000Z</time>
      </trkpt>
      <trkpt lat="47.67201" lon="6.64056">
        <ele>405.20001220703</ele>
        <time>2020-07-26T09:38:05.000Z</time>
      </trkpt>
      <trkpt lat="47.672" lon="6.64066">
        <ele>404.39999389648</ele>
        <time>2020-07-26T09:38:06.000Z</time>
      </trkpt>
      <trkpt lat="47.67201" lon="6.64078">
        <ele>403.60000610352</ele>
        <time>2020-07-26T09:38:07.000Z</time>
      </trkpt>
      <trkpt lat="47.67201" lon="6.64095">
        <ele>402</ele>
        <time>2020-07-26T09:38:09.000Z</time>
      </trkpt>
      <trkpt lat="47.67202" lon="6.64103">
        <ele>401</ele>
        <time>2020-07-26T09:38:10.000Z</time>
      </trkpt>
      <trkpt lat="47.67202" lon="6.64111">
        <ele>400.39999389648</ele>
        <time>2020-07-26T09:38:11.000Z</time>
      </trkpt>
      <trkpt lat="47.67203" lon="6.64119">
        <ele>399.20001220703</ele>
        <time>2020-07-26T09:38:12.000Z</time>
      </trkpt>
      <trkpt lat="47.67204" lon="6.6414">
        <ele>398.20001220703</ele>
        <time>2020-07-26T09:38:15.000Z</time>
      </trkpt>
      <trkpt lat="47.67205" lon="6.64146">
        <ele>398</ele>
        <time>2020-07-26T09:38:16.000Z</time>
      </trkpt>
      <trkpt lat="47.67205" lon="6.6419">
        <ele>397.20001220703</ele>
        <time>2020-07-26T09:38:22.000Z</time>
      </trkpt>
      <trkpt lat="47.67204" lon="6.64205">
        <ele>397.20001220703</ele>
        <time>2020-07-26T09:38:24.000Z</time>
      </trkpt>
      <trkpt lat="47.67205" lon="6.64227">
        <ele>397</ele>
        <time>2020-07-26T09:38:27.000Z</time>
      </trkpt>
      <trkpt lat="47.67209" lon="6.64259">
        <ele>397</ele>
        <time>2020-07-26T09:38:32.000Z</time>
      </trkpt>
      <trkpt lat="47.67212" lon="6.64303">
        <ele>397</ele>
        <time>2020-07-26T09:38:39.000Z</time>
      </trkpt>
      <trkpt lat="47.67208" lon="6.64338">
        <ele>397.60000610352</ele>
        <time>2020-07-26T09:38:44.000Z</time>
      </trkpt>
      <trkpt lat="47.67206" lon="6.6437">
        <ele>397.60000610352</ele>
        <time>2020-07-26T09:38:48.000Z</time>
      </trkpt>
      <trkpt lat="47.67206" lon="6.64378">
        <ele>397.60000610352</ele>
        <time>2020-07-26T09:38:49.000Z</time>
      </trkpt>
      <trkpt lat="47.67202" lon="6.64416">
        <ele>397</ele>
        <time>2020-07-26T09:38:54.000Z</time>
      </trkpt>
      <trkpt lat="47.67199" lon="6.64449">
        <ele>396.79998779297</ele>
        <time>2020-07-26T09:38:59.000Z</time>
      </trkpt>
      <trkpt lat="47.67197" lon="6.64483">
        <ele>397</ele>
        <time>2020-07-26T09:39:04.000Z</time>
      </trkpt>
      <trkpt lat="47.67195" lon="6.64516">
        <ele>397.20001220703</ele>
        <time>2020-07-26T09:39:09.000Z</time>
      </trkpt>
      <trkpt lat="47.67196" lon="6.64543">
        <ele>397.79998779297</ele>
        <time>2020-07-26T09:39:14.000Z</time>
      </trkpt>
      <trkpt lat="47.67196" lon="6.64553">
        <ele>398</ele>
        <time>2020-07-26T09:39:16.000Z</time>
      </trkpt>
      <trkpt lat="47.67197" lon="6.64565">
        <ele>398.39999389648</ele>
        <time>2020-07-26T09:39:19.000Z</time>
      </trkpt>
      <trkpt lat="47.67197" lon="6.64587">
        <ele>398.79998779297</ele>
        <time>2020-07-26T09:39:25.000Z</time>
      </trkpt>
      <trkpt lat="47.67197" lon="6.64602">
        <ele>400</ele>
        <time>2020-07-26T09:39:29.000Z</time>
      </trkpt>
      <trkpt lat="47.67195" lon="6.64616">
        <ele>401.20001220703</ele>
        <time>2020-07-26T09:39:33.000Z</time>
      </trkpt>
      <trkpt lat="47.67196" lon="6.6463">
        <ele>402</ele>
        <time>2020-07-26T09:39:37.000Z</time>
      </trkpt>
      <trkpt lat="47.67196" lon="6.64633">
        <ele>402.20001220703</ele>
        <time>2020-07-26T09:39:38.000Z</time>
      </trkpt>
      <trkpt lat="47.67192" lon="6.64639">
        <ele>402.39999389648</ele>
        <time>2020-07-26T09:39:42.000Z</time>
      </trkpt>
      <trkpt lat="47.67189" lon="6.64634">
        <ele>402.39999389648</ele>
        <time>2020-07-26T09:39:46.000Z</time>
      </trkpt>
      <trkpt lat="47.67183" lon="6.64627">
        <ele>402</ele>
        <time>2020-07-26T09:39:49.000Z</time>
      </trkpt>
      <trkpt lat="47.67175" lon="6.6462">
        <ele>401.20001220703</ele>
        <time>2020-07-26T09:39:51.000Z</time>
      </trkpt>
      <trkpt lat="47.67168" lon="6.64615">
        <ele>399.20001220703</ele>
        <time>2020-07-26T09:39:53.000Z</time>
      </trkpt>
      <trkpt lat="47.67163" lon="6.64612">
        <ele>398.20001220703</ele>
        <time>2020-07-26T09:39:54.000Z</time>
      </trkpt>
      <trkpt lat="47.67159" lon="6.64607">
        <ele>395</ele>
        <time>2020-07-26T09:39:55.000Z</time>
      </trkpt>
      <trkpt lat="47.67154" lon="6.64601">
        <ele>393.39999389648</ele>
        <time>2020-07-26T09:39:56.000Z</time>
      </trkpt>
      <trkpt lat="47.6715" lon="6.64594">
        <ele>391.79998779297</ele>
        <time>2020-07-26T09:39:57.000Z</time>
      </trkpt>
      <trkpt lat="47.67147" lon="6.64588">
        <ele>390</ele>
        <time>2020-07-26T09:39:58.000Z</time>
      </trkpt>
      <trkpt lat="47.67145" lon="6.64581">
        <ele>388.60000610352</ele>
        <time>2020-07-26T09:39:59.000Z</time>
      </trkpt>
      <trkpt lat="47.67143" lon="6.64566">
        <ele>386.20001220703</ele>
        <time>2020-07-26T09:40:01.000Z</time>
      </trkpt>
      <trkpt lat="47.67141" lon="6.64557">
        <ele>385</ele>
        <time>2020-07-26T09:40:02.000Z</time>
      </trkpt>
      <trkpt lat="47.6714" lon="6.64547">
        <ele>383.79998779297</ele>
        <time>2020-07-26T09:40:03.000Z</time>
      </trkpt>
      <trkpt lat="47.6714" lon="6.64538">
        <ele>382.79998779297</ele>
        <time>2020-07-26T09:40:04.000Z</time>
      </trkpt>
      <trkpt lat="47.67139" lon="6.64527">
        <ele>382.20001220703</ele>
        <time>2020-07-26T09:40:05.000Z</time>
      </trkpt>
      <trkpt lat="47.67139" lon="6.64517">
        <ele>381.60000610352</ele>
        <time>2020-07-26T09:40:06.000Z</time>
      </trkpt>
      <trkpt lat="47.67138" lon="6.64505">
        <ele>380.60000610352</ele>
        <time>2020-07-26T09:40:07.000Z</time>
      </trkpt>
      <trkpt lat="47.67138" lon="6.64483">
        <ele>378.39999389648</ele>
        <time>2020-07-26T09:40:09.000Z</time>
      </trkpt>
      <trkpt lat="47.67138" lon="6.64472">
        <ele>377.20001220703</ele>
        <time>2020-07-26T09:40:10.000Z</time>
      </trkpt>
      <trkpt lat="47.67137" lon="6.64453">
        <ele>375.79998779297</ele>
        <time>2020-07-26T09:40:12.000Z</time>
      </trkpt>
      <trkpt lat="47.67133" lon="6.64437">
        <ele>373.60000610352</ele>
        <time>2020-07-26T09:40:14.000Z</time>
      </trkpt>
      <trkpt lat="47.67134" lon="6.64428">
        <ele>372.60000610352</ele>
        <time>2020-07-26T09:40:16.000Z</time>
      </trkpt>
      <trkpt lat="47.67134" lon="6.64424">
        <ele>372.60000610352</ele>
        <time>2020-07-26T09:40:17.000Z</time>
      </trkpt>
      <trkpt lat="47.67133" lon="6.64417">
        <ele>372.39999389648</ele>
        <time>2020-07-26T09:40:21.000Z</time>
      </trkpt>
      <trkpt lat="47.67131" lon="6.64406">
        <ele>373</ele>
        <time>2020-07-26T09:40:27.000Z</time>
      </trkpt>
      <trkpt lat="47.67127" lon="6.64394">
        <ele>373.20001220703</ele>
        <time>2020-07-26T09:40:38.000Z</time>
      </trkpt>
      <trkpt lat="47.67127" lon="6.64393">
        <ele>373.20001220703</ele>
        <time>2020-07-26T09:40:39.000Z</time>
      </trkpt>
      <trkpt lat="47.67127" lon="6.64398">
        <ele>373.20001220703</ele>
        <time>2020-07-26T09:40:49.000Z</time>
      </trkpt>
      <trkpt lat="47.6713" lon="6.64406">
        <ele>373.20001220703</ele>
        <time>2020-07-26T09:41:02.000Z</time>
      </trkpt>
      <trkpt lat="47.67131" lon="6.64413">
        <ele>373.39999389648</ele>
        <time>2020-07-26T09:41:07.000Z</time>
      </trkpt>
      <trkpt lat="47.67132" lon="6.64425">
        <ele>373.39999389648</ele>
        <time>2020-07-26T09:41:11.000Z</time>
      </trkpt>
      <trkpt lat="47.6713" lon="6.64447">
        <ele>373.39999389648</ele>
        <time>2020-07-26T09:41:16.000Z</time>
      </trkpt>
      <trkpt lat="47.6713" lon="6.64475">
        <ele>372.79998779297</ele>
        <time>2020-07-26T09:41:23.000Z</time>
      </trkpt>
      <trkpt lat="47.67123" lon="6.64493">
        <ele>372.79998779297</ele>
        <time>2020-07-26T09:41:29.000Z</time>
      </trkpt>
      <trkpt lat="47.67113" lon="6.64501">
        <ele>372.79998779297</ele>
        <time>2020-07-26T09:41:35.000Z</time>
      </trkpt>
      <trkpt lat="47.67109" lon="6.64503">
        <ele>372.79998779297</ele>
        <time>2020-07-26T09:41:39.000Z</time>
      </trkpt>
      <trkpt lat="47.67108" lon="6.64503">
        <ele>372.60000610352</ele>
        <time>2020-07-26T09:41:40.000Z</time>
      </trkpt>
      <trkpt lat="47.67102" lon="6.64499">
        <ele>372.60000610352</ele>
        <time>2020-07-26T09:41:44.000Z</time>
      </trkpt>
      <trkpt lat="47.67096" lon="6.64498">
        <ele>372.60000610352</ele>
        <time>2020-07-26T09:41:48.000Z</time>
      </trkpt>
      <trkpt lat="47.67093" lon="6.64496">
        <ele>373.60000610352</ele>
        <time>2020-07-26T09:41:50.000Z</time>
      </trkpt>
      <trkpt lat="47.6709" lon="6.64495">
        <ele>374.79998779297</ele>
        <time>2020-07-26T09:41:52.000Z</time>
      </trkpt>
      <trkpt lat="47.67088" lon="6.64492">
        <ele>376</ele>
        <time>2020-07-26T09:41:54.000Z</time>
      </trkpt>
      <trkpt lat="47.67086" lon="6.64487">
        <ele>377</ele>
        <time>2020-07-26T09:41:57.000Z</time>
      </trkpt>
      <trkpt lat="47.67083" lon="6.64481">
        <ele>378.20001220703</ele>
        <time>2020-07-26T09:42:00.000Z</time>
      </trkpt>
      <trkpt lat="47.67081" lon="6.64476">
        <ele>379.20001220703</ele>
        <time>2020-07-26T09:42:03.000Z</time>
      </trkpt>
      <trkpt lat="47.67077" lon="6.64466">
        <ele>380.39999389648</ele>
        <time>2020-07-26T09:42:08.000Z</time>
      </trkpt>
      <trkpt lat="47.67076" lon="6.64463">
        <ele>381</ele>
        <time>2020-07-26T09:42:10.000Z</time>
      </trkpt>
      <trkpt lat="47.67074" lon="6.64457">
        <ele>381.39999389648</ele>
        <time>2020-07-26T09:42:16.000Z</time>
      </trkpt>
      <trkpt lat="47.6707" lon="6.64441">
        <ele>381.60000610352</ele>
        <time>2020-07-26T09:42:21.000Z</time>
      </trkpt>
      <trkpt lat="47.67066" lon="6.64415">
        <ele>381.60000610352</ele>
        <time>2020-07-26T09:42:26.000Z</time>
      </trkpt>
      <trkpt lat="47.67064" lon="6.64382">
        <ele>380.79998779297</ele>
        <time>2020-07-26T09:42:32.000Z</time>
      </trkpt>
      <trkpt lat="47.67063" lon="6.64372">
        <ele>380.20001220703</ele>
        <time>2020-07-26T09:42:34.000Z</time>
      </trkpt>
      <trkpt lat="47.67062" lon="6.64351">
        <ele>379.60000610352</ele>
        <time>2020-07-26T09:42:37.000Z</time>
      </trkpt>
      <trkpt lat="47.67061" lon="6.64327">
        <ele>379.20001220703</ele>
        <time>2020-07-26T09:42:41.000Z</time>
      </trkpt>
      <trkpt lat="47.67059" lon="6.6431">
        <ele>378.60000610352</ele>
        <time>2020-07-26T09:42:44.000Z</time>
      </trkpt>
      <trkpt lat="47.67058" lon="6.64295">
        <ele>377.79998779297</ele>
        <time>2020-07-26T09:42:47.000Z</time>
      </trkpt>
      <trkpt lat="47.67053" lon="6.64266">
        <ele>377.60000610352</ele>
        <time>2020-07-26T09:42:52.000Z</time>
      </trkpt>
      <trkpt lat="47.67043" lon="6.64217">
        <ele>377</ele>
        <time>2020-07-26T09:42:59.000Z</time>
      </trkpt>
      <trkpt lat="47.67031" lon="6.64188">
        <ele>376.60000610352</ele>
        <time>2020-07-26T09:43:02.000Z</time>
      </trkpt>
      <trkpt lat="47.67026" lon="6.64178">
        <ele>376.39999389648</ele>
        <time>2020-07-26T09:43:03.000Z</time>
      </trkpt>
      <trkpt lat="47.67023" lon="6.64169">
        <ele>376.39999389648</ele>
        <time>2020-07-26T09:43:04.000Z</time>
      </trkpt>
      <trkpt lat="47.67017" lon="6.6414">
        <ele>375.79998779297</ele>
        <time>2020-07-26T09:43:08.000Z</time>
      </trkpt>
      <trkpt lat="47.67016" lon="6.64134">
        <ele>375.60000610352</ele>
        <time>2020-07-26T09:43:09.000Z</time>
      </trkpt>
      <trkpt lat="47.67012" lon="6.64104">
        <ele>375.20001220703</ele>
        <time>2020-07-26T09:43:14.000Z</time>
      </trkpt>
      <trkpt lat="47.67001" lon="6.64065">
        <ele>374.60000610352</ele>
        <time>2020-07-26T09:43:18.000Z</time>
      </trkpt>
      <trkpt lat="47.67001" lon="6.64057">
        <ele>374.39999389648</ele>
        <time>2020-07-26T09:43:19.000Z</time>
      </trkpt>
      <trkpt lat="47.6699" lon="6.64005">
        <ele>374</ele>
        <time>2020-07-26T09:43:24.000Z</time>
      </trkpt>
      <trkpt lat="47.66981" lon="6.63946">
        <ele>373.39999389648</ele>
        <time>2020-07-26T09:43:30.000Z</time>
      </trkpt>
      <trkpt lat="47.6698" lon="6.63937">
        <ele>373.20001220703</ele>
        <time>2020-07-26T09:43:31.000Z</time>
      </trkpt>
      <trkpt lat="47.66979" lon="6.6392">
        <ele>373</ele>
        <time>2020-07-26T09:43:33.000Z</time>
      </trkpt>
      <trkpt lat="47.66977" lon="6.63893">
        <ele>372.60000610352</ele>
        <time>2020-07-26T09:43:36.000Z</time>
      </trkpt>
      <trkpt lat="47.66975" lon="6.63882">
        <ele>372.39999389648</ele>
        <time>2020-07-26T09:43:37.000Z</time>
      </trkpt>
      <trkpt lat="47.66973" lon="6.63864">
        <ele>372.20001220703</ele>
        <time>2020-07-26T09:43:39.000Z</time>
      </trkpt>
      <trkpt lat="47.6697" lon="6.63846">
        <ele>372</ele>
        <time>2020-07-26T09:43:41.000Z</time>
      </trkpt>
      <trkpt lat="47.66968" lon="6.63808">
        <ele>371.60000610352</ele>
        <time>2020-07-26T09:43:46.000Z</time>
      </trkpt>
      <trkpt lat="47.66969" lon="6.63802">
        <ele>371.39999389648</ele>
        <time>2020-07-26T09:43:47.000Z</time>
      </trkpt>
      <trkpt lat="47.66969" lon="6.63786">
        <ele>371</ele>
        <time>2020-07-26T09:43:49.000Z</time>
      </trkpt>
      <trkpt lat="47.66973" lon="6.63763">
        <ele>369.79998779297</ele>
        <time>2020-07-26T09:43:52.000Z</time>
      </trkpt>
      <trkpt lat="47.66971" lon="6.63734">
        <ele>369</ele>
        <time>2020-07-26T09:43:56.000Z</time>
      </trkpt>
      <trkpt lat="47.6697" lon="6.63721">
        <ele>368.60000610352</ele>
        <time>2020-07-26T09:43:58.000Z</time>
      </trkpt>
      <trkpt lat="47.66958" lon="6.63691">
        <ele>367.39999389648</ele>
        <time>2020-07-26T09:44:01.000Z</time>
      </trkpt>
      <trkpt lat="47.66942" lon="6.6365">
        <ele>366.39999389648</ele>
        <time>2020-07-26T09:44:05.000Z</time>
      </trkpt>
      <trkpt lat="47.66939" lon="6.63641">
        <ele>366.20001220703</ele>
        <time>2020-07-26T09:44:06.000Z</time>
      </trkpt>
      <trkpt lat="47.66926" lon="6.63602">
        <ele>365.20001220703</ele>
        <time>2020-07-26T09:44:10.000Z</time>
      </trkpt>
      <trkpt lat="47.66919" lon="6.63583">
        <ele>364.60000610352</ele>
        <time>2020-07-26T09:44:12.000Z</time>
      </trkpt>
      <trkpt lat="47.66916" lon="6.63573">
        <ele>364.20001220703</ele>
        <time>2020-07-26T09:44:13.000Z</time>
      </trkpt>
      <trkpt lat="47.66902" lon="6.63525">
        <ele>363.20001220703</ele>
        <time>2020-07-26T09:44:18.000Z</time>
      </trkpt>
      <trkpt lat="47.66897" lon="6.63508">
        <ele>362.60000610352</ele>
        <time>2020-07-26T09:44:20.000Z</time>
      </trkpt>
      <trkpt lat="47.66893" lon="6.63491">
        <ele>362</ele>
        <time>2020-07-26T09:44:22.000Z</time>
      </trkpt>
      <trkpt lat="47.66891" lon="6.63483">
        <ele>361.60000610352</ele>
        <time>2020-07-26T09:44:23.000Z</time>
      </trkpt>
      <trkpt lat="47.6689" lon="6.63474">
        <ele>361.39999389648</ele>
        <time>2020-07-26T09:44:24.000Z</time>
      </trkpt>
      <trkpt lat="47.66884" lon="6.63431">
        <ele>360.60000610352</ele>
        <time>2020-07-26T09:44:28.000Z</time>
      </trkpt>
      <trkpt lat="47.66882" lon="6.63421">
        <ele>360.39999389648</ele>
        <time>2020-07-26T09:44:29.000Z</time>
      </trkpt>
      <trkpt lat="47.66875" lon="6.63356">
        <ele>359.39999389648</ele>
        <time>2020-07-26T09:44:35.000Z</time>
      </trkpt>
      <trkpt lat="47.66873" lon="6.63348">
        <ele>359</ele>
        <time>2020-07-26T09:44:36.000Z</time>
      </trkpt>
      <trkpt lat="47.66866" lon="6.63311">
        <ele>358.60000610352</ele>
        <time>2020-07-26T09:44:40.000Z</time>
      </trkpt>
      <trkpt lat="47.66862" lon="6.6329">
        <ele>358</ele>
        <time>2020-07-26T09:44:42.000Z</time>
      </trkpt>
      <trkpt lat="47.66857" lon="6.63268">
        <ele>357.60000610352</ele>
        <time>2020-07-26T09:44:44.000Z</time>
      </trkpt>
      <trkpt lat="47.66856" lon="6.63258">
        <ele>357.60000610352</ele>
        <time>2020-07-26T09:44:45.000Z</time>
      </trkpt>
      <trkpt lat="47.66853" lon="6.63227">
        <ele>357</ele>
        <time>2020-07-26T09:44:48.000Z</time>
      </trkpt>
      <trkpt lat="47.66848" lon="6.63191">
        <ele>356.39999389648</ele>
        <time>2020-07-26T09:44:52.000Z</time>
      </trkpt>
      <trkpt lat="47.66842" lon="6.63166">
        <ele>355.79998779297</ele>
        <time>2020-07-26T09:44:55.000Z</time>
      </trkpt>
      <trkpt lat="47.66835" lon="6.63147">
        <ele>355.60000610352</ele>
        <time>2020-07-26T09:44:57.000Z</time>
      </trkpt>
      <trkpt lat="47.66811" lon="6.63102">
        <ele>354.79998779297</ele>
        <time>2020-07-26T09:45:02.000Z</time>
      </trkpt>
      <trkpt lat="47.66788" lon="6.63071">
        <ele>354</ele>
        <time>2020-07-26T09:45:07.000Z</time>
      </trkpt>
      <trkpt lat="47.66783" lon="6.63066">
        <ele>353.60000610352</ele>
        <time>2020-07-26T09:45:08.000Z</time>
      </trkpt>
      <trkpt lat="47.66763" lon="6.63045">
        <ele>352.60000610352</ele>
        <time>2020-07-26T09:45:12.000Z</time>
      </trkpt>
      <trkpt lat="47.66733" lon="6.63012">
        <ele>351.39999389648</ele>
        <time>2020-07-26T09:45:18.000Z</time>
      </trkpt>
      <trkpt lat="47.6672" lon="6.62995">
        <ele>350.79998779297</ele>
        <time>2020-07-26T09:45:20.000Z</time>
      </trkpt>
      <trkpt lat="47.6671" lon="6.62975">
        <ele>350.39999389648</ele>
        <time>2020-07-26T09:45:22.000Z</time>
      </trkpt>
      <trkpt lat="47.66704" lon="6.62965">
        <ele>349.79998779297</ele>
        <time>2020-07-26T09:45:23.000Z</time>
      </trkpt>
      <trkpt lat="47.66678" lon="6.62918">
        <ele>348.79998779297</ele>
        <time>2020-07-26T09:45:28.000Z</time>
      </trkpt>
      <trkpt lat="47.66669" lon="6.62899">
        <ele>348.60000610352</ele>
        <time>2020-07-26T09:45:30.000Z</time>
      </trkpt>
      <trkpt lat="47.66657" lon="6.62873">
        <ele>347.60000610352</ele>
        <time>2020-07-26T09:45:33.000Z</time>
      </trkpt>
      <trkpt lat="47.66643" lon="6.62837">
        <ele>346.20001220703</ele>
        <time>2020-07-26T09:45:37.000Z</time>
      </trkpt>
      <trkpt lat="47.66636" lon="6.62814">
        <ele>345.79998779297</ele>
        <time>2020-07-26T09:45:39.000Z</time>
      </trkpt>
      <trkpt lat="47.66627" lon="6.62779">
        <ele>344.60000610352</ele>
        <time>2020-07-26T09:45:42.000Z</time>
      </trkpt>
      <trkpt lat="47.66621" lon="6.62756">
        <ele>343.60000610352</ele>
        <time>2020-07-26T09:45:44.000Z</time>
      </trkpt>
      <trkpt lat="47.66619" lon="6.62746">
        <ele>343.20001220703</ele>
        <time>2020-07-26T09:45:45.000Z</time>
      </trkpt>
      <trkpt lat="47.66614" lon="6.62717">
        <ele>342.20001220703</ele>
        <time>2020-07-26T09:45:48.000Z</time>
      </trkpt>
      <trkpt lat="47.6661" lon="6.62698">
        <ele>341.79998779297</ele>
        <time>2020-07-26T09:45:50.000Z</time>
      </trkpt>
      <trkpt lat="47.66603" lon="6.62661">
        <ele>341.20001220703</ele>
        <time>2020-07-26T09:45:54.000Z</time>
      </trkpt>
      <trkpt lat="47.66601" lon="6.62653">
        <ele>341</ele>
        <time>2020-07-26T09:45:55.000Z</time>
      </trkpt>
      <trkpt lat="47.66597" lon="6.62629">
        <ele>340.79998779297</ele>
        <time>2020-07-26T09:45:58.000Z</time>
      </trkpt>
      <trkpt lat="47.66591" lon="6.62611">
        <ele>340.79998779297</ele>
        <time>2020-07-26T09:46:00.000Z</time>
      </trkpt>
      <trkpt lat="47.66576" lon="6.62562">
        <ele>340.60000610352</ele>
        <time>2020-07-26T09:46:05.000Z</time>
      </trkpt>
      <trkpt lat="47.66559" lon="6.62516">
        <ele>340.20001220703</ele>
        <time>2020-07-26T09:46:10.000Z</time>
      </trkpt>
      <trkpt lat="47.66558" lon="6.62509">
        <ele>340</ele>
        <time>2020-07-26T09:46:11.000Z</time>
      </trkpt>
      <trkpt lat="47.66551" lon="6.62478">
        <ele>339</ele>
        <time>2020-07-26T09:46:15.000Z</time>
      </trkpt>
      <trkpt lat="47.66547" lon="6.62469">
        <ele>338.79998779297</ele>
        <time>2020-07-26T09:46:16.000Z</time>
      </trkpt>
      <trkpt lat="47.66541" lon="6.62452">
        <ele>338.60000610352</ele>
        <time>2020-07-26T09:46:18.000Z</time>
      </trkpt>
      <trkpt lat="47.66537" lon="6.62445">
        <ele>338.39999389648</ele>
        <time>2020-07-26T09:46:19.000Z</time>
      </trkpt>
      <trkpt lat="47.66533" lon="6.62438">
        <ele>338</ele>
        <time>2020-07-26T09:46:20.000Z</time>
      </trkpt>
      <trkpt lat="47.66523" lon="6.62424">
        <ele>336.39999389648</ele>
        <time>2020-07-26T09:46:22.000Z</time>
      </trkpt>
      <trkpt lat="47.66515" lon="6.62412">
        <ele>334.60000610352</ele>
        <time>2020-07-26T09:46:24.000Z</time>
      </trkpt>
      <trkpt lat="47.66508" lon="6.62402">
        <ele>333.20001220703</ele>
        <time>2020-07-26T09:46:26.000Z</time>
      </trkpt>
      <trkpt lat="47.66505" lon="6.62401">
        <ele>332.60000610352</ele>
        <time>2020-07-26T09:46:27.000Z</time>
      </trkpt>
      <trkpt lat="47.66502" lon="6.624">
        <ele>332.20001220703</ele>
        <time>2020-07-26T09:46:28.000Z</time>
      </trkpt>
      <trkpt lat="47.66488" lon="6.62394">
        <ele>331.20001220703</ele>
        <time>2020-07-26T09:46:33.000Z</time>
      </trkpt>
      <trkpt lat="47.66479" lon="6.62399">
        <ele>331.20001220703</ele>
        <time>2020-07-26T09:46:37.000Z</time>
      </trkpt>
      <trkpt lat="47.66473" lon="6.62404">
        <ele>331.60000610352</ele>
        <time>2020-07-26T09:46:39.000Z</time>
      </trkpt>
      <trkpt lat="47.66469" lon="6.62407">
        <ele>332.20001220703</ele>
        <time>2020-07-26T09:46:41.000Z</time>
      </trkpt>
      <trkpt lat="47.66464" lon="6.62413">
        <ele>332.79998779297</ele>
        <time>2020-07-26T09:46:44.000Z</time>
      </trkpt>
      <trkpt lat="47.66462" lon="6.62414">
        <ele>333.20001220703</ele>
        <time>2020-07-26T09:46:46.000Z</time>
      </trkpt>
      <trkpt lat="47.66462" lon="6.62415">
        <ele>333.39999389648</ele>
        <time>2020-07-26T09:46:47.000Z</time>
      </trkpt>
      <trkpt lat="47.66461" lon="6.62416">
        <ele>334.60000610352</ele>
        <time>2020-07-26T09:46:50.000Z</time>
      </trkpt>
      <trkpt lat="47.66459" lon="6.62416">
        <ele>335.60000610352</ele>
        <time>2020-07-26T09:46:54.000Z</time>
      </trkpt>
      <trkpt lat="47.66458" lon="6.62415">
        <ele>335.60000610352</ele>
        <time>2020-07-26T09:46:56.000Z</time>
      </trkpt>
      <trkpt lat="47.66458" lon="6.62417">
        <ele>335.60000610352</ele>
        <time>2020-07-26T09:47:07.000Z</time>
      </trkpt>
      <trkpt lat="47.66459" lon="6.62419">
        <ele>335.79998779297</ele>
        <time>2020-07-26T09:47:22.000Z</time>
      </trkpt>
      <trkpt lat="47.66459" lon="6.62419">
        <ele>335.79998779297</ele>
        <time>2020-07-26T09:47:41.000Z</time>
      </trkpt>
      <trkpt lat="47.66459" lon="6.62421">
        <ele>335.60000610352</ele>
        <time>2020-07-26T09:47:56.000Z</time>
      </trkpt>
      <trkpt lat="47.66458" lon="6.6242">
        <ele>335.20001220703</ele>
        <time>2020-07-26T09:48:10.000Z</time>
      </trkpt>
      <trkpt lat="47.66457" lon="6.62419">
        <ele>335</ele>
        <time>2020-07-26T09:48:27.000Z</time>
      </trkpt>
      <trkpt lat="47.66452" lon="6.62413">
        <ele>334.79998779297</ele>
        <time>2020-07-26T09:48:40.000Z</time>
      </trkpt>
      <trkpt lat="47.66451" lon="6.62413">
        <ele>334.79998779297</ele>
        <time>2020-07-26T09:48:45.000Z</time>
      </trkpt>
      <trkpt lat="47.66453" lon="6.62416">
        <ele>334.79998779297</ele>
        <time>2020-07-26T09:48:57.000Z</time>
      </trkpt>
      <trkpt lat="47.66452" lon="6.6241">
        <ele>334.79998779297</ele>
        <time>2020-07-26T09:49:12.000Z</time>
      </trkpt>
      <trkpt lat="47.66452" lon="6.6241">
        <ele>335</ele>
        <time>2020-07-26T09:49:25.000Z</time>
      </trkpt>
      <trkpt lat="47.6645" lon="6.62417">
        <ele>335.39999389648</ele>
        <time>2020-07-26T09:49:37.000Z</time>
      </trkpt>
      <trkpt lat="47.66449" lon="6.62419">
        <ele>335.39999389648</ele>
        <time>2020-07-26T09:49:38.000Z</time>
      </trkpt>
      <trkpt lat="47.66441" lon="6.62419">
        <ele>335.20001220703</ele>
        <time>2020-07-26T09:49:44.000Z</time>
      </trkpt>
      <trkpt lat="47.6643" lon="6.62403">
        <ele>335</ele>
        <time>2020-07-26T09:49:48.000Z</time>
      </trkpt>
      <trkpt lat="47.66424" lon="6.62392">
        <ele>334.20001220703</ele>
        <time>2020-07-26T09:49:50.000Z</time>
      </trkpt>
      <trkpt lat="47.66421" lon="6.62384">
        <ele>333.60000610352</ele>
        <time>2020-07-26T09:49:51.000Z</time>
      </trkpt>
      <trkpt lat="47.66419" lon="6.62377">
        <ele>333</ele>
        <time>2020-07-26T09:49:52.000Z</time>
      </trkpt>
      <trkpt lat="47.66419" lon="6.62369">
        <ele>332.20001220703</ele>
        <time>2020-07-26T09:49:53.000Z</time>
      </trkpt>
      <trkpt lat="47.66422" lon="6.62353">
        <ele>330.79998779297</ele>
        <time>2020-07-26T09:49:55.000Z</time>
      </trkpt>
      <trkpt lat="47.66429" lon="6.62339">
        <ele>329.39999389648</ele>
        <time>2020-07-26T09:49:57.000Z</time>
      </trkpt>
      <trkpt lat="47.66435" lon="6.62334">
        <ele>329</ele>
        <time>2020-07-26T09:49:58.000Z</time>
      </trkpt>
      <trkpt lat="47.66448" lon="6.62327">
        <ele>328</ele>
        <time>2020-07-26T09:50:00.000Z</time>
      </trkpt>
      <trkpt lat="47.66454" lon="6.62322">
        <ele>327.39999389648</ele>
        <time>2020-07-26T09:50:01.000Z</time>
      </trkpt>
      <trkpt lat="47.66458" lon="6.62316">
        <ele>326.79998779297</ele>
        <time>2020-07-26T09:50:02.000Z</time>
      </trkpt>
      <trkpt lat="47.66461" lon="6.623">
        <ele>325</ele>
        <time>2020-07-26T09:50:04.000Z</time>
      </trkpt>
      <trkpt lat="47.66452" lon="6.62288">
        <ele>323.39999389648</ele>
        <time>2020-07-26T09:50:06.000Z</time>
      </trkpt>
      <trkpt lat="47.66441" lon="6.62278">
        <ele>322.20001220703</ele>
        <time>2020-07-26T09:50:08.000Z</time>
      </trkpt>
      <trkpt lat="47.66429" lon="6.62262">
        <ele>321.20001220703</ele>
        <time>2020-07-26T09:50:10.000Z</time>
      </trkpt>
      <trkpt lat="47.66423" lon="6.62252">
        <ele>320.79998779297</ele>
        <time>2020-07-26T09:50:11.000Z</time>
      </trkpt>
      <trkpt lat="47.66412" lon="6.62228">
        <ele>320</ele>
        <time>2020-07-26T09:50:13.000Z</time>
      </trkpt>
      <trkpt lat="47.66407" lon="6.62215">
        <ele>319</ele>
        <time>2020-07-26T09:50:14.000Z</time>
      </trkpt>
      <trkpt lat="47.66403" lon="6.62202">
        <ele>318</ele>
        <time>2020-07-26T09:50:15.000Z</time>
      </trkpt>
      <trkpt lat="47.66401" lon="6.62176">
        <ele>316.39999389648</ele>
        <time>2020-07-26T09:50:17.000Z</time>
      </trkpt>
      <trkpt lat="47.66407" lon="6.62153">
        <ele>314.39999389648</ele>
        <time>2020-07-26T09:50:19.000Z</time>
      </trkpt>
      <trkpt lat="47.66412" lon="6.62142">
        <ele>313.20001220703</ele>
        <time>2020-07-26T09:50:20.000Z</time>
      </trkpt>
      <trkpt lat="47.66416" lon="6.62133">
        <ele>311.79998779297</ele>
        <time>2020-07-26T09:50:21.000Z</time>
      </trkpt>
      <trkpt lat="47.6642" lon="6.62127">
        <ele>310.39999389648</ele>
        <time>2020-07-26T09:50:22.000Z</time>
      </trkpt>
      <trkpt lat="47.66424" lon="6.62123">
        <ele>309</ele>
        <time>2020-07-26T09:50:23.000Z</time>
      </trkpt>
      <trkpt lat="47.66425" lon="6.6212">
        <ele>307.79998779297</ele>
        <time>2020-07-26T09:50:24.000Z</time>
      </trkpt>
      <trkpt lat="47.66427" lon="6.62115">
        <ele>305.79998779297</ele>
        <time>2020-07-26T09:50:26.000Z</time>
      </trkpt>
      <trkpt lat="47.66424" lon="6.62104">
        <ele>305.39999389648</ele>
        <time>2020-07-26T09:50:29.000Z</time>
      </trkpt>
      <trkpt lat="47.66418" lon="6.62095">
        <ele>305.20001220703</ele>
        <time>2020-07-26T09:50:31.000Z</time>
      </trkpt>
      <trkpt lat="47.66415" lon="6.6209">
        <ele>305</ele>
        <time>2020-07-26T09:50:32.000Z</time>
      </trkpt>
      <trkpt lat="47.6641" lon="6.62078">
        <ele>304.79998779297</ele>
        <time>2020-07-26T09:50:34.000Z</time>
      </trkpt>
      <trkpt lat="47.66393" lon="6.62035">
        <ele>304.39999389648</ele>
        <time>2020-07-26T09:50:40.000Z</time>
      </trkpt>
      <trkpt lat="47.66379" lon="6.62007">
        <ele>303.79998779297</ele>
        <time>2020-07-26T09:50:45.000Z</time>
      </trkpt>
      <trkpt lat="47.66376" lon="6.62003">
        <ele>303.60000610352</ele>
        <time>2020-07-26T09:50:46.000Z</time>
      </trkpt>
      <trkpt lat="47.66367" lon="6.61998">
        <ele>303.39999389648</ele>
        <time>2020-07-26T09:50:50.000Z</time>
      </trkpt>
      <trkpt lat="47.66365" lon="6.61998">
        <ele>303.39999389648</ele>
        <time>2020-07-26T09:50:51.000Z</time>
      </trkpt>
      <trkpt lat="47.66367" lon="6.62004">
        <ele>303.39999389648</ele>
        <time>2020-07-26T09:50:54.000Z</time>
      </trkpt>
      <trkpt lat="47.66375" lon="6.62007">
        <ele>304</ele>
        <time>2020-07-26T09:50:57.000Z</time>
      </trkpt>
      <trkpt lat="47.66378" lon="6.62008">
        <ele>304</ele>
        <time>2020-07-26T09:50:58.000Z</time>
      </trkpt>
      <trkpt lat="47.66381" lon="6.62009">
        <ele>304.20001220703</ele>
        <time>2020-07-26T09:50:59.000Z</time>
      </trkpt>
      <trkpt lat="47.66385" lon="6.62002">
        <ele>304.20001220703</ele>
        <time>2020-07-26T09:51:01.000Z</time>
      </trkpt>
      <trkpt lat="47.66391" lon="6.6199">
        <ele>304.20001220703</ele>
        <time>2020-07-26T09:51:03.000Z</time>
      </trkpt>
      <trkpt lat="47.66396" lon="6.61977">
        <ele>304</ele>
        <time>2020-07-26T09:51:05.000Z</time>
      </trkpt>
      <trkpt lat="47.664" lon="6.61962">
        <ele>304</ele>
        <time>2020-07-26T09:51:07.000Z</time>
      </trkpt>
      <trkpt lat="47.6641" lon="6.61918">
        <ele>303</ele>
        <time>2020-07-26T09:51:13.000Z</time>
      </trkpt>
      <trkpt lat="47.6641" lon="6.6191">
        <ele>303</ele>
        <time>2020-07-26T09:51:14.000Z</time>
      </trkpt>
      <trkpt lat="47.66409" lon="6.61877">
        <ele>302.79998779297</ele>
        <time>2020-07-26T09:51:18.000Z</time>
      </trkpt>
    </trkseg>
  </trk>
  <trk>
    <name><![CDATA[mega parcours rouge_6]]></name>
    <trkseg>
      <trkpt lat="47.63464" lon="6.65227">
        <ele>338.4</ele>
      </trkpt>
      <trkpt lat="47.63464" lon="6.65227">
        <ele>338.4</ele>
      </trkpt>
      <trkpt lat="47.63281" lon="6.65074">
        <ele>343.4</ele>
      </trkpt>
      <trkpt lat="47.63281" lon="6.65074">
        <ele>343.4</ele>
      </trkpt>
      <trkpt lat="47.63159" lon="6.65046">
        <ele>358.7</ele>
      </trkpt>
      <trkpt lat="47.63159" lon="6.65046">
        <ele>358.7</ele>
      </trkpt>
      <trkpt lat="47.63159" lon="6.65018">
        <ele>356.3</ele>
      </trkpt>
      <trkpt lat="47.63159" lon="6.65018">
        <ele>356.3</ele>
      </trkpt>
      <trkpt lat="47.6298" lon="6.65023">
        <ele>359.3</ele>
      </trkpt>
      <trkpt lat="47.6298" lon="6.65023">
        <ele>359.3</ele>
      </trkpt>
      <trkpt lat="47.62968" lon="6.64893">
        <ele>354.1</ele>
      </trkpt>
      <trkpt lat="47.62968" lon="6.64893">
        <ele>354.1</ele>
      </trkpt>
      <trkpt lat="47.62903" lon="6.64938">
        <ele>355.8</ele>
      </trkpt>
      <trkpt lat="47.62903" lon="6.64938">
        <ele>355.8</ele>
      </trkpt>
      <trkpt lat="47.628" lon="6.64893">
        <ele>361.9</ele>
      </trkpt>
      <trkpt lat="47.628" lon="6.64893">
        <ele>361.9</ele>
      </trkpt>
      <trkpt lat="47.62781" lon="6.64825">
        <ele>362.1</ele>
      </trkpt>
      <trkpt lat="47.62781" lon="6.64825">
        <ele>362.1</ele>
      </trkpt>
      <trkpt lat="47.62602" lon="6.64921">
        <ele>367.8</ele>
      </trkpt>
      <trkpt lat="47.62602" lon="6.64921">
        <ele>367.8</ele>
      </trkpt>
      <trkpt lat="47.62442" lon="6.64661">
        <ele>348.6</ele>
      </trkpt>
      <trkpt lat="47.62442" lon="6.64661">
        <ele>348.6</ele>
      </trkpt>
      <trkpt lat="47.62495" lon="6.64621">
        <ele>357.4</ele>
      </trkpt>
      <trkpt lat="47.62495" lon="6.64621">
        <ele>357.4</ele>
      </trkpt>
      <trkpt lat="47.62575" lon="6.64616">
        <ele>361.4</ele>
      </trkpt>
      <trkpt lat="47.62575" lon="6.64616">
        <ele>361.4</ele>
      </trkpt>
      <trkpt lat="47.62609" lon="6.6457">
        <ele>363.4</ele>
      </trkpt>
      <trkpt lat="47.62609" lon="6.6457">
        <ele>363.4</ele>
      </trkpt>
      <trkpt lat="47.62651" lon="6.64366">
        <ele>381.2</ele>
      </trkpt>
      <trkpt lat="47.62651" lon="6.64366">
        <ele>381.2</ele>
      </trkpt>
      <trkpt lat="47.6272" lon="6.64281">
        <ele>384.9</ele>
      </trkpt>
      <trkpt lat="47.6272" lon="6.64281">
        <ele>384.9</ele>
      </trkpt>
      <trkpt lat="47.62732" lon="6.63511">
        <ele>457.9</ele>
      </trkpt>
      <trkpt lat="47.62732" lon="6.63511">
        <ele>457.9</ele>
      </trkpt>
      <trkpt lat="47.6267" lon="6.63064">
        <ele>459.8</ele>
      </trkpt>
      <trkpt lat="47.6267" lon="6.63064">
        <ele>459.8</ele>
      </trkpt>
      <trkpt lat="47.62617" lon="6.62753">
        <ele>447.9</ele>
      </trkpt>
      <trkpt lat="47.62617" lon="6.62753">
        <ele>447.9</ele>
      </trkpt>
    </trkseg>
  </trk>
  <trk>
    <name><![CDATA[mega parcours rouge_7]]></name>
    <trkseg>
      <trkpt lat="47.62615" lon="6.6274">
        <ele>440</ele>
        <time>2020-12-10T18:40:25+01:00</time>
      </trkpt>
      <trkpt lat="47.62586" lon="6.62766">
        <ele>439</ele>
        <time>2020-12-10T18:40:27+01:00</time>
      </trkpt>
      <trkpt lat="47.62607" lon="6.62894">
        <ele>439</ele>
        <time>2020-12-10T18:40:29+01:00</time>
      </trkpt>
      <trkpt lat="47.62476" lon="6.62997">
        <ele>438</ele>
        <time>2020-12-10T18:40:31+01:00</time>
      </trkpt>
      <trkpt lat="47.62413" lon="6.62989">
        <ele>436</ele>
        <time>2020-12-10T18:40:33+01:00</time>
      </trkpt>
      <trkpt lat="47.6228" lon="6.62916">
        <ele>420</ele>
        <time>2020-12-10T18:40:35+01:00</time>
      </trkpt>
      <trkpt lat="47.62262" lon="6.6304">
        <ele>413</ele>
        <time>2020-12-10T18:40:37+01:00</time>
      </trkpt>
      <trkpt lat="47.62358" lon="6.63332">
        <ele>417</ele>
        <time>2020-12-10T18:40:39+01:00</time>
      </trkpt>
      <trkpt lat="47.62393" lon="6.63564">
        <ele>408</ele>
        <time>2020-12-10T18:40:40+01:00</time>
      </trkpt>
      <trkpt lat="47.62381" lon="6.63607">
        <ele>403</ele>
        <time>2020-12-10T18:40:42+01:00</time>
      </trkpt>
      <trkpt lat="47.62352" lon="6.63487">
        <ele>394</ele>
        <time>2020-12-10T18:40:45+01:00</time>
      </trkpt>
      <trkpt lat="47.62251" lon="6.63199">
        <ele>390</ele>
        <time>2020-12-10T18:40:47+01:00</time>
      </trkpt>
      <trkpt lat="47.62199" lon="6.63002">
        <ele>383</ele>
        <time>2020-12-10T18:40:49+01:00</time>
      </trkpt>
      <trkpt lat="47.62219" lon="6.62774">
        <ele>368</ele>
        <time>2020-12-10T18:40:51+01:00</time>
      </trkpt>
      <trkpt lat="47.6232" lon="6.62744">
        <ele>364</ele>
        <time>2020-12-10T18:40:53+01:00</time>
      </trkpt>
      <trkpt lat="47.62271" lon="6.6271">
        <ele>354</ele>
        <time>2020-12-10T18:40:55+01:00</time>
      </trkpt>
      <trkpt lat="47.621" lon="6.6271">
        <ele>329</ele>
        <time>2020-12-10T18:40:57+01:00</time>
      </trkpt>
      <trkpt lat="47.62126" lon="6.62637">
        <ele>329</ele>
        <time>2020-12-10T18:40:59+01:00</time>
      </trkpt>
      <trkpt lat="47.62002" lon="6.62306">
        <ele>330</ele>
        <time>2020-12-10T18:41:02+01:00</time>
      </trkpt>
      <trkpt lat="47.61814" lon="6.62015">
        <ele>329</ele>
        <time>2020-12-10T18:41:04+01:00</time>
      </trkpt>
      <trkpt lat="47.61776" lon="6.61929">
        <ele>329</ele>
        <time>2020-12-10T18:41:06+01:00</time>
      </trkpt>
      <trkpt lat="47.61768" lon="6.6183">
        <ele>328</ele>
        <time>2020-12-10T18:41:09+01:00</time>
      </trkpt>
      <trkpt lat="47.61743" lon="6.6198">
        <ele>321</ele>
      </trkpt>
      <trkpt lat="47.61659" lon="6.61976">
        <ele>319</ele>
      </trkpt>
      <trkpt lat="47.6159" lon="6.61826">
        <ele>320</ele>
      </trkpt>
      <trkpt lat="47.61532" lon="6.61869">
        <ele>325</ele>
      </trkpt>
      <trkpt lat="47.61477" lon="6.61839">
        <ele>336</ele>
      </trkpt>
      <trkpt lat="47.61457" lon="6.61881">
        <ele>333</ele>
      </trkpt>
      <trkpt lat="47.61405" lon="6.61907">
        <ele>337</ele>
      </trkpt>
      <trkpt lat="47.6135" lon="6.62032">
        <ele>345</ele>
      </trkpt>
      <trkpt lat="47.61329" lon="6.61817">
        <ele>358</ele>
      </trkpt>
      <trkpt lat="47.61457" lon="6.61693">
        <ele>363</ele>
      </trkpt>
      <trkpt lat="47.61483" lon="6.61577">
        <ele>372</ele>
      </trkpt>
      <trkpt lat="47.61413" lon="6.61478">
        <ele>403</ele>
      </trkpt>
      <trkpt lat="47.61292" lon="6.60706">
        <ele>403</ele>
      </trkpt>
      <trkpt lat="47.6128" lon="6.60414">
        <ele>413</ele>
      </trkpt>
      <trkpt lat="47.61101" lon="6.6047">
        <ele>416</ele>
      </trkpt>
      <trkpt lat="47.61101" lon="6.60534">
        <ele>419</ele>
      </trkpt>
      <trkpt lat="47.61075" lon="6.60783">
        <ele>428</ele>
      </trkpt>
      <trkpt lat="47.61112" lon="6.60937">
        <ele>432</ele>
      </trkpt>
      <trkpt lat="47.61002" lon="6.60894">
        <ele>427</ele>
      </trkpt>
      <trkpt lat="47.61005" lon="6.60993">
        <ele>430</ele>
      </trkpt>
      <trkpt lat="47.61075" lon="6.61263">
        <ele>439</ele>
      </trkpt>
      <trkpt lat="47.6111" lon="6.61654">
        <ele>439</ele>
      </trkpt>
      <trkpt lat="47.60835" lon="6.61907">
        <ele>434</ele>
      </trkpt>
      <trkpt lat="47.60765" lon="6.62032">
        <ele>431</ele>
        <time>2020-12-10T18:41:11+01:00</time>
      </trkpt>
      <trkpt lat="47.60673" lon="6.62045">
        <ele>431</ele>
        <time>2020-12-10T18:41:13+01:00</time>
      </trkpt>
      <trkpt lat="47.60508" lon="6.61963">
        <ele>430</ele>
        <time>2020-12-10T18:41:16+01:00</time>
      </trkpt>
      <trkpt lat="47.60392" lon="6.62019">
        <ele>425</ele>
        <time>2020-12-10T18:41:18+01:00</time>
      </trkpt>
      <trkpt lat="47.60215" lon="6.6183">
        <ele>410</ele>
        <time>2020-12-10T18:41:21+01:00</time>
      </trkpt>
      <trkpt lat="47.60204" lon="6.61736">
        <ele>406</ele>
        <time>2020-12-10T18:41:23+01:00</time>
      </trkpt>
      <trkpt lat="47.60134" lon="6.61718">
        <ele>401</ele>
        <time>2020-12-10T18:41:26+01:00</time>
      </trkpt>
      <trkpt lat="47.60077" lon="6.6162">
        <ele>396</ele>
        <time>2020-12-10T18:41:28+01:00</time>
      </trkpt>
      <trkpt lat="47.59975" lon="6.61718">
        <ele>391</ele>
        <time>2020-12-10T18:41:31+01:00</time>
      </trkpt>
      <trkpt lat="47.59888" lon="6.6171">
        <ele>400</ele>
        <time>2020-12-10T18:41:34+01:00</time>
      </trkpt>
      <trkpt lat="47.597" lon="6.61916">
        <ele>418</ele>
        <time>2020-12-10T18:41:36+01:00</time>
      </trkpt>
      <trkpt lat="47.59744" lon="6.6204">
        <ele>408</ele>
        <time>2020-12-10T18:41:39+01:00</time>
      </trkpt>
      <trkpt lat="47.59877" lon="6.62109">
        <ele>390</ele>
        <time>2020-12-10T18:41:42+01:00</time>
      </trkpt>
      <trkpt lat="47.60022" lon="6.62225">
        <ele>369</ele>
        <time>2020-12-10T18:41:45+01:00</time>
      </trkpt>
      <trkpt lat="47.60062" lon="6.62401">
        <ele>360</ele>
        <time>2020-12-10T18:41:47+01:00</time>
      </trkpt>
      <trkpt lat="47.60003" lon="6.62482">
        <ele>360</ele>
        <time>2020-12-10T18:41:50+01:00</time>
      </trkpt>
      <trkpt lat="47.60066" lon="6.62503">
        <ele>362.9</ele>
      </trkpt>
      <trkpt lat="47.60066" lon="6.62503">
        <ele>362.9</ele>
      </trkpt>
      <trkpt lat="47.6005" lon="6.62655">
        <ele>359.4</ele>
      </trkpt>
      <trkpt lat="47.6005" lon="6.62655">
        <ele>359.4</ele>
      </trkpt>
      <trkpt lat="47.59969" lon="6.62807">
        <ele>363.2</ele>
      </trkpt>
      <trkpt lat="47.59969" lon="6.62807">
        <ele>363.2</ele>
      </trkpt>
      <trkpt lat="47.60007" lon="6.62871">
        <ele>358.4</ele>
      </trkpt>
      <trkpt lat="47.60007" lon="6.62871">
        <ele>358.4</ele>
      </trkpt>
      <trkpt lat="47.60125" lon="6.62759">
        <ele>347.6</ele>
      </trkpt>
      <trkpt lat="47.60125" lon="6.62759">
        <ele>347.6</ele>
      </trkpt>
      <trkpt lat="47.60196" lon="6.62847">
        <ele>356.8</ele>
      </trkpt>
      <trkpt lat="47.60196" lon="6.62847">
        <ele>356.8</ele>
      </trkpt>
      <trkpt lat="47.60287" lon="6.62975">
        <ele>350.3</ele>
      </trkpt>
      <trkpt lat="47.60287" lon="6.62975">
        <ele>350.3</ele>
      </trkpt>
      <trkpt lat="47.60352" lon="6.63007">
        <ele>342.2</ele>
      </trkpt>
      <trkpt lat="47.60352" lon="6.63007">
        <ele>342.2</ele>
      </trkpt>
    </trkseg>
  </trk>
  <trk>
    <name><![CDATA[mega parcours rouge_8]]></name>
    <trkseg>
      <trkpt lat="47.63254" lon="6.6158">
        <ele>364</ele>
      </trkpt>
      <trkpt lat="47.63254" lon="6.6158">
        <ele>364</ele>
      </trkpt>
      <trkpt lat="47.63331" lon="6.61592">
        <ele>356.1</ele>
      </trkpt>
      <trkpt lat="47.63331" lon="6.61592">
        <ele>356.1</ele>
      </trkpt>
      <trkpt lat="47.63464" lon="6.6205">
        <ele>342.6</ele>
      </trkpt>
      <trkpt lat="47.63464" lon="6.6205">
        <ele>342.6</ele>
      </trkpt>
      <trkpt lat="47.63686" lon="6.62232">
        <ele>329.5</ele>
      </trkpt>
      <trkpt lat="47.63686" lon="6.62232">
        <ele>329.5</ele>
      </trkpt>
      <trkpt lat="47.63792" lon="6.62401">
        <ele>339</ele>
      </trkpt>
      <trkpt lat="47.63792" lon="6.62401">
        <ele>339</ele>
      </trkpt>
      <trkpt lat="47.63911" lon="6.62458">
        <ele>340.9</ele>
      </trkpt>
      <trkpt lat="47.63911" lon="6.62458">
        <ele>340.9</ele>
      </trkpt>
      <trkpt lat="47.64002" lon="6.62673">
        <ele>340.1</ele>
      </trkpt>
      <trkpt lat="47.64002" lon="6.62673">
        <ele>340.1</ele>
      </trkpt>
      <trkpt lat="47.64254" lon="6.62843">
        <ele>350.2</ele>
      </trkpt>
      <trkpt lat="47.64254" lon="6.62843">
        <ele>350.2</ele>
      </trkpt>
      <trkpt lat="47.64498" lon="6.63194">
        <ele>362.7</ele>
      </trkpt>
      <trkpt lat="47.64498" lon="6.63194">
        <ele>362.7</ele>
      </trkpt>
      <trkpt lat="47.6467" lon="6.63285">
        <ele>367.4</ele>
      </trkpt>
      <trkpt lat="47.6467" lon="6.63285">
        <ele>367.4</ele>
      </trkpt>
      <trkpt lat="47.64887" lon="6.63007">
        <ele>405.6</ele>
      </trkpt>
      <trkpt lat="47.64887" lon="6.63007">
        <ele>405.6</ele>
      </trkpt>
      <trkpt lat="47.64819" lon="6.62866">
        <ele>408.4</ele>
      </trkpt>
      <trkpt lat="47.64819" lon="6.62866">
        <ele>408.4</ele>
      </trkpt>
      <trkpt lat="47.64872" lon="6.62232">
        <ele>383.7</ele>
      </trkpt>
      <trkpt lat="47.6503" lon="6.6183">
        <ele>357.3</ele>
      </trkpt>
      <trkpt lat="47.6503" lon="6.6183">
        <ele>357.3</ele>
      </trkpt>
      <trkpt lat="47.65205" lon="6.61983">
        <ele>363.7</ele>
      </trkpt>
      <trkpt lat="47.65205" lon="6.61983">
        <ele>363.7</ele>
      </trkpt>
      <trkpt lat="47.65486" lon="6.61423">
        <ele>355</ele>
      </trkpt>
      <trkpt lat="47.65486" lon="6.61423">
        <ele>355</ele>
      </trkpt>
      <trkpt lat="47.655" lon="6.61428">
        <ele>354.3</ele>
      </trkpt>
      <trkpt lat="47.655" lon="6.61428">
        <ele>354.3</ele>
      </trkpt>
      <trkpt lat="47.65721" lon="6.61005">
        <ele>322.6</ele>
      </trkpt>
      <trkpt lat="47.65721" lon="6.61005">
        <ele>322.6</ele>
      </trkpt>
      <trkpt lat="47.65874" lon="6.61375">
        <ele>323.8</ele>
      </trkpt>
      <trkpt lat="47.65874" lon="6.61375">
        <ele>323.8</ele>
      </trkpt>
      <trkpt lat="47.66215" lon="6.61877">
        <ele>327.2</ele>
      </trkpt>
      <trkpt lat="47.66215" lon="6.61877">
        <ele>327.2</ele>
      </trkpt>
      <trkpt lat="47.66361" lon="6.61983">
        <ele>321</ele>
      </trkpt>
      <trkpt lat="47.66361" lon="6.61983">
        <ele>321</ele>
      </trkpt>
    </trkseg>
  </trk>
  <trk>
    <name><![CDATA[mega parcours rouge_9]]></name>
    <trkseg>
      <trkpt lat="47.59737" lon="6.57694">
        <ele>443.88704413877</ele>
        <time>2000-01-01T00:00:00Z</time>
      </trkpt>
      <trkpt lat="47.59739" lon="6.57672">
        <ele>443.27180345534</ele>
        <time>2000-01-01T00:00:00Z</time>
      </trkpt>
      <trkpt lat="47.59745" lon="6.57683">
        <ele>442.88</ele>
        <time>2000-01-01T00:00:00Z</time>
      </trkpt>
      <trkpt lat="47.59762" lon="6.57714">
        <ele>439.56</ele>
        <time>2000-01-01T00:00:00Z</time>
      </trkpt>
      <trkpt lat="47.59779" lon="6.57745">
        <ele>436.52</ele>
        <time>2000-01-01T00:00:00Z</time>
      </trkpt>
      <trkpt lat="47.59785" lon="6.57755">
        <ele>435.4359904629</ele>
        <time>2000-01-01T00:00:00Z</time>
      </trkpt>
      <trkpt lat="47.59794" lon="6.57778">
        <ele>433.23</ele>
        <time>2000-01-01T00:00:00Z</time>
      </trkpt>
      <trkpt lat="47.59796" lon="6.57784">
        <ele>432.82136573623</ele>
        <time>2000-01-01T00:00:00Z</time>
      </trkpt>
      <trkpt lat="47.59803" lon="6.57806">
        <ele>431.27256415803</ele>
        <time>2000-01-01T00:00:00Z</time>
      </trkpt>
      <trkpt lat="47.59803" lon="6.57815">
        <ele>430.68</ele>
        <time>2000-01-01T00:00:00Z</time>
      </trkpt>
      <trkpt lat="47.59803" lon="6.5784">
        <ele>429.82918555577</ele>
        <time>2000-01-01T00:00:00Z</time>
      </trkpt>
      <trkpt lat="47.59798" lon="6.57853">
        <ele>429.3</ele>
        <time>2000-01-01T00:00:00Z</time>
      </trkpt>
      <trkpt lat="47.59786" lon="6.5788">
        <ele>428.76198408226</ele>
        <time>2000-01-01T00:00:00Z</time>
      </trkpt>
      <trkpt lat="47.59782" lon="6.57898">
        <ele>428.44257432663</ele>
        <time>2000-01-01T00:00:00Z</time>
      </trkpt>
      <trkpt lat="47.5978" lon="6.5792">
        <ele>428.06844449841</ele>
        <time>2000-01-01T00:00:00Z</time>
      </trkpt>
      <trkpt lat="47.5978" lon="6.57927">
        <ele>427.95</ele>
        <time>2000-01-01T00:00:00Z</time>
      </trkpt>
      <trkpt lat="47.5978" lon="6.57967">
        <ele>425.27529169373</ele>
        <time>2000-01-01T00:00:00Z</time>
      </trkpt>
      <trkpt lat="47.59785" lon="6.57996">
        <ele>424.6587788413</ele>
        <time>2000-01-01T00:00:00Z</time>
      </trkpt>
      <trkpt lat="47.59802" lon="6.58039">
        <ele>423.63</ele>
        <time>2000-01-01T00:00:00Z</time>
      </trkpt>
      <trkpt lat="47.59803" lon="6.58041">
        <ele>423.64888933282</ele>
        <time>2000-01-01T00:00:00Z</time>
      </trkpt>
      <trkpt lat="47.59813" lon="6.58079">
        <ele>424.02063093272</ele>
        <time>2000-01-01T00:00:00Z</time>
      </trkpt>
      <trkpt lat="47.5982" lon="6.58116">
        <ele>424.42534747415</ele>
        <time>2000-01-01T00:00:00Z</time>
      </trkpt>
      <trkpt lat="47.59825" lon="6.5815">
        <ele>426.33683890599</ele>
        <time>2000-01-01T00:00:00Z</time>
      </trkpt>
      <trkpt lat="47.59825" lon="6.58154">
        <ele>426.56</ele>
        <time>2000-01-01T00:00:00Z</time>
      </trkpt>
      <trkpt lat="47.59827" lon="6.58173">
        <ele>427.35278025984</ele>
        <time>2000-01-01T00:00:00Z</time>
      </trkpt>
      <trkpt lat="47.59828" lon="6.58194">
        <ele>428.22</ele>
        <time>2000-01-01T00:00:00Z</time>
      </trkpt>
      <trkpt lat="47.59828" lon="6.58208">
        <ele>428.88924972319</ele>
        <time>2000-01-01T00:00:00Z</time>
      </trkpt>
      <trkpt lat="47.5983" lon="6.58234">
        <ele>430.12</ele>
        <time>2000-01-01T00:00:00Z</time>
      </trkpt>
      <trkpt lat="47.59834" lon="6.58271">
        <ele>430.60922637318</ele>
        <time>2000-01-01T00:00:00Z</time>
      </trkpt>
      <trkpt lat="47.59835" lon="6.58273">
        <ele>430.64</ele>
        <time>2000-01-01T00:00:00Z</time>
      </trkpt>
      <trkpt lat="47.59842" lon="6.58309">
        <ele>429.60241649165</ele>
        <time>2000-01-01T00:00:00Z</time>
      </trkpt>
      <trkpt lat="47.59843" lon="6.58311">
        <ele>429.53</ele>
        <time>2000-01-01T00:00:00Z</time>
      </trkpt>
      <trkpt lat="47.59853" lon="6.58342">
        <ele>429.46596008236</ele>
        <time>2000-01-01T00:00:00Z</time>
      </trkpt>
      <trkpt lat="47.59864" lon="6.58385">
        <ele>429.38085443434</ele>
        <time>2000-01-01T00:00:00Z</time>
      </trkpt>
      <trkpt lat="47.59871" lon="6.58423">
        <ele>429.78</ele>
        <time>2000-01-01T00:00:00Z</time>
      </trkpt>
      <trkpt lat="47.59873" lon="6.58432">
        <ele>429.96205088962</ele>
        <time>2000-01-01T00:00:00Z</time>
      </trkpt>
      <trkpt lat="47.59873" lon="6.58463">
        <ele>430.6</ele>
        <time>2000-01-01T00:00:00Z</time>
      </trkpt>
      <trkpt lat="47.59873" lon="6.58484">
        <ele>430.93301076531</ele>
        <time>2000-01-01T00:00:00Z</time>
      </trkpt>
      <trkpt lat="47.59866" lon="6.585">
        <ele>431.24</ele>
        <time>2000-01-01T00:00:00Z</time>
      </trkpt>
      <trkpt lat="47.59855" lon="6.58525">
        <ele>430.34607782901</ele>
        <time>2000-01-01T00:00:00Z</time>
      </trkpt>
      <trkpt lat="47.59844" lon="6.58541">
        <ele>429.65862250163</ele>
        <time>2000-01-01T00:00:00Z</time>
      </trkpt>
      <trkpt lat="47.59834" lon="6.58551">
        <ele>429.12049231868</ele>
        <time>2000-01-01T00:00:00Z</time>
      </trkpt>
      <trkpt lat="47.59829" lon="6.58557">
        <ele>428.83</ele>
        <time>2000-01-01T00:00:00Z</time>
      </trkpt>
      <trkpt lat="47.59823" lon="6.58565">
        <ele>426.99105898378</ele>
        <time>2000-01-01T00:00:00Z</time>
      </trkpt>
      <trkpt lat="47.5982" lon="6.58571">
        <ele>425.83105320895</ele>
        <time>2000-01-01T00:00:00Z</time>
      </trkpt>
      <trkpt lat="47.59809" lon="6.58585">
        <ele>422.44452290261</ele>
        <time>2000-01-01T00:00:00Z</time>
      </trkpt>
      <trkpt lat="47.59786" lon="6.58604">
        <ele>413.84</ele>
        <time>2000-01-01T00:00:00Z</time>
      </trkpt>
      <trkpt lat="47.59785" lon="6.58605">
        <ele>413.44771464311</ele>
        <time>2000-01-01T00:00:00Z</time>
      </trkpt>
      <trkpt lat="47.5978" lon="6.58608">
        <ele>411.39668112677</ele>
        <time>2000-01-01T00:00:00Z</time>
      </trkpt>
      <trkpt lat="47.5977" lon="6.58617">
        <ele>406.94855604782</ele>
        <time>2000-01-01T00:00:00Z</time>
      </trkpt>
      <trkpt lat="47.59762" lon="6.58623">
        <ele>403.57</ele>
        <time>2000-01-01T00:00:00Z</time>
      </trkpt>
      <trkpt lat="47.5975" lon="6.58631">
        <ele>398.80806988931</ele>
        <time>2000-01-01T00:00:00Z</time>
      </trkpt>
      <trkpt lat="47.59737" lon="6.58639">
        <ele>393.85</ele>
        <time>2000-01-01T00:00:00Z</time>
      </trkpt>
      <trkpt lat="47.59712" lon="6.58654">
        <ele>385.18</ele>
        <time>2000-01-01T00:00:00Z</time>
      </trkpt>
      <trkpt lat="47.59687" lon="6.58669">
        <ele>377.39</ele>
        <time>2000-01-01T00:00:00Z</time>
      </trkpt>
      <trkpt lat="47.59681" lon="6.58673">
        <ele>375.41758814921</ele>
        <time>2000-01-01T00:00:00Z</time>
      </trkpt>
      <trkpt lat="47.59661" lon="6.58681">
        <ele>369.40638693812</ele>
        <time>2000-01-01T00:00:00Z</time>
      </trkpt>
      <trkpt lat="47.59648" lon="6.58688">
        <ele>365.44790297218</ele>
        <time>2000-01-01T00:00:00Z</time>
      </trkpt>
      <trkpt lat="47.59636" lon="6.58693">
        <ele>361.82</ele>
        <time>2000-01-01T00:00:00Z</time>
      </trkpt>
      <trkpt lat="47.59633" lon="6.58694">
        <ele>361.15376832357</ele>
        <time>2000-01-01T00:00:00Z</time>
      </trkpt>
      <trkpt lat="47.59609" lon="6.58694">
        <ele>355.53</ele>
        <time>2000-01-01T00:00:00Z</time>
      </trkpt>
      <trkpt lat="47.59605" lon="6.58694">
        <ele>354.93653762909</ele>
        <time>2000-01-01T00:00:00Z</time>
      </trkpt>
      <trkpt lat="47.59596" lon="6.587">
        <ele>353.41661934894</ele>
        <time>2000-01-01T00:00:00Z</time>
      </trkpt>
      <trkpt lat="47.59588" lon="6.58716">
        <ele>351.37</ele>
        <time>2000-01-01T00:00:00Z</time>
      </trkpt>
      <trkpt lat="47.59587" lon="6.58717">
        <ele>351.26082164223</ele>
        <time>2000-01-01T00:00:00Z</time>
      </trkpt>
      <trkpt lat="47.59581" lon="6.58754">
        <ele>349.08</ele>
        <time>2000-01-01T00:00:00Z</time>
      </trkpt>
      <trkpt lat="47.59574" lon="6.58791">
        <ele>349.01300642958</ele>
        <time>2000-01-01T00:00:00Z</time>
      </trkpt>
      <trkpt lat="47.59568" lon="6.58813">
        <ele>348.97152848588</ele>
        <time>2000-01-01T00:00:00Z</time>
      </trkpt>
      <trkpt lat="47.59561" lon="6.58828">
        <ele>348.94</ele>
        <time>2000-01-01T00:00:00Z</time>
      </trkpt>
      <trkpt lat="47.59558" lon="6.58834">
        <ele>349.07979221753</ele>
        <time>2000-01-01T00:00:00Z</time>
      </trkpt>
      <trkpt lat="47.59549" lon="6.58844">
        <ele>349.38376800151</ele>
        <time>2000-01-01T00:00:00Z</time>
      </trkpt>
      <trkpt lat="47.59539" lon="6.58849">
        <ele>349.67</ele>
        <time>2000-01-01T00:00:00Z</time>
      </trkpt>
      <trkpt lat="47.59534" lon="6.58852">
        <ele>349.82652060985</ele>
        <time>2000-01-01T00:00:00Z</time>
      </trkpt>
      <trkpt lat="47.59512" lon="6.58852">
        <ele>350.46</ele>
        <time>2000-01-01T00:00:00Z</time>
      </trkpt>
      <trkpt lat="47.59496" lon="6.58852">
        <ele>351.14985012888</ele>
        <time>2000-01-01T00:00:00Z</time>
      </trkpt>
      <trkpt lat="47.59486" lon="6.58859">
        <ele>351.6</ele>
        <time>2000-01-01T00:00:00Z</time>
      </trkpt>
      <trkpt lat="47.59484" lon="6.5886">
        <ele>351.70705259125</ele>
        <time>2000-01-01T00:00:00Z</time>
      </trkpt>
      <trkpt lat="47.59476" lon="6.58867">
        <ele>352.10601758336</ele>
        <time>2000-01-01T00:00:00Z</time>
      </trkpt>
      <trkpt lat="47.59469" lon="6.58882">
        <ele>352.63437085607</ele>
        <time>2000-01-01T00:00:00Z</time>
      </trkpt>
      <trkpt lat="47.59469" lon="6.58886">
        <ele>352.76</ele>
        <time>2000-01-01T00:00:00Z</time>
      </trkpt>
      <trkpt lat="47.59468" lon="6.58901">
        <ele>353.15696812002</ele>
        <time>2000-01-01T00:00:00Z</time>
      </trkpt>
      <trkpt lat="47.59478" lon="6.5892">
        <ele>353.80691900379</ele>
        <time>2000-01-01T00:00:00Z</time>
      </trkpt>
      <trkpt lat="47.59486" lon="6.58932">
        <ele>354.18772531005</ele>
        <time>2000-01-01T00:00:00Z</time>
      </trkpt>
      <trkpt lat="47.59499" lon="6.58947">
        <ele>354.73</ele>
        <time>2000-01-01T00:00:00Z</time>
      </trkpt>
      <trkpt lat="47.59526" lon="6.58979">
        <ele>355.62624626286</ele>
        <time>2000-01-01T00:00:00Z</time>
      </trkpt>
      <trkpt lat="47.59528" lon="6.58984">
        <ele>355.72785587131</ele>
        <time>2000-01-01T00:00:00Z</time>
      </trkpt>
      <trkpt lat="47.59534" lon="6.5899">
        <ele>355.91542336975</ele>
        <time>2000-01-01T00:00:00Z</time>
      </trkpt>
      <trkpt lat="47.59538" lon="6.59">
        <ele>356.13</ele>
        <time>2000-01-01T00:00:00Z</time>
      </trkpt>
      <trkpt lat="47.59539" lon="6.59002">
        <ele>356.25422989634</ele>
        <time>2000-01-01T00:00:00Z</time>
      </trkpt>
      <trkpt lat="47.5954" lon="6.59012">
        <ele>356.94081893926</ele>
        <time>2000-01-01T00:00:00Z</time>
      </trkpt>
      <trkpt lat="47.59534" lon="6.59017">
        <ele>357.63397070168</ele>
        <time>2000-01-01T00:00:00Z</time>
      </trkpt>
      <trkpt lat="47.59528" lon="6.59019">
        <ele>358.25332066201</ele>
        <time>2000-01-01T00:00:00Z</time>
      </trkpt>
      <trkpt lat="47.59522" lon="6.59019">
        <ele>358.85</ele>
        <time>2000-01-01T00:00:00Z</time>
      </trkpt>
      <trkpt lat="47.59498" lon="6.59019">
        <ele>362.95055727501</ele>
        <time>2000-01-01T00:00:00Z</time>
      </trkpt>
      <trkpt lat="47.59495" lon="6.59021">
        <ele>363.45</ele>
        <time>2000-01-01T00:00:00Z</time>
      </trkpt>
      <trkpt lat="47.59487" lon="6.59026">
        <ele>365.04621554946</ele>
        <time>2000-01-01T00:00:00Z</time>
      </trkpt>
      <trkpt lat="47.59482" lon="6.59035">
        <ele>366.4350585501</ele>
        <time>2000-01-01T00:00:00Z</time>
      </trkpt>
      <trkpt lat="47.59481" lon="6.5905">
        <ele>368.22</ele>
        <time>2000-01-01T00:00:00Z</time>
      </trkpt>
      <trkpt lat="47.59481" lon="6.59058">
        <ele>369.03119440346</ele>
        <time>2000-01-01T00:00:00Z</time>
      </trkpt>
      <trkpt lat="47.59488" lon="6.5908">
        <ele>371.47902879587</ele>
        <time>2000-01-01T00:00:00Z</time>
      </trkpt>
      <trkpt lat="47.59488" lon="6.59088">
        <ele>372.25</ele>
        <time>2000-01-01T00:00:00Z</time>
      </trkpt>
      <trkpt lat="47.59488" lon="6.59104">
        <ele>374.48153512453</ele>
        <time>2000-01-01T00:00:00Z</time>
      </trkpt>
      <trkpt lat="47.59479" lon="6.59113">
        <ele>376.68010039867</ele>
        <time>2000-01-01T00:00:00Z</time>
      </trkpt>
      <trkpt lat="47.59474" lon="6.59115">
        <ele>377.72</ele>
        <time>2000-01-01T00:00:00Z</time>
      </trkpt>
      <trkpt lat="47.59465" lon="6.59118">
        <ele>379.46286185918</ele>
        <time>2000-01-01T00:00:00Z</time>
      </trkpt>
      <trkpt lat="47.59448" lon="6.59127">
        <ele>382.8</ele>
        <time>2000-01-01T00:00:00Z</time>
      </trkpt>
      <trkpt lat="47.59445" lon="6.59129">
        <ele>383.03170338854</ele>
        <time>2000-01-01T00:00:00Z</time>
      </trkpt>
      <trkpt lat="47.59436" lon="6.5913">
        <ele>383.61427667168</ele>
        <time>2000-01-01T00:00:00Z</time>
      </trkpt>
      <trkpt lat="47.59433" lon="6.59132">
        <ele>383.82659544854</ele>
        <time>2000-01-01T00:00:00Z</time>
      </trkpt>
      <trkpt lat="47.5943" lon="6.59144">
        <ele>384.38370091935</ele>
        <time>2000-01-01T00:00:00Z</time>
      </trkpt>
      <trkpt lat="47.59407" lon="6.59131">
        <ele>385.97253271595</ele>
        <time>2000-01-01T00:00:00Z</time>
      </trkpt>
      <trkpt lat="47.59376" lon="6.59119">
        <ele>388.03</ele>
        <time>2000-01-01T00:00:00Z</time>
      </trkpt>
      <trkpt lat="47.5937" lon="6.59116">
        <ele>389.45117994453</ele>
        <time>2000-01-01T00:00:00Z</time>
      </trkpt>
      <trkpt lat="47.5935" lon="6.5911">
        <ele>393.95</ele>
        <time>2000-01-01T00:00:00Z</time>
      </trkpt>
      <trkpt lat="47.59329" lon="6.59103">
        <ele>396.66815739153</ele>
        <time>2000-01-01T00:00:00Z</time>
      </trkpt>
      <trkpt lat="47.59324" lon="6.59099">
        <ele>397.38</ele>
        <time>2000-01-01T00:00:00Z</time>
      </trkpt>
      <trkpt lat="47.593" lon="6.59082">
        <ele>398.05</ele>
        <time>2000-01-01T00:00:00Z</time>
      </trkpt>
      <trkpt lat="47.59283" lon="6.5907">
        <ele>397.50236612841</ele>
        <time>2000-01-01T00:00:00Z</time>
      </trkpt>
      <trkpt lat="47.59275" lon="6.59064">
        <ele>397.25</ele>
        <time>2000-01-01T00:00:00Z</time>
      </trkpt>
      <trkpt lat="47.59251" lon="6.59046">
        <ele>397.1</ele>
        <time>2000-01-01T00:00:00Z</time>
      </trkpt>
      <trkpt lat="47.59227" lon="6.59029">
        <ele>398.41</ele>
        <time>2000-01-01T00:00:00Z</time>
      </trkpt>
      <trkpt lat="47.59203" lon="6.59011">
        <ele>400.72</ele>
        <time>2000-01-01T00:00:00Z</time>
      </trkpt>
      <trkpt lat="47.59179" lon="6.58993">
        <ele>403.61</ele>
        <time>2000-01-01T00:00:00Z</time>
      </trkpt>
      <trkpt lat="47.59155" lon="6.58975">
        <ele>406.65</ele>
        <time>2000-01-01T00:00:00Z</time>
      </trkpt>
      <trkpt lat="47.5914" lon="6.58964">
        <ele>408.740073941</ele>
        <time>2000-01-01T00:00:00Z</time>
      </trkpt>
      <trkpt lat="47.5913" lon="6.58958">
        <ele>410.11</ele>
        <time>2000-01-01T00:00:00Z</time>
      </trkpt>
      <trkpt lat="47.59056" lon="6.58911">
        <ele>413.8</ele>
        <time>2000-01-01T00:00:00Z</time>
      </trkpt>
      <trkpt lat="47.59031" lon="6.58895">
        <ele>418.98</ele>
        <time>2000-01-01T00:00:00Z</time>
      </trkpt>
      <trkpt lat="47.59006" lon="6.58879">
        <ele>425.92</ele>
        <time>2000-01-01T00:00:00Z</time>
      </trkpt>
      <trkpt lat="47.58998" lon="6.58874">
        <ele>428.0066513942</ele>
        <time>2000-01-01T00:00:00Z</time>
      </trkpt>
      <trkpt lat="47.58984" lon="6.58872">
        <ele>431.38124380649</ele>
        <time>2000-01-01T00:00:00Z</time>
      </trkpt>
      <trkpt lat="47.58982" lon="6.58877">
        <ele>432.4</ele>
        <time>2000-01-01T00:00:00Z</time>
      </trkpt>
      <trkpt lat="47.58979" lon="6.58884">
        <ele>432.84757634432</ele>
        <time>2000-01-01T00:00:00Z</time>
      </trkpt>
      <trkpt lat="47.5898" lon="6.58907">
        <ele>434.16845320705</ele>
        <time>2000-01-01T00:00:00Z</time>
      </trkpt>
      <trkpt lat="47.58984" lon="6.58928">
        <ele>435.41904993676</ele>
        <time>2000-01-01T00:00:00Z</time>
      </trkpt>
      <trkpt lat="47.58984" lon="6.58955">
        <ele>436.99</ele>
        <time>2000-01-01T00:00:00Z</time>
      </trkpt>
      <trkpt lat="47.58984" lon="6.58967">
        <ele>438.28069116998</ele>
        <time>2000-01-01T00:00:00Z</time>
      </trkpt>
      <trkpt lat="47.58976" lon="6.58993">
        <ele>441.45</ele>
        <time>2000-01-01T00:00:00Z</time>
      </trkpt>
      <trkpt lat="47.58974" lon="6.59001">
        <ele>442.13148581363</ele>
        <time>2000-01-01T00:00:00Z</time>
      </trkpt>
      <trkpt lat="47.58956" lon="6.59018">
        <ele>444.61</ele>
        <time>2000-01-01T00:00:00Z</time>
      </trkpt>
      <trkpt lat="47.58955" lon="6.59019">
        <ele>444.69484347556</ele>
        <time>2000-01-01T00:00:00Z</time>
      </trkpt>
      <trkpt lat="47.5893" lon="6.59026">
        <ele>446.29</ele>
        <time>2000-01-01T00:00:00Z</time>
      </trkpt>
      <trkpt lat="47.58928" lon="6.59026">
        <ele>446.36845994407</ele>
        <time>2000-01-01T00:00:00Z</time>
      </trkpt>
      <trkpt lat="47.58904" lon="6.59015">
        <ele>447.49</ele>
        <time>2000-01-01T00:00:00Z</time>
      </trkpt>
      <trkpt lat="47.58892" lon="6.5901">
        <ele>447.54254702807</ele>
        <time>2000-01-01T00:00:00Z</time>
      </trkpt>
      <trkpt lat="47.58852" lon="6.58993">
        <ele>447.72</ele>
        <time>2000-01-01T00:00:00Z</time>
      </trkpt>
      <trkpt lat="47.58849" lon="6.58992">
        <ele>447.61092189277</ele>
        <time>2000-01-01T00:00:00Z</time>
      </trkpt>
      <trkpt lat="47.58827" lon="6.58978">
        <ele>446.74</ele>
        <time>2000-01-01T00:00:00Z</time>
      </trkpt>
      <trkpt lat="47.58818" lon="6.58973">
        <ele>446.58983622588</ele>
        <time>2000-01-01T00:00:00Z</time>
      </trkpt>
      <trkpt lat="47.5879" lon="6.58962">
        <ele>446.13401705169</ele>
        <time>2000-01-01T00:00:00Z</time>
      </trkpt>
      <trkpt lat="47.58777" lon="6.58954">
        <ele>445.91252529117</ele>
        <time>2000-01-01T00:00:00Z</time>
      </trkpt>
      <trkpt lat="47.58776" lon="6.58956">
        <ele>445.89</ele>
        <time>2000-01-01T00:00:00Z</time>
      </trkpt>
      <trkpt lat="47.58745" lon="6.59021">
        <ele>445.57</ele>
        <time>2000-01-01T00:00:00Z</time>
      </trkpt>
      <trkpt lat="47.58714" lon="6.59087">
        <ele>445.59</ele>
        <time>2000-01-01T00:00:00Z</time>
      </trkpt>
      <trkpt lat="47.58698" lon="6.59119">
        <ele>446.14</ele>
        <time>2000-01-01T00:00:00Z</time>
      </trkpt>
      <trkpt lat="47.58683" lon="6.59152">
        <ele>446.31</ele>
        <time>2000-01-01T00:00:00Z</time>
      </trkpt>
      <trkpt lat="47.58667" lon="6.59185">
        <ele>445.95</ele>
        <time>2000-01-01T00:00:00Z</time>
      </trkpt>
      <trkpt lat="47.58652" lon="6.59218">
        <ele>445.47</ele>
        <time>2000-01-01T00:00:00Z</time>
      </trkpt>
      <trkpt lat="47.58651" lon="6.59219">
        <ele>445.46053639332</ele>
        <time>2000-01-01T00:00:00Z</time>
      </trkpt>
      <trkpt lat="47.5869" lon="6.5924">
        <ele>445.13022874894</ele>
        <time>2000-01-01T00:00:00Z</time>
      </trkpt>
      <trkpt lat="47.587" lon="6.59247">
        <ele>445.04</ele>
        <time>2000-01-01T00:00:00Z</time>
      </trkpt>
      <trkpt lat="47.58701" lon="6.59248">
        <ele>445.03456265629</ele>
        <time>2000-01-01T00:00:00Z</time>
      </trkpt>
      <trkpt lat="47.58712" lon="6.59259">
        <ele>444.95595907119</ele>
        <time>2000-01-01T00:00:00Z</time>
      </trkpt>
      <trkpt lat="47.58719" lon="6.59261">
        <ele>444.9137264961</ele>
        <time>2000-01-01T00:00:00Z</time>
      </trkpt>
      <trkpt lat="47.58737" lon="6.59261">
        <ele>444.80709037787</ele>
        <time>2000-01-01T00:00:00Z</time>
      </trkpt>
      <trkpt lat="47.58744" lon="6.59258">
        <ele>444.76392306141</ele>
        <time>2000-01-01T00:00:00Z</time>
      </trkpt>
      <trkpt lat="47.58751" lon="6.59257">
        <ele>444.72</ele>
        <time>2000-01-01T00:00:00Z</time>
      </trkpt>
      <trkpt lat="47.58773" lon="6.59252">
        <ele>443.78080438145</ele>
        <time>2000-01-01T00:00:00Z</time>
      </trkpt>
      <trkpt lat="47.58778" lon="6.5925">
        <ele>443.56</ele>
        <time>2000-01-01T00:00:00Z</time>
      </trkpt>
      <trkpt lat="47.588" lon="6.59241">
        <ele>441.68941319411</ele>
        <time>2000-01-01T00:00:00Z</time>
      </trkpt>
      <trkpt lat="47.58804" lon="6.5924">
        <ele>441.35</ele>
        <time>2000-01-01T00:00:00Z</time>
      </trkpt>
      <trkpt lat="47.58841" lon="6.59233">
        <ele>439.15274036127</ele>
        <time>2000-01-01T00:00:00Z</time>
      </trkpt>
      <trkpt lat="47.58858" lon="6.59233">
        <ele>438.16</ele>
        <time>2000-01-01T00:00:00Z</time>
      </trkpt>
      <trkpt lat="47.58873" lon="6.59233">
        <ele>435.1003372359</ele>
        <time>2000-01-01T00:00:00Z</time>
      </trkpt>
      <trkpt lat="47.58882" lon="6.59239">
        <ele>433.11270561855</ele>
        <time>2000-01-01T00:00:00Z</time>
      </trkpt>
      <trkpt lat="47.58883" lon="6.59241">
        <ele>432.72</ele>
        <time>2000-01-01T00:00:00Z</time>
      </trkpt>
      <trkpt lat="47.58889" lon="6.5925">
        <ele>431.2139768986</ele>
        <time>2000-01-01T00:00:00Z</time>
      </trkpt>
      <trkpt lat="47.58894" lon="6.59263">
        <ele>429.37154827764</ele>
        <time>2000-01-01T00:00:00Z</time>
      </trkpt>
      <trkpt lat="47.58894" lon="6.59276">
        <ele>427.79</ele>
        <time>2000-01-01T00:00:00Z</time>
      </trkpt>
      <trkpt lat="47.58894" lon="6.5929">
        <ele>427.16792641856</ele>
        <time>2000-01-01T00:00:00Z</time>
      </trkpt>
      <trkpt lat="47.58888" lon="6.59314">
        <ele>426.04296122004</ele>
        <time>2000-01-01T00:00:00Z</time>
      </trkpt>
      <trkpt lat="47.58875" lon="6.59346">
        <ele>424.40108155289</ele>
        <time>2000-01-01T00:00:00Z</time>
      </trkpt>
      <trkpt lat="47.58874" lon="6.59349">
        <ele>424.27</ele>
        <time>2000-01-01T00:00:00Z</time>
      </trkpt>
      <trkpt lat="47.58871" lon="6.59362">
        <ele>423.61066316</ele>
        <time>2000-01-01T00:00:00Z</time>
      </trkpt>
      <trkpt lat="47.58867" lon="6.59394">
        <ele>422.08680217864</ele>
        <time>2000-01-01T00:00:00Z</time>
      </trkpt>
      <trkpt lat="47.58871" lon="6.59403">
        <ele>421.58212192509</ele>
        <time>2000-01-01T00:00:00Z</time>
      </trkpt>
      <trkpt lat="47.58875" lon="6.59405">
        <ele>421.28905885622</ele>
        <time>2000-01-01T00:00:00Z</time>
      </trkpt>
      <trkpt lat="47.58882" lon="6.59405">
        <ele>420.80308696324</ele>
        <time>2000-01-01T00:00:00Z</time>
      </trkpt>
      <trkpt lat="47.58885" lon="6.59401">
        <ele>420.52</ele>
        <time>2000-01-01T00:00:00Z</time>
      </trkpt>
      <trkpt lat="47.58899" lon="6.59381">
        <ele>417.00818241663</ele>
        <time>2000-01-01T00:00:00Z</time>
      </trkpt>
      <trkpt lat="47.58904" lon="6.59372">
        <ele>415.63</ele>
        <time>2000-01-01T00:00:00Z</time>
      </trkpt>
      <trkpt lat="47.58916" lon="6.5935">
        <ele>412.48715810626</ele>
        <time>2000-01-01T00:00:00Z</time>
      </trkpt>
      <trkpt lat="47.58922" lon="6.59343">
        <ele>411.24</ele>
        <time>2000-01-01T00:00:00Z</time>
      </trkpt>
      <trkpt lat="47.5893" lon="6.59332">
        <ele>409.59571234525</ele>
        <time>2000-01-01T00:00:00Z</time>
      </trkpt>
      <trkpt lat="47.58943" lon="6.59318">
        <ele>407.15</ele>
        <time>2000-01-01T00:00:00Z</time>
      </trkpt>
      <trkpt lat="47.58965" lon="6.59295">
        <ele>404.26</ele>
        <time>2000-01-01T00:00:00Z</time>
      </trkpt>
      <trkpt lat="47.58968" lon="6.59292">
        <ele>403.98067025272</ele>
        <time>2000-01-01T00:00:00Z</time>
      </trkpt>
      <trkpt lat="47.58987" lon="6.59277">
        <ele>402.2352193238</ele>
        <time>2000-01-01T00:00:00Z</time>
      </trkpt>
      <trkpt lat="47.58989" lon="6.59276">
        <ele>402.07</ele>
        <time>2000-01-01T00:00:00Z</time>
      </trkpt>
      <trkpt lat="47.58994" lon="6.59275">
        <ele>401.760842806</ele>
        <time>2000-01-01T00:00:00Z</time>
      </trkpt>
      <trkpt lat="47.59016" lon="6.59276">
        <ele>400.43</ele>
        <time>2000-01-01T00:00:00Z</time>
      </trkpt>
      <trkpt lat="47.5902" lon="6.59276">
        <ele>400.22847642218</ele>
        <time>2000-01-01T00:00:00Z</time>
      </trkpt>
      <trkpt lat="47.59038" lon="6.59286">
        <ele>399.28188615915</ele>
        <time>2000-01-01T00:00:00Z</time>
      </trkpt>
      <trkpt lat="47.59041" lon="6.59289">
        <ele>399.1</ele>
        <time>2000-01-01T00:00:00Z</time>
      </trkpt>
      <trkpt lat="47.59056" lon="6.59301">
        <ele>398.13323991024</ele>
        <time>2000-01-01T00:00:00Z</time>
      </trkpt>
      <trkpt lat="47.59064" lon="6.5931">
        <ele>397.56</ele>
        <time>2000-01-01T00:00:00Z</time>
      </trkpt>
      <trkpt lat="47.59075" lon="6.59323">
        <ele>396.76905133008</ele>
        <time>2000-01-01T00:00:00Z</time>
      </trkpt>
      <trkpt lat="47.59084" lon="6.59337">
        <ele>396.04</ele>
        <time>2000-01-01T00:00:00Z</time>
      </trkpt>
      <trkpt lat="47.59103" lon="6.59366">
        <ele>393.82</ele>
        <time>2000-01-01T00:00:00Z</time>
      </trkpt>
      <trkpt lat="47.59111" lon="6.59378">
        <ele>392.6257544584</ele>
        <time>2000-01-01T00:00:00Z</time>
      </trkpt>
      <trkpt lat="47.59121" lon="6.59389">
        <ele>391.35792785636</ele>
        <time>2000-01-01T00:00:00Z</time>
      </trkpt>
      <trkpt lat="47.59123" lon="6.59392">
        <ele>391.07</ele>
        <time>2000-01-01T00:00:00Z</time>
      </trkpt>
      <trkpt lat="47.59126" lon="6.59397">
        <ele>390.4027040895</ele>
        <time>2000-01-01T00:00:00Z</time>
      </trkpt>
      <trkpt lat="47.59126" lon="6.59403">
        <ele>389.80639229497</ele>
        <time>2000-01-01T00:00:00Z</time>
      </trkpt>
      <trkpt lat="47.59129" lon="6.5943">
        <ele>387.09</ele>
        <time>2000-01-01T00:00:00Z</time>
      </trkpt>
      <trkpt lat="47.59138" lon="6.59509">
        <ele>381.26</ele>
        <time>2000-01-01T00:00:00Z</time>
      </trkpt>
      <trkpt lat="47.59138" lon="6.59514">
        <ele>380.71517798225</ele>
        <time>2000-01-01T00:00:00Z</time>
      </trkpt>
      <trkpt lat="47.59151" lon="6.59543">
        <ele>376.89</ele>
        <time>2000-01-01T00:00:00Z</time>
      </trkpt>
      <trkpt lat="47.59163" lon="6.5957">
        <ele>374.32466069189</ele>
        <time>2000-01-01T00:00:00Z</time>
      </trkpt>
      <trkpt lat="47.59165" lon="6.59577">
        <ele>373.69</ele>
        <time>2000-01-01T00:00:00Z</time>
      </trkpt>
      <trkpt lat="47.5917" lon="6.59591">
        <ele>372.6345407119</ele>
        <time>2000-01-01T00:00:00Z</time>
      </trkpt>
      <trkpt lat="47.5918" lon="6.59611">
        <ele>370.96</ele>
        <time>2000-01-01T00:00:00Z</time>
      </trkpt>
      <trkpt lat="47.59206" lon="6.59663">
        <ele>369.38399907377</ele>
        <time>2000-01-01T00:00:00Z</time>
      </trkpt>
      <trkpt lat="47.5921" lon="6.59676">
        <ele>369.03789304367</ele>
        <time>2000-01-01T00:00:00Z</time>
      </trkpt>
      <trkpt lat="47.59225" lon="6.5971">
        <ele>366.34</ele>
        <time>2000-01-01T00:00:00Z</time>
      </trkpt>
      <trkpt lat="47.59236" lon="6.59734">
        <ele>364.39433208843</ele>
        <time>2000-01-01T00:00:00Z</time>
      </trkpt>
      <trkpt lat="47.59239" lon="6.59744">
        <ele>363.64</ele>
        <time>2000-01-01T00:00:00Z</time>
      </trkpt>
      <trkpt lat="47.59241" lon="6.59751">
        <ele>363.33684192779</ele>
        <time>2000-01-01T00:00:00Z</time>
      </trkpt>
      <trkpt lat="47.59242" lon="6.59764">
        <ele>362.79774896923</ele>
        <time>2000-01-01T00:00:00Z</time>
      </trkpt>
      <trkpt lat="47.59243" lon="6.59784">
        <ele>361.99</ele>
        <time>2000-01-01T00:00:00Z</time>
      </trkpt>
      <trkpt lat="47.59243" lon="6.59793">
        <ele>361.73560678755</ele>
        <time>2000-01-01T00:00:00Z</time>
      </trkpt>
      <trkpt lat="47.59225" lon="6.59807">
        <ele>360.91</ele>
        <time>2000-01-01T00:00:00Z</time>
      </trkpt>
      <trkpt lat="47.59216" lon="6.59813">
        <ele>361.01591949651</ele>
        <time>2000-01-01T00:00:00Z</time>
      </trkpt>
      <trkpt lat="47.59205" lon="6.59818">
        <ele>361.14371887376</ele>
        <time>2000-01-01T00:00:00Z</time>
      </trkpt>
      <trkpt lat="47.59199" lon="6.5982">
        <ele>361.21</ele>
        <time>2000-01-01T00:00:00Z</time>
      </trkpt>
      <trkpt lat="47.59184" lon="6.59824">
        <ele>362.63159354088</ele>
        <time>2000-01-01T00:00:00Z</time>
      </trkpt>
      <trkpt lat="47.59173" lon="6.59829">
        <ele>363.7</ele>
        <time>2000-01-01T00:00:00Z</time>
      </trkpt>
      <trkpt lat="47.59147" lon="6.5984">
        <ele>367.35</ele>
        <time>2000-01-01T00:00:00Z</time>
      </trkpt>
      <trkpt lat="47.59136" lon="6.59844">
        <ele>368.84712452092</ele>
        <time>2000-01-01T00:00:00Z</time>
      </trkpt>
      <trkpt lat="47.59121" lon="6.59848">
        <ele>370.94</ele>
        <time>2000-01-01T00:00:00Z</time>
      </trkpt>
      <trkpt lat="47.59096" lon="6.59855">
        <ele>374.04242304575</ele>
        <time>2000-01-01T00:00:00Z</time>
      </trkpt>
      <trkpt lat="47.59094" lon="6.59857">
        <ele>374.3</ele>
        <time>2000-01-01T00:00:00Z</time>
      </trkpt>
      <trkpt lat="47.59091" lon="6.5986">
        <ele>374.61967665909</ele>
        <time>2000-01-01T00:00:00Z</time>
      </trkpt>
      <trkpt lat="47.59089" lon="6.5986">
        <ele>374.78111189363</ele>
        <time>2000-01-01T00:00:00Z</time>
      </trkpt>
      <trkpt lat="47.5908" lon="6.59888">
        <ele>376.48</ele>
        <time>2000-01-01T00:00:00Z</time>
      </trkpt>
      <trkpt lat="47.59057" lon="6.59962">
        <ele>378.26317976961</ele>
        <time>2000-01-01T00:00:00Z</time>
      </trkpt>
      <trkpt lat="47.59056" lon="6.59975">
        <ele>378.84476701356</ele>
        <time>2000-01-01T00:00:00Z</time>
      </trkpt>
      <trkpt lat="47.59056" lon="6.60001">
        <ele>379.99</ele>
        <time>2000-01-01T00:00:00Z</time>
      </trkpt>
      <trkpt lat="47.59056" lon="6.60024">
        <ele>380.34973323858</ele>
        <time>2000-01-01T00:00:00Z</time>
      </trkpt>
      <trkpt lat="47.5906" lon="6.6004">
        <ele>380.61</ele>
        <time>2000-01-01T00:00:00Z</time>
      </trkpt>
      <trkpt lat="47.59064" lon="6.6006">
        <ele>380.38350511157</ele>
        <time>2000-01-01T00:00:00Z</time>
      </trkpt>
      <trkpt lat="47.59072" lon="6.60075">
        <ele>380.18</ele>
        <time>2000-01-01T00:00:00Z</time>
      </trkpt>
      <trkpt lat="47.59079" lon="6.60088">
        <ele>380.04570406029</ele>
        <time>2000-01-01T00:00:00Z</time>
      </trkpt>
      <trkpt lat="47.59084" lon="6.60094">
        <ele>379.96949133923</ele>
        <time>2000-01-01T00:00:00Z</time>
      </trkpt>
      <trkpt lat="47.5909" lon="6.60099">
        <ele>379.88794238989</ele>
        <time>2000-01-01T00:00:00Z</time>
      </trkpt>
      <trkpt lat="47.59092" lon="6.60099">
        <ele>379.86</ele>
        <time>2000-01-01T00:00:00Z</time>
      </trkpt>
      <trkpt lat="47.59114" lon="6.60103">
        <ele>380.05769305481</ele>
        <time>2000-01-01T00:00:00Z</time>
      </trkpt>
      <trkpt lat="47.59116" lon="6.60105">
        <ele>380.07957647346</ele>
        <time>2000-01-01T00:00:00Z</time>
      </trkpt>
      <trkpt lat="47.59118" lon="6.60149">
        <ele>380.35</ele>
        <time>2000-01-01T00:00:00Z</time>
      </trkpt>
      <trkpt lat="47.5912" lon="6.60189">
        <ele>380.9</ele>
        <time>2000-01-01T00:00:00Z</time>
      </trkpt>
      <trkpt lat="47.59121" lon="6.60211">
        <ele>380.46028337566</ele>
        <time>2000-01-01T00:00:00Z</time>
      </trkpt>
      <trkpt lat="47.59124" lon="6.60229">
        <ele>380.1</ele>
        <time>2000-01-01T00:00:00Z</time>
      </trkpt>
      <trkpt lat="47.59125" lon="6.60234">
        <ele>379.69452718892</ele>
        <time>2000-01-01T00:00:00Z</time>
      </trkpt>
      <trkpt lat="47.5913" lon="6.60251">
        <ele>378.37925879731</ele>
        <time>2000-01-01T00:00:00Z</time>
      </trkpt>
      <trkpt lat="47.59131" lon="6.60254">
        <ele>378.14193629732</ele>
        <time>2000-01-01T00:00:00Z</time>
      </trkpt>
      <trkpt lat="47.59139" lon="6.60251">
        <ele>377.26</ele>
        <time>2000-01-01T00:00:00Z</time>
      </trkpt>
      <trkpt lat="47.59166" lon="6.60243">
        <ele>373.57</ele>
        <time>2000-01-01T00:00:00Z</time>
      </trkpt>
      <trkpt lat="47.59192" lon="6.60235">
        <ele>369.32</ele>
        <time>2000-01-01T00:00:00Z</time>
      </trkpt>
      <trkpt lat="47.59205" lon="6.60231">
        <ele>366.89474938395</ele>
        <time>2000-01-01T00:00:00Z</time>
      </trkpt>
      <trkpt lat="47.59218" lon="6.60226">
        <ele>364.36</ele>
        <time>2000-01-01T00:00:00Z</time>
      </trkpt>
      <trkpt lat="47.59244" lon="6.60215">
        <ele>359.36</ele>
        <time>2000-01-01T00:00:00Z</time>
      </trkpt>
      <trkpt lat="47.59246" lon="6.60214">
        <ele>359.0414323043</ele>
        <time>2000-01-01T00:00:00Z</time>
      </trkpt>
      <trkpt lat="47.59269" lon="6.6021">
        <ele>354.85709921194</ele>
        <time>2000-01-01T00:00:00Z</time>
      </trkpt>
      <trkpt lat="47.59271" lon="6.6021">
        <ele>354.48</ele>
        <time>2000-01-01T00:00:00Z</time>
      </trkpt>
      <trkpt lat="47.59291" lon="6.6021">
        <ele>351.066268451</ele>
        <time>2000-01-01T00:00:00Z</time>
      </trkpt>
      <trkpt lat="47.59298" lon="6.60209">
        <ele>349.85</ele>
        <time>2000-01-01T00:00:00Z</time>
      </trkpt>
      <trkpt lat="47.59302" lon="6.60208">
        <ele>349.18115398866</ele>
        <time>2000-01-01T00:00:00Z</time>
      </trkpt>
      <trkpt lat="47.59325" lon="6.60207">
        <ele>345.32</ele>
        <time>2000-01-01T00:00:00Z</time>
      </trkpt>
      <trkpt lat="47.59344" lon="6.60206">
        <ele>342.31579937166</ele>
        <time>2000-01-01T00:00:00Z</time>
      </trkpt>
      <trkpt lat="47.59352" lon="6.60205">
        <ele>341.05</ele>
        <time>2000-01-01T00:00:00Z</time>
      </trkpt>
      <trkpt lat="47.59374" lon="6.60202">
        <ele>337.66821458286</ele>
        <time>2000-01-01T00:00:00Z</time>
      </trkpt>
      <trkpt lat="47.59379" lon="6.60202">
        <ele>336.92</ele>
        <time>2000-01-01T00:00:00Z</time>
      </trkpt>
      <trkpt lat="47.59389" lon="6.60202">
        <ele>335.66258487977</ele>
        <time>2000-01-01T00:00:00Z</time>
      </trkpt>
      <trkpt lat="47.59398" lon="6.602">
        <ele>334.53040216889</ele>
        <time>2000-01-01T00:00:00Z</time>
      </trkpt>
      <trkpt lat="47.59405" lon="6.60196">
        <ele>333.56</ele>
        <time>2000-01-01T00:00:00Z</time>
      </trkpt>
      <trkpt lat="47.5941" lon="6.60194">
        <ele>333.17641706828</ele>
        <time>2000-01-01T00:00:00Z</time>
      </trkpt>
      <trkpt lat="47.5942" lon="6.60189">
        <ele>332.34412675326</ele>
        <time>2000-01-01T00:00:00Z</time>
      </trkpt>
      <trkpt lat="47.5943" lon="6.60181">
        <ele>331.43</ele>
        <time>2000-01-01T00:00:00Z</time>
      </trkpt>
      <trkpt lat="47.59433" lon="6.60179">
        <ele>331.34631524828</ele>
        <time>2000-01-01T00:00:00Z</time>
      </trkpt>
      <trkpt lat="47.59438" lon="6.60178">
        <ele>331.20807699137</ele>
        <time>2000-01-01T00:00:00Z</time>
      </trkpt>
      <trkpt lat="47.5944" lon="6.60176">
        <ele>331.14198141436</ele>
        <time>2000-01-01T00:00:00Z</time>
      </trkpt>
      <trkpt lat="47.59457" lon="6.60176">
        <ele>330.69</ele>
        <time>2000-01-01T00:00:00Z</time>
      </trkpt>
      <trkpt lat="47.59464" lon="6.60176">
        <ele>330.79002550446</ele>
        <time>2000-01-01T00:00:00Z</time>
      </trkpt>
      <trkpt lat="47.59468" lon="6.60179">
        <ele>330.8497753258</ele>
        <time>2000-01-01T00:00:00Z</time>
      </trkpt>
      <trkpt lat="47.59468" lon="6.60183">
        <ele>330.88573147605</ele>
        <time>2000-01-01T00:00:00Z</time>
      </trkpt>
      <trkpt lat="47.59457" lon="6.60191">
        <ele>331.05</ele>
        <time>2000-01-01T00:00:00Z</time>
      </trkpt>
      <trkpt lat="47.59433" lon="6.60209">
        <ele>332.3</ele>
        <time>2000-01-01T00:00:00Z</time>
      </trkpt>
      <trkpt lat="47.59409" lon="6.60227">
        <ele>335.16</ele>
        <time>2000-01-01T00:00:00Z</time>
      </trkpt>
      <trkpt lat="47.59393" lon="6.60238">
        <ele>337.90010480438</ele>
        <time>2000-01-01T00:00:00Z</time>
      </trkpt>
      <trkpt lat="47.59387" lon="6.60246">
        <ele>339.17581502059</ele>
        <time>2000-01-01T00:00:00Z</time>
      </trkpt>
      <trkpt lat="47.59386" lon="6.60247">
        <ele>339.43</ele>
        <time>2000-01-01T00:00:00Z</time>
      </trkpt>
      <trkpt lat="47.59377" lon="6.60257">
        <ele>341.52980022479</ele>
        <time>2000-01-01T00:00:00Z</time>
      </trkpt>
      <trkpt lat="47.59363" lon="6.60269">
        <ele>344.66</ele>
        <time>2000-01-01T00:00:00Z</time>
      </trkpt>
      <trkpt lat="47.5934" lon="6.60289">
        <ele>350.19</ele>
        <time>2000-01-01T00:00:00Z</time>
      </trkpt>
      <trkpt lat="47.59327" lon="6.603">
        <ele>352.33491108254</ele>
        <time>2000-01-01T00:00:00Z</time>
      </trkpt>
      <trkpt lat="47.59317" lon="6.60312">
        <ele>354.15</ele>
        <time>2000-01-01T00:00:00Z</time>
      </trkpt>
      <trkpt lat="47.59307" lon="6.60324">
        <ele>355.58837301773</ele>
        <time>2000-01-01T00:00:00Z</time>
      </trkpt>
      <trkpt lat="47.59295" lon="6.60334">
        <ele>357.06</ele>
        <time>2000-01-01T00:00:00Z</time>
      </trkpt>
      <trkpt lat="47.59274" lon="6.60353">
        <ele>359.31911539165</ele>
        <time>2000-01-01T00:00:00Z</time>
      </trkpt>
      <trkpt lat="47.59272" lon="6.60354">
        <ele>359.53</ele>
        <time>2000-01-01T00:00:00Z</time>
      </trkpt>
      <trkpt lat="47.5925" lon="6.60365">
        <ele>361.58432332994</ele>
        <time>2000-01-01T00:00:00Z</time>
      </trkpt>
      <trkpt lat="47.59246" lon="6.60368">
        <ele>361.94</ele>
        <time>2000-01-01T00:00:00Z</time>
      </trkpt>
      <trkpt lat="47.59234" lon="6.60377">
        <ele>363.3650128739</ele>
        <time>2000-01-01T00:00:00Z</time>
      </trkpt>
      <trkpt lat="47.59221" lon="6.60382">
        <ele>364.7</ele>
        <time>2000-01-01T00:00:00Z</time>
      </trkpt>
      <trkpt lat="47.59209" lon="6.60387">
        <ele>366.29144763794</ele>
        <time>2000-01-01T00:00:00Z</time>
      </trkpt>
      <trkpt lat="47.59196" lon="6.60395">
        <ele>368.03730332948</ele>
        <time>2000-01-01T00:00:00Z</time>
      </trkpt>
      <trkpt lat="47.59169" lon="6.60399">
        <ele>372.02</ele>
        <time>2000-01-01T00:00:00Z</time>
      </trkpt>
      <trkpt lat="47.59161" lon="6.604">
        <ele>373.38546107122</ele>
        <time>2000-01-01T00:00:00Z</time>
      </trkpt>
      <trkpt lat="47.59143" lon="6.60407">
        <ele>376.6</ele>
        <time>2000-01-01T00:00:00Z</time>
      </trkpt>
      <trkpt lat="47.59139" lon="6.60408">
        <ele>377.18026569216</ele>
        <time>2000-01-01T00:00:00Z</time>
      </trkpt>
      <trkpt lat="47.59131" lon="6.60412">
        <ele>378.50568549024</ele>
        <time>2000-01-01T00:00:00Z</time>
      </trkpt>
      <trkpt lat="47.59125" lon="6.60418">
        <ele>379.64183597619</ele>
        <time>2000-01-01T00:00:00Z</time>
      </trkpt>
      <trkpt lat="47.59124" lon="6.60421">
        <ele>379.99614876742</ele>
        <time>2000-01-01T00:00:00Z</time>
      </trkpt>
      <trkpt lat="47.59122" lon="6.60422">
        <ele>380.32750379451</ele>
        <time>2000-01-01T00:00:00Z</time>
      </trkpt>
      <trkpt lat="47.5912" lon="6.60426">
        <ele>380.84</ele>
        <time>2000-01-01T00:00:00Z</time>
      </trkpt>
      <trkpt lat="47.59115" lon="6.60433">
        <ele>381.17639391871</ele>
        <time>2000-01-01T00:00:00Z</time>
      </trkpt>
      <trkpt lat="47.59105" lon="6.60453">
        <ele>381.99083169898</ele>
        <time>2000-01-01T00:00:00Z</time>
      </trkpt>
      <trkpt lat="47.59104" lon="6.60458">
        <ele>382.15</ele>
        <time>2000-01-01T00:00:00Z</time>
      </trkpt>
      <trkpt lat="47.59099" lon="6.60497">
        <ele>381.91</ele>
        <time>2000-01-01T00:00:00Z</time>
      </trkpt>
      <trkpt lat="47.59097" lon="6.60513">
        <ele>381.71117000093</ele>
        <time>2000-01-01T00:00:00Z</time>
      </trkpt>
      <trkpt lat="47.5909" lon="6.60535">
        <ele>381.41801764432</ele>
        <time>2000-01-01T00:00:00Z</time>
      </trkpt>
      <trkpt lat="47.59082" lon="6.6055">
        <ele>381.34638666325</ele>
        <time>2000-01-01T00:00:00Z</time>
      </trkpt>
      <trkpt lat="47.59073" lon="6.60557">
        <ele>381.28994150633</ele>
        <time>2000-01-01T00:00:00Z</time>
      </trkpt>
      <trkpt lat="47.59066" lon="6.60566">
        <ele>381.23848334908</ele>
        <time>2000-01-01T00:00:00Z</time>
      </trkpt>
      <trkpt lat="47.59063" lon="6.60571">
        <ele>381.21341585297</ele>
        <time>2000-01-01T00:00:00Z</time>
      </trkpt>
      <trkpt lat="47.59061" lon="6.60583">
        <ele>381.16711499487</ele>
        <time>2000-01-01T00:00:00Z</time>
      </trkpt>
      <trkpt lat="47.59057" lon="6.60589">
        <ele>381.13551371693</ele>
        <time>2000-01-01T00:00:00Z</time>
      </trkpt>
      <trkpt lat="47.59055" lon="6.60592">
        <ele>381.12</ele>
        <time>2000-01-01T00:00:00Z</time>
      </trkpt>
      <trkpt lat="47.59047" lon="6.606">
        <ele>381.18436891389</ele>
        <time>2000-01-01T00:00:00Z</time>
      </trkpt>
      <trkpt lat="47.59032" lon="6.60608">
        <ele>381.29061075812</ele>
        <time>2000-01-01T00:00:00Z</time>
      </trkpt>
      <trkpt lat="47.59031" lon="6.60609">
        <ele>381.3</ele>
        <time>2000-01-01T00:00:00Z</time>
      </trkpt>
      <trkpt lat="47.59022" lon="6.60616">
        <ele>381.61327358422</ele>
        <time>2000-01-01T00:00:00Z</time>
      </trkpt>
      <trkpt lat="47.59016" lon="6.60622">
        <ele>381.84104108455</ele>
        <time>2000-01-01T00:00:00Z</time>
      </trkpt>
      <trkpt lat="47.5901" lon="6.60634">
        <ele>382.16785536229</ele>
        <time>2000-01-01T00:00:00Z</time>
      </trkpt>
      <trkpt lat="47.5899" lon="6.6066">
        <ele>384.02</ele>
        <time>2000-01-01T00:00:00Z</time>
      </trkpt>
      <trkpt lat="47.58988" lon="6.60663">
        <ele>384.28067508522</ele>
        <time>2000-01-01T00:00:00Z</time>
      </trkpt>
      <trkpt lat="47.58982" lon="6.60669">
        <ele>384.98273633571</ele>
        <time>2000-01-01T00:00:00Z</time>
      </trkpt>
      <trkpt lat="47.5897" lon="6.60674">
        <ele>386.19193837159</ele>
        <time>2000-01-01T00:00:00Z</time>
      </trkpt>
      <trkpt lat="47.58965" lon="6.60675">
        <ele>386.64</ele>
        <time>2000-01-01T00:00:00Z</time>
      </trkpt>
      <trkpt lat="47.58949" lon="6.60678">
        <ele>388.36845946866</ele>
        <time>2000-01-01T00:00:00Z</time>
      </trkpt>
      <trkpt lat="47.58939" lon="6.60678">
        <ele>389.46</ele>
        <time>2000-01-01T00:00:00Z</time>
      </trkpt>
      <trkpt lat="47.58916" lon="6.60678">
        <ele>392.44023984717</ele>
        <time>2000-01-01T00:00:00Z</time>
      </trkpt>
      <trkpt lat="47.58912" lon="6.60676">
        <ele>393.03</ele>
        <time>2000-01-01T00:00:00Z</time>
      </trkpt>
      <trkpt lat="47.58887" lon="6.60661">
        <ele>397.16</ele>
        <time>2000-01-01T00:00:00Z</time>
      </trkpt>
      <trkpt lat="47.58879" lon="6.60657">
        <ele>398.27334963791</ele>
        <time>2000-01-01T00:00:00Z</time>
      </trkpt>
      <trkpt lat="47.58867" lon="6.60648">
        <ele>400.11069905703</ele>
        <time>2000-01-01T00:00:00Z</time>
      </trkpt>
      <trkpt lat="47.58861" lon="6.60647">
        <ele>400.9346988589</ele>
        <time>2000-01-01T00:00:00Z</time>
      </trkpt>
      <trkpt lat="47.58853" lon="6.60643">
        <ele>402.07569142985</ele>
        <time>2000-01-01T00:00:00Z</time>
      </trkpt>
      <trkpt lat="47.58842" lon="6.60641">
        <ele>403.5734383341</ele>
        <time>2000-01-01T00:00:00Z</time>
      </trkpt>
      <trkpt lat="47.58839" lon="6.60639">
        <ele>404.01797657115</ele>
        <time>2000-01-01T00:00:00Z</time>
      </trkpt>
      <trkpt lat="47.58835" lon="6.60639">
        <ele>404.5</ele>
        <time>2000-01-01T00:00:00Z</time>
      </trkpt>
      <trkpt lat="47.58809" lon="6.60635">
        <ele>408.52</ele>
        <time>2000-01-01T00:00:00Z</time>
      </trkpt>
      <trkpt lat="47.58797" lon="6.60634">
        <ele>410.50616854275</ele>
        <time>2000-01-01T00:00:00Z</time>
      </trkpt>
      <trkpt lat="47.58782" lon="6.60634">
        <ele>413.16</ele>
        <time>2000-01-01T00:00:00Z</time>
      </trkpt>
      <trkpt lat="47.58755" lon="6.60634">
        <ele>417.08</ele>
        <time>2000-01-01T00:00:00Z</time>
      </trkpt>
      <trkpt lat="47.58742" lon="6.60634">
        <ele>417.56308750047</ele>
        <time>2000-01-01T00:00:00Z</time>
      </trkpt>
      <trkpt lat="47.58728" lon="6.60641">
        <ele>418.12</ele>
        <time>2000-01-01T00:00:00Z</time>
      </trkpt>
      <trkpt lat="47.58703" lon="6.60654">
        <ele>417.73</ele>
        <time>2000-01-01T00:00:00Z</time>
      </trkpt>
      <trkpt lat="47.58672" lon="6.6067">
        <ele>417.42803657713</ele>
        <time>2000-01-01T00:00:00Z</time>
      </trkpt>
      <trkpt lat="47.58651" lon="6.6067">
        <ele>417.23</ele>
        <time>2000-01-01T00:00:00Z</time>
      </trkpt>
      <trkpt lat="47.58627" lon="6.6067">
        <ele>418.58476671017</ele>
        <time>2000-01-01T00:00:00Z</time>
      </trkpt>
      <trkpt lat="47.58624" lon="6.60673">
        <ele>418.78</ele>
        <time>2000-01-01T00:00:00Z</time>
      </trkpt>
      <trkpt lat="47.58623" lon="6.60674">
        <ele>418.91382858719</ele>
        <time>2000-01-01T00:00:00Z</time>
      </trkpt>
      <trkpt lat="47.58603" lon="6.60697">
        <ele>421.32</ele>
        <time>2000-01-01T00:00:00Z</time>
      </trkpt>
      <trkpt lat="47.58598" lon="6.60703">
        <ele>421.97208933135</ele>
        <time>2000-01-01T00:00:00Z</time>
      </trkpt>
      <trkpt lat="47.58587" lon="6.60709">
        <ele>423.21327157031</ele>
        <time>2000-01-01T00:00:00Z</time>
      </trkpt>
      <trkpt lat="47.58578" lon="6.6071">
        <ele>424.18</ele>
        <time>2000-01-01T00:00:00Z</time>
      </trkpt>
      <trkpt lat="47.58572" lon="6.60711">
        <ele>424.89816040973</ele>
        <time>2000-01-01T00:00:00Z</time>
      </trkpt>
      <trkpt lat="47.58551" lon="6.60712">
        <ele>427.45</ele>
        <time>2000-01-01T00:00:00Z</time>
      </trkpt>
      <trkpt lat="47.58539" lon="6.60712">
        <ele>428.67364279982</ele>
        <time>2000-01-01T00:00:00Z</time>
      </trkpt>
      <trkpt lat="47.58524" lon="6.60716">
        <ele>430.22</ele>
        <time>2000-01-01T00:00:00Z</time>
      </trkpt>
      <trkpt lat="47.58523" lon="6.60716">
        <ele>430.32420960616</ele>
        <time>2000-01-01T00:00:00Z</time>
      </trkpt>
      <trkpt lat="47.58508" lon="6.60723">
        <ele>431.75074675363</ele>
        <time>2000-01-01T00:00:00Z</time>
      </trkpt>
      <trkpt lat="47.58498" lon="6.60725">
        <ele>432.67</ele>
        <time>2000-01-01T00:00:00Z</time>
      </trkpt>
      <trkpt lat="47.58489" lon="6.60726">
        <ele>433.3744232403</ele>
        <time>2000-01-01T00:00:00Z</time>
      </trkpt>
      <trkpt lat="47.5848" lon="6.6073">
        <ele>434.11194830141</ele>
        <time>2000-01-01T00:00:00Z</time>
      </trkpt>
      <trkpt lat="47.58475" lon="6.6073">
        <ele>434.5044284588</ele>
        <time>2000-01-01T00:00:00Z</time>
      </trkpt>
      <trkpt lat="47.58473" lon="6.60732">
        <ele>434.6937942711</ele>
        <time>2000-01-01T00:00:00Z</time>
      </trkpt>
      <trkpt lat="47.58472" lon="6.60732">
        <ele>434.79</ele>
        <time>2000-01-01T00:00:00Z</time>
      </trkpt>
      <trkpt lat="47.58458" lon="6.60735">
        <ele>434.87240754578</ele>
        <time>2000-01-01T00:00:00Z</time>
      </trkpt>
      <trkpt lat="47.58444" lon="6.60741">
        <ele>434.9587425469</ele>
        <time>2000-01-01T00:00:00Z</time>
      </trkpt>
      <trkpt lat="47.58437" lon="6.60741">
        <ele>435.00021214843</ele>
        <time>2000-01-01T00:00:00Z</time>
      </trkpt>
      <trkpt lat="47.58424" lon="6.60745">
        <ele>435.07886826244</ele>
        <time>2000-01-01T00:00:00Z</time>
      </trkpt>
      <trkpt lat="47.5842" lon="6.60745">
        <ele>435.1025651776</ele>
        <time>2000-01-01T00:00:00Z</time>
      </trkpt>
      <trkpt lat="47.58419" lon="6.60744">
        <ele>435.11</ele>
        <time>2000-01-01T00:00:00Z</time>
      </trkpt>
      <trkpt lat="47.58402" lon="6.60712">
        <ele>434.17</ele>
        <time>2000-01-01T00:00:00Z</time>
      </trkpt>
    </trkseg>
  </trk>
  <trk>
    <name><![CDATA[mega parcours rouge_10]]></name>
    <trkseg>
      <trkpt lat="47.5969" lon="6.58676">
        <ele>379</ele>
        <time>2020-12-10T18:44:12+01:00</time>
      </trkpt>
      <trkpt lat="47.59855" lon="6.58538">
        <ele>420</ele>
        <time>2020-12-10T18:44:16+01:00</time>
      </trkpt>
      <trkpt lat="47.59884" lon="6.58453">
        <ele>415</ele>
        <time>2020-12-10T18:44:20+01:00</time>
      </trkpt>
      <trkpt lat="47.59832" lon="6.58268">
        <ele>431</ele>
        <time>2020-12-10T18:44:24+01:00</time>
      </trkpt>
      <trkpt lat="47.5982" lon="6.58092">
        <ele>416</ele>
        <time>2020-12-10T18:44:28+01:00</time>
      </trkpt>
      <trkpt lat="47.59774" lon="6.57933">
        <ele>420</ele>
        <time>2020-12-10T18:44:33+01:00</time>
      </trkpt>
      <trkpt lat="47.59803" lon="6.57847">
        <ele>402</ele>
        <time>2020-12-10T18:44:37+01:00</time>
      </trkpt>
      <trkpt lat="47.59757" lon="6.57663">
        <ele>441</ele>
        <time>2020-12-10T18:44:41+01:00</time>
      </trkpt>
      <trkpt lat="47.59789" lon="6.57641">
        <ele>439</ele>
        <time>2020-12-10T18:44:45+01:00</time>
      </trkpt>
      <trkpt lat="47.59886" lon="6.57538">
        <ele>432</ele>
        <time>2020-12-10T18:44:49+01:00</time>
      </trkpt>
      <trkpt lat="47.59915" lon="6.57483">
        <ele>426</ele>
        <time>2020-12-10T18:44:53+01:00</time>
      </trkpt>
      <trkpt lat="47.59894" lon="6.57247">
        <ele>404</ele>
        <time>2020-12-10T18:44:58+01:00</time>
      </trkpt>
      <trkpt lat="47.5988" lon="6.57131">
        <ele>391</ele>
        <time>2020-12-10T18:45:02+01:00</time>
      </trkpt>
      <trkpt lat="47.59828" lon="6.56959">
        <ele>388</ele>
        <time>2020-12-10T18:45:06+01:00</time>
      </trkpt>
      <trkpt lat="47.59793" lon="6.56835">
        <ele>389</ele>
        <time>2020-12-10T18:45:11+01:00</time>
      </trkpt>
      <trkpt lat="47.59747" lon="6.56667">
        <ele>389</ele>
        <time>2020-12-10T18:45:15+01:00</time>
      </trkpt>
      <trkpt lat="47.59697" lon="6.56483">
        <ele>384</ele>
        <time>2020-12-10T18:45:19+01:00</time>
      </trkpt>
      <trkpt lat="47.59683" lon="6.56371">
        <ele>375</ele>
        <time>2020-12-10T18:45:24+01:00</time>
      </trkpt>
      <trkpt lat="47.59657" lon="6.56277">
        <ele>368</ele>
        <time>2020-12-10T18:45:28+01:00</time>
      </trkpt>
      <trkpt lat="47.59648" lon="6.56199">
        <ele>363</ele>
        <time>2020-12-10T18:45:33+01:00</time>
      </trkpt>
      <trkpt lat="47.59608" lon="6.56118">
        <ele>360</ele>
        <time>2020-12-10T18:45:37+01:00</time>
      </trkpt>
      <trkpt lat="47.59614" lon="6.56011">
        <ele>354</ele>
        <time>2020-12-10T18:45:42+01:00</time>
      </trkpt>
      <trkpt lat="47.59637" lon="6.55933">
        <ele>353</ele>
        <time>2020-12-10T18:45:46+01:00</time>
      </trkpt>
      <trkpt lat="47.59657" lon="6.55843">
        <ele>350</ele>
        <time>2020-12-10T18:45:51+01:00</time>
      </trkpt>
      <trkpt lat="47.59718" lon="6.55779">
        <ele>349</ele>
        <time>2020-12-10T18:45:55+01:00</time>
      </trkpt>
      <trkpt lat="47.59755" lon="6.55732">
        <ele>349</ele>
        <time>2020-12-10T18:46:00+01:00</time>
      </trkpt>
      <trkpt lat="47.59807" lon="6.55702">
        <ele>350</ele>
        <time>2020-12-10T18:46:04+01:00</time>
      </trkpt>
      <trkpt lat="47.59842" lon="6.55646">
        <ele>352</ele>
        <time>2020-12-10T18:46:09+01:00</time>
      </trkpt>
      <trkpt lat="47.59891" lon="6.55599">
        <ele>351</ele>
        <time>2020-12-10T18:46:14+01:00</time>
      </trkpt>
      <trkpt lat="47.59972" lon="6.55461">
        <ele>354</ele>
        <time>2020-12-10T18:46:18+01:00</time>
      </trkpt>
      <trkpt lat="47.60049" lon="6.55358">
        <ele>360</ele>
        <time>2020-12-10T18:46:23+01:00</time>
      </trkpt>
      <trkpt lat="47.60252" lon="6.55238">
        <ele>365</ele>
        <time>2020-12-10T18:46:28+01:00</time>
      </trkpt>
      <trkpt lat="47.60451" lon="6.55054">
        <ele>363</ele>
        <time>2020-12-10T18:46:33+01:00</time>
      </trkpt>
      <trkpt lat="47.60541" lon="6.54985">
        <ele>365</ele>
        <time>2020-12-10T18:46:37+01:00</time>
      </trkpt>
      <trkpt lat="47.60657" lon="6.54809">
        <ele>362</ele>
        <time>2020-12-10T18:46:42+01:00</time>
      </trkpt>
      <trkpt lat="47.60767" lon="6.54758">
        <ele>349</ele>
        <time>2020-12-10T18:46:47+01:00</time>
      </trkpt>
      <trkpt lat="47.60796" lon="6.5471">
        <ele>341</ele>
        <time>2020-12-10T18:46:52+01:00</time>
      </trkpt>
      <trkpt lat="47.60917" lon="6.54818">
        <ele>322</ele>
        <time>2020-12-10T18:46:57+01:00</time>
      </trkpt>
      <trkpt lat="47.60992" lon="6.54946">
        <ele>311</ele>
        <time>2020-12-10T18:47:02+01:00</time>
      </trkpt>
      <trkpt lat="47.61068" lon="6.54951">
        <ele>301</ele>
        <time>2020-12-10T18:47:07+01:00</time>
      </trkpt>
      <trkpt lat="47.61169" lon="6.54886">
        <ele>294</ele>
        <time>2020-12-10T18:47:12+01:00</time>
      </trkpt>
      <trkpt lat="47.6125" lon="6.54942">
        <ele>289</ele>
        <time>2020-12-10T18:47:17+01:00</time>
      </trkpt>
      <trkpt lat="47.61423" lon="6.54942">
        <ele>291</ele>
        <time>2020-12-10T18:47:22+01:00</time>
      </trkpt>
      <trkpt lat="47.61293" lon="6.5526">
        <ele>292</ele>
        <time>2020-12-10T18:47:27+01:00</time>
      </trkpt>
      <trkpt lat="47.61247" lon="6.55543">
        <ele>296</ele>
        <time>2020-12-10T18:47:32+01:00</time>
      </trkpt>
      <trkpt lat="47.61209" lon="6.55586">
        <ele>294</ele>
        <time>2020-12-10T18:47:37+01:00</time>
      </trkpt>
      <trkpt lat="47.61204" lon="6.55706">
        <ele>313</ele>
        <time>2020-12-10T18:47:42+01:00</time>
      </trkpt>
      <trkpt lat="47.61227" lon="6.55753">
        <ele>322</ele>
        <time>2020-12-10T18:47:47+01:00</time>
      </trkpt>
      <trkpt lat="47.6123" lon="6.5583">
        <ele>328</ele>
        <time>2020-12-10T18:47:52+01:00</time>
      </trkpt>
      <trkpt lat="47.61279" lon="6.55852">
        <ele>333</ele>
        <time>2020-12-10T18:47:57+01:00</time>
      </trkpt>
      <trkpt lat="47.61371" lon="6.55818">
        <ele>340</ele>
        <time>2020-12-10T18:48:03+01:00</time>
      </trkpt>
      <trkpt lat="47.6186" lon="6.55989">
        <ele>357</ele>
        <time>2020-12-10T18:48:08+01:00</time>
      </trkpt>
      <trkpt lat="47.61904" lon="6.558">
        <ele>354</ele>
        <time>2020-12-10T18:48:13+01:00</time>
      </trkpt>
      <trkpt lat="47.61947" lon="6.5571">
        <ele>353</ele>
        <time>2020-12-10T18:48:19+01:00</time>
      </trkpt>
      <trkpt lat="47.61944" lon="6.55646">
        <ele>351</ele>
        <time>2020-12-10T18:48:24+01:00</time>
      </trkpt>
      <trkpt lat="47.61915" lon="6.5544">
        <ele>337</ele>
        <time>2020-12-10T18:48:29+01:00</time>
      </trkpt>
      <trkpt lat="47.61852" lon="6.55401">
        <ele>323</ele>
        <time>2020-12-10T18:48:35+01:00</time>
      </trkpt>
      <trkpt lat="47.61927" lon="6.55054">
        <ele>290</ele>
        <time>2020-12-10T18:48:40+01:00</time>
      </trkpt>
      <trkpt lat="47.61988" lon="6.55131">
        <ele>296</ele>
        <time>2020-12-10T18:48:45+01:00</time>
      </trkpt>
      <trkpt lat="47.62158" lon="6.55208">
        <ele>293</ele>
        <time>2020-12-10T18:48:51+01:00</time>
      </trkpt>
      <trkpt lat="47.62242" lon="6.55367">
        <ele>293</ele>
        <time>2020-12-10T18:48:56+01:00</time>
      </trkpt>
      <trkpt lat="47.62378" lon="6.55504">
        <ele>294</ele>
        <time>2020-12-10T18:49:02+01:00</time>
      </trkpt>
      <trkpt lat="47.62497" lon="6.55564">
        <ele>295</ele>
        <time>2020-12-10T18:49:08+01:00</time>
      </trkpt>
      <trkpt lat="47.62537" lon="6.55629">
        <ele>299</ele>
        <time>2020-12-10T18:49:13+01:00</time>
      </trkpt>
      <trkpt lat="47.62754" lon="6.55586">
        <ele>302</ele>
        <time>2020-12-10T18:49:19+01:00</time>
      </trkpt>
      <trkpt lat="47.62896" lon="6.55607">
        <ele>291</ele>
        <time>2020-12-10T18:49:24+01:00</time>
      </trkpt>
      <trkpt lat="47.62985" lon="6.55513">
        <ele>294</ele>
        <time>2020-12-10T18:49:30+01:00</time>
      </trkpt>
      <trkpt lat="47.62939" lon="6.55376">
        <ele>292</ele>
        <time>2020-12-10T18:49:36+01:00</time>
      </trkpt>
      <trkpt lat="47.62985" lon="6.55255">
        <ele>298</ele>
        <time>2020-12-10T18:49:41+01:00</time>
      </trkpt>
      <trkpt lat="47.62893" lon="6.55075">
        <ele>309</ele>
        <time>2020-12-10T18:49:47+01:00</time>
      </trkpt>
      <trkpt lat="47.62884" lon="6.54938">
        <ele>312</ele>
        <time>2020-12-10T18:49:53+01:00</time>
      </trkpt>
      <trkpt lat="47.62847" lon="6.54637">
        <ele>310</ele>
        <time>2020-12-10T18:49:59+01:00</time>
      </trkpt>
    </trkseg>
  </trk>
  <trk>
    <name><![CDATA[mega parcours rouge_11]]></name>
    <trkseg>
      <trkpt lat="47.59297" lon="6.59079">
        <ele>390</ele>
        <time>2020-12-10T18:43:49+01:00</time>
      </trkpt>
      <trkpt lat="47.59276" lon="6.59062">
        <ele>391</ele>
        <time>2020-12-10T18:43:52+01:00</time>
      </trkpt>
    </trkseg>
  </trk>
</gpx>